<?xml version="1.0" encoding="UTF-8" standalone="no" ?>
<gpx xmlns="http://www.topografix.com/GPX/1/1" xmlns:xsi="http://www.w3.org/2001/XMLSchema-instance" xsi:schemaLocation="http://www.topografix.com/GPX/1/1 http://www.topografix.com/GPX/1/1/gpx.xsd" version="1.1" creator="VisuGPX - https://www.visugpx.com">
  <metadata>
    <name>Tour en Thur prkl</name>
  </metadata>
  <trk>
    <name><![CDATA[7 mai 2023 à 07:01:04]]></name>
    <extensions>
      <line xmlns="http://www.topografix.com/GPX/gpx_style/0/2">
        <color>FF0000</color>
        <width>4</width>
      </line>
    </extensions>
    <trkseg>
      <trkpt lat="47.90263" lon="7.0797">
        <ele>1349</ele>
        <time>2023-05-07T05:01:04Z</time>
      </trkpt>
      <trkpt lat="47.90263" lon="7.0797">
        <ele>1349</ele>
        <time>2023-05-07T05:01:05Z</time>
      </trkpt>
      <trkpt lat="47.90259" lon="7.07954">
        <ele>1347</ele>
        <time>2023-05-07T05:01:20Z</time>
      </trkpt>
      <trkpt lat="47.90258" lon="7.07947">
        <ele>1348</ele>
        <time>2023-05-07T05:01:26Z</time>
      </trkpt>
      <trkpt lat="47.90259" lon="7.07933">
        <ele>1346</ele>
        <time>2023-05-07T05:01:35Z</time>
      </trkpt>
      <trkpt lat="47.90264" lon="7.07922">
        <ele>1344</ele>
        <time>2023-05-07T05:01:44Z</time>
      </trkpt>
      <trkpt lat="47.90265" lon="7.07917">
        <ele>1344</ele>
        <time>2023-05-07T05:01:53Z</time>
      </trkpt>
      <trkpt lat="47.90264" lon="7.07909">
        <ele>1343</ele>
        <time>2023-05-07T05:01:58Z</time>
      </trkpt>
      <trkpt lat="47.90266" lon="7.07902">
        <ele>1343</ele>
        <time>2023-05-07T05:02:02Z</time>
      </trkpt>
      <trkpt lat="47.9027" lon="7.07887">
        <ele>1341</ele>
        <time>2023-05-07T05:02:14Z</time>
      </trkpt>
      <trkpt lat="47.90296" lon="7.07853">
        <ele>1334</ele>
        <time>2023-05-07T05:02:45Z</time>
      </trkpt>
      <trkpt lat="47.90306" lon="7.0784">
        <ele>1332</ele>
        <time>2023-05-07T05:02:58Z</time>
      </trkpt>
      <trkpt lat="47.90311" lon="7.07825">
        <ele>1328</ele>
        <time>2023-05-07T05:03:10Z</time>
      </trkpt>
      <trkpt lat="47.90314" lon="7.07819">
        <ele>1327</ele>
        <time>2023-05-07T05:03:15Z</time>
      </trkpt>
      <trkpt lat="47.90317" lon="7.07811">
        <ele>1325</ele>
        <time>2023-05-07T05:03:24Z</time>
      </trkpt>
      <trkpt lat="47.90325" lon="7.07786">
        <ele>1320</ele>
        <time>2023-05-07T05:03:44Z</time>
      </trkpt>
      <trkpt lat="47.90334" lon="7.07775">
        <ele>1318</ele>
        <time>2023-05-07T05:03:56Z</time>
      </trkpt>
      <trkpt lat="47.90338" lon="7.07765">
        <ele>1317</ele>
        <time>2023-05-07T05:04:05Z</time>
      </trkpt>
      <trkpt lat="47.90353" lon="7.07728">
        <ele>1310</ele>
        <time>2023-05-07T05:04:31Z</time>
      </trkpt>
      <trkpt lat="47.90357" lon="7.07723">
        <ele>1310</ele>
        <time>2023-05-07T05:04:36Z</time>
      </trkpt>
      <trkpt lat="47.90361" lon="7.07718">
        <ele>1310</ele>
        <time>2023-05-07T05:04:40Z</time>
      </trkpt>
      <trkpt lat="47.90362" lon="7.07711">
        <ele>1310</ele>
        <time>2023-05-07T05:04:44Z</time>
      </trkpt>
      <trkpt lat="47.90365" lon="7.07703">
        <ele>1309</ele>
        <time>2023-05-07T05:04:49Z</time>
      </trkpt>
      <trkpt lat="47.90369" lon="7.07701">
        <ele>1308</ele>
        <time>2023-05-07T05:04:53Z</time>
      </trkpt>
      <trkpt lat="47.90372" lon="7.07696">
        <ele>1309</ele>
        <time>2023-05-07T05:04:57Z</time>
      </trkpt>
      <trkpt lat="47.90375" lon="7.07692">
        <ele>1308</ele>
        <time>2023-05-07T05:05:01Z</time>
      </trkpt>
      <trkpt lat="47.90376" lon="7.07684">
        <ele>1307</ele>
        <time>2023-05-07T05:05:07Z</time>
      </trkpt>
      <trkpt lat="47.9038" lon="7.07678">
        <ele>1306</ele>
        <time>2023-05-07T05:05:12Z</time>
      </trkpt>
      <trkpt lat="47.90385" lon="7.07677">
        <ele>1305</ele>
        <time>2023-05-07T05:05:16Z</time>
      </trkpt>
      <trkpt lat="47.9039" lon="7.07675">
        <ele>1306</ele>
        <time>2023-05-07T05:05:20Z</time>
      </trkpt>
      <trkpt lat="47.90394" lon="7.07673">
        <ele>1307</ele>
        <time>2023-05-07T05:05:25Z</time>
      </trkpt>
      <trkpt lat="47.90397" lon="7.07665">
        <ele>1307</ele>
        <time>2023-05-07T05:05:30Z</time>
      </trkpt>
      <trkpt lat="47.90398" lon="7.07659">
        <ele>1306</ele>
        <time>2023-05-07T05:05:33Z</time>
      </trkpt>
      <trkpt lat="47.90403" lon="7.07659">
        <ele>1306</ele>
        <time>2023-05-07T05:05:37Z</time>
      </trkpt>
      <trkpt lat="47.90403" lon="7.07651">
        <ele>1305</ele>
        <time>2023-05-07T05:05:42Z</time>
      </trkpt>
      <trkpt lat="47.90405" lon="7.07645">
        <ele>1304</ele>
        <time>2023-05-07T05:05:46Z</time>
      </trkpt>
      <trkpt lat="47.90408" lon="7.07641">
        <ele>1303</ele>
        <time>2023-05-07T05:05:51Z</time>
      </trkpt>
      <trkpt lat="47.90411" lon="7.07629">
        <ele>1300</ele>
        <time>2023-05-07T05:06:00Z</time>
      </trkpt>
      <trkpt lat="47.90414" lon="7.07624">
        <ele>1299</ele>
        <time>2023-05-07T05:06:04Z</time>
      </trkpt>
      <trkpt lat="47.90418" lon="7.07613">
        <ele>1296</ele>
        <time>2023-05-07T05:06:13Z</time>
      </trkpt>
      <trkpt lat="47.9042" lon="7.07607">
        <ele>1295</ele>
        <time>2023-05-07T05:06:17Z</time>
      </trkpt>
      <trkpt lat="47.90419" lon="7.07599">
        <ele>1295</ele>
        <time>2023-05-07T05:06:20Z</time>
      </trkpt>
      <trkpt lat="47.9042" lon="7.07593">
        <ele>1294</ele>
        <time>2023-05-07T05:06:23Z</time>
      </trkpt>
      <trkpt lat="47.90419" lon="7.07587">
        <ele>1293</ele>
        <time>2023-05-07T05:06:26Z</time>
      </trkpt>
      <trkpt lat="47.9042" lon="7.07579">
        <ele>1292</ele>
        <time>2023-05-07T05:06:30Z</time>
      </trkpt>
      <trkpt lat="47.9042" lon="7.07571">
        <ele>1292</ele>
        <time>2023-05-07T05:06:34Z</time>
      </trkpt>
      <trkpt lat="47.90422" lon="7.07563">
        <ele>1292</ele>
        <time>2023-05-07T05:06:38Z</time>
      </trkpt>
      <trkpt lat="47.90426" lon="7.0755">
        <ele>1292</ele>
        <time>2023-05-07T05:06:47Z</time>
      </trkpt>
      <trkpt lat="47.9043" lon="7.07547">
        <ele>1291</ele>
        <time>2023-05-07T05:06:51Z</time>
      </trkpt>
      <trkpt lat="47.9043" lon="7.07537">
        <ele>1291</ele>
        <time>2023-05-07T05:06:57Z</time>
      </trkpt>
      <trkpt lat="47.90434" lon="7.07524">
        <ele>1290</ele>
        <time>2023-05-07T05:07:04Z</time>
      </trkpt>
      <trkpt lat="47.90436" lon="7.07518">
        <ele>1289</ele>
        <time>2023-05-07T05:07:07Z</time>
      </trkpt>
      <trkpt lat="47.90438" lon="7.07511">
        <ele>1289</ele>
        <time>2023-05-07T05:07:11Z</time>
      </trkpt>
      <trkpt lat="47.90439" lon="7.07504">
        <ele>1289</ele>
        <time>2023-05-07T05:07:15Z</time>
      </trkpt>
      <trkpt lat="47.90441" lon="7.07497">
        <ele>1288</ele>
        <time>2023-05-07T05:07:20Z</time>
      </trkpt>
      <trkpt lat="47.90443" lon="7.07484">
        <ele>1287</ele>
        <time>2023-05-07T05:07:28Z</time>
      </trkpt>
      <trkpt lat="47.90441" lon="7.07478">
        <ele>1286</ele>
        <time>2023-05-07T05:07:31Z</time>
      </trkpt>
      <trkpt lat="47.90442" lon="7.0747">
        <ele>1286</ele>
        <time>2023-05-07T05:07:35Z</time>
      </trkpt>
      <trkpt lat="47.9044" lon="7.07464">
        <ele>1286</ele>
        <time>2023-05-07T05:07:38Z</time>
      </trkpt>
      <trkpt lat="47.90442" lon="7.07458">
        <ele>1286</ele>
        <time>2023-05-07T05:07:40Z</time>
      </trkpt>
      <trkpt lat="47.90443" lon="7.07442">
        <ele>1286</ele>
        <time>2023-05-07T05:07:48Z</time>
      </trkpt>
      <trkpt lat="47.90443" lon="7.07436">
        <ele>1287</ele>
        <time>2023-05-07T05:07:52Z</time>
      </trkpt>
      <trkpt lat="47.90448" lon="7.07421">
        <ele>1288</ele>
        <time>2023-05-07T05:08:02Z</time>
      </trkpt>
      <trkpt lat="47.90451" lon="7.07417">
        <ele>1288</ele>
        <time>2023-05-07T05:08:06Z</time>
      </trkpt>
      <trkpt lat="47.90451" lon="7.07408">
        <ele>1289</ele>
        <time>2023-05-07T05:08:10Z</time>
      </trkpt>
      <trkpt lat="47.90453" lon="7.07377">
        <ele>1289</ele>
        <time>2023-05-07T05:08:26Z</time>
      </trkpt>
      <trkpt lat="47.90454" lon="7.07371">
        <ele>1289</ele>
        <time>2023-05-07T05:08:30Z</time>
      </trkpt>
      <trkpt lat="47.90454" lon="7.07363">
        <ele>1289</ele>
        <time>2023-05-07T05:08:34Z</time>
      </trkpt>
      <trkpt lat="47.90455" lon="7.07356">
        <ele>1289</ele>
        <time>2023-05-07T05:08:38Z</time>
      </trkpt>
      <trkpt lat="47.90458" lon="7.07344">
        <ele>1288</ele>
        <time>2023-05-07T05:08:47Z</time>
      </trkpt>
      <trkpt lat="47.90458" lon="7.07336">
        <ele>1288</ele>
        <time>2023-05-07T05:08:52Z</time>
      </trkpt>
      <trkpt lat="47.90457" lon="7.07328">
        <ele>1287</ele>
        <time>2023-05-07T05:08:57Z</time>
      </trkpt>
      <trkpt lat="47.9046" lon="7.07323">
        <ele>1286</ele>
        <time>2023-05-07T05:09:02Z</time>
      </trkpt>
      <trkpt lat="47.90462" lon="7.07314">
        <ele>1284</ele>
        <time>2023-05-07T05:09:09Z</time>
      </trkpt>
      <trkpt lat="47.9047" lon="7.07304">
        <ele>1283</ele>
        <time>2023-05-07T05:09:20Z</time>
      </trkpt>
      <trkpt lat="47.90471" lon="7.07296">
        <ele>1283</ele>
        <time>2023-05-07T05:09:24Z</time>
      </trkpt>
      <trkpt lat="47.90486" lon="7.0727">
        <ele>1281</ele>
        <time>2023-05-07T05:09:45Z</time>
      </trkpt>
      <trkpt lat="47.9049" lon="7.07264">
        <ele>1281</ele>
        <time>2023-05-07T05:09:49Z</time>
      </trkpt>
      <trkpt lat="47.9049" lon="7.07257">
        <ele>1281</ele>
        <time>2023-05-07T05:09:53Z</time>
      </trkpt>
      <trkpt lat="47.90492" lon="7.0725">
        <ele>1281</ele>
        <time>2023-05-07T05:09:57Z</time>
      </trkpt>
      <trkpt lat="47.90493" lon="7.07244">
        <ele>1281</ele>
        <time>2023-05-07T05:10:01Z</time>
      </trkpt>
      <trkpt lat="47.90492" lon="7.07236">
        <ele>1280</ele>
        <time>2023-05-07T05:10:05Z</time>
      </trkpt>
      <trkpt lat="47.90493" lon="7.0723">
        <ele>1279</ele>
        <time>2023-05-07T05:10:09Z</time>
      </trkpt>
      <trkpt lat="47.90497" lon="7.07226">
        <ele>1279</ele>
        <time>2023-05-07T05:10:12Z</time>
      </trkpt>
      <trkpt lat="47.905" lon="7.07222">
        <ele>1279</ele>
        <time>2023-05-07T05:10:16Z</time>
      </trkpt>
      <trkpt lat="47.90499" lon="7.07216">
        <ele>1278</ele>
        <time>2023-05-07T05:10:20Z</time>
      </trkpt>
      <trkpt lat="47.90502" lon="7.07177">
        <ele>1273</ele>
        <time>2023-05-07T05:10:43Z</time>
      </trkpt>
      <trkpt lat="47.90507" lon="7.07156">
        <ele>1272</ele>
        <time>2023-05-07T05:10:56Z</time>
      </trkpt>
      <trkpt lat="47.90509" lon="7.0715">
        <ele>1272</ele>
        <time>2023-05-07T05:11:00Z</time>
      </trkpt>
      <trkpt lat="47.90508" lon="7.07142">
        <ele>1271</ele>
        <time>2023-05-07T05:11:04Z</time>
      </trkpt>
      <trkpt lat="47.90505" lon="7.07129">
        <ele>1270</ele>
        <time>2023-05-07T05:11:11Z</time>
      </trkpt>
      <trkpt lat="47.90505" lon="7.07115">
        <ele>1268</ele>
        <time>2023-05-07T05:11:19Z</time>
      </trkpt>
      <trkpt lat="47.90507" lon="7.07109">
        <ele>1267</ele>
        <time>2023-05-07T05:11:23Z</time>
      </trkpt>
      <trkpt lat="47.90506" lon="7.07102">
        <ele>1267</ele>
        <time>2023-05-07T05:11:27Z</time>
      </trkpt>
      <trkpt lat="47.90507" lon="7.07095">
        <ele>1266</ele>
        <time>2023-05-07T05:11:32Z</time>
      </trkpt>
      <trkpt lat="47.90511" lon="7.07086">
        <ele>1264</ele>
        <time>2023-05-07T05:11:41Z</time>
      </trkpt>
      <trkpt lat="47.9051" lon="7.07079">
        <ele>1263</ele>
        <time>2023-05-07T05:11:45Z</time>
      </trkpt>
      <trkpt lat="47.90511" lon="7.07057">
        <ele>1260</ele>
        <time>2023-05-07T05:11:57Z</time>
      </trkpt>
      <trkpt lat="47.90516" lon="7.07055">
        <ele>1258</ele>
        <time>2023-05-07T05:12:02Z</time>
      </trkpt>
      <trkpt lat="47.90519" lon="7.07049">
        <ele>1257</ele>
        <time>2023-05-07T05:12:07Z</time>
      </trkpt>
      <trkpt lat="47.90527" lon="7.07041">
        <ele>1255</ele>
        <time>2023-05-07T05:12:16Z</time>
      </trkpt>
      <trkpt lat="47.90532" lon="7.07043">
        <ele>1253</ele>
        <time>2023-05-07T05:12:21Z</time>
      </trkpt>
      <trkpt lat="47.90537" lon="7.07041">
        <ele>1252</ele>
        <time>2023-05-07T05:12:27Z</time>
      </trkpt>
      <trkpt lat="47.90542" lon="7.07035">
        <ele>1250</ele>
        <time>2023-05-07T05:12:33Z</time>
      </trkpt>
      <trkpt lat="47.90542" lon="7.07029">
        <ele>1249</ele>
        <time>2023-05-07T05:12:37Z</time>
      </trkpt>
      <trkpt lat="47.90546" lon="7.07024">
        <ele>1248</ele>
        <time>2023-05-07T05:12:45Z</time>
      </trkpt>
      <trkpt lat="47.90582" lon="7.07007">
        <ele>1235</ele>
        <time>2023-05-07T05:15:23Z</time>
      </trkpt>
      <trkpt lat="47.90591" lon="7.07003">
        <ele>1233</ele>
        <time>2023-05-07T05:15:31Z</time>
      </trkpt>
      <trkpt lat="47.906" lon="7.07002">
        <ele>1232</ele>
        <time>2023-05-07T05:15:39Z</time>
      </trkpt>
      <trkpt lat="47.90621" lon="7.06993">
        <ele>1230</ele>
        <time>2023-05-07T05:15:53Z</time>
      </trkpt>
      <trkpt lat="47.90625" lon="7.06992">
        <ele>1230</ele>
        <time>2023-05-07T05:15:57Z</time>
      </trkpt>
      <trkpt lat="47.90634" lon="7.06989">
        <ele>1228</ele>
        <time>2023-05-07T05:16:05Z</time>
      </trkpt>
      <trkpt lat="47.90638" lon="7.06985">
        <ele>1228</ele>
        <time>2023-05-07T05:16:09Z</time>
      </trkpt>
      <trkpt lat="47.90659" lon="7.06974">
        <ele>1223</ele>
        <time>2023-05-07T05:16:30Z</time>
      </trkpt>
      <trkpt lat="47.90662" lon="7.06971">
        <ele>1222</ele>
        <time>2023-05-07T05:16:34Z</time>
      </trkpt>
      <trkpt lat="47.90667" lon="7.0697">
        <ele>1221</ele>
        <time>2023-05-07T05:16:38Z</time>
      </trkpt>
      <trkpt lat="47.90672" lon="7.06962">
        <ele>1220</ele>
        <time>2023-05-07T05:16:44Z</time>
      </trkpt>
      <trkpt lat="47.90673" lon="7.06956">
        <ele>1219</ele>
        <time>2023-05-07T05:16:48Z</time>
      </trkpt>
      <trkpt lat="47.90695" lon="7.0691">
        <ele>1214</ele>
        <time>2023-05-07T05:17:22Z</time>
      </trkpt>
      <trkpt lat="47.90711" lon="7.06887">
        <ele>1212</ele>
        <time>2023-05-07T05:17:38Z</time>
      </trkpt>
      <trkpt lat="47.90746" lon="7.06855">
        <ele>1207</ele>
        <time>2023-05-07T05:18:09Z</time>
      </trkpt>
      <trkpt lat="47.90779" lon="7.0682">
        <ele>1202</ele>
        <time>2023-05-07T05:18:43Z</time>
      </trkpt>
      <trkpt lat="47.90786" lon="7.0681">
        <ele>1201</ele>
        <time>2023-05-07T05:18:51Z</time>
      </trkpt>
      <trkpt lat="47.90795" lon="7.06803">
        <ele>1201</ele>
        <time>2023-05-07T05:18:59Z</time>
      </trkpt>
      <trkpt lat="47.90812" lon="7.06788">
        <ele>1200</ele>
        <time>2023-05-07T05:19:16Z</time>
      </trkpt>
      <trkpt lat="47.90817" lon="7.06785">
        <ele>1200</ele>
        <time>2023-05-07T05:19:20Z</time>
      </trkpt>
      <trkpt lat="47.90836" lon="7.06762">
        <ele>1199</ele>
        <time>2023-05-07T05:19:40Z</time>
      </trkpt>
      <trkpt lat="47.90841" lon="7.06759">
        <ele>1199</ele>
        <time>2023-05-07T05:19:44Z</time>
      </trkpt>
      <trkpt lat="47.90846" lon="7.0676">
        <ele>1199</ele>
        <time>2023-05-07T05:19:48Z</time>
      </trkpt>
      <trkpt lat="47.9085" lon="7.06762">
        <ele>1199</ele>
        <time>2023-05-07T05:19:52Z</time>
      </trkpt>
      <trkpt lat="47.90854" lon="7.06766">
        <ele>1199</ele>
        <time>2023-05-07T05:19:56Z</time>
      </trkpt>
      <trkpt lat="47.90858" lon="7.06762">
        <ele>1199</ele>
        <time>2023-05-07T05:20:00Z</time>
      </trkpt>
      <trkpt lat="47.90868" lon="7.06747">
        <ele>1199</ele>
        <time>2023-05-07T05:20:12Z</time>
      </trkpt>
      <trkpt lat="47.90888" lon="7.06725">
        <ele>1200</ele>
        <time>2023-05-07T05:20:31Z</time>
      </trkpt>
      <trkpt lat="47.90893" lon="7.06721">
        <ele>1200</ele>
        <time>2023-05-07T05:20:35Z</time>
      </trkpt>
      <trkpt lat="47.90908" lon="7.06712">
        <ele>1200</ele>
        <time>2023-05-07T05:20:47Z</time>
      </trkpt>
      <trkpt lat="47.9092" lon="7.06699">
        <ele>1200</ele>
        <time>2023-05-07T05:20:59Z</time>
      </trkpt>
      <trkpt lat="47.90924" lon="7.06693">
        <ele>1200</ele>
        <time>2023-05-07T05:21:03Z</time>
      </trkpt>
      <trkpt lat="47.90941" lon="7.06675">
        <ele>1200</ele>
        <time>2023-05-07T05:21:19Z</time>
      </trkpt>
      <trkpt lat="47.9095" lon="7.06659">
        <ele>1201</ele>
        <time>2023-05-07T05:21:32Z</time>
      </trkpt>
      <trkpt lat="47.90954" lon="7.06652">
        <ele>1202</ele>
        <time>2023-05-07T05:21:40Z</time>
      </trkpt>
      <trkpt lat="47.90958" lon="7.06648">
        <ele>1202</ele>
        <time>2023-05-07T05:21:44Z</time>
      </trkpt>
      <trkpt lat="47.90966" lon="7.0664">
        <ele>1203</ele>
        <time>2023-05-07T05:21:52Z</time>
      </trkpt>
      <trkpt lat="47.9098" lon="7.06622">
        <ele>1205</ele>
        <time>2023-05-07T05:22:09Z</time>
      </trkpt>
      <trkpt lat="47.90983" lon="7.06616">
        <ele>1206</ele>
        <time>2023-05-07T05:22:13Z</time>
      </trkpt>
      <trkpt lat="47.90999" lon="7.0659">
        <ele>1208</ele>
        <time>2023-05-07T05:22:32Z</time>
      </trkpt>
      <trkpt lat="47.91005" lon="7.06577">
        <ele>1208</ele>
        <time>2023-05-07T05:22:40Z</time>
      </trkpt>
      <trkpt lat="47.91027" lon="7.06535">
        <ele>1208</ele>
        <time>2023-05-07T05:23:11Z</time>
      </trkpt>
      <trkpt lat="47.91037" lon="7.06521">
        <ele>1208</ele>
        <time>2023-05-07T05:23:24Z</time>
      </trkpt>
      <trkpt lat="47.9104" lon="7.06513">
        <ele>1208</ele>
        <time>2023-05-07T05:23:29Z</time>
      </trkpt>
      <trkpt lat="47.91046" lon="7.06503">
        <ele>1208</ele>
        <time>2023-05-07T05:23:36Z</time>
      </trkpt>
      <trkpt lat="47.91049" lon="7.06497">
        <ele>1208</ele>
        <time>2023-05-07T05:23:40Z</time>
      </trkpt>
      <trkpt lat="47.91051" lon="7.06491">
        <ele>1208</ele>
        <time>2023-05-07T05:23:44Z</time>
      </trkpt>
      <trkpt lat="47.91052" lon="7.06484">
        <ele>1208</ele>
        <time>2023-05-07T05:23:48Z</time>
      </trkpt>
      <trkpt lat="47.91056" lon="7.0648">
        <ele>1208</ele>
        <time>2023-05-07T05:23:52Z</time>
      </trkpt>
      <trkpt lat="47.91063" lon="7.06471">
        <ele>1209</ele>
        <time>2023-05-07T05:24:01Z</time>
      </trkpt>
      <trkpt lat="47.91066" lon="7.06463">
        <ele>1209</ele>
        <time>2023-05-07T05:24:08Z</time>
      </trkpt>
      <trkpt lat="47.91068" lon="7.06455">
        <ele>1209</ele>
        <time>2023-05-07T05:24:12Z</time>
      </trkpt>
      <trkpt lat="47.91071" lon="7.0645">
        <ele>1209</ele>
        <time>2023-05-07T05:24:16Z</time>
      </trkpt>
      <trkpt lat="47.91074" lon="7.06444">
        <ele>1209</ele>
        <time>2023-05-07T05:24:20Z</time>
      </trkpt>
      <trkpt lat="47.91078" lon="7.06431">
        <ele>1209</ele>
        <time>2023-05-07T05:24:28Z</time>
      </trkpt>
      <trkpt lat="47.91083" lon="7.06419">
        <ele>1209</ele>
        <time>2023-05-07T05:24:35Z</time>
      </trkpt>
      <trkpt lat="47.9109" lon="7.064">
        <ele>1209</ele>
        <time>2023-05-07T05:24:46Z</time>
      </trkpt>
      <trkpt lat="47.91097" lon="7.0639">
        <ele>1210</ele>
        <time>2023-05-07T05:24:55Z</time>
      </trkpt>
      <trkpt lat="47.91103" lon="7.06371">
        <ele>1211</ele>
        <time>2023-05-07T05:25:06Z</time>
      </trkpt>
      <trkpt lat="47.91105" lon="7.06364">
        <ele>1210</ele>
        <time>2023-05-07T05:25:10Z</time>
      </trkpt>
      <trkpt lat="47.91113" lon="7.06337">
        <ele>1211</ele>
        <time>2023-05-07T05:25:27Z</time>
      </trkpt>
      <trkpt lat="47.91114" lon="7.0633">
        <ele>1211</ele>
        <time>2023-05-07T05:25:31Z</time>
      </trkpt>
      <trkpt lat="47.91114" lon="7.06323">
        <ele>1211</ele>
        <time>2023-05-07T05:25:36Z</time>
      </trkpt>
      <trkpt lat="47.91116" lon="7.06317">
        <ele>1211</ele>
        <time>2023-05-07T05:25:40Z</time>
      </trkpt>
      <trkpt lat="47.91117" lon="7.0631">
        <ele>1211</ele>
        <time>2023-05-07T05:25:44Z</time>
      </trkpt>
      <trkpt lat="47.91115" lon="7.06281">
        <ele>1209</ele>
        <time>2023-05-07T05:26:00Z</time>
      </trkpt>
      <trkpt lat="47.91115" lon="7.06275">
        <ele>1209</ele>
        <time>2023-05-07T05:26:05Z</time>
      </trkpt>
      <trkpt lat="47.91116" lon="7.06267">
        <ele>1210</ele>
        <time>2023-05-07T05:26:10Z</time>
      </trkpt>
      <trkpt lat="47.91116" lon="7.0626">
        <ele>1210</ele>
        <time>2023-05-07T05:26:14Z</time>
      </trkpt>
      <trkpt lat="47.91117" lon="7.06253">
        <ele>1209</ele>
        <time>2023-05-07T05:26:18Z</time>
      </trkpt>
      <trkpt lat="47.91119" lon="7.06232">
        <ele>1209</ele>
        <time>2023-05-07T05:26:29Z</time>
      </trkpt>
      <trkpt lat="47.9112" lon="7.06225">
        <ele>1209</ele>
        <time>2023-05-07T05:26:33Z</time>
      </trkpt>
      <trkpt lat="47.91123" lon="7.06218">
        <ele>1209</ele>
        <time>2023-05-07T05:26:37Z</time>
      </trkpt>
      <trkpt lat="47.91123" lon="7.0621">
        <ele>1209</ele>
        <time>2023-05-07T05:26:41Z</time>
      </trkpt>
      <trkpt lat="47.91124" lon="7.06203">
        <ele>1209</ele>
        <time>2023-05-07T05:26:44Z</time>
      </trkpt>
      <trkpt lat="47.91127" lon="7.06198">
        <ele>1209</ele>
        <time>2023-05-07T05:26:48Z</time>
      </trkpt>
      <trkpt lat="47.91128" lon="7.06191">
        <ele>1209</ele>
        <time>2023-05-07T05:26:52Z</time>
      </trkpt>
      <trkpt lat="47.91134" lon="7.06158">
        <ele>1209</ele>
        <time>2023-05-07T05:27:12Z</time>
      </trkpt>
      <trkpt lat="47.91135" lon="7.0615">
        <ele>1208</ele>
        <time>2023-05-07T05:27:15Z</time>
      </trkpt>
      <trkpt lat="47.91136" lon="7.06144">
        <ele>1208</ele>
        <time>2023-05-07T05:27:18Z</time>
      </trkpt>
      <trkpt lat="47.91141" lon="7.06133">
        <ele>1208</ele>
        <time>2023-05-07T05:27:26Z</time>
      </trkpt>
      <trkpt lat="47.91145" lon="7.06114">
        <ele>1209</ele>
        <time>2023-05-07T05:27:37Z</time>
      </trkpt>
      <trkpt lat="47.91146" lon="7.06107">
        <ele>1209</ele>
        <time>2023-05-07T05:27:42Z</time>
      </trkpt>
      <trkpt lat="47.91149" lon="7.06092">
        <ele>1208</ele>
        <time>2023-05-07T05:27:50Z</time>
      </trkpt>
      <trkpt lat="47.91151" lon="7.06086">
        <ele>1208</ele>
        <time>2023-05-07T05:27:54Z</time>
      </trkpt>
      <trkpt lat="47.91153" lon="7.06079">
        <ele>1208</ele>
        <time>2023-05-07T05:27:58Z</time>
      </trkpt>
      <trkpt lat="47.91155" lon="7.06073">
        <ele>1208</ele>
        <time>2023-05-07T05:28:03Z</time>
      </trkpt>
      <trkpt lat="47.91158" lon="7.06063">
        <ele>1207</ele>
        <time>2023-05-07T05:28:15Z</time>
      </trkpt>
      <trkpt lat="47.91156" lon="7.06019">
        <ele>1206</ele>
        <time>2023-05-07T05:28:37Z</time>
      </trkpt>
      <trkpt lat="47.91157" lon="7.06012">
        <ele>1205</ele>
        <time>2023-05-07T05:28:40Z</time>
      </trkpt>
      <trkpt lat="47.91154" lon="7.06005">
        <ele>1205</ele>
        <time>2023-05-07T05:28:46Z</time>
      </trkpt>
      <trkpt lat="47.91149" lon="7.0598">
        <ele>1205</ele>
        <time>2023-05-07T05:29:02Z</time>
      </trkpt>
      <trkpt lat="47.91147" lon="7.05966">
        <ele>1206</ele>
        <time>2023-05-07T05:29:12Z</time>
      </trkpt>
      <trkpt lat="47.91142" lon="7.05952">
        <ele>1207</ele>
        <time>2023-05-07T05:29:20Z</time>
      </trkpt>
      <trkpt lat="47.91137" lon="7.05931">
        <ele>1208</ele>
        <time>2023-05-07T05:29:33Z</time>
      </trkpt>
      <trkpt lat="47.91121" lon="7.0589">
        <ele>1213</ele>
        <time>2023-05-07T05:30:08Z</time>
      </trkpt>
      <trkpt lat="47.91116" lon="7.05883">
        <ele>1215</ele>
        <time>2023-05-07T05:30:16Z</time>
      </trkpt>
      <trkpt lat="47.91109" lon="7.05869">
        <ele>1216</ele>
        <time>2023-05-07T05:30:28Z</time>
      </trkpt>
      <trkpt lat="47.91105" lon="7.05864">
        <ele>1216</ele>
        <time>2023-05-07T05:30:32Z</time>
      </trkpt>
      <trkpt lat="47.91103" lon="7.05856">
        <ele>1216</ele>
        <time>2023-05-07T05:30:38Z</time>
      </trkpt>
      <trkpt lat="47.911" lon="7.05848">
        <ele>1216</ele>
        <time>2023-05-07T05:30:43Z</time>
      </trkpt>
      <trkpt lat="47.91098" lon="7.05841">
        <ele>1215</ele>
        <time>2023-05-07T05:30:46Z</time>
      </trkpt>
      <trkpt lat="47.91098" lon="7.05834">
        <ele>1215</ele>
        <time>2023-05-07T05:30:50Z</time>
      </trkpt>
      <trkpt lat="47.911" lon="7.05812">
        <ele>1215</ele>
        <time>2023-05-07T05:31:02Z</time>
      </trkpt>
      <trkpt lat="47.91098" lon="7.05798">
        <ele>1215</ele>
        <time>2023-05-07T05:31:09Z</time>
      </trkpt>
      <trkpt lat="47.91096" lon="7.05786">
        <ele>1217</ele>
        <time>2023-05-07T05:31:20Z</time>
      </trkpt>
      <trkpt lat="47.91094" lon="7.05781">
        <ele>1217</ele>
        <time>2023-05-07T05:31:23Z</time>
      </trkpt>
      <trkpt lat="47.91091" lon="7.05764">
        <ele>1216</ele>
        <time>2023-05-07T05:31:34Z</time>
      </trkpt>
      <trkpt lat="47.91087" lon="7.0576">
        <ele>1216</ele>
        <time>2023-05-07T05:31:38Z</time>
      </trkpt>
      <trkpt lat="47.91087" lon="7.05752">
        <ele>1214</ele>
        <time>2023-05-07T05:31:43Z</time>
      </trkpt>
      <trkpt lat="47.91087" lon="7.05745">
        <ele>1214</ele>
        <time>2023-05-07T05:31:46Z</time>
      </trkpt>
      <trkpt lat="47.91087" lon="7.05738">
        <ele>1214</ele>
        <time>2023-05-07T05:31:50Z</time>
      </trkpt>
      <trkpt lat="47.91086" lon="7.05731">
        <ele>1214</ele>
        <time>2023-05-07T05:31:55Z</time>
      </trkpt>
      <trkpt lat="47.91085" lon="7.05724">
        <ele>1214</ele>
        <time>2023-05-07T05:31:59Z</time>
      </trkpt>
      <trkpt lat="47.91083" lon="7.05718">
        <ele>1214</ele>
        <time>2023-05-07T05:32:03Z</time>
      </trkpt>
      <trkpt lat="47.91081" lon="7.0571">
        <ele>1216</ele>
        <time>2023-05-07T05:32:08Z</time>
      </trkpt>
      <trkpt lat="47.9108" lon="7.05703">
        <ele>1215</ele>
        <time>2023-05-07T05:32:12Z</time>
      </trkpt>
      <trkpt lat="47.91081" lon="7.05696">
        <ele>1215</ele>
        <time>2023-05-07T05:32:16Z</time>
      </trkpt>
      <trkpt lat="47.91082" lon="7.05686">
        <ele>1216</ele>
        <time>2023-05-07T05:32:22Z</time>
      </trkpt>
      <trkpt lat="47.91082" lon="7.05679">
        <ele>1216</ele>
        <time>2023-05-07T05:32:26Z</time>
      </trkpt>
      <trkpt lat="47.9108" lon="7.05671">
        <ele>1216</ele>
        <time>2023-05-07T05:32:32Z</time>
      </trkpt>
      <trkpt lat="47.91082" lon="7.05664">
        <ele>1216</ele>
        <time>2023-05-07T05:32:36Z</time>
      </trkpt>
      <trkpt lat="47.91083" lon="7.05656">
        <ele>1216</ele>
        <time>2023-05-07T05:32:41Z</time>
      </trkpt>
      <trkpt lat="47.91082" lon="7.0565">
        <ele>1216</ele>
        <time>2023-05-07T05:32:45Z</time>
      </trkpt>
      <trkpt lat="47.91081" lon="7.05639">
        <ele>1216</ele>
        <time>2023-05-07T05:32:51Z</time>
      </trkpt>
      <trkpt lat="47.9108" lon="7.05632">
        <ele>1216</ele>
        <time>2023-05-07T05:32:56Z</time>
      </trkpt>
      <trkpt lat="47.91081" lon="7.0561">
        <ele>1216</ele>
        <time>2023-05-07T05:33:07Z</time>
      </trkpt>
      <trkpt lat="47.91085" lon="7.05576">
        <ele>1214</ele>
        <time>2023-05-07T05:33:24Z</time>
      </trkpt>
      <trkpt lat="47.91084" lon="7.05568">
        <ele>1213</ele>
        <time>2023-05-07T05:33:28Z</time>
      </trkpt>
      <trkpt lat="47.91082" lon="7.05531">
        <ele>1213</ele>
        <time>2023-05-07T05:33:47Z</time>
      </trkpt>
      <trkpt lat="47.91083" lon="7.05524">
        <ele>1213</ele>
        <time>2023-05-07T05:33:51Z</time>
      </trkpt>
      <trkpt lat="47.91082" lon="7.05507">
        <ele>1214</ele>
        <time>2023-05-07T05:34:04Z</time>
      </trkpt>
      <trkpt lat="47.91078" lon="7.0549">
        <ele>1215</ele>
        <time>2023-05-07T05:34:13Z</time>
      </trkpt>
      <trkpt lat="47.91078" lon="7.05476">
        <ele>1215</ele>
        <time>2023-05-07T05:34:21Z</time>
      </trkpt>
      <trkpt lat="47.91076" lon="7.05468">
        <ele>1214</ele>
        <time>2023-05-07T05:34:25Z</time>
      </trkpt>
      <trkpt lat="47.91077" lon="7.05454">
        <ele>1214</ele>
        <time>2023-05-07T05:34:34Z</time>
      </trkpt>
      <trkpt lat="47.91074" lon="7.05425">
        <ele>1210</ele>
        <time>2023-05-07T05:34:51Z</time>
      </trkpt>
      <trkpt lat="47.91075" lon="7.05418">
        <ele>1209</ele>
        <time>2023-05-07T05:34:56Z</time>
      </trkpt>
      <trkpt lat="47.91073" lon="7.05404">
        <ele>1208</ele>
        <time>2023-05-07T05:35:04Z</time>
      </trkpt>
      <trkpt lat="47.91075" lon="7.05397">
        <ele>1207</ele>
        <time>2023-05-07T05:35:08Z</time>
      </trkpt>
      <trkpt lat="47.91075" lon="7.05391">
        <ele>1206</ele>
        <time>2023-05-07T05:35:12Z</time>
      </trkpt>
      <trkpt lat="47.9107" lon="7.05369">
        <ele>1204</ele>
        <time>2023-05-07T05:35:25Z</time>
      </trkpt>
      <trkpt lat="47.91067" lon="7.05335">
        <ele>1201</ele>
        <time>2023-05-07T05:35:46Z</time>
      </trkpt>
      <trkpt lat="47.91073" lon="7.05323">
        <ele>1199</ele>
        <time>2023-05-07T05:35:56Z</time>
      </trkpt>
      <trkpt lat="47.91072" lon="7.05317">
        <ele>1198</ele>
        <time>2023-05-07T05:36:00Z</time>
      </trkpt>
      <trkpt lat="47.9107" lon="7.0531">
        <ele>1197</ele>
        <time>2023-05-07T05:36:06Z</time>
      </trkpt>
      <trkpt lat="47.91071" lon="7.05295">
        <ele>1195</ele>
        <time>2023-05-07T05:36:15Z</time>
      </trkpt>
      <trkpt lat="47.91069" lon="7.0529">
        <ele>1194</ele>
        <time>2023-05-07T05:36:19Z</time>
      </trkpt>
      <trkpt lat="47.91066" lon="7.05284">
        <ele>1193</ele>
        <time>2023-05-07T05:36:23Z</time>
      </trkpt>
      <trkpt lat="47.91064" lon="7.05276">
        <ele>1192</ele>
        <time>2023-05-07T05:36:27Z</time>
      </trkpt>
      <trkpt lat="47.91063" lon="7.05269">
        <ele>1191</ele>
        <time>2023-05-07T05:36:30Z</time>
      </trkpt>
      <trkpt lat="47.91065" lon="7.05247">
        <ele>1190</ele>
        <time>2023-05-07T05:36:41Z</time>
      </trkpt>
      <trkpt lat="47.91063" lon="7.05216">
        <ele>1188</ele>
        <time>2023-05-07T05:36:57Z</time>
      </trkpt>
      <trkpt lat="47.91064" lon="7.05193">
        <ele>1188</ele>
        <time>2023-05-07T05:37:08Z</time>
      </trkpt>
      <trkpt lat="47.91068" lon="7.05143">
        <ele>1192</ele>
        <time>2023-05-07T05:37:40Z</time>
      </trkpt>
      <trkpt lat="47.91071" lon="7.05093">
        <ele>1196</ele>
        <time>2023-05-07T05:38:13Z</time>
      </trkpt>
      <trkpt lat="47.91073" lon="7.05079">
        <ele>1196</ele>
        <time>2023-05-07T05:38:21Z</time>
      </trkpt>
      <trkpt lat="47.91079" lon="7.05069">
        <ele>1197</ele>
        <time>2023-05-07T05:38:31Z</time>
      </trkpt>
      <trkpt lat="47.91082" lon="7.05062">
        <ele>1196</ele>
        <time>2023-05-07T05:38:36Z</time>
      </trkpt>
      <trkpt lat="47.91101" lon="7.05039">
        <ele>1195</ele>
        <time>2023-05-07T05:38:54Z</time>
      </trkpt>
      <trkpt lat="47.91107" lon="7.05035">
        <ele>1194</ele>
        <time>2023-05-07T05:39:01Z</time>
      </trkpt>
      <trkpt lat="47.91112" lon="7.05023">
        <ele>1193</ele>
        <time>2023-05-07T05:39:09Z</time>
      </trkpt>
      <trkpt lat="47.91114" lon="7.05016">
        <ele>1192</ele>
        <time>2023-05-07T05:39:13Z</time>
      </trkpt>
      <trkpt lat="47.91119" lon="7.05015">
        <ele>1191</ele>
        <time>2023-05-07T05:39:17Z</time>
      </trkpt>
      <trkpt lat="47.91122" lon="7.05011">
        <ele>1191</ele>
        <time>2023-05-07T05:39:21Z</time>
      </trkpt>
      <trkpt lat="47.91133" lon="7.04995">
        <ele>1188</ele>
        <time>2023-05-07T05:39:33Z</time>
      </trkpt>
      <trkpt lat="47.91141" lon="7.04985">
        <ele>1187</ele>
        <time>2023-05-07T05:39:41Z</time>
      </trkpt>
      <trkpt lat="47.91151" lon="7.04969">
        <ele>1185</ele>
        <time>2023-05-07T05:39:51Z</time>
      </trkpt>
      <trkpt lat="47.91155" lon="7.04966">
        <ele>1185</ele>
        <time>2023-05-07T05:39:55Z</time>
      </trkpt>
      <trkpt lat="47.91162" lon="7.04954">
        <ele>1184</ele>
        <time>2023-05-07T05:40:03Z</time>
      </trkpt>
      <trkpt lat="47.91167" lon="7.04951">
        <ele>1184</ele>
        <time>2023-05-07T05:40:07Z</time>
      </trkpt>
      <trkpt lat="47.91178" lon="7.04934">
        <ele>1182</ele>
        <time>2023-05-07T05:40:20Z</time>
      </trkpt>
      <trkpt lat="47.91183" lon="7.04931">
        <ele>1182</ele>
        <time>2023-05-07T05:40:24Z</time>
      </trkpt>
      <trkpt lat="47.91192" lon="7.04927">
        <ele>1182</ele>
        <time>2023-05-07T05:40:31Z</time>
      </trkpt>
      <trkpt lat="47.91195" lon="7.04921">
        <ele>1182</ele>
        <time>2023-05-07T05:40:35Z</time>
      </trkpt>
      <trkpt lat="47.91195" lon="7.04915">
        <ele>1182</ele>
        <time>2023-05-07T05:40:39Z</time>
      </trkpt>
      <trkpt lat="47.91213" lon="7.04886">
        <ele>1182</ele>
        <time>2023-05-07T05:41:06Z</time>
      </trkpt>
      <trkpt lat="47.91217" lon="7.04881">
        <ele>1183</ele>
        <time>2023-05-07T05:41:10Z</time>
      </trkpt>
      <trkpt lat="47.91223" lon="7.0487">
        <ele>1184</ele>
        <time>2023-05-07T05:41:18Z</time>
      </trkpt>
      <trkpt lat="47.91227" lon="7.04866">
        <ele>1184</ele>
        <time>2023-05-07T05:41:23Z</time>
      </trkpt>
      <trkpt lat="47.91244" lon="7.04843">
        <ele>1185</ele>
        <time>2023-05-07T05:41:44Z</time>
      </trkpt>
      <trkpt lat="47.91249" lon="7.04836">
        <ele>1185</ele>
        <time>2023-05-07T05:41:53Z</time>
      </trkpt>
      <trkpt lat="47.91253" lon="7.04832">
        <ele>1185</ele>
        <time>2023-05-07T05:41:56Z</time>
      </trkpt>
      <trkpt lat="47.91255" lon="7.04825">
        <ele>1185</ele>
        <time>2023-05-07T05:42:00Z</time>
      </trkpt>
      <trkpt lat="47.9126" lon="7.04809">
        <ele>1185</ele>
        <time>2023-05-07T05:42:12Z</time>
      </trkpt>
      <trkpt lat="47.91271" lon="7.04761">
        <ele>1190</ele>
        <time>2023-05-07T05:42:49Z</time>
      </trkpt>
      <trkpt lat="47.91273" lon="7.04756">
        <ele>1191</ele>
        <time>2023-05-07T05:42:55Z</time>
      </trkpt>
      <trkpt lat="47.91278" lon="7.04737">
        <ele>1194</ele>
        <time>2023-05-07T05:43:15Z</time>
      </trkpt>
      <trkpt lat="47.9129" lon="7.04705">
        <ele>1198</ele>
        <time>2023-05-07T05:43:44Z</time>
      </trkpt>
      <trkpt lat="47.91295" lon="7.04689">
        <ele>1198</ele>
        <time>2023-05-07T05:43:57Z</time>
      </trkpt>
      <trkpt lat="47.91296" lon="7.04682">
        <ele>1197</ele>
        <time>2023-05-07T05:44:01Z</time>
      </trkpt>
      <trkpt lat="47.91301" lon="7.04655">
        <ele>1194</ele>
        <time>2023-05-07T05:44:19Z</time>
      </trkpt>
      <trkpt lat="47.91304" lon="7.0465">
        <ele>1193</ele>
        <time>2023-05-07T05:44:23Z</time>
      </trkpt>
      <trkpt lat="47.91325" lon="7.04602">
        <ele>1191</ele>
        <time>2023-05-07T05:44:56Z</time>
      </trkpt>
      <trkpt lat="47.91333" lon="7.04584">
        <ele>1190</ele>
        <time>2023-05-07T05:45:09Z</time>
      </trkpt>
      <trkpt lat="47.91335" lon="7.04577">
        <ele>1190</ele>
        <time>2023-05-07T05:45:13Z</time>
      </trkpt>
      <trkpt lat="47.91338" lon="7.0457">
        <ele>1190</ele>
        <time>2023-05-07T05:45:17Z</time>
      </trkpt>
      <trkpt lat="47.91342" lon="7.04563">
        <ele>1190</ele>
        <time>2023-05-07T05:45:21Z</time>
      </trkpt>
      <trkpt lat="47.91347" lon="7.04549">
        <ele>1190</ele>
        <time>2023-05-07T05:45:28Z</time>
      </trkpt>
      <trkpt lat="47.91351" lon="7.04544">
        <ele>1190</ele>
        <time>2023-05-07T05:45:32Z</time>
      </trkpt>
      <trkpt lat="47.91355" lon="7.04532">
        <ele>1190</ele>
        <time>2023-05-07T05:45:40Z</time>
      </trkpt>
      <trkpt lat="47.9136" lon="7.04527">
        <ele>1191</ele>
        <time>2023-05-07T05:45:48Z</time>
      </trkpt>
      <trkpt lat="47.91363" lon="7.04521">
        <ele>1191</ele>
        <time>2023-05-07T05:45:53Z</time>
      </trkpt>
      <trkpt lat="47.9137" lon="7.04509">
        <ele>1191</ele>
        <time>2023-05-07T05:46:01Z</time>
      </trkpt>
      <trkpt lat="47.91376" lon="7.04493">
        <ele>1191</ele>
        <time>2023-05-07T05:46:11Z</time>
      </trkpt>
      <trkpt lat="47.91379" lon="7.04488">
        <ele>1191</ele>
        <time>2023-05-07T05:46:15Z</time>
      </trkpt>
      <trkpt lat="47.9139" lon="7.04472">
        <ele>1191</ele>
        <time>2023-05-07T05:46:27Z</time>
      </trkpt>
      <trkpt lat="47.91396" lon="7.04465">
        <ele>1191</ele>
        <time>2023-05-07T05:46:37Z</time>
      </trkpt>
      <trkpt lat="47.91411" lon="7.04442">
        <ele>1192</ele>
        <time>2023-05-07T05:46:55Z</time>
      </trkpt>
      <trkpt lat="47.91415" lon="7.0444">
        <ele>1192</ele>
        <time>2023-05-07T05:46:59Z</time>
      </trkpt>
      <trkpt lat="47.9142" lon="7.04439">
        <ele>1193</ele>
        <time>2023-05-07T05:47:03Z</time>
      </trkpt>
      <trkpt lat="47.91452" lon="7.04427">
        <ele>1196</ele>
        <time>2023-05-07T05:47:34Z</time>
      </trkpt>
      <trkpt lat="47.91457" lon="7.04426">
        <ele>1196</ele>
        <time>2023-05-07T05:47:38Z</time>
      </trkpt>
      <trkpt lat="47.915" lon="7.04421">
        <ele>1198</ele>
        <time>2023-05-07T05:48:12Z</time>
      </trkpt>
      <trkpt lat="47.91519" lon="7.04419">
        <ele>1199</ele>
        <time>2023-05-07T05:48:29Z</time>
      </trkpt>
      <trkpt lat="47.91524" lon="7.04419">
        <ele>1199</ele>
        <time>2023-05-07T05:48:34Z</time>
      </trkpt>
      <trkpt lat="47.91533" lon="7.04417">
        <ele>1200</ele>
        <time>2023-05-07T05:48:44Z</time>
      </trkpt>
      <trkpt lat="47.91538" lon="7.04416">
        <ele>1200</ele>
        <time>2023-05-07T05:48:48Z</time>
      </trkpt>
      <trkpt lat="47.91543" lon="7.04414">
        <ele>1200</ele>
        <time>2023-05-07T05:48:53Z</time>
      </trkpt>
      <trkpt lat="47.91547" lon="7.04412">
        <ele>1200</ele>
        <time>2023-05-07T05:48:57Z</time>
      </trkpt>
      <trkpt lat="47.91552" lon="7.04411">
        <ele>1200</ele>
        <time>2023-05-07T05:49:01Z</time>
      </trkpt>
      <trkpt lat="47.9156" lon="7.04407">
        <ele>1200</ele>
        <time>2023-05-07T05:49:09Z</time>
      </trkpt>
      <trkpt lat="47.91593" lon="7.04383">
        <ele>1199</ele>
        <time>2023-05-07T05:49:38Z</time>
      </trkpt>
      <trkpt lat="47.91622" lon="7.04374">
        <ele>1202</ele>
        <time>2023-05-07T05:50:08Z</time>
      </trkpt>
      <trkpt lat="47.91634" lon="7.04361">
        <ele>1202</ele>
        <time>2023-05-07T05:50:19Z</time>
      </trkpt>
      <trkpt lat="47.91638" lon="7.04358">
        <ele>1201</ele>
        <time>2023-05-07T05:50:24Z</time>
      </trkpt>
      <trkpt lat="47.91644" lon="7.04355">
        <ele>1202</ele>
        <time>2023-05-07T05:50:30Z</time>
      </trkpt>
      <trkpt lat="47.91649" lon="7.04349">
        <ele>1202</ele>
        <time>2023-05-07T05:50:37Z</time>
      </trkpt>
      <trkpt lat="47.91674" lon="7.04314">
        <ele>1199</ele>
        <time>2023-05-07T05:51:08Z</time>
      </trkpt>
      <trkpt lat="47.91677" lon="7.04309">
        <ele>1198</ele>
        <time>2023-05-07T05:51:12Z</time>
      </trkpt>
      <trkpt lat="47.91685" lon="7.04301">
        <ele>1197</ele>
        <time>2023-05-07T05:51:19Z</time>
      </trkpt>
      <trkpt lat="47.91693" lon="7.04291">
        <ele>1196</ele>
        <time>2023-05-07T05:51:28Z</time>
      </trkpt>
      <trkpt lat="47.91697" lon="7.04286">
        <ele>1196</ele>
        <time>2023-05-07T05:51:32Z</time>
      </trkpt>
      <trkpt lat="47.91717" lon="7.04239">
        <ele>1191</ele>
        <time>2023-05-07T05:52:06Z</time>
      </trkpt>
      <trkpt lat="47.9172" lon="7.04232">
        <ele>1190</ele>
        <time>2023-05-07T05:52:11Z</time>
      </trkpt>
      <trkpt lat="47.9173" lon="7.04217">
        <ele>1188</ele>
        <time>2023-05-07T05:52:23Z</time>
      </trkpt>
      <trkpt lat="47.91734" lon="7.04213">
        <ele>1188</ele>
        <time>2023-05-07T05:52:26Z</time>
      </trkpt>
      <trkpt lat="47.91737" lon="7.04208">
        <ele>1187</ele>
        <time>2023-05-07T05:52:30Z</time>
      </trkpt>
      <trkpt lat="47.91742" lon="7.04206">
        <ele>1187</ele>
        <time>2023-05-07T05:52:34Z</time>
      </trkpt>
      <trkpt lat="47.91749" lon="7.04193">
        <ele>1188</ele>
        <time>2023-05-07T05:52:42Z</time>
      </trkpt>
      <trkpt lat="47.91754" lon="7.04185">
        <ele>1189</ele>
        <time>2023-05-07T05:52:50Z</time>
      </trkpt>
      <trkpt lat="47.9177" lon="7.04174">
        <ele>1191</ele>
        <time>2023-05-07T05:53:07Z</time>
      </trkpt>
      <trkpt lat="47.91775" lon="7.04169">
        <ele>1191</ele>
        <time>2023-05-07T05:53:11Z</time>
      </trkpt>
      <trkpt lat="47.91779" lon="7.04164">
        <ele>1191</ele>
        <time>2023-05-07T05:53:15Z</time>
      </trkpt>
      <trkpt lat="47.91807" lon="7.04143">
        <ele>1194</ele>
        <time>2023-05-07T05:53:42Z</time>
      </trkpt>
      <trkpt lat="47.91812" lon="7.04142">
        <ele>1194</ele>
        <time>2023-05-07T05:53:46Z</time>
      </trkpt>
      <trkpt lat="47.91817" lon="7.0414">
        <ele>1194</ele>
        <time>2023-05-07T05:53:49Z</time>
      </trkpt>
      <trkpt lat="47.91851" lon="7.04123">
        <ele>1192</ele>
        <time>2023-05-07T05:54:21Z</time>
      </trkpt>
      <trkpt lat="47.91875" lon="7.04114">
        <ele>1193</ele>
        <time>2023-05-07T05:54:45Z</time>
      </trkpt>
      <trkpt lat="47.91883" lon="7.04109">
        <ele>1193</ele>
        <time>2023-05-07T05:54:53Z</time>
      </trkpt>
      <trkpt lat="47.91916" lon="7.04093">
        <ele>1193</ele>
        <time>2023-05-07T05:55:24Z</time>
      </trkpt>
      <trkpt lat="47.91922" lon="7.04091">
        <ele>1193</ele>
        <time>2023-05-07T05:55:29Z</time>
      </trkpt>
      <trkpt lat="47.9193" lon="7.04085">
        <ele>1193</ele>
        <time>2023-05-07T05:55:36Z</time>
      </trkpt>
      <trkpt lat="47.91939" lon="7.04078">
        <ele>1194</ele>
        <time>2023-05-07T05:55:47Z</time>
      </trkpt>
      <trkpt lat="47.9197" lon="7.04054">
        <ele>1195</ele>
        <time>2023-05-07T05:56:15Z</time>
      </trkpt>
      <trkpt lat="47.92" lon="7.04036">
        <ele>1196</ele>
        <time>2023-05-07T05:56:42Z</time>
      </trkpt>
      <trkpt lat="47.92009" lon="7.04029">
        <ele>1197</ele>
        <time>2023-05-07T05:56:53Z</time>
      </trkpt>
      <trkpt lat="47.92023" lon="7.04022">
        <ele>1197</ele>
        <time>2023-05-07T05:57:06Z</time>
      </trkpt>
      <trkpt lat="47.92036" lon="7.0401">
        <ele>1195</ele>
        <time>2023-05-07T05:57:22Z</time>
      </trkpt>
      <trkpt lat="47.92041" lon="7.04007">
        <ele>1195</ele>
        <time>2023-05-07T05:57:27Z</time>
      </trkpt>
      <trkpt lat="47.9205" lon="7.03998">
        <ele>1195</ele>
        <time>2023-05-07T05:57:35Z</time>
      </trkpt>
      <trkpt lat="47.92054" lon="7.03996">
        <ele>1195</ele>
        <time>2023-05-07T05:57:39Z</time>
      </trkpt>
      <trkpt lat="47.92061" lon="7.03995">
        <ele>1196</ele>
        <time>2023-05-07T05:57:48Z</time>
      </trkpt>
      <trkpt lat="47.92065" lon="7.03992">
        <ele>1196</ele>
        <time>2023-05-07T05:57:52Z</time>
      </trkpt>
      <trkpt lat="47.9209" lon="7.0398">
        <ele>1194</ele>
        <time>2023-05-07T05:58:16Z</time>
      </trkpt>
      <trkpt lat="47.92112" lon="7.03965">
        <ele>1194</ele>
        <time>2023-05-07T05:58:36Z</time>
      </trkpt>
      <trkpt lat="47.92116" lon="7.03962">
        <ele>1194</ele>
        <time>2023-05-07T05:58:40Z</time>
      </trkpt>
      <trkpt lat="47.92127" lon="7.03948">
        <ele>1194</ele>
        <time>2023-05-07T05:58:52Z</time>
      </trkpt>
      <trkpt lat="47.9213" lon="7.03942">
        <ele>1194</ele>
        <time>2023-05-07T05:58:56Z</time>
      </trkpt>
      <trkpt lat="47.92135" lon="7.0393">
        <ele>1194</ele>
        <time>2023-05-07T05:59:04Z</time>
      </trkpt>
      <trkpt lat="47.92139" lon="7.03924">
        <ele>1195</ele>
        <time>2023-05-07T05:59:12Z</time>
      </trkpt>
      <trkpt lat="47.92144" lon="7.03911">
        <ele>1194</ele>
        <time>2023-05-07T05:59:21Z</time>
      </trkpt>
      <trkpt lat="47.92147" lon="7.03907">
        <ele>1194</ele>
        <time>2023-05-07T05:59:25Z</time>
      </trkpt>
      <trkpt lat="47.92162" lon="7.03878">
        <ele>1192</ele>
        <time>2023-05-07T05:59:44Z</time>
      </trkpt>
      <trkpt lat="47.9217" lon="7.03871">
        <ele>1192</ele>
        <time>2023-05-07T05:59:53Z</time>
      </trkpt>
      <trkpt lat="47.92197" lon="7.03833">
        <ele>1192</ele>
        <time>2023-05-07T06:00:24Z</time>
      </trkpt>
      <trkpt lat="47.92207" lon="7.03821">
        <ele>1192</ele>
        <time>2023-05-07T06:00:36Z</time>
      </trkpt>
      <trkpt lat="47.92212" lon="7.03817">
        <ele>1191</ele>
        <time>2023-05-07T06:00:40Z</time>
      </trkpt>
      <trkpt lat="47.92215" lon="7.03812">
        <ele>1191</ele>
        <time>2023-05-07T06:00:44Z</time>
      </trkpt>
      <trkpt lat="47.92225" lon="7.038">
        <ele>1191</ele>
        <time>2023-05-07T06:00:56Z</time>
      </trkpt>
      <trkpt lat="47.92244" lon="7.03759">
        <ele>1190</ele>
        <time>2023-05-07T06:01:26Z</time>
      </trkpt>
      <trkpt lat="47.92247" lon="7.03753">
        <ele>1189</ele>
        <time>2023-05-07T06:01:30Z</time>
      </trkpt>
      <trkpt lat="47.92249" lon="7.03747">
        <ele>1190</ele>
        <time>2023-05-07T06:01:34Z</time>
      </trkpt>
      <trkpt lat="47.92262" lon="7.03716">
        <ele>1188</ele>
        <time>2023-05-07T06:01:55Z</time>
      </trkpt>
      <trkpt lat="47.92269" lon="7.03705">
        <ele>1187</ele>
        <time>2023-05-07T06:02:04Z</time>
      </trkpt>
      <trkpt lat="47.92284" lon="7.03677">
        <ele>1188</ele>
        <time>2023-05-07T06:02:23Z</time>
      </trkpt>
      <trkpt lat="47.9229" lon="7.03658">
        <ele>1186</ele>
        <time>2023-05-07T06:02:35Z</time>
      </trkpt>
      <trkpt lat="47.92291" lon="7.03651">
        <ele>1186</ele>
        <time>2023-05-07T06:02:39Z</time>
      </trkpt>
      <trkpt lat="47.92292" lon="7.03645">
        <ele>1185</ele>
        <time>2023-05-07T06:02:43Z</time>
      </trkpt>
      <trkpt lat="47.92293" lon="7.03638">
        <ele>1185</ele>
        <time>2023-05-07T06:02:47Z</time>
      </trkpt>
      <trkpt lat="47.92293" lon="7.03631">
        <ele>1185</ele>
        <time>2023-05-07T06:02:51Z</time>
      </trkpt>
      <trkpt lat="47.92293" lon="7.03617">
        <ele>1183</ele>
        <time>2023-05-07T06:02:59Z</time>
      </trkpt>
      <trkpt lat="47.92289" lon="7.03557">
        <ele>1182</ele>
        <time>2023-05-07T06:03:36Z</time>
      </trkpt>
      <trkpt lat="47.92283" lon="7.03503">
        <ele>1180</ele>
        <time>2023-05-07T06:04:09Z</time>
      </trkpt>
      <trkpt lat="47.92277" lon="7.03454">
        <ele>1180</ele>
        <time>2023-05-07T06:04:36Z</time>
      </trkpt>
      <trkpt lat="47.92278" lon="7.03447">
        <ele>1180</ele>
        <time>2023-05-07T06:04:40Z</time>
      </trkpt>
      <trkpt lat="47.92279" lon="7.0344">
        <ele>1180</ele>
        <time>2023-05-07T06:04:44Z</time>
      </trkpt>
      <trkpt lat="47.92276" lon="7.0342">
        <ele>1180</ele>
        <time>2023-05-07T06:04:56Z</time>
      </trkpt>
      <trkpt lat="47.9227" lon="7.03409">
        <ele>1180</ele>
        <time>2023-05-07T06:05:05Z</time>
      </trkpt>
      <trkpt lat="47.92269" lon="7.03402">
        <ele>1180</ele>
        <time>2023-05-07T06:05:09Z</time>
      </trkpt>
      <trkpt lat="47.92271" lon="7.03395">
        <ele>1181</ele>
        <time>2023-05-07T06:05:14Z</time>
      </trkpt>
      <trkpt lat="47.9228" lon="7.03363">
        <ele>1182</ele>
        <time>2023-05-07T06:05:39Z</time>
      </trkpt>
      <trkpt lat="47.92284" lon="7.03342">
        <ele>1184</ele>
        <time>2023-05-07T06:05:53Z</time>
      </trkpt>
      <trkpt lat="47.92286" lon="7.03336">
        <ele>1184</ele>
        <time>2023-05-07T06:05:58Z</time>
      </trkpt>
      <trkpt lat="47.92296" lon="7.03286">
        <ele>1186</ele>
        <time>2023-05-07T06:06:32Z</time>
      </trkpt>
      <trkpt lat="47.92306" lon="7.03244">
        <ele>1187</ele>
        <time>2023-05-07T06:07:01Z</time>
      </trkpt>
      <trkpt lat="47.92309" lon="7.03238">
        <ele>1187</ele>
        <time>2023-05-07T06:07:06Z</time>
      </trkpt>
      <trkpt lat="47.92311" lon="7.03224">
        <ele>1187</ele>
        <time>2023-05-07T06:07:16Z</time>
      </trkpt>
      <trkpt lat="47.92311" lon="7.03217">
        <ele>1187</ele>
        <time>2023-05-07T06:07:20Z</time>
      </trkpt>
      <trkpt lat="47.92312" lon="7.0321">
        <ele>1187</ele>
        <time>2023-05-07T06:07:25Z</time>
      </trkpt>
      <trkpt lat="47.92315" lon="7.03197">
        <ele>1188</ele>
        <time>2023-05-07T06:07:35Z</time>
      </trkpt>
      <trkpt lat="47.92323" lon="7.03161">
        <ele>1189</ele>
        <time>2023-05-07T06:08:00Z</time>
      </trkpt>
      <trkpt lat="47.92325" lon="7.03154">
        <ele>1189</ele>
        <time>2023-05-07T06:08:05Z</time>
      </trkpt>
      <trkpt lat="47.92332" lon="7.03141">
        <ele>1189</ele>
        <time>2023-05-07T06:08:17Z</time>
      </trkpt>
      <trkpt lat="47.92336" lon="7.03127">
        <ele>1190</ele>
        <time>2023-05-07T06:08:27Z</time>
      </trkpt>
      <trkpt lat="47.92353" lon="7.03095">
        <ele>1190</ele>
        <time>2023-05-07T06:08:51Z</time>
      </trkpt>
      <trkpt lat="47.9238" lon="7.03064">
        <ele>1192</ele>
        <time>2023-05-07T06:09:22Z</time>
      </trkpt>
      <trkpt lat="47.92404" lon="7.03037">
        <ele>1193</ele>
        <time>2023-05-07T06:09:48Z</time>
      </trkpt>
      <trkpt lat="47.92407" lon="7.03032">
        <ele>1193</ele>
        <time>2023-05-07T06:09:53Z</time>
      </trkpt>
      <trkpt lat="47.92411" lon="7.03028">
        <ele>1194</ele>
        <time>2023-05-07T06:09:57Z</time>
      </trkpt>
      <trkpt lat="47.92426" lon="7.03024">
        <ele>1195</ele>
        <time>2023-05-07T06:10:09Z</time>
      </trkpt>
      <trkpt lat="47.92435" lon="7.03025">
        <ele>1195</ele>
        <time>2023-05-07T06:10:17Z</time>
      </trkpt>
      <trkpt lat="47.9243" lon="7.03011">
        <ele>1195</ele>
        <time>2023-05-07T06:10:28Z</time>
      </trkpt>
      <trkpt lat="47.92431" lon="7.03001">
        <ele>1196</ele>
        <time>2023-05-07T06:10:51Z</time>
      </trkpt>
      <trkpt lat="47.9243" lon="7.02994">
        <ele>1196</ele>
        <time>2023-05-07T06:10:57Z</time>
      </trkpt>
      <trkpt lat="47.92442" lon="7.0298">
        <ele>1198</ele>
        <time>2023-05-07T06:11:11Z</time>
      </trkpt>
      <trkpt lat="47.92444" lon="7.02974">
        <ele>1198</ele>
        <time>2023-05-07T06:11:15Z</time>
      </trkpt>
      <trkpt lat="47.92441" lon="7.02968">
        <ele>1199</ele>
        <time>2023-05-07T06:11:23Z</time>
      </trkpt>
      <trkpt lat="47.92441" lon="7.02961">
        <ele>1200</ele>
        <time>2023-05-07T06:11:31Z</time>
      </trkpt>
      <trkpt lat="47.92441" lon="7.0294">
        <ele>1201</ele>
        <time>2023-05-07T06:11:47Z</time>
      </trkpt>
      <trkpt lat="47.92447" lon="7.02932">
        <ele>1201</ele>
        <time>2023-05-07T06:11:57Z</time>
      </trkpt>
      <trkpt lat="47.92459" lon="7.02928">
        <ele>1202</ele>
        <time>2023-05-07T06:12:11Z</time>
      </trkpt>
      <trkpt lat="47.9249" lon="7.02923">
        <ele>1205</ele>
        <time>2023-05-07T06:12:45Z</time>
      </trkpt>
      <trkpt lat="47.9251" lon="7.02916">
        <ele>1207</ele>
        <time>2023-05-07T06:13:05Z</time>
      </trkpt>
      <trkpt lat="47.92542" lon="7.02896">
        <ele>1210</ele>
        <time>2023-05-07T06:13:43Z</time>
      </trkpt>
      <trkpt lat="47.92571" lon="7.02874">
        <ele>1214</ele>
        <time>2023-05-07T06:14:19Z</time>
      </trkpt>
      <trkpt lat="47.92596" lon="7.02853">
        <ele>1217</ele>
        <time>2023-05-07T06:14:51Z</time>
      </trkpt>
      <trkpt lat="47.92624" lon="7.02828">
        <ele>1220</ele>
        <time>2023-05-07T06:15:25Z</time>
      </trkpt>
      <trkpt lat="47.92649" lon="7.02803">
        <ele>1223</ele>
        <time>2023-05-07T06:15:59Z</time>
      </trkpt>
      <trkpt lat="47.92656" lon="7.02794">
        <ele>1224</ele>
        <time>2023-05-07T06:16:09Z</time>
      </trkpt>
      <trkpt lat="47.92662" lon="7.02782">
        <ele>1224</ele>
        <time>2023-05-07T06:16:19Z</time>
      </trkpt>
      <trkpt lat="47.92665" lon="7.02771">
        <ele>1223</ele>
        <time>2023-05-07T06:16:27Z</time>
      </trkpt>
      <trkpt lat="47.92668" lon="7.02766">
        <ele>1224</ele>
        <time>2023-05-07T06:16:32Z</time>
      </trkpt>
      <trkpt lat="47.9267" lon="7.02759">
        <ele>1224</ele>
        <time>2023-05-07T06:16:37Z</time>
      </trkpt>
      <trkpt lat="47.92685" lon="7.02714">
        <ele>1223</ele>
        <time>2023-05-07T06:17:08Z</time>
      </trkpt>
      <trkpt lat="47.92687" lon="7.02709">
        <ele>1223</ele>
        <time>2023-05-07T06:17:12Z</time>
      </trkpt>
      <trkpt lat="47.92695" lon="7.02684">
        <ele>1223</ele>
        <time>2023-05-07T06:17:29Z</time>
      </trkpt>
      <trkpt lat="47.92709" lon="7.02651">
        <ele>1223</ele>
        <time>2023-05-07T06:17:54Z</time>
      </trkpt>
      <trkpt lat="47.92728" lon="7.02619">
        <ele>1224</ele>
        <time>2023-05-07T06:18:22Z</time>
      </trkpt>
      <trkpt lat="47.9273" lon="7.02605">
        <ele>1224</ele>
        <time>2023-05-07T06:18:31Z</time>
      </trkpt>
      <trkpt lat="47.92733" lon="7.02599">
        <ele>1223</ele>
        <time>2023-05-07T06:18:35Z</time>
      </trkpt>
      <trkpt lat="47.92737" lon="7.02596">
        <ele>1223</ele>
        <time>2023-05-07T06:18:39Z</time>
      </trkpt>
      <trkpt lat="47.92746" lon="7.02592">
        <ele>1222</ele>
        <time>2023-05-07T06:18:47Z</time>
      </trkpt>
      <trkpt lat="47.9275" lon="7.0259">
        <ele>1221</ele>
        <time>2023-05-07T06:18:51Z</time>
      </trkpt>
      <trkpt lat="47.92754" lon="7.02585">
        <ele>1220</ele>
        <time>2023-05-07T06:18:55Z</time>
      </trkpt>
      <trkpt lat="47.92757" lon="7.02578">
        <ele>1221</ele>
        <time>2023-05-07T06:19:01Z</time>
      </trkpt>
      <trkpt lat="47.9276" lon="7.02571">
        <ele>1221</ele>
        <time>2023-05-07T06:19:05Z</time>
      </trkpt>
      <trkpt lat="47.92766" lon="7.02547">
        <ele>1223</ele>
        <time>2023-05-07T06:19:24Z</time>
      </trkpt>
      <trkpt lat="47.92773" lon="7.02536">
        <ele>1225</ele>
        <time>2023-05-07T06:19:36Z</time>
      </trkpt>
      <trkpt lat="47.9278" lon="7.02517">
        <ele>1225</ele>
        <time>2023-05-07T06:19:48Z</time>
      </trkpt>
      <trkpt lat="47.92786" lon="7.02497">
        <ele>1225</ele>
        <time>2023-05-07T06:20:01Z</time>
      </trkpt>
      <trkpt lat="47.92788" lon="7.02489">
        <ele>1225</ele>
        <time>2023-05-07T06:20:07Z</time>
      </trkpt>
      <trkpt lat="47.92788" lon="7.02482">
        <ele>1226</ele>
        <time>2023-05-07T06:20:12Z</time>
      </trkpt>
      <trkpt lat="47.92799" lon="7.02435">
        <ele>1227</ele>
        <time>2023-05-07T06:20:44Z</time>
      </trkpt>
      <trkpt lat="47.92802" lon="7.02414">
        <ele>1227</ele>
        <time>2023-05-07T06:20:59Z</time>
      </trkpt>
      <trkpt lat="47.92803" lon="7.02408">
        <ele>1227</ele>
        <time>2023-05-07T06:21:04Z</time>
      </trkpt>
      <trkpt lat="47.92803" lon="7.02401">
        <ele>1228</ele>
        <time>2023-05-07T06:21:08Z</time>
      </trkpt>
      <trkpt lat="47.92804" lon="7.02394">
        <ele>1227</ele>
        <time>2023-05-07T06:21:13Z</time>
      </trkpt>
      <trkpt lat="47.92804" lon="7.02373">
        <ele>1227</ele>
        <time>2023-05-07T06:21:27Z</time>
      </trkpt>
      <trkpt lat="47.92806" lon="7.02366">
        <ele>1227</ele>
        <time>2023-05-07T06:21:32Z</time>
      </trkpt>
      <trkpt lat="47.92808" lon="7.0236">
        <ele>1227</ele>
        <time>2023-05-07T06:21:36Z</time>
      </trkpt>
      <trkpt lat="47.92808" lon="7.02306">
        <ele>1227</ele>
        <time>2023-05-07T06:22:08Z</time>
      </trkpt>
      <trkpt lat="47.92809" lon="7.02251">
        <ele>1227</ele>
        <time>2023-05-07T06:22:41Z</time>
      </trkpt>
      <trkpt lat="47.92808" lon="7.02229">
        <ele>1227</ele>
        <time>2023-05-07T06:22:54Z</time>
      </trkpt>
      <trkpt lat="47.92805" lon="7.02223">
        <ele>1228</ele>
        <time>2023-05-07T06:22:59Z</time>
      </trkpt>
      <trkpt lat="47.92793" lon="7.02205">
        <ele>1230</ele>
        <time>2023-05-07T06:23:17Z</time>
      </trkpt>
      <trkpt lat="47.92792" lon="7.02198">
        <ele>1230</ele>
        <time>2023-05-07T06:23:20Z</time>
      </trkpt>
      <trkpt lat="47.92799" lon="7.02158">
        <ele>1229</ele>
        <time>2023-05-07T06:23:45Z</time>
      </trkpt>
      <trkpt lat="47.92802" lon="7.02146">
        <ele>1228</ele>
        <time>2023-05-07T06:23:53Z</time>
      </trkpt>
      <trkpt lat="47.92803" lon="7.02139">
        <ele>1228</ele>
        <time>2023-05-07T06:23:57Z</time>
      </trkpt>
      <trkpt lat="47.92803" lon="7.02132">
        <ele>1227</ele>
        <time>2023-05-07T06:24:01Z</time>
      </trkpt>
      <trkpt lat="47.92791" lon="7.0208">
        <ele>1227</ele>
        <time>2023-05-07T06:24:35Z</time>
      </trkpt>
      <trkpt lat="47.9279" lon="7.02072">
        <ele>1227</ele>
        <time>2023-05-07T06:24:40Z</time>
      </trkpt>
      <trkpt lat="47.92775" lon="7.02026">
        <ele>1228</ele>
        <time>2023-05-07T06:25:12Z</time>
      </trkpt>
      <trkpt lat="47.92774" lon="7.0202">
        <ele>1228</ele>
        <time>2023-05-07T06:25:16Z</time>
      </trkpt>
      <trkpt lat="47.92773" lon="7.02013">
        <ele>1228</ele>
        <time>2023-05-07T06:25:20Z</time>
      </trkpt>
      <trkpt lat="47.92764" lon="7.0197">
        <ele>1229</ele>
        <time>2023-05-07T06:25:46Z</time>
      </trkpt>
      <trkpt lat="47.92765" lon="7.01963">
        <ele>1229</ele>
        <time>2023-05-07T06:25:50Z</time>
      </trkpt>
      <trkpt lat="47.92767" lon="7.01956">
        <ele>1229</ele>
        <time>2023-05-07T06:25:55Z</time>
      </trkpt>
      <trkpt lat="47.92771" lon="7.01952">
        <ele>1229</ele>
        <time>2023-05-07T06:25:59Z</time>
      </trkpt>
      <trkpt lat="47.92804" lon="7.0194">
        <ele>1230</ele>
        <time>2023-05-07T06:26:30Z</time>
      </trkpt>
      <trkpt lat="47.92842" lon="7.01933">
        <ele>1232</ele>
        <time>2023-05-07T06:27:05Z</time>
      </trkpt>
      <trkpt lat="47.9286" lon="7.01931">
        <ele>1232</ele>
        <time>2023-05-07T06:27:21Z</time>
      </trkpt>
      <trkpt lat="47.92895" lon="7.01945">
        <ele>1232</ele>
        <time>2023-05-07T06:27:52Z</time>
      </trkpt>
      <trkpt lat="47.92918" lon="7.01954">
        <ele>1232</ele>
        <time>2023-05-07T06:28:13Z</time>
      </trkpt>
      <trkpt lat="47.92923" lon="7.01955">
        <ele>1232</ele>
        <time>2023-05-07T06:28:18Z</time>
      </trkpt>
      <trkpt lat="47.92953" lon="7.01946">
        <ele>1230</ele>
        <time>2023-05-07T06:28:49Z</time>
      </trkpt>
      <trkpt lat="47.92963" lon="7.01943">
        <ele>1230</ele>
        <time>2023-05-07T06:28:58Z</time>
      </trkpt>
      <trkpt lat="47.92998" lon="7.01941">
        <ele>1228</ele>
        <time>2023-05-07T06:29:31Z</time>
      </trkpt>
      <trkpt lat="47.93032" lon="7.01938">
        <ele>1226</ele>
        <time>2023-05-07T06:30:10Z</time>
      </trkpt>
      <trkpt lat="47.93063" lon="7.01937">
        <ele>1224</ele>
        <time>2023-05-07T06:30:44Z</time>
      </trkpt>
      <trkpt lat="47.93098" lon="7.0194">
        <ele>1220</ele>
        <time>2023-05-07T06:31:18Z</time>
      </trkpt>
      <trkpt lat="47.93129" lon="7.01943">
        <ele>1217</ele>
        <time>2023-05-07T06:31:48Z</time>
      </trkpt>
      <trkpt lat="47.93161" lon="7.01951">
        <ele>1215</ele>
        <time>2023-05-07T06:32:19Z</time>
      </trkpt>
      <trkpt lat="47.93185" lon="7.01953">
        <ele>1214</ele>
        <time>2023-05-07T06:32:43Z</time>
      </trkpt>
      <trkpt lat="47.93191" lon="7.01956">
        <ele>1214</ele>
        <time>2023-05-07T06:32:51Z</time>
      </trkpt>
      <trkpt lat="47.93195" lon="7.01961">
        <ele>1214</ele>
        <time>2023-05-07T06:32:56Z</time>
      </trkpt>
      <trkpt lat="47.93199" lon="7.01965">
        <ele>1213</ele>
        <time>2023-05-07T06:33:01Z</time>
      </trkpt>
      <trkpt lat="47.93207" lon="7.01968">
        <ele>1213</ele>
        <time>2023-05-07T06:33:10Z</time>
      </trkpt>
      <trkpt lat="47.93225" lon="7.01967">
        <ele>1213</ele>
        <time>2023-05-07T06:33:26Z</time>
      </trkpt>
      <trkpt lat="47.93253" lon="7.01967">
        <ele>1213</ele>
        <time>2023-05-07T06:34:00Z</time>
      </trkpt>
      <trkpt lat="47.9329" lon="7.01967">
        <ele>1215</ele>
        <time>2023-05-07T06:34:34Z</time>
      </trkpt>
      <trkpt lat="47.93325" lon="7.01967">
        <ele>1218</ele>
        <time>2023-05-07T06:35:07Z</time>
      </trkpt>
      <trkpt lat="47.93358" lon="7.01978">
        <ele>1221</ele>
        <time>2023-05-07T06:35:39Z</time>
      </trkpt>
      <trkpt lat="47.93394" lon="7.01992">
        <ele>1223</ele>
        <time>2023-05-07T06:36:12Z</time>
      </trkpt>
      <trkpt lat="47.93425" lon="7.02006">
        <ele>1223</ele>
        <time>2023-05-07T06:36:40Z</time>
      </trkpt>
      <trkpt lat="47.9343" lon="7.02005">
        <ele>1223</ele>
        <time>2023-05-07T06:36:45Z</time>
      </trkpt>
      <trkpt lat="47.93435" lon="7.02006">
        <ele>1223</ele>
        <time>2023-05-07T06:36:49Z</time>
      </trkpt>
      <trkpt lat="47.93439" lon="7.02009">
        <ele>1223</ele>
        <time>2023-05-07T06:36:53Z</time>
      </trkpt>
      <trkpt lat="47.93467" lon="7.02045">
        <ele>1222</ele>
        <time>2023-05-07T06:37:27Z</time>
      </trkpt>
      <trkpt lat="47.93483" lon="7.02057">
        <ele>1222</ele>
        <time>2023-05-07T06:37:43Z</time>
      </trkpt>
      <trkpt lat="47.93496" lon="7.02066">
        <ele>1220</ele>
        <time>2023-05-07T06:37:56Z</time>
      </trkpt>
      <trkpt lat="47.93501" lon="7.02062">
        <ele>1220</ele>
        <time>2023-05-07T06:38:00Z</time>
      </trkpt>
      <trkpt lat="47.93509" lon="7.02054">
        <ele>1219</ele>
        <time>2023-05-07T06:38:09Z</time>
      </trkpt>
      <trkpt lat="47.93513" lon="7.02052">
        <ele>1219</ele>
        <time>2023-05-07T06:38:13Z</time>
      </trkpt>
      <trkpt lat="47.93518" lon="7.02051">
        <ele>1219</ele>
        <time>2023-05-07T06:38:17Z</time>
      </trkpt>
      <trkpt lat="47.93522" lon="7.02052">
        <ele>1218</ele>
        <time>2023-05-07T06:38:21Z</time>
      </trkpt>
      <trkpt lat="47.9353" lon="7.02057">
        <ele>1218</ele>
        <time>2023-05-07T06:38:29Z</time>
      </trkpt>
      <trkpt lat="47.93561" lon="7.02089">
        <ele>1217</ele>
        <time>2023-05-07T06:39:04Z</time>
      </trkpt>
      <trkpt lat="47.93591" lon="7.02122">
        <ele>1216</ele>
        <time>2023-05-07T06:39:38Z</time>
      </trkpt>
      <trkpt lat="47.93619" lon="7.02158">
        <ele>1216</ele>
        <time>2023-05-07T06:40:09Z</time>
      </trkpt>
      <trkpt lat="47.93634" lon="7.02173">
        <ele>1217</ele>
        <time>2023-05-07T06:40:26Z</time>
      </trkpt>
      <trkpt lat="47.93669" lon="7.02195">
        <ele>1217</ele>
        <time>2023-05-07T06:41:01Z</time>
      </trkpt>
      <trkpt lat="47.93702" lon="7.02212">
        <ele>1216</ele>
        <time>2023-05-07T06:41:34Z</time>
      </trkpt>
      <trkpt lat="47.93737" lon="7.02229">
        <ele>1215</ele>
        <time>2023-05-07T06:42:08Z</time>
      </trkpt>
      <trkpt lat="47.93774" lon="7.02245">
        <ele>1214</ele>
        <time>2023-05-07T06:42:41Z</time>
      </trkpt>
      <trkpt lat="47.93806" lon="7.02258">
        <ele>1214</ele>
        <time>2023-05-07T06:43:13Z</time>
      </trkpt>
      <trkpt lat="47.93838" lon="7.02273">
        <ele>1216</ele>
        <time>2023-05-07T06:43:44Z</time>
      </trkpt>
      <trkpt lat="47.93847" lon="7.02276">
        <ele>1216</ele>
        <time>2023-05-07T06:43:53Z</time>
      </trkpt>
      <trkpt lat="47.93877" lon="7.02288">
        <ele>1218</ele>
        <time>2023-05-07T06:47:22Z</time>
      </trkpt>
      <trkpt lat="47.93897" lon="7.02296">
        <ele>1221</ele>
        <time>2023-05-07T06:47:43Z</time>
      </trkpt>
      <trkpt lat="47.93901" lon="7.02297">
        <ele>1221</ele>
        <time>2023-05-07T06:47:47Z</time>
      </trkpt>
      <trkpt lat="47.93934" lon="7.02307">
        <ele>1223</ele>
        <time>2023-05-07T06:48:18Z</time>
      </trkpt>
      <trkpt lat="47.9397" lon="7.02318">
        <ele>1226</ele>
        <time>2023-05-07T06:48:55Z</time>
      </trkpt>
      <trkpt lat="47.94004" lon="7.02323">
        <ele>1229</ele>
        <time>2023-05-07T06:49:26Z</time>
      </trkpt>
      <trkpt lat="47.94018" lon="7.02324">
        <ele>1230</ele>
        <time>2023-05-07T06:49:40Z</time>
      </trkpt>
      <trkpt lat="47.94028" lon="7.02325">
        <ele>1230</ele>
        <time>2023-05-07T06:49:49Z</time>
      </trkpt>
      <trkpt lat="47.94056" lon="7.02327">
        <ele>1228</ele>
        <time>2023-05-07T06:50:14Z</time>
      </trkpt>
      <trkpt lat="47.9407" lon="7.02328">
        <ele>1227</ele>
        <time>2023-05-07T06:50:26Z</time>
      </trkpt>
      <trkpt lat="47.94079" lon="7.02331">
        <ele>1225</ele>
        <time>2023-05-07T06:50:34Z</time>
      </trkpt>
      <trkpt lat="47.94112" lon="7.02335">
        <ele>1223</ele>
        <time>2023-05-07T06:51:02Z</time>
      </trkpt>
      <trkpt lat="47.94117" lon="7.02338">
        <ele>1222</ele>
        <time>2023-05-07T06:51:07Z</time>
      </trkpt>
      <trkpt lat="47.94144" lon="7.02341">
        <ele>1221</ele>
        <time>2023-05-07T06:51:31Z</time>
      </trkpt>
      <trkpt lat="47.94178" lon="7.02341">
        <ele>1223</ele>
        <time>2023-05-07T06:52:03Z</time>
      </trkpt>
      <trkpt lat="47.94214" lon="7.02341">
        <ele>1226</ele>
        <time>2023-05-07T06:52:38Z</time>
      </trkpt>
      <trkpt lat="47.94233" lon="7.02343">
        <ele>1227</ele>
        <time>2023-05-07T06:52:54Z</time>
      </trkpt>
      <trkpt lat="47.94242" lon="7.02345">
        <ele>1228</ele>
        <time>2023-05-07T06:53:04Z</time>
      </trkpt>
      <trkpt lat="47.94263" lon="7.02343">
        <ele>1231</ele>
        <time>2023-05-07T06:53:27Z</time>
      </trkpt>
      <trkpt lat="47.9427" lon="7.02341">
        <ele>1233</ele>
        <time>2023-05-07T06:53:39Z</time>
      </trkpt>
      <trkpt lat="47.94273" lon="7.02334">
        <ele>1233</ele>
        <time>2023-05-07T06:53:44Z</time>
      </trkpt>
      <trkpt lat="47.94278" lon="7.0233">
        <ele>1234</ele>
        <time>2023-05-07T06:53:50Z</time>
      </trkpt>
      <trkpt lat="47.94307" lon="7.02328">
        <ele>1239</ele>
        <time>2023-05-07T06:54:28Z</time>
      </trkpt>
      <trkpt lat="47.94326" lon="7.02329">
        <ele>1243</ele>
        <time>2023-05-07T06:54:55Z</time>
      </trkpt>
      <trkpt lat="47.9434" lon="7.02319">
        <ele>1245</ele>
        <time>2023-05-07T06:55:09Z</time>
      </trkpt>
      <trkpt lat="47.94344" lon="7.02321">
        <ele>1246</ele>
        <time>2023-05-07T06:55:13Z</time>
      </trkpt>
      <trkpt lat="47.94356" lon="7.02324">
        <ele>1248</ele>
        <time>2023-05-07T06:55:28Z</time>
      </trkpt>
      <trkpt lat="47.9436" lon="7.02326">
        <ele>1249</ele>
        <time>2023-05-07T06:55:34Z</time>
      </trkpt>
      <trkpt lat="47.94364" lon="7.02325">
        <ele>1250</ele>
        <time>2023-05-07T06:55:40Z</time>
      </trkpt>
      <trkpt lat="47.94369" lon="7.02322">
        <ele>1251</ele>
        <time>2023-05-07T06:55:47Z</time>
      </trkpt>
      <trkpt lat="47.94374" lon="7.02323">
        <ele>1252</ele>
        <time>2023-05-07T06:55:53Z</time>
      </trkpt>
      <trkpt lat="47.94379" lon="7.02325">
        <ele>1253</ele>
        <time>2023-05-07T06:55:58Z</time>
      </trkpt>
      <trkpt lat="47.94385" lon="7.02326">
        <ele>1254</ele>
        <time>2023-05-07T06:56:04Z</time>
      </trkpt>
      <trkpt lat="47.94391" lon="7.02324">
        <ele>1255</ele>
        <time>2023-05-07T06:56:11Z</time>
      </trkpt>
      <trkpt lat="47.944" lon="7.02328">
        <ele>1256</ele>
        <time>2023-05-07T06:56:19Z</time>
      </trkpt>
      <trkpt lat="47.94405" lon="7.02332">
        <ele>1256</ele>
        <time>2023-05-07T06:56:23Z</time>
      </trkpt>
      <trkpt lat="47.94408" lon="7.02336">
        <ele>1256</ele>
        <time>2023-05-07T06:56:27Z</time>
      </trkpt>
      <trkpt lat="47.94413" lon="7.02339">
        <ele>1257</ele>
        <time>2023-05-07T06:56:32Z</time>
      </trkpt>
      <trkpt lat="47.9442" lon="7.02339">
        <ele>1257</ele>
        <time>2023-05-07T06:56:40Z</time>
      </trkpt>
      <trkpt lat="47.94448" lon="7.02326">
        <ele>1260</ele>
        <time>2023-05-07T06:57:13Z</time>
      </trkpt>
      <trkpt lat="47.94455" lon="7.02317">
        <ele>1261</ele>
        <time>2023-05-07T06:57:23Z</time>
      </trkpt>
      <trkpt lat="47.94461" lon="7.02312">
        <ele>1262</ele>
        <time>2023-05-07T06:57:30Z</time>
      </trkpt>
      <trkpt lat="47.94466" lon="7.02311">
        <ele>1263</ele>
        <time>2023-05-07T06:57:34Z</time>
      </trkpt>
      <trkpt lat="47.94475" lon="7.02313">
        <ele>1264</ele>
        <time>2023-05-07T06:57:43Z</time>
      </trkpt>
      <trkpt lat="47.9448" lon="7.02316">
        <ele>1264</ele>
        <time>2023-05-07T06:57:47Z</time>
      </trkpt>
      <trkpt lat="47.94492" lon="7.02328">
        <ele>1265</ele>
        <time>2023-05-07T06:58:00Z</time>
      </trkpt>
      <trkpt lat="47.94499" lon="7.02327">
        <ele>1266</ele>
        <time>2023-05-07T06:58:08Z</time>
      </trkpt>
      <trkpt lat="47.94519" lon="7.02311">
        <ele>1268</ele>
        <time>2023-05-07T06:58:32Z</time>
      </trkpt>
      <trkpt lat="47.94524" lon="7.02308">
        <ele>1268</ele>
        <time>2023-05-07T06:58:36Z</time>
      </trkpt>
      <trkpt lat="47.94529" lon="7.02306">
        <ele>1268</ele>
        <time>2023-05-07T06:58:41Z</time>
      </trkpt>
      <trkpt lat="47.94543" lon="7.02306">
        <ele>1267</ele>
        <time>2023-05-07T06:58:53Z</time>
      </trkpt>
      <trkpt lat="47.94558" lon="7.02311">
        <ele>1267</ele>
        <time>2023-05-07T06:59:05Z</time>
      </trkpt>
      <trkpt lat="47.94563" lon="7.02312">
        <ele>1267</ele>
        <time>2023-05-07T06:59:09Z</time>
      </trkpt>
      <trkpt lat="47.94577" lon="7.0231">
        <ele>1267</ele>
        <time>2023-05-07T06:59:21Z</time>
      </trkpt>
      <trkpt lat="47.94582" lon="7.0231">
        <ele>1266</ele>
        <time>2023-05-07T06:59:25Z</time>
      </trkpt>
      <trkpt lat="47.94587" lon="7.02312">
        <ele>1266</ele>
        <time>2023-05-07T06:59:30Z</time>
      </trkpt>
      <trkpt lat="47.94592" lon="7.02311">
        <ele>1266</ele>
        <time>2023-05-07T06:59:34Z</time>
      </trkpt>
      <trkpt lat="47.94602" lon="7.02308">
        <ele>1266</ele>
        <time>2023-05-07T06:59:43Z</time>
      </trkpt>
      <trkpt lat="47.9461" lon="7.023">
        <ele>1265</ele>
        <time>2023-05-07T06:59:51Z</time>
      </trkpt>
      <trkpt lat="47.94614" lon="7.023">
        <ele>1265</ele>
        <time>2023-05-07T06:59:55Z</time>
      </trkpt>
      <trkpt lat="47.94619" lon="7.023">
        <ele>1265</ele>
        <time>2023-05-07T06:59:59Z</time>
      </trkpt>
      <trkpt lat="47.94628" lon="7.02291">
        <ele>1263</ele>
        <time>2023-05-07T07:00:11Z</time>
      </trkpt>
      <trkpt lat="47.9463" lon="7.02284">
        <ele>1263</ele>
        <time>2023-05-07T07:00:16Z</time>
      </trkpt>
      <trkpt lat="47.9463" lon="7.02278">
        <ele>1262</ele>
        <time>2023-05-07T07:00:21Z</time>
      </trkpt>
      <trkpt lat="47.94632" lon="7.02272">
        <ele>1261</ele>
        <time>2023-05-07T07:00:26Z</time>
      </trkpt>
      <trkpt lat="47.9464" lon="7.02262">
        <ele>1260</ele>
        <time>2023-05-07T07:00:36Z</time>
      </trkpt>
      <trkpt lat="47.94645" lon="7.02248">
        <ele>1259</ele>
        <time>2023-05-07T07:00:48Z</time>
      </trkpt>
      <trkpt lat="47.94652" lon="7.02238">
        <ele>1257</ele>
        <time>2023-05-07T07:00:57Z</time>
      </trkpt>
      <trkpt lat="47.94682" lon="7.02212">
        <ele>1253</ele>
        <time>2023-05-07T07:01:27Z</time>
      </trkpt>
      <trkpt lat="47.94694" lon="7.022">
        <ele>1251</ele>
        <time>2023-05-07T07:01:43Z</time>
      </trkpt>
      <trkpt lat="47.94703" lon="7.02192">
        <ele>1250</ele>
        <time>2023-05-07T07:01:52Z</time>
      </trkpt>
      <trkpt lat="47.94707" lon="7.02189">
        <ele>1250</ele>
        <time>2023-05-07T07:01:55Z</time>
      </trkpt>
      <trkpt lat="47.94711" lon="7.02185">
        <ele>1248</ele>
        <time>2023-05-07T07:02:00Z</time>
      </trkpt>
      <trkpt lat="47.94737" lon="7.0216">
        <ele>1244</ele>
        <time>2023-05-07T07:02:35Z</time>
      </trkpt>
      <trkpt lat="47.94753" lon="7.02142">
        <ele>1241</ele>
        <time>2023-05-07T07:03:00Z</time>
      </trkpt>
      <trkpt lat="47.94782" lon="7.02119">
        <ele>1236</ele>
        <time>2023-05-07T07:03:32Z</time>
      </trkpt>
      <trkpt lat="47.94807" lon="7.02094">
        <ele>1231</ele>
        <time>2023-05-07T07:04:06Z</time>
      </trkpt>
      <trkpt lat="47.94839" lon="7.02076">
        <ele>1228</ele>
        <time>2023-05-07T07:04:39Z</time>
      </trkpt>
      <trkpt lat="47.94876" lon="7.02059">
        <ele>1222</ele>
        <time>2023-05-07T07:05:14Z</time>
      </trkpt>
      <trkpt lat="47.94909" lon="7.02045">
        <ele>1217</ele>
        <time>2023-05-07T07:05:48Z</time>
      </trkpt>
      <trkpt lat="47.94945" lon="7.02029">
        <ele>1212</ele>
        <time>2023-05-07T07:06:24Z</time>
      </trkpt>
      <trkpt lat="47.94974" lon="7.02015">
        <ele>1208</ele>
        <time>2023-05-07T07:06:55Z</time>
      </trkpt>
      <trkpt lat="47.95002" lon="7.02002">
        <ele>1205</ele>
        <time>2023-05-07T07:07:29Z</time>
      </trkpt>
      <trkpt lat="47.95035" lon="7.01986">
        <ele>1202</ele>
        <time>2023-05-07T07:08:02Z</time>
      </trkpt>
      <trkpt lat="47.95061" lon="7.01978">
        <ele>1198</ele>
        <time>2023-05-07T07:08:29Z</time>
      </trkpt>
      <trkpt lat="47.95069" lon="7.01976">
        <ele>1197</ele>
        <time>2023-05-07T07:09:01Z</time>
      </trkpt>
      <trkpt lat="47.95078" lon="7.01975">
        <ele>1196</ele>
        <time>2023-05-07T07:09:09Z</time>
      </trkpt>
      <trkpt lat="47.95119" lon="7.01967">
        <ele>1191</ele>
        <time>2023-05-07T07:09:43Z</time>
      </trkpt>
      <trkpt lat="47.95138" lon="7.01964">
        <ele>1191</ele>
        <time>2023-05-07T07:09:58Z</time>
      </trkpt>
      <trkpt lat="47.9517" lon="7.01944">
        <ele>1189</ele>
        <time>2023-05-07T07:10:29Z</time>
      </trkpt>
      <trkpt lat="47.95204" lon="7.01917">
        <ele>1187</ele>
        <time>2023-05-07T07:11:02Z</time>
      </trkpt>
      <trkpt lat="47.95238" lon="7.01891">
        <ele>1186</ele>
        <time>2023-05-07T07:11:35Z</time>
      </trkpt>
      <trkpt lat="47.95242" lon="7.01893">
        <ele>1186</ele>
        <time>2023-05-07T07:11:39Z</time>
      </trkpt>
      <trkpt lat="47.95246" lon="7.01894">
        <ele>1186</ele>
        <time>2023-05-07T07:11:44Z</time>
      </trkpt>
      <trkpt lat="47.95255" lon="7.01888">
        <ele>1185</ele>
        <time>2023-05-07T07:11:52Z</time>
      </trkpt>
      <trkpt lat="47.95267" lon="7.0188">
        <ele>1183</ele>
        <time>2023-05-07T07:12:13Z</time>
      </trkpt>
      <trkpt lat="47.9527" lon="7.01867">
        <ele>1183</ele>
        <time>2023-05-07T07:12:21Z</time>
      </trkpt>
      <trkpt lat="47.95282" lon="7.01837">
        <ele>1182</ele>
        <time>2023-05-07T07:12:42Z</time>
      </trkpt>
      <trkpt lat="47.95288" lon="7.01818">
        <ele>1181</ele>
        <time>2023-05-07T07:12:53Z</time>
      </trkpt>
      <trkpt lat="47.95292" lon="7.01805">
        <ele>1182</ele>
        <time>2023-05-07T07:13:01Z</time>
      </trkpt>
      <trkpt lat="47.95294" lon="7.01799">
        <ele>1181</ele>
        <time>2023-05-07T07:13:05Z</time>
      </trkpt>
      <trkpt lat="47.95296" lon="7.01793">
        <ele>1181</ele>
        <time>2023-05-07T07:13:09Z</time>
      </trkpt>
      <trkpt lat="47.95302" lon="7.0178">
        <ele>1181</ele>
        <time>2023-05-07T07:13:17Z</time>
      </trkpt>
      <trkpt lat="47.95305" lon="7.01776">
        <ele>1182</ele>
        <time>2023-05-07T07:13:21Z</time>
      </trkpt>
      <trkpt lat="47.95309" lon="7.0177">
        <ele>1181</ele>
        <time>2023-05-07T07:13:25Z</time>
      </trkpt>
      <trkpt lat="47.9531" lon="7.01764">
        <ele>1181</ele>
        <time>2023-05-07T07:13:29Z</time>
      </trkpt>
      <trkpt lat="47.95312" lon="7.01758">
        <ele>1182</ele>
        <time>2023-05-07T07:13:33Z</time>
      </trkpt>
      <trkpt lat="47.95315" lon="7.01751">
        <ele>1182</ele>
        <time>2023-05-07T07:13:37Z</time>
      </trkpt>
      <trkpt lat="47.95324" lon="7.01732">
        <ele>1182</ele>
        <time>2023-05-07T07:13:49Z</time>
      </trkpt>
      <trkpt lat="47.95326" lon="7.01726">
        <ele>1182</ele>
        <time>2023-05-07T07:13:53Z</time>
      </trkpt>
      <trkpt lat="47.95329" lon="7.0172">
        <ele>1182</ele>
        <time>2023-05-07T07:13:57Z</time>
      </trkpt>
      <trkpt lat="47.95332" lon="7.01713">
        <ele>1182</ele>
        <time>2023-05-07T07:14:01Z</time>
      </trkpt>
      <trkpt lat="47.95339" lon="7.01701">
        <ele>1182</ele>
        <time>2023-05-07T07:14:13Z</time>
      </trkpt>
      <trkpt lat="47.95341" lon="7.01693">
        <ele>1181</ele>
        <time>2023-05-07T07:14:17Z</time>
      </trkpt>
      <trkpt lat="47.95351" lon="7.01667">
        <ele>1181</ele>
        <time>2023-05-07T07:14:33Z</time>
      </trkpt>
      <trkpt lat="47.9535" lon="7.01646">
        <ele>1181</ele>
        <time>2023-05-07T07:14:46Z</time>
      </trkpt>
      <trkpt lat="47.95349" lon="7.01638">
        <ele>1182</ele>
        <time>2023-05-07T07:14:50Z</time>
      </trkpt>
      <trkpt lat="47.9535" lon="7.01631">
        <ele>1182</ele>
        <time>2023-05-07T07:14:54Z</time>
      </trkpt>
      <trkpt lat="47.95352" lon="7.01603">
        <ele>1182</ele>
        <time>2023-05-07T07:15:09Z</time>
      </trkpt>
      <trkpt lat="47.95365" lon="7.01548">
        <ele>1180</ele>
        <time>2023-05-07T07:15:41Z</time>
      </trkpt>
      <trkpt lat="47.95368" lon="7.01542">
        <ele>1180</ele>
        <time>2023-05-07T07:15:44Z</time>
      </trkpt>
      <trkpt lat="47.95369" lon="7.01536">
        <ele>1179</ele>
        <time>2023-05-07T07:15:48Z</time>
      </trkpt>
      <trkpt lat="47.95369" lon="7.01528">
        <ele>1179</ele>
        <time>2023-05-07T07:15:52Z</time>
      </trkpt>
      <trkpt lat="47.95372" lon="7.01522">
        <ele>1179</ele>
        <time>2023-05-07T07:15:56Z</time>
      </trkpt>
      <trkpt lat="47.95376" lon="7.01501">
        <ele>1179</ele>
        <time>2023-05-07T07:16:08Z</time>
      </trkpt>
      <trkpt lat="47.95376" lon="7.01486">
        <ele>1179</ele>
        <time>2023-05-07T07:16:16Z</time>
      </trkpt>
      <trkpt lat="47.95376" lon="7.01479">
        <ele>1179</ele>
        <time>2023-05-07T07:16:20Z</time>
      </trkpt>
      <trkpt lat="47.95376" lon="7.01472">
        <ele>1179</ele>
        <time>2023-05-07T07:16:24Z</time>
      </trkpt>
      <trkpt lat="47.95388" lon="7.01415">
        <ele>1181</ele>
        <time>2023-05-07T07:16:57Z</time>
      </trkpt>
      <trkpt lat="47.9539" lon="7.01408">
        <ele>1181</ele>
        <time>2023-05-07T07:17:02Z</time>
      </trkpt>
      <trkpt lat="47.95402" lon="7.01355">
        <ele>1183</ele>
        <time>2023-05-07T07:17:35Z</time>
      </trkpt>
      <trkpt lat="47.95414" lon="7.01315">
        <ele>1184</ele>
        <time>2023-05-07T07:17:59Z</time>
      </trkpt>
      <trkpt lat="47.95415" lon="7.01307">
        <ele>1184</ele>
        <time>2023-05-07T07:18:02Z</time>
      </trkpt>
      <trkpt lat="47.95433" lon="7.01255">
        <ele>1186</ele>
        <time>2023-05-07T07:18:36Z</time>
      </trkpt>
      <trkpt lat="47.95441" lon="7.01223">
        <ele>1187</ele>
        <time>2023-05-07T07:18:58Z</time>
      </trkpt>
      <trkpt lat="47.95442" lon="7.01209">
        <ele>1188</ele>
        <time>2023-05-07T07:19:05Z</time>
      </trkpt>
      <trkpt lat="47.95447" lon="7.01189">
        <ele>1189</ele>
        <time>2023-05-07T07:19:18Z</time>
      </trkpt>
      <trkpt lat="47.95451" lon="7.01186">
        <ele>1190</ele>
        <time>2023-05-07T07:19:32Z</time>
      </trkpt>
      <trkpt lat="47.9545" lon="7.01179">
        <ele>1190</ele>
        <time>2023-05-07T07:20:07Z</time>
      </trkpt>
      <trkpt lat="47.95455" lon="7.01174">
        <ele>1190</ele>
        <time>2023-05-07T07:20:30Z</time>
      </trkpt>
      <trkpt lat="47.95459" lon="7.01157">
        <ele>1191</ele>
        <time>2023-05-07T07:20:42Z</time>
      </trkpt>
      <trkpt lat="47.95462" lon="7.0113">
        <ele>1192</ele>
        <time>2023-05-07T07:20:58Z</time>
      </trkpt>
      <trkpt lat="47.95465" lon="7.01117">
        <ele>1193</ele>
        <time>2023-05-07T07:21:07Z</time>
      </trkpt>
      <trkpt lat="47.95473" lon="7.01076">
        <ele>1195</ele>
        <time>2023-05-07T07:21:32Z</time>
      </trkpt>
      <trkpt lat="47.95475" lon="7.01071">
        <ele>1196</ele>
        <time>2023-05-07T07:21:36Z</time>
      </trkpt>
      <trkpt lat="47.95476" lon="7.01057">
        <ele>1196</ele>
        <time>2023-05-07T07:21:44Z</time>
      </trkpt>
      <trkpt lat="47.95478" lon="7.01052">
        <ele>1197</ele>
        <time>2023-05-07T07:21:48Z</time>
      </trkpt>
      <trkpt lat="47.95485" lon="7.00997">
        <ele>1198</ele>
        <time>2023-05-07T07:22:19Z</time>
      </trkpt>
      <trkpt lat="47.95486" lon="7.00989">
        <ele>1198</ele>
        <time>2023-05-07T07:22:23Z</time>
      </trkpt>
      <trkpt lat="47.95486" lon="7.00979">
        <ele>1199</ele>
        <time>2023-05-07T07:22:29Z</time>
      </trkpt>
      <trkpt lat="47.9549" lon="7.0095">
        <ele>1200</ele>
        <time>2023-05-07T07:22:45Z</time>
      </trkpt>
      <trkpt lat="47.95492" lon="7.00944">
        <ele>1201</ele>
        <time>2023-05-07T07:22:50Z</time>
      </trkpt>
      <trkpt lat="47.95493" lon="7.00924">
        <ele>1202</ele>
        <time>2023-05-07T07:23:02Z</time>
      </trkpt>
      <trkpt lat="47.95495" lon="7.00916">
        <ele>1202</ele>
        <time>2023-05-07T07:23:06Z</time>
      </trkpt>
      <trkpt lat="47.95502" lon="7.00866">
        <ele>1204</ele>
        <time>2023-05-07T07:23:41Z</time>
      </trkpt>
      <trkpt lat="47.95511" lon="7.00816">
        <ele>1206</ele>
        <time>2023-05-07T07:24:12Z</time>
      </trkpt>
      <trkpt lat="47.95514" lon="7.00788">
        <ele>1207</ele>
        <time>2023-05-07T07:24:27Z</time>
      </trkpt>
      <trkpt lat="47.9552" lon="7.00769">
        <ele>1207</ele>
        <time>2023-05-07T07:24:39Z</time>
      </trkpt>
      <trkpt lat="47.95521" lon="7.00756">
        <ele>1207</ele>
        <time>2023-05-07T07:24:47Z</time>
      </trkpt>
      <trkpt lat="47.95537" lon="7.00705">
        <ele>1208</ele>
        <time>2023-05-07T07:25:20Z</time>
      </trkpt>
      <trkpt lat="47.95558" lon="7.00654">
        <ele>1209</ele>
        <time>2023-05-07T07:25:53Z</time>
      </trkpt>
      <trkpt lat="47.95567" lon="7.00638">
        <ele>1208</ele>
        <time>2023-05-07T07:26:05Z</time>
      </trkpt>
      <trkpt lat="47.95572" lon="7.00634">
        <ele>1208</ele>
        <time>2023-05-07T07:26:09Z</time>
      </trkpt>
      <trkpt lat="47.95575" lon="7.0063">
        <ele>1208</ele>
        <time>2023-05-07T07:26:13Z</time>
      </trkpt>
      <trkpt lat="47.95599" lon="7.00619">
        <ele>1207</ele>
        <time>2023-05-07T07:26:35Z</time>
      </trkpt>
      <trkpt lat="47.95604" lon="7.00617">
        <ele>1207</ele>
        <time>2023-05-07T07:26:39Z</time>
      </trkpt>
      <trkpt lat="47.95609" lon="7.00614">
        <ele>1207</ele>
        <time>2023-05-07T07:26:43Z</time>
      </trkpt>
      <trkpt lat="47.95619" lon="7.00614">
        <ele>1207</ele>
        <time>2023-05-07T07:26:52Z</time>
      </trkpt>
      <trkpt lat="47.95657" lon="7.00599">
        <ele>1207</ele>
        <time>2023-05-07T07:27:26Z</time>
      </trkpt>
      <trkpt lat="47.95691" lon="7.00583">
        <ele>1207</ele>
        <time>2023-05-07T07:27:58Z</time>
      </trkpt>
      <trkpt lat="47.95703" lon="7.00577">
        <ele>1208</ele>
        <time>2023-05-07T07:28:08Z</time>
      </trkpt>
      <trkpt lat="47.95735" lon="7.00549">
        <ele>1207</ele>
        <time>2023-05-07T07:28:39Z</time>
      </trkpt>
      <trkpt lat="47.95752" lon="7.00536">
        <ele>1207</ele>
        <time>2023-05-07T07:28:55Z</time>
      </trkpt>
      <trkpt lat="47.95757" lon="7.00534">
        <ele>1207</ele>
        <time>2023-05-07T07:28:58Z</time>
      </trkpt>
      <trkpt lat="47.95783" lon="7.00512">
        <ele>1208</ele>
        <time>2023-05-07T07:29:25Z</time>
      </trkpt>
      <trkpt lat="47.95816" lon="7.00494">
        <ele>1210</ele>
        <time>2023-05-07T07:29:59Z</time>
      </trkpt>
      <trkpt lat="47.9583" lon="7.00487">
        <ele>1212</ele>
        <time>2023-05-07T07:30:13Z</time>
      </trkpt>
      <trkpt lat="47.95834" lon="7.00484">
        <ele>1212</ele>
        <time>2023-05-07T07:30:16Z</time>
      </trkpt>
      <trkpt lat="47.9584" lon="7.00483">
        <ele>1212</ele>
        <time>2023-05-07T07:30:21Z</time>
      </trkpt>
      <trkpt lat="47.95879" lon="7.00481">
        <ele>1211</ele>
        <time>2023-05-07T07:30:55Z</time>
      </trkpt>
      <trkpt lat="47.95883" lon="7.00481">
        <ele>1211</ele>
        <time>2023-05-07T07:30:59Z</time>
      </trkpt>
      <trkpt lat="47.95888" lon="7.0048">
        <ele>1211</ele>
        <time>2023-05-07T07:31:03Z</time>
      </trkpt>
      <trkpt lat="47.95916" lon="7.00484">
        <ele>1208</ele>
        <time>2023-05-07T07:31:30Z</time>
      </trkpt>
      <trkpt lat="47.95947" lon="7.00464">
        <ele>1206</ele>
        <time>2023-05-07T07:32:01Z</time>
      </trkpt>
      <trkpt lat="47.95951" lon="7.0046">
        <ele>1206</ele>
        <time>2023-05-07T07:32:05Z</time>
      </trkpt>
      <trkpt lat="47.95958" lon="7.00457">
        <ele>1207</ele>
        <time>2023-05-07T07:32:11Z</time>
      </trkpt>
      <trkpt lat="47.95978" lon="7.00427">
        <ele>1209</ele>
        <time>2023-05-07T07:32:36Z</time>
      </trkpt>
      <trkpt lat="47.95998" lon="7.00385">
        <ele>1211</ele>
        <time>2023-05-07T07:33:06Z</time>
      </trkpt>
      <trkpt lat="47.96007" lon="7.00368">
        <ele>1212</ele>
        <time>2023-05-07T07:33:19Z</time>
      </trkpt>
      <trkpt lat="47.9603" lon="7.00334">
        <ele>1217</ele>
        <time>2023-05-07T07:33:53Z</time>
      </trkpt>
      <trkpt lat="47.96051" lon="7.00306">
        <ele>1220</ele>
        <time>2023-05-07T07:34:21Z</time>
      </trkpt>
      <trkpt lat="47.96065" lon="7.0029">
        <ele>1222</ele>
        <time>2023-05-07T07:34:42Z</time>
      </trkpt>
      <trkpt lat="47.96083" lon="7.00266">
        <ele>1224</ele>
        <time>2023-05-07T07:35:02Z</time>
      </trkpt>
      <trkpt lat="47.96086" lon="7.00261">
        <ele>1224</ele>
        <time>2023-05-07T07:35:06Z</time>
      </trkpt>
      <trkpt lat="47.96089" lon="7.00256">
        <ele>1223</ele>
        <time>2023-05-07T07:35:10Z</time>
      </trkpt>
      <trkpt lat="47.96091" lon="7.0025">
        <ele>1223</ele>
        <time>2023-05-07T07:35:14Z</time>
      </trkpt>
      <trkpt lat="47.96106" lon="7.00232">
        <ele>1224</ele>
        <time>2023-05-07T07:35:31Z</time>
      </trkpt>
      <trkpt lat="47.96114" lon="7.00226">
        <ele>1225</ele>
        <time>2023-05-07T07:35:39Z</time>
      </trkpt>
      <trkpt lat="47.96118" lon="7.00221">
        <ele>1226</ele>
        <time>2023-05-07T07:35:44Z</time>
      </trkpt>
      <trkpt lat="47.96123" lon="7.00218">
        <ele>1226</ele>
        <time>2023-05-07T07:35:49Z</time>
      </trkpt>
      <trkpt lat="47.96134" lon="7.00204">
        <ele>1227</ele>
        <time>2023-05-07T07:36:01Z</time>
      </trkpt>
      <trkpt lat="47.96138" lon="7.002">
        <ele>1228</ele>
        <time>2023-05-07T07:36:05Z</time>
      </trkpt>
      <trkpt lat="47.96164" lon="7.00159">
        <ele>1229</ele>
        <time>2023-05-07T07:36:39Z</time>
      </trkpt>
      <trkpt lat="47.96187" lon="7.00114">
        <ele>1228</ele>
        <time>2023-05-07T07:37:10Z</time>
      </trkpt>
      <trkpt lat="47.9619" lon="7.00108">
        <ele>1228</ele>
        <time>2023-05-07T07:37:14Z</time>
      </trkpt>
      <trkpt lat="47.96195" lon="7.00088">
        <ele>1228</ele>
        <time>2023-05-07T07:37:26Z</time>
      </trkpt>
      <trkpt lat="47.96199" lon="7.00064">
        <ele>1228</ele>
        <time>2023-05-07T07:37:40Z</time>
      </trkpt>
      <trkpt lat="47.96202" lon="7.00057">
        <ele>1229</ele>
        <time>2023-05-07T07:37:45Z</time>
      </trkpt>
      <trkpt lat="47.96205" lon="7.00006">
        <ele>1229</ele>
        <time>2023-05-07T07:38:12Z</time>
      </trkpt>
      <trkpt lat="47.96207" lon="6.99992">
        <ele>1229</ele>
        <time>2023-05-07T07:38:20Z</time>
      </trkpt>
      <trkpt lat="47.96209" lon="6.99974">
        <ele>1229</ele>
        <time>2023-05-07T07:38:32Z</time>
      </trkpt>
      <trkpt lat="47.96211" lon="6.99967">
        <ele>1229</ele>
        <time>2023-05-07T07:38:36Z</time>
      </trkpt>
      <trkpt lat="47.96211" lon="6.9996">
        <ele>1229</ele>
        <time>2023-05-07T07:38:40Z</time>
      </trkpt>
      <trkpt lat="47.96217" lon="6.99932">
        <ele>1229</ele>
        <time>2023-05-07T07:38:55Z</time>
      </trkpt>
      <trkpt lat="47.96219" lon="6.99926">
        <ele>1229</ele>
        <time>2023-05-07T07:38:59Z</time>
      </trkpt>
      <trkpt lat="47.96222" lon="6.99919">
        <ele>1229</ele>
        <time>2023-05-07T07:39:03Z</time>
      </trkpt>
      <trkpt lat="47.96223" lon="6.99912">
        <ele>1229</ele>
        <time>2023-05-07T07:39:06Z</time>
      </trkpt>
      <trkpt lat="47.96228" lon="6.99899">
        <ele>1229</ele>
        <time>2023-05-07T07:39:14Z</time>
      </trkpt>
      <trkpt lat="47.96229" lon="6.99893">
        <ele>1229</ele>
        <time>2023-05-07T07:39:19Z</time>
      </trkpt>
      <trkpt lat="47.96232" lon="6.99887">
        <ele>1230</ele>
        <time>2023-05-07T07:39:23Z</time>
      </trkpt>
      <trkpt lat="47.96239" lon="6.9986">
        <ele>1230</ele>
        <time>2023-05-07T07:39:37Z</time>
      </trkpt>
      <trkpt lat="47.9626" lon="6.99817">
        <ele>1229</ele>
        <time>2023-05-07T07:40:07Z</time>
      </trkpt>
      <trkpt lat="47.96288" lon="6.99786">
        <ele>1228</ele>
        <time>2023-05-07T07:40:34Z</time>
      </trkpt>
      <trkpt lat="47.96315" lon="6.99771">
        <ele>1227</ele>
        <time>2023-05-07T07:40:57Z</time>
      </trkpt>
      <trkpt lat="47.96321" lon="6.99771">
        <ele>1227</ele>
        <time>2023-05-07T07:41:01Z</time>
      </trkpt>
      <trkpt lat="47.96329" lon="6.99766">
        <ele>1227</ele>
        <time>2023-05-07T07:41:09Z</time>
      </trkpt>
      <trkpt lat="47.96334" lon="6.99767">
        <ele>1227</ele>
        <time>2023-05-07T07:41:13Z</time>
      </trkpt>
      <trkpt lat="47.96339" lon="6.99768">
        <ele>1227</ele>
        <time>2023-05-07T07:41:18Z</time>
      </trkpt>
      <trkpt lat="47.96343" lon="6.99762">
        <ele>1227</ele>
        <time>2023-05-07T07:41:22Z</time>
      </trkpt>
      <trkpt lat="47.96348" lon="6.99759">
        <ele>1226</ele>
        <time>2023-05-07T07:41:27Z</time>
      </trkpt>
      <trkpt lat="47.96352" lon="6.99755">
        <ele>1227</ele>
        <time>2023-05-07T07:41:32Z</time>
      </trkpt>
      <trkpt lat="47.96356" lon="6.9975">
        <ele>1226</ele>
        <time>2023-05-07T07:41:36Z</time>
      </trkpt>
      <trkpt lat="47.96365" lon="6.99743">
        <ele>1226</ele>
        <time>2023-05-07T07:41:44Z</time>
      </trkpt>
      <trkpt lat="47.96376" lon="6.9974">
        <ele>1226</ele>
        <time>2023-05-07T07:41:52Z</time>
      </trkpt>
      <trkpt lat="47.96385" lon="6.99737">
        <ele>1225</ele>
        <time>2023-05-07T07:42:00Z</time>
      </trkpt>
      <trkpt lat="47.9639" lon="6.99738">
        <ele>1225</ele>
        <time>2023-05-07T07:42:05Z</time>
      </trkpt>
      <trkpt lat="47.96394" lon="6.99738">
        <ele>1225</ele>
        <time>2023-05-07T07:42:09Z</time>
      </trkpt>
      <trkpt lat="47.964" lon="6.99738">
        <ele>1226</ele>
        <time>2023-05-07T07:42:14Z</time>
      </trkpt>
      <trkpt lat="47.96439" lon="6.99724">
        <ele>1225</ele>
        <time>2023-05-07T07:42:46Z</time>
      </trkpt>
      <trkpt lat="47.96462" lon="6.99714">
        <ele>1224</ele>
        <time>2023-05-07T07:43:05Z</time>
      </trkpt>
      <trkpt lat="47.96467" lon="6.99713">
        <ele>1224</ele>
        <time>2023-05-07T07:43:10Z</time>
      </trkpt>
      <trkpt lat="47.96472" lon="6.99713">
        <ele>1224</ele>
        <time>2023-05-07T07:43:14Z</time>
      </trkpt>
      <trkpt lat="47.96477" lon="6.99711">
        <ele>1223</ele>
        <time>2023-05-07T07:43:18Z</time>
      </trkpt>
      <trkpt lat="47.96487" lon="6.99705">
        <ele>1222</ele>
        <time>2023-05-07T07:43:30Z</time>
      </trkpt>
      <trkpt lat="47.96501" lon="6.99698">
        <ele>1221</ele>
        <time>2023-05-07T07:43:42Z</time>
      </trkpt>
      <trkpt lat="47.96504" lon="6.99695">
        <ele>1220</ele>
        <time>2023-05-07T07:43:46Z</time>
      </trkpt>
      <trkpt lat="47.96509" lon="6.99694">
        <ele>1220</ele>
        <time>2023-05-07T07:43:50Z</time>
      </trkpt>
      <trkpt lat="47.96542" lon="6.9967">
        <ele>1214</ele>
        <time>2023-05-07T07:44:23Z</time>
      </trkpt>
      <trkpt lat="47.9657" lon="6.99643">
        <ele>1210</ele>
        <time>2023-05-07T07:44:51Z</time>
      </trkpt>
      <trkpt lat="47.96577" lon="6.99633">
        <ele>1209</ele>
        <time>2023-05-07T07:45:00Z</time>
      </trkpt>
      <trkpt lat="47.96613" lon="6.99611">
        <ele>1205</ele>
        <time>2023-05-07T07:45:33Z</time>
      </trkpt>
      <trkpt lat="47.96617" lon="6.99608">
        <ele>1205</ele>
        <time>2023-05-07T07:45:37Z</time>
      </trkpt>
      <trkpt lat="47.96621" lon="6.99603">
        <ele>1205</ele>
        <time>2023-05-07T07:45:41Z</time>
      </trkpt>
      <trkpt lat="47.96625" lon="6.99599">
        <ele>1204</ele>
        <time>2023-05-07T07:45:45Z</time>
      </trkpt>
      <trkpt lat="47.96644" lon="6.99577">
        <ele>1203</ele>
        <time>2023-05-07T07:46:05Z</time>
      </trkpt>
      <trkpt lat="47.96673" lon="6.99537">
        <ele>1203</ele>
        <time>2023-05-07T07:46:38Z</time>
      </trkpt>
      <trkpt lat="47.96688" lon="6.99518">
        <ele>1203</ele>
        <time>2023-05-07T07:46:54Z</time>
      </trkpt>
      <trkpt lat="47.96691" lon="6.99513">
        <ele>1203</ele>
        <time>2023-05-07T07:46:58Z</time>
      </trkpt>
      <trkpt lat="47.96717" lon="6.99494">
        <ele>1203</ele>
        <time>2023-05-07T07:47:21Z</time>
      </trkpt>
      <trkpt lat="47.96727" lon="6.9949">
        <ele>1203</ele>
        <time>2023-05-07T07:47:29Z</time>
      </trkpt>
      <trkpt lat="47.9673" lon="6.99485">
        <ele>1203</ele>
        <time>2023-05-07T07:47:33Z</time>
      </trkpt>
      <trkpt lat="47.96734" lon="6.99482">
        <ele>1203</ele>
        <time>2023-05-07T07:47:37Z</time>
      </trkpt>
      <trkpt lat="47.96742" lon="6.99473">
        <ele>1203</ele>
        <time>2023-05-07T07:47:45Z</time>
      </trkpt>
      <trkpt lat="47.9675" lon="6.99467">
        <ele>1203</ele>
        <time>2023-05-07T07:47:53Z</time>
      </trkpt>
      <trkpt lat="47.96763" lon="6.99461">
        <ele>1204</ele>
        <time>2023-05-07T07:48:05Z</time>
      </trkpt>
      <trkpt lat="47.9679" lon="6.99432">
        <ele>1206</ele>
        <time>2023-05-07T07:48:36Z</time>
      </trkpt>
      <trkpt lat="47.96799" lon="6.99424">
        <ele>1207</ele>
        <time>2023-05-07T07:48:46Z</time>
      </trkpt>
      <trkpt lat="47.96802" lon="6.99419">
        <ele>1207</ele>
        <time>2023-05-07T07:48:50Z</time>
      </trkpt>
      <trkpt lat="47.96809" lon="6.99407">
        <ele>1208</ele>
        <time>2023-05-07T07:49:01Z</time>
      </trkpt>
      <trkpt lat="47.96814" lon="6.99399">
        <ele>1209</ele>
        <time>2023-05-07T07:49:08Z</time>
      </trkpt>
      <trkpt lat="47.96831" lon="6.99383">
        <ele>1213</ele>
        <time>2023-05-07T07:49:33Z</time>
      </trkpt>
      <trkpt lat="47.96835" lon="6.9938">
        <ele>1214</ele>
        <time>2023-05-07T07:49:39Z</time>
      </trkpt>
      <trkpt lat="47.96839" lon="6.99377">
        <ele>1215</ele>
        <time>2023-05-07T07:49:43Z</time>
      </trkpt>
      <trkpt lat="47.96841" lon="6.99371">
        <ele>1215</ele>
        <time>2023-05-07T07:49:48Z</time>
      </trkpt>
      <trkpt lat="47.96845" lon="6.99355">
        <ele>1218</ele>
        <time>2023-05-07T07:50:02Z</time>
      </trkpt>
      <trkpt lat="47.96844" lon="6.99348">
        <ele>1219</ele>
        <time>2023-05-07T07:50:08Z</time>
      </trkpt>
      <trkpt lat="47.96845" lon="6.99342">
        <ele>1220</ele>
        <time>2023-05-07T07:50:13Z</time>
      </trkpt>
      <trkpt lat="47.96848" lon="6.99332">
        <ele>1221</ele>
        <time>2023-05-07T07:50:22Z</time>
      </trkpt>
      <trkpt lat="47.9686" lon="6.99323">
        <ele>1224</ele>
        <time>2023-05-07T07:50:40Z</time>
      </trkpt>
      <trkpt lat="47.96867" lon="6.99313">
        <ele>1227</ele>
        <time>2023-05-07T07:50:52Z</time>
      </trkpt>
      <trkpt lat="47.96873" lon="6.99311">
        <ele>1228</ele>
        <time>2023-05-07T07:50:59Z</time>
      </trkpt>
      <trkpt lat="47.96879" lon="6.99312">
        <ele>1230</ele>
        <time>2023-05-07T07:51:07Z</time>
      </trkpt>
      <trkpt lat="47.96883" lon="6.9931">
        <ele>1231</ele>
        <time>2023-05-07T07:51:13Z</time>
      </trkpt>
      <trkpt lat="47.96899" lon="6.99285">
        <ele>1238</ele>
        <time>2023-05-07T07:51:49Z</time>
      </trkpt>
      <trkpt lat="47.96919" lon="6.99251">
        <ele>1243</ele>
        <time>2023-05-07T07:52:24Z</time>
      </trkpt>
      <trkpt lat="47.96933" lon="6.99232">
        <ele>1246</ele>
        <time>2023-05-07T07:52:44Z</time>
      </trkpt>
      <trkpt lat="47.96945" lon="6.99221">
        <ele>1246</ele>
        <time>2023-05-07T07:52:57Z</time>
      </trkpt>
      <trkpt lat="47.9695" lon="6.99219">
        <ele>1246</ele>
        <time>2023-05-07T07:53:02Z</time>
      </trkpt>
      <trkpt lat="47.96983" lon="6.99211">
        <ele>1248</ele>
        <time>2023-05-07T07:53:31Z</time>
      </trkpt>
      <trkpt lat="47.96988" lon="6.99211">
        <ele>1248</ele>
        <time>2023-05-07T07:54:22Z</time>
      </trkpt>
      <trkpt lat="47.96992" lon="6.9921">
        <ele>1248</ele>
        <time>2023-05-07T07:54:26Z</time>
      </trkpt>
      <trkpt lat="47.97001" lon="6.99209">
        <ele>1248</ele>
        <time>2023-05-07T07:54:34Z</time>
      </trkpt>
      <trkpt lat="47.97038" lon="6.99203">
        <ele>1248</ele>
        <time>2023-05-07T07:55:07Z</time>
      </trkpt>
      <trkpt lat="47.97068" lon="6.99195">
        <ele>1247</ele>
        <time>2023-05-07T07:55:32Z</time>
      </trkpt>
      <trkpt lat="47.97081" lon="6.99186">
        <ele>1247</ele>
        <time>2023-05-07T07:55:44Z</time>
      </trkpt>
      <trkpt lat="47.97113" lon="6.99166">
        <ele>1250</ele>
        <time>2023-05-07T07:56:14Z</time>
      </trkpt>
      <trkpt lat="47.97146" lon="6.99148">
        <ele>1254</ele>
        <time>2023-05-07T07:56:49Z</time>
      </trkpt>
      <trkpt lat="47.97177" lon="6.99135">
        <ele>1256</ele>
        <time>2023-05-07T07:57:17Z</time>
      </trkpt>
      <trkpt lat="47.97214" lon="6.99133">
        <ele>1259</ele>
        <time>2023-05-07T07:57:50Z</time>
      </trkpt>
      <trkpt lat="47.97219" lon="6.99133">
        <ele>1259</ele>
        <time>2023-05-07T07:57:54Z</time>
      </trkpt>
      <trkpt lat="47.97229" lon="6.99135">
        <ele>1260</ele>
        <time>2023-05-07T07:58:02Z</time>
      </trkpt>
      <trkpt lat="47.97238" lon="6.99134">
        <ele>1260</ele>
        <time>2023-05-07T07:58:09Z</time>
      </trkpt>
      <trkpt lat="47.97243" lon="6.99134">
        <ele>1261</ele>
        <time>2023-05-07T07:58:13Z</time>
      </trkpt>
      <trkpt lat="47.97247" lon="6.99133">
        <ele>1261</ele>
        <time>2023-05-07T07:58:22Z</time>
      </trkpt>
      <trkpt lat="47.97254" lon="6.99133">
        <ele>1262</ele>
        <time>2023-05-07T07:58:33Z</time>
      </trkpt>
      <trkpt lat="47.97284" lon="6.99128">
        <ele>1263</ele>
        <time>2023-05-07T07:59:04Z</time>
      </trkpt>
      <trkpt lat="47.97322" lon="6.99123">
        <ele>1266</ele>
        <time>2023-05-07T07:59:36Z</time>
      </trkpt>
      <trkpt lat="47.97358" lon="6.99107">
        <ele>1267</ele>
        <time>2023-05-07T08:00:07Z</time>
      </trkpt>
      <trkpt lat="47.97397" lon="6.9909">
        <ele>1267</ele>
        <time>2023-05-07T08:00:39Z</time>
      </trkpt>
      <trkpt lat="47.97401" lon="6.99087">
        <ele>1267</ele>
        <time>2023-05-07T08:00:43Z</time>
      </trkpt>
      <trkpt lat="47.97436" lon="6.99069">
        <ele>1270</ele>
        <time>2023-05-07T08:01:17Z</time>
      </trkpt>
      <trkpt lat="47.97449" lon="6.99062">
        <ele>1272</ele>
        <time>2023-05-07T08:01:34Z</time>
      </trkpt>
      <trkpt lat="47.97452" lon="6.99058">
        <ele>1272</ele>
        <time>2023-05-07T08:01:40Z</time>
      </trkpt>
      <trkpt lat="47.97472" lon="6.99042">
        <ele>1268</ele>
        <time>2023-05-07T08:02:03Z</time>
      </trkpt>
      <trkpt lat="47.97483" lon="6.99028">
        <ele>1268</ele>
        <time>2023-05-07T08:02:14Z</time>
      </trkpt>
      <trkpt lat="47.9751" lon="6.98997">
        <ele>1270</ele>
        <time>2023-05-07T08:02:46Z</time>
      </trkpt>
      <trkpt lat="47.97521" lon="6.98983">
        <ele>1271</ele>
        <time>2023-05-07T08:03:10Z</time>
      </trkpt>
      <trkpt lat="47.97519" lon="6.98968">
        <ele>1272</ele>
        <time>2023-05-07T08:03:25Z</time>
      </trkpt>
      <trkpt lat="47.97519" lon="6.98959">
        <ele>1271</ele>
        <time>2023-05-07T08:03:34Z</time>
      </trkpt>
      <trkpt lat="47.97521" lon="6.98964">
        <ele>1271</ele>
        <time>2023-05-07T08:31:38Z</time>
      </trkpt>
      <trkpt lat="47.97521" lon="6.98966">
        <ele>1271</ele>
        <time>2023-05-07T08:31:39Z</time>
      </trkpt>
      <trkpt lat="47.97521" lon="6.98973">
        <ele>1271</ele>
        <time>2023-05-07T08:31:44Z</time>
      </trkpt>
      <trkpt lat="47.97526" lon="6.98971">
        <ele>1271</ele>
        <time>2023-05-07T08:31:52Z</time>
      </trkpt>
      <trkpt lat="47.97542" lon="6.98948">
        <ele>1268</ele>
        <time>2023-05-07T08:32:20Z</time>
      </trkpt>
      <trkpt lat="47.97548" lon="6.98945">
        <ele>1267</ele>
        <time>2023-05-07T08:32:28Z</time>
      </trkpt>
      <trkpt lat="47.97569" lon="6.98915">
        <ele>1260</ele>
        <time>2023-05-07T08:33:01Z</time>
      </trkpt>
      <trkpt lat="47.97568" lon="6.989">
        <ele>1259</ele>
        <time>2023-05-07T08:33:11Z</time>
      </trkpt>
      <trkpt lat="47.97562" lon="6.9888">
        <ele>1256</ele>
        <time>2023-05-07T08:33:27Z</time>
      </trkpt>
      <trkpt lat="47.97551" lon="6.98852">
        <ele>1252</ele>
        <time>2023-05-07T08:33:49Z</time>
      </trkpt>
      <trkpt lat="47.9755" lon="6.98845">
        <ele>1251</ele>
        <time>2023-05-07T08:33:54Z</time>
      </trkpt>
      <trkpt lat="47.97559" lon="6.98831">
        <ele>1248</ele>
        <time>2023-05-07T08:34:08Z</time>
      </trkpt>
      <trkpt lat="47.97562" lon="6.98824">
        <ele>1247</ele>
        <time>2023-05-07T08:34:13Z</time>
      </trkpt>
      <trkpt lat="47.97588" lon="6.98792">
        <ele>1243</ele>
        <time>2023-05-07T08:34:45Z</time>
      </trkpt>
      <trkpt lat="47.97614" lon="6.98761">
        <ele>1238</ele>
        <time>2023-05-07T08:35:18Z</time>
      </trkpt>
      <trkpt lat="47.97618" lon="6.98757">
        <ele>1238</ele>
        <time>2023-05-07T08:35:23Z</time>
      </trkpt>
      <trkpt lat="47.97647" lon="6.98737">
        <ele>1234</ele>
        <time>2023-05-07T08:35:54Z</time>
      </trkpt>
      <trkpt lat="47.97668" lon="6.98729">
        <ele>1232</ele>
        <time>2023-05-07T08:36:16Z</time>
      </trkpt>
      <trkpt lat="47.97699" lon="6.98731">
        <ele>1228</ele>
        <time>2023-05-07T08:36:50Z</time>
      </trkpt>
      <trkpt lat="47.97715" lon="6.98703">
        <ele>1224</ele>
        <time>2023-05-07T08:37:10Z</time>
      </trkpt>
      <trkpt lat="47.97746" lon="6.9867">
        <ele>1219</ele>
        <time>2023-05-07T08:37:41Z</time>
      </trkpt>
      <trkpt lat="47.97777" lon="6.98643">
        <ele>1214</ele>
        <time>2023-05-07T08:38:13Z</time>
      </trkpt>
      <trkpt lat="47.97808" lon="6.98615">
        <ele>1210</ele>
        <time>2023-05-07T08:38:46Z</time>
      </trkpt>
      <trkpt lat="47.97839" lon="6.98585">
        <ele>1207</ele>
        <time>2023-05-07T08:39:18Z</time>
      </trkpt>
      <trkpt lat="47.97848" lon="6.98578">
        <ele>1206</ele>
        <time>2023-05-07T08:39:27Z</time>
      </trkpt>
      <trkpt lat="47.97852" lon="6.98576">
        <ele>1206</ele>
        <time>2023-05-07T08:39:32Z</time>
      </trkpt>
      <trkpt lat="47.97876" lon="6.98552">
        <ele>1202</ele>
        <time>2023-05-07T08:39:58Z</time>
      </trkpt>
      <trkpt lat="47.97885" lon="6.98552">
        <ele>1202</ele>
        <time>2023-05-07T08:40:06Z</time>
      </trkpt>
      <trkpt lat="47.9789" lon="6.9855">
        <ele>1201</ele>
        <time>2023-05-07T08:40:11Z</time>
      </trkpt>
      <trkpt lat="47.97922" lon="6.98527">
        <ele>1198</ele>
        <time>2023-05-07T08:40:45Z</time>
      </trkpt>
      <trkpt lat="47.97952" lon="6.98507">
        <ele>1195</ele>
        <time>2023-05-07T08:41:16Z</time>
      </trkpt>
      <trkpt lat="47.97969" lon="6.98495">
        <ele>1194</ele>
        <time>2023-05-07T08:41:33Z</time>
      </trkpt>
      <trkpt lat="47.97973" lon="6.98495">
        <ele>1194</ele>
        <time>2023-05-07T08:41:37Z</time>
      </trkpt>
      <trkpt lat="47.98007" lon="6.98471">
        <ele>1194</ele>
        <time>2023-05-07T08:42:09Z</time>
      </trkpt>
      <trkpt lat="47.98036" lon="6.98452">
        <ele>1197</ele>
        <time>2023-05-07T08:42:43Z</time>
      </trkpt>
      <trkpt lat="47.98063" lon="6.98434">
        <ele>1200</ele>
        <time>2023-05-07T08:43:16Z</time>
      </trkpt>
      <trkpt lat="47.98091" lon="6.98417">
        <ele>1204</ele>
        <time>2023-05-07T08:43:48Z</time>
      </trkpt>
      <trkpt lat="47.98095" lon="6.98413">
        <ele>1204</ele>
        <time>2023-05-07T08:43:53Z</time>
      </trkpt>
      <trkpt lat="47.98122" lon="6.98395">
        <ele>1208</ele>
        <time>2023-05-07T08:44:25Z</time>
      </trkpt>
      <trkpt lat="47.98154" lon="6.98384">
        <ele>1211</ele>
        <time>2023-05-07T08:44:59Z</time>
      </trkpt>
      <trkpt lat="47.98181" lon="6.98376">
        <ele>1214</ele>
        <time>2023-05-07T08:45:33Z</time>
      </trkpt>
      <trkpt lat="47.98213" lon="6.98367">
        <ele>1217</ele>
        <time>2023-05-07T08:46:05Z</time>
      </trkpt>
      <trkpt lat="47.98245" lon="6.98354">
        <ele>1221</ele>
        <time>2023-05-07T08:46:37Z</time>
      </trkpt>
      <trkpt lat="47.98258" lon="6.98347">
        <ele>1221</ele>
        <time>2023-05-07T08:46:50Z</time>
      </trkpt>
      <trkpt lat="47.98262" lon="6.98344">
        <ele>1221</ele>
        <time>2023-05-07T08:46:54Z</time>
      </trkpt>
      <trkpt lat="47.98281" lon="6.98334">
        <ele>1222</ele>
        <time>2023-05-07T08:47:14Z</time>
      </trkpt>
      <trkpt lat="47.98285" lon="6.98334">
        <ele>1222</ele>
        <time>2023-05-07T08:47:19Z</time>
      </trkpt>
      <trkpt lat="47.98295" lon="6.98337">
        <ele>1223</ele>
        <time>2023-05-07T08:47:28Z</time>
      </trkpt>
      <trkpt lat="47.983" lon="6.98336">
        <ele>1223</ele>
        <time>2023-05-07T08:47:33Z</time>
      </trkpt>
      <trkpt lat="47.98312" lon="6.98329">
        <ele>1225</ele>
        <time>2023-05-07T08:47:47Z</time>
      </trkpt>
      <trkpt lat="47.98325" lon="6.98318">
        <ele>1227</ele>
        <time>2023-05-07T08:48:02Z</time>
      </trkpt>
      <trkpt lat="47.98348" lon="6.98284">
        <ele>1230</ele>
        <time>2023-05-07T08:48:33Z</time>
      </trkpt>
      <trkpt lat="47.9836" lon="6.98271">
        <ele>1230</ele>
        <time>2023-05-07T08:48:47Z</time>
      </trkpt>
      <trkpt lat="47.98363" lon="6.98266">
        <ele>1231</ele>
        <time>2023-05-07T08:48:52Z</time>
      </trkpt>
      <trkpt lat="47.98364" lon="6.98263">
        <ele>1229</ele>
        <time>2023-05-07T08:51:08Z</time>
      </trkpt>
      <trkpt lat="47.9837" lon="6.98265">
        <ele>1229</ele>
        <time>2023-05-07T08:51:20Z</time>
      </trkpt>
      <trkpt lat="47.98375" lon="6.98265">
        <ele>1228</ele>
        <time>2023-05-07T08:51:25Z</time>
      </trkpt>
      <trkpt lat="47.98393" lon="6.98259">
        <ele>1227</ele>
        <time>2023-05-07T08:51:41Z</time>
      </trkpt>
      <trkpt lat="47.9841" lon="6.98243">
        <ele>1225</ele>
        <time>2023-05-07T08:52:00Z</time>
      </trkpt>
      <trkpt lat="47.98414" lon="6.98232">
        <ele>1223</ele>
        <time>2023-05-07T08:52:08Z</time>
      </trkpt>
      <trkpt lat="47.98414" lon="6.98218">
        <ele>1223</ele>
        <time>2023-05-07T08:52:16Z</time>
      </trkpt>
      <trkpt lat="47.98411" lon="6.98204">
        <ele>1224</ele>
        <time>2023-05-07T08:52:24Z</time>
      </trkpt>
      <trkpt lat="47.98414" lon="6.98198">
        <ele>1224</ele>
        <time>2023-05-07T08:52:28Z</time>
      </trkpt>
      <trkpt lat="47.98418" lon="6.98194">
        <ele>1224</ele>
        <time>2023-05-07T08:52:32Z</time>
      </trkpt>
      <trkpt lat="47.98446" lon="6.98167">
        <ele>1226</ele>
        <time>2023-05-07T08:53:01Z</time>
      </trkpt>
      <trkpt lat="47.98457" lon="6.98152">
        <ele>1225</ele>
        <time>2023-05-07T08:53:13Z</time>
      </trkpt>
      <trkpt lat="47.98461" lon="6.98147">
        <ele>1225</ele>
        <time>2023-05-07T08:53:17Z</time>
      </trkpt>
      <trkpt lat="47.98464" lon="6.98142">
        <ele>1225</ele>
        <time>2023-05-07T08:53:21Z</time>
      </trkpt>
      <trkpt lat="47.98471" lon="6.98132">
        <ele>1225</ele>
        <time>2023-05-07T08:53:30Z</time>
      </trkpt>
      <trkpt lat="47.98474" lon="6.98125">
        <ele>1225</ele>
        <time>2023-05-07T08:53:34Z</time>
      </trkpt>
      <trkpt lat="47.98477" lon="6.98119">
        <ele>1225</ele>
        <time>2023-05-07T08:53:38Z</time>
      </trkpt>
      <trkpt lat="47.98494" lon="6.98095">
        <ele>1225</ele>
        <time>2023-05-07T08:53:58Z</time>
      </trkpt>
      <trkpt lat="47.98501" lon="6.98087">
        <ele>1226</ele>
        <time>2023-05-07T08:54:06Z</time>
      </trkpt>
      <trkpt lat="47.98509" lon="6.9807">
        <ele>1227</ele>
        <time>2023-05-07T08:54:19Z</time>
      </trkpt>
      <trkpt lat="47.98512" lon="6.98065">
        <ele>1227</ele>
        <time>2023-05-07T08:54:23Z</time>
      </trkpt>
      <trkpt lat="47.98535" lon="6.98035">
        <ele>1232</ele>
        <time>2023-05-07T08:54:54Z</time>
      </trkpt>
      <trkpt lat="47.98547" lon="6.98027">
        <ele>1233</ele>
        <time>2023-05-07T08:55:07Z</time>
      </trkpt>
      <trkpt lat="47.98552" lon="6.98025">
        <ele>1234</ele>
        <time>2023-05-07T08:55:12Z</time>
      </trkpt>
      <trkpt lat="47.9857" lon="6.9802">
        <ele>1234</ele>
        <time>2023-05-07T08:55:28Z</time>
      </trkpt>
      <trkpt lat="47.98609" lon="6.98015">
        <ele>1235</ele>
        <time>2023-05-07T08:56:01Z</time>
      </trkpt>
      <trkpt lat="47.98614" lon="6.98013">
        <ele>1235</ele>
        <time>2023-05-07T08:56:05Z</time>
      </trkpt>
      <trkpt lat="47.98618" lon="6.98012">
        <ele>1235</ele>
        <time>2023-05-07T08:56:09Z</time>
      </trkpt>
      <trkpt lat="47.98653" lon="6.98006">
        <ele>1239</ele>
        <time>2023-05-07T08:56:44Z</time>
      </trkpt>
      <trkpt lat="47.9866" lon="6.98004">
        <ele>1240</ele>
        <time>2023-05-07T08:56:51Z</time>
      </trkpt>
      <trkpt lat="47.98664" lon="6.98001">
        <ele>1240</ele>
        <time>2023-05-07T08:56:55Z</time>
      </trkpt>
      <trkpt lat="47.98672" lon="6.97994">
        <ele>1240</ele>
        <time>2023-05-07T08:57:03Z</time>
      </trkpt>
      <trkpt lat="47.98677" lon="6.97995">
        <ele>1240</ele>
        <time>2023-05-07T08:57:08Z</time>
      </trkpt>
      <trkpt lat="47.98681" lon="6.98">
        <ele>1240</ele>
        <time>2023-05-07T08:57:12Z</time>
      </trkpt>
      <trkpt lat="47.98687" lon="6.97997">
        <ele>1240</ele>
        <time>2023-05-07T08:57:18Z</time>
      </trkpt>
      <trkpt lat="47.98691" lon="6.97999">
        <ele>1240</ele>
        <time>2023-05-07T08:57:22Z</time>
      </trkpt>
      <trkpt lat="47.98696" lon="6.97999">
        <ele>1240</ele>
        <time>2023-05-07T08:57:26Z</time>
      </trkpt>
      <trkpt lat="47.98705" lon="6.98002">
        <ele>1240</ele>
        <time>2023-05-07T08:57:34Z</time>
      </trkpt>
      <trkpt lat="47.98715" lon="6.98007">
        <ele>1239</ele>
        <time>2023-05-07T08:57:43Z</time>
      </trkpt>
      <trkpt lat="47.98749" lon="6.98009">
        <ele>1241</ele>
        <time>2023-05-07T08:58:11Z</time>
      </trkpt>
      <trkpt lat="47.98766" lon="6.98021">
        <ele>1243</ele>
        <time>2023-05-07T08:58:27Z</time>
      </trkpt>
      <trkpt lat="47.98801" lon="6.98033">
        <ele>1247</ele>
        <time>2023-05-07T08:58:59Z</time>
      </trkpt>
      <trkpt lat="47.98834" lon="6.98043">
        <ele>1249</ele>
        <time>2023-05-07T08:59:28Z</time>
      </trkpt>
      <trkpt lat="47.98839" lon="6.98043">
        <ele>1248</ele>
        <time>2023-05-07T08:59:32Z</time>
      </trkpt>
      <trkpt lat="47.98845" lon="6.98044">
        <ele>1249</ele>
        <time>2023-05-07T08:59:36Z</time>
      </trkpt>
      <trkpt lat="47.9885" lon="6.98044">
        <ele>1249</ele>
        <time>2023-05-07T08:59:40Z</time>
      </trkpt>
      <trkpt lat="47.98859" lon="6.98046">
        <ele>1249</ele>
        <time>2023-05-07T08:59:49Z</time>
      </trkpt>
      <trkpt lat="47.98869" lon="6.98047">
        <ele>1248</ele>
        <time>2023-05-07T08:59:57Z</time>
      </trkpt>
      <trkpt lat="47.98885" lon="6.98049">
        <ele>1248</ele>
        <time>2023-05-07T09:00:09Z</time>
      </trkpt>
      <trkpt lat="47.9889" lon="6.9805">
        <ele>1249</ele>
        <time>2023-05-07T09:00:14Z</time>
      </trkpt>
      <trkpt lat="47.98918" lon="6.98051">
        <ele>1252</ele>
        <time>2023-05-07T09:00:42Z</time>
      </trkpt>
      <trkpt lat="47.98922" lon="6.98052">
        <ele>1252</ele>
        <time>2023-05-07T09:00:46Z</time>
      </trkpt>
      <trkpt lat="47.98927" lon="6.98054">
        <ele>1251</ele>
        <time>2023-05-07T09:00:49Z</time>
      </trkpt>
      <trkpt lat="47.98931" lon="6.98054">
        <ele>1250</ele>
        <time>2023-05-07T09:00:53Z</time>
      </trkpt>
      <trkpt lat="47.98936" lon="6.98055">
        <ele>1250</ele>
        <time>2023-05-07T09:00:57Z</time>
      </trkpt>
      <trkpt lat="47.98942" lon="6.98054">
        <ele>1250</ele>
        <time>2023-05-07T09:01:01Z</time>
      </trkpt>
      <trkpt lat="47.98952" lon="6.98056">
        <ele>1249</ele>
        <time>2023-05-07T09:01:09Z</time>
      </trkpt>
      <trkpt lat="47.98962" lon="6.98056">
        <ele>1249</ele>
        <time>2023-05-07T09:01:17Z</time>
      </trkpt>
      <trkpt lat="47.98991" lon="6.98058">
        <ele>1253</ele>
        <time>2023-05-07T09:01:43Z</time>
      </trkpt>
      <trkpt lat="47.98995" lon="6.9806">
        <ele>1254</ele>
        <time>2023-05-07T09:01:47Z</time>
      </trkpt>
      <trkpt lat="47.99" lon="6.98059">
        <ele>1255</ele>
        <time>2023-05-07T09:01:52Z</time>
      </trkpt>
      <trkpt lat="47.9903" lon="6.98065">
        <ele>1255</ele>
        <time>2023-05-07T09:02:16Z</time>
      </trkpt>
      <trkpt lat="47.99035" lon="6.98066">
        <ele>1255</ele>
        <time>2023-05-07T09:02:20Z</time>
      </trkpt>
      <trkpt lat="47.9904" lon="6.98067">
        <ele>1255</ele>
        <time>2023-05-07T09:02:24Z</time>
      </trkpt>
      <trkpt lat="47.99058" lon="6.98071">
        <ele>1258</ele>
        <time>2023-05-07T09:02:42Z</time>
      </trkpt>
      <trkpt lat="47.99062" lon="6.9807">
        <ele>1259</ele>
        <time>2023-05-07T09:02:46Z</time>
      </trkpt>
      <trkpt lat="47.99067" lon="6.98072">
        <ele>1260</ele>
        <time>2023-05-07T09:02:51Z</time>
      </trkpt>
      <trkpt lat="47.99102" lon="6.98081">
        <ele>1263</ele>
        <time>2023-05-07T09:03:22Z</time>
      </trkpt>
      <trkpt lat="47.99138" lon="6.98087">
        <ele>1267</ele>
        <time>2023-05-07T09:03:56Z</time>
      </trkpt>
      <trkpt lat="47.99143" lon="6.98087">
        <ele>1267</ele>
        <time>2023-05-07T09:04:01Z</time>
      </trkpt>
      <trkpt lat="47.99147" lon="6.98087">
        <ele>1267</ele>
        <time>2023-05-07T09:04:05Z</time>
      </trkpt>
      <trkpt lat="47.99179" lon="6.98082">
        <ele>1273</ele>
        <time>2023-05-07T09:04:42Z</time>
      </trkpt>
      <trkpt lat="47.99207" lon="6.9808">
        <ele>1280</ele>
        <time>2023-05-07T09:05:22Z</time>
      </trkpt>
      <trkpt lat="47.99234" lon="6.98078">
        <ele>1286</ele>
        <time>2023-05-07T09:05:58Z</time>
      </trkpt>
      <trkpt lat="47.99251" lon="6.98073">
        <ele>1288</ele>
        <time>2023-05-07T09:06:18Z</time>
      </trkpt>
      <trkpt lat="47.99271" lon="6.98072">
        <ele>1291</ele>
        <time>2023-05-07T09:06:40Z</time>
      </trkpt>
      <trkpt lat="47.99282" lon="6.98068">
        <ele>1294</ele>
        <time>2023-05-07T09:06:54Z</time>
      </trkpt>
      <trkpt lat="47.99305" lon="6.98068">
        <ele>1296</ele>
        <time>2023-05-07T09:07:15Z</time>
      </trkpt>
      <trkpt lat="47.99334" lon="6.98063">
        <ele>1300</ele>
        <time>2023-05-07T09:07:47Z</time>
      </trkpt>
      <trkpt lat="47.9936" lon="6.98057">
        <ele>1306</ele>
        <time>2023-05-07T09:08:20Z</time>
      </trkpt>
      <trkpt lat="47.99367" lon="6.98053">
        <ele>1309</ele>
        <time>2023-05-07T09:08:32Z</time>
      </trkpt>
      <trkpt lat="47.99374" lon="6.98051">
        <ele>1312</ele>
        <time>2023-05-07T09:08:44Z</time>
      </trkpt>
      <trkpt lat="47.99379" lon="6.98049">
        <ele>1312</ele>
        <time>2023-05-07T09:08:50Z</time>
      </trkpt>
      <trkpt lat="47.99386" lon="6.98052">
        <ele>1314</ele>
        <time>2023-05-07T09:09:45Z</time>
      </trkpt>
      <trkpt lat="47.99396" lon="6.98052">
        <ele>1314</ele>
        <time>2023-05-07T09:09:53Z</time>
      </trkpt>
      <trkpt lat="47.99401" lon="6.98054">
        <ele>1314</ele>
        <time>2023-05-07T09:09:57Z</time>
      </trkpt>
      <trkpt lat="47.99406" lon="6.98053">
        <ele>1314</ele>
        <time>2023-05-07T09:10:01Z</time>
      </trkpt>
      <trkpt lat="47.9941" lon="6.98057">
        <ele>1314</ele>
        <time>2023-05-07T09:10:06Z</time>
      </trkpt>
      <trkpt lat="47.99414" lon="6.9806">
        <ele>1313</ele>
        <time>2023-05-07T09:10:14Z</time>
      </trkpt>
      <trkpt lat="47.99421" lon="6.98059">
        <ele>1312</ele>
        <time>2023-05-07T09:10:25Z</time>
      </trkpt>
      <trkpt lat="47.99429" lon="6.98057">
        <ele>1310</ele>
        <time>2023-05-07T09:10:36Z</time>
      </trkpt>
      <trkpt lat="47.99432" lon="6.98062">
        <ele>1308</ele>
        <time>2023-05-07T09:10:50Z</time>
      </trkpt>
      <trkpt lat="47.99443" lon="6.98063">
        <ele>1304</ele>
        <time>2023-05-07T09:11:13Z</time>
      </trkpt>
      <trkpt lat="47.99449" lon="6.98064">
        <ele>1302</ele>
        <time>2023-05-07T09:11:17Z</time>
      </trkpt>
      <trkpt lat="47.99455" lon="6.98066">
        <ele>1299</ele>
        <time>2023-05-07T09:11:26Z</time>
      </trkpt>
      <trkpt lat="47.9946" lon="6.98067">
        <ele>1299</ele>
        <time>2023-05-07T09:11:30Z</time>
      </trkpt>
      <trkpt lat="47.99465" lon="6.98065">
        <ele>1297</ele>
        <time>2023-05-07T09:11:34Z</time>
      </trkpt>
      <trkpt lat="47.99484" lon="6.98072">
        <ele>1294</ele>
        <time>2023-05-07T09:11:50Z</time>
      </trkpt>
      <trkpt lat="47.99494" lon="6.98076">
        <ele>1294</ele>
        <time>2023-05-07T09:11:58Z</time>
      </trkpt>
      <trkpt lat="47.99534" lon="6.98084">
        <ele>1291</ele>
        <time>2023-05-07T09:12:31Z</time>
      </trkpt>
      <trkpt lat="47.99559" lon="6.98086">
        <ele>1288</ele>
        <time>2023-05-07T09:12:51Z</time>
      </trkpt>
      <trkpt lat="47.99565" lon="6.98085">
        <ele>1288</ele>
        <time>2023-05-07T09:12:56Z</time>
      </trkpt>
      <trkpt lat="47.99569" lon="6.98085">
        <ele>1287</ele>
        <time>2023-05-07T09:13:00Z</time>
      </trkpt>
      <trkpt lat="47.99597" lon="6.98075">
        <ele>1284</ele>
        <time>2023-05-07T09:13:23Z</time>
      </trkpt>
      <trkpt lat="47.99632" lon="6.98064">
        <ele>1283</ele>
        <time>2023-05-07T09:13:51Z</time>
      </trkpt>
      <trkpt lat="47.99641" lon="6.9806">
        <ele>1282</ele>
        <time>2023-05-07T09:13:59Z</time>
      </trkpt>
      <trkpt lat="47.99661" lon="6.98053">
        <ele>1283</ele>
        <time>2023-05-07T09:14:15Z</time>
      </trkpt>
      <trkpt lat="47.99666" lon="6.98051">
        <ele>1283</ele>
        <time>2023-05-07T09:14:19Z</time>
      </trkpt>
      <trkpt lat="47.99671" lon="6.9805">
        <ele>1283</ele>
        <time>2023-05-07T09:14:23Z</time>
      </trkpt>
      <trkpt lat="47.99676" lon="6.98048">
        <ele>1284</ele>
        <time>2023-05-07T09:14:28Z</time>
      </trkpt>
      <trkpt lat="47.99713" lon="6.98036">
        <ele>1287</ele>
        <time>2023-05-07T09:15:02Z</time>
      </trkpt>
      <trkpt lat="47.99747" lon="6.98025">
        <ele>1289</ele>
        <time>2023-05-07T09:15:33Z</time>
      </trkpt>
      <trkpt lat="47.99786" lon="6.98012">
        <ele>1294</ele>
        <time>2023-05-07T09:16:05Z</time>
      </trkpt>
      <trkpt lat="47.99805" lon="6.98011">
        <ele>1296</ele>
        <time>2023-05-07T09:16:22Z</time>
      </trkpt>
      <trkpt lat="47.99818" lon="6.98013">
        <ele>1296</ele>
        <time>2023-05-07T09:16:35Z</time>
      </trkpt>
      <trkpt lat="47.99824" lon="6.98013">
        <ele>1296</ele>
        <time>2023-05-07T09:16:39Z</time>
      </trkpt>
      <trkpt lat="47.99829" lon="6.98014">
        <ele>1297</ele>
        <time>2023-05-07T09:16:43Z</time>
      </trkpt>
      <trkpt lat="47.99859" lon="6.9802">
        <ele>1297</ele>
        <time>2023-05-07T09:17:07Z</time>
      </trkpt>
      <trkpt lat="47.99864" lon="6.98018">
        <ele>1297</ele>
        <time>2023-05-07T09:17:11Z</time>
      </trkpt>
      <trkpt lat="47.99874" lon="6.9802">
        <ele>1298</ele>
        <time>2023-05-07T09:17:19Z</time>
      </trkpt>
      <trkpt lat="47.99883" lon="6.98025">
        <ele>1300</ele>
        <time>2023-05-07T09:17:28Z</time>
      </trkpt>
      <trkpt lat="47.99918" lon="6.98029">
        <ele>1306</ele>
        <time>2023-05-07T09:18:02Z</time>
      </trkpt>
      <trkpt lat="47.99926" lon="6.98031">
        <ele>1307</ele>
        <time>2023-05-07T09:18:12Z</time>
      </trkpt>
      <trkpt lat="47.99931" lon="6.98031">
        <ele>1306</ele>
        <time>2023-05-07T09:18:16Z</time>
      </trkpt>
      <trkpt lat="47.99936" lon="6.98031">
        <ele>1307</ele>
        <time>2023-05-07T09:18:20Z</time>
      </trkpt>
      <trkpt lat="47.99941" lon="6.98031">
        <ele>1306</ele>
        <time>2023-05-07T09:18:24Z</time>
      </trkpt>
      <trkpt lat="47.99946" lon="6.98031">
        <ele>1306</ele>
        <time>2023-05-07T09:18:28Z</time>
      </trkpt>
      <trkpt lat="47.99951" lon="6.9803">
        <ele>1306</ele>
        <time>2023-05-07T09:18:32Z</time>
      </trkpt>
      <trkpt lat="47.99956" lon="6.98031">
        <ele>1305</ele>
        <time>2023-05-07T09:18:36Z</time>
      </trkpt>
      <trkpt lat="47.99973" lon="6.9804">
        <ele>1305</ele>
        <time>2023-05-07T09:18:51Z</time>
      </trkpt>
      <trkpt lat="47.99983" lon="6.98045">
        <ele>1305</ele>
        <time>2023-05-07T09:18:59Z</time>
      </trkpt>
      <trkpt lat="47.99997" lon="6.98055">
        <ele>1305</ele>
        <time>2023-05-07T09:19:11Z</time>
      </trkpt>
      <trkpt lat="48.00002" lon="6.98057">
        <ele>1304</ele>
        <time>2023-05-07T09:19:15Z</time>
      </trkpt>
      <trkpt lat="48.00011" lon="6.98061">
        <ele>1305</ele>
        <time>2023-05-07T09:19:23Z</time>
      </trkpt>
      <trkpt lat="48.00047" lon="6.98079">
        <ele>1308</ele>
        <time>2023-05-07T09:19:55Z</time>
      </trkpt>
      <trkpt lat="48.00052" lon="6.98082">
        <ele>1309</ele>
        <time>2023-05-07T09:20:00Z</time>
      </trkpt>
      <trkpt lat="48.00058" lon="6.98083">
        <ele>1309</ele>
        <time>2023-05-07T09:20:07Z</time>
      </trkpt>
      <trkpt lat="48.00063" lon="6.98085">
        <ele>1311</ele>
        <time>2023-05-07T09:20:15Z</time>
      </trkpt>
      <trkpt lat="48.00071" lon="6.98088">
        <ele>1313</ele>
        <time>2023-05-07T09:20:27Z</time>
      </trkpt>
      <trkpt lat="48.00076" lon="6.9809">
        <ele>1316</ele>
        <time>2023-05-07T09:20:34Z</time>
      </trkpt>
      <trkpt lat="48.00074" lon="6.981">
        <ele>1318</ele>
        <time>2023-05-07T09:20:46Z</time>
      </trkpt>
      <trkpt lat="48.0008" lon="6.98102">
        <ele>1318</ele>
        <time>2023-05-07T09:21:03Z</time>
      </trkpt>
      <trkpt lat="48.00089" lon="6.98097">
        <ele>1314</ele>
        <time>2023-05-07T09:21:13Z</time>
      </trkpt>
      <trkpt lat="48.00096" lon="6.98094">
        <ele>1314</ele>
        <time>2023-05-07T09:21:22Z</time>
      </trkpt>
      <trkpt lat="48.001" lon="6.9809">
        <ele>1311</ele>
        <time>2023-05-07T09:21:28Z</time>
      </trkpt>
      <trkpt lat="48.00106" lon="6.98082">
        <ele>1309</ele>
        <time>2023-05-07T09:21:38Z</time>
      </trkpt>
      <trkpt lat="48.0011" lon="6.98072">
        <ele>1306</ele>
        <time>2023-05-07T09:21:46Z</time>
      </trkpt>
      <trkpt lat="48.00115" lon="6.98064">
        <ele>1302</ele>
        <time>2023-05-07T09:21:54Z</time>
      </trkpt>
      <trkpt lat="48.00114" lon="6.98057">
        <ele>1301</ele>
        <time>2023-05-07T09:21:59Z</time>
      </trkpt>
      <trkpt lat="48.00119" lon="6.98059">
        <ele>1301</ele>
        <time>2023-05-07T09:22:03Z</time>
      </trkpt>
      <trkpt lat="48.00122" lon="6.98065">
        <ele>1300</ele>
        <time>2023-05-07T09:22:08Z</time>
      </trkpt>
      <trkpt lat="48.00125" lon="6.98061">
        <ele>1296</ele>
        <time>2023-05-07T09:22:23Z</time>
      </trkpt>
      <trkpt lat="48.00128" lon="6.98052">
        <ele>1293</ele>
        <time>2023-05-07T09:22:33Z</time>
      </trkpt>
      <trkpt lat="48.00134" lon="6.98041">
        <ele>1290</ele>
        <time>2023-05-07T09:22:43Z</time>
      </trkpt>
      <trkpt lat="48.00137" lon="6.98035">
        <ele>1289</ele>
        <time>2023-05-07T09:22:47Z</time>
      </trkpt>
      <trkpt lat="48.00168" lon="6.98021">
        <ele>1282</ele>
        <time>2023-05-07T09:23:21Z</time>
      </trkpt>
      <trkpt lat="48.00177" lon="6.9802">
        <ele>1279</ele>
        <time>2023-05-07T09:23:30Z</time>
      </trkpt>
      <trkpt lat="48.00206" lon="6.98009">
        <ele>1272</ele>
        <time>2023-05-07T09:23:53Z</time>
      </trkpt>
      <trkpt lat="48.00216" lon="6.98009">
        <ele>1270</ele>
        <time>2023-05-07T09:24:01Z</time>
      </trkpt>
      <trkpt lat="48.0022" lon="6.98012">
        <ele>1269</ele>
        <time>2023-05-07T09:24:05Z</time>
      </trkpt>
      <trkpt lat="48.00225" lon="6.98011">
        <ele>1267</ele>
        <time>2023-05-07T09:24:09Z</time>
      </trkpt>
      <trkpt lat="48.0023" lon="6.98009">
        <ele>1266</ele>
        <time>2023-05-07T09:24:13Z</time>
      </trkpt>
      <trkpt lat="48.00235" lon="6.98008">
        <ele>1265</ele>
        <time>2023-05-07T09:24:17Z</time>
      </trkpt>
      <trkpt lat="48.0024" lon="6.98006">
        <ele>1264</ele>
        <time>2023-05-07T09:24:21Z</time>
      </trkpt>
      <trkpt lat="48.00265" lon="6.98005">
        <ele>1259</ele>
        <time>2023-05-07T09:24:41Z</time>
      </trkpt>
      <trkpt lat="48.00275" lon="6.97998">
        <ele>1257</ele>
        <time>2023-05-07T09:24:49Z</time>
      </trkpt>
      <trkpt lat="48.00285" lon="6.98">
        <ele>1256</ele>
        <time>2023-05-07T09:24:58Z</time>
      </trkpt>
      <trkpt lat="48.00291" lon="6.97998">
        <ele>1254</ele>
        <time>2023-05-07T09:25:02Z</time>
      </trkpt>
      <trkpt lat="48.00295" lon="6.97996">
        <ele>1253</ele>
        <time>2023-05-07T09:25:06Z</time>
      </trkpt>
      <trkpt lat="48.00299" lon="6.97995">
        <ele>1253</ele>
        <time>2023-05-07T09:25:10Z</time>
      </trkpt>
      <trkpt lat="48.00319" lon="6.97994">
        <ele>1250</ele>
        <time>2023-05-07T09:25:26Z</time>
      </trkpt>
      <trkpt lat="48.00323" lon="6.97996">
        <ele>1249</ele>
        <time>2023-05-07T09:25:30Z</time>
      </trkpt>
      <trkpt lat="48.00338" lon="6.97996">
        <ele>1243</ele>
        <time>2023-05-07T09:25:42Z</time>
      </trkpt>
      <trkpt lat="48.00341" lon="6.9799">
        <ele>1242</ele>
        <time>2023-05-07T09:25:46Z</time>
      </trkpt>
      <trkpt lat="48.00346" lon="6.97989">
        <ele>1241</ele>
        <time>2023-05-07T09:25:50Z</time>
      </trkpt>
      <trkpt lat="48.00366" lon="6.97994">
        <ele>1235</ele>
        <time>2023-05-07T09:26:05Z</time>
      </trkpt>
      <trkpt lat="48.0037" lon="6.97991">
        <ele>1234</ele>
        <time>2023-05-07T09:26:09Z</time>
      </trkpt>
      <trkpt lat="48.00376" lon="6.97992">
        <ele>1233</ele>
        <time>2023-05-07T09:26:13Z</time>
      </trkpt>
      <trkpt lat="48.0038" lon="6.97996">
        <ele>1232</ele>
        <time>2023-05-07T09:26:17Z</time>
      </trkpt>
      <trkpt lat="48.00426" lon="6.97998">
        <ele>1222</ele>
        <time>2023-05-07T09:26:51Z</time>
      </trkpt>
      <trkpt lat="48.00468" lon="6.98002">
        <ele>1214</ele>
        <time>2023-05-07T09:27:23Z</time>
      </trkpt>
      <trkpt lat="48.00479" lon="6.98003">
        <ele>1212</ele>
        <time>2023-05-07T09:27:31Z</time>
      </trkpt>
      <trkpt lat="48.00514" lon="6.97999">
        <ele>1208</ele>
        <time>2023-05-07T09:27:55Z</time>
      </trkpt>
      <trkpt lat="48.00529" lon="6.98">
        <ele>1206</ele>
        <time>2023-05-07T09:28:05Z</time>
      </trkpt>
      <trkpt lat="48.00533" lon="6.97999">
        <ele>1206</ele>
        <time>2023-05-07T09:28:08Z</time>
      </trkpt>
      <trkpt lat="48.00539" lon="6.97999">
        <ele>1206</ele>
        <time>2023-05-07T09:28:12Z</time>
      </trkpt>
      <trkpt lat="48.00544" lon="6.98001">
        <ele>1206</ele>
        <time>2023-05-07T09:28:16Z</time>
      </trkpt>
      <trkpt lat="48.00547" lon="6.98004">
        <ele>1206</ele>
        <time>2023-05-07T09:28:20Z</time>
      </trkpt>
      <trkpt lat="48.00553" lon="6.98005">
        <ele>1207</ele>
        <time>2023-05-07T09:28:27Z</time>
      </trkpt>
      <trkpt lat="48.00585" lon="6.9802">
        <ele>1210</ele>
        <time>2023-05-07T09:28:56Z</time>
      </trkpt>
      <trkpt lat="48.00617" lon="6.98036">
        <ele>1216</ele>
        <time>2023-05-07T09:29:29Z</time>
      </trkpt>
      <trkpt lat="48.00653" lon="6.98042">
        <ele>1224</ele>
        <time>2023-05-07T09:30:03Z</time>
      </trkpt>
      <trkpt lat="48.00679" lon="6.98057">
        <ele>1233</ele>
        <time>2023-05-07T09:30:35Z</time>
      </trkpt>
      <trkpt lat="48.0069" lon="6.98059">
        <ele>1235</ele>
        <time>2023-05-07T09:30:47Z</time>
      </trkpt>
      <trkpt lat="48.00706" lon="6.98058">
        <ele>1240</ele>
        <time>2023-05-07T09:31:06Z</time>
      </trkpt>
      <trkpt lat="48.00735" lon="6.98066">
        <ele>1249</ele>
        <time>2023-05-07T09:31:42Z</time>
      </trkpt>
      <trkpt lat="48.00755" lon="6.98071">
        <ele>1256</ele>
        <time>2023-05-07T09:32:08Z</time>
      </trkpt>
      <trkpt lat="48.00763" lon="6.98076">
        <ele>1259</ele>
        <time>2023-05-07T09:32:18Z</time>
      </trkpt>
      <trkpt lat="48.00785" lon="6.98081">
        <ele>1265</ele>
        <time>2023-05-07T09:32:46Z</time>
      </trkpt>
      <trkpt lat="48.00796" lon="6.98088">
        <ele>1268</ele>
        <time>2023-05-07T09:32:58Z</time>
      </trkpt>
      <trkpt lat="48.00803" lon="6.98089">
        <ele>1270</ele>
        <time>2023-05-07T09:33:06Z</time>
      </trkpt>
      <trkpt lat="48.00816" lon="6.98095">
        <ele>1273</ele>
        <time>2023-05-07T09:33:23Z</time>
      </trkpt>
      <trkpt lat="48.00834" lon="6.98099">
        <ele>1278</ele>
        <time>2023-05-07T09:33:43Z</time>
      </trkpt>
      <trkpt lat="48.00867" lon="6.98119">
        <ele>1287</ele>
        <time>2023-05-07T09:34:19Z</time>
      </trkpt>
      <trkpt lat="48.00896" lon="6.98136">
        <ele>1292</ele>
        <time>2023-05-07T09:34:50Z</time>
      </trkpt>
      <trkpt lat="48.00926" lon="6.98157">
        <ele>1299</ele>
        <time>2023-05-07T09:35:23Z</time>
      </trkpt>
      <trkpt lat="48.0094" lon="6.98162">
        <ele>1300</ele>
        <time>2023-05-07T09:35:37Z</time>
      </trkpt>
      <trkpt lat="48.00945" lon="6.98162">
        <ele>1301</ele>
        <time>2023-05-07T09:35:41Z</time>
      </trkpt>
      <trkpt lat="48.00954" lon="6.98169">
        <ele>1302</ele>
        <time>2023-05-07T09:35:50Z</time>
      </trkpt>
      <trkpt lat="48.00966" lon="6.98214">
        <ele>1306</ele>
        <time>2023-05-07T09:38:46Z</time>
      </trkpt>
      <trkpt lat="48.00976" lon="6.98248">
        <ele>1308</ele>
        <time>2023-05-07T09:39:10Z</time>
      </trkpt>
      <trkpt lat="48.0098" lon="6.98252">
        <ele>1308</ele>
        <time>2023-05-07T09:39:15Z</time>
      </trkpt>
      <trkpt lat="48.00979" lon="6.98264">
        <ele>1308</ele>
        <time>2023-05-07T09:39:32Z</time>
      </trkpt>
      <trkpt lat="48.00978" lon="6.9827">
        <ele>1308</ele>
        <time>2023-05-07T09:39:36Z</time>
      </trkpt>
      <trkpt lat="48.00977" lon="6.98275">
        <ele>1309</ele>
        <time>2023-05-07T09:40:12Z</time>
      </trkpt>
      <trkpt lat="48.0097" lon="6.98229">
        <ele>1307</ele>
        <time>2023-05-07T09:41:35Z</time>
      </trkpt>
      <trkpt lat="48.00955" lon="6.98177">
        <ele>1303</ele>
        <time>2023-05-07T09:42:08Z</time>
      </trkpt>
      <trkpt lat="48.00953" lon="6.9817">
        <ele>1302</ele>
        <time>2023-05-07T09:42:12Z</time>
      </trkpt>
      <trkpt lat="48.00954" lon="6.98164">
        <ele>1302</ele>
        <time>2023-05-07T09:42:16Z</time>
      </trkpt>
      <trkpt lat="48.0095" lon="6.98106">
        <ele>1296</ele>
        <time>2023-05-07T09:42:49Z</time>
      </trkpt>
      <trkpt lat="48.00949" lon="6.9809">
        <ele>1295</ele>
        <time>2023-05-07T09:43:02Z</time>
      </trkpt>
      <trkpt lat="48.00948" lon="6.98065">
        <ele>1293</ele>
        <time>2023-05-07T09:43:19Z</time>
      </trkpt>
      <trkpt lat="48.00945" lon="6.98031">
        <ele>1289</ele>
        <time>2023-05-07T09:43:40Z</time>
      </trkpt>
      <trkpt lat="48.00942" lon="6.98024">
        <ele>1289</ele>
        <time>2023-05-07T09:43:44Z</time>
      </trkpt>
      <trkpt lat="48.00941" lon="6.97988">
        <ele>1286</ele>
        <time>2023-05-07T09:44:05Z</time>
      </trkpt>
      <trkpt lat="48.0094" lon="6.97981">
        <ele>1286</ele>
        <time>2023-05-07T09:44:09Z</time>
      </trkpt>
      <trkpt lat="48.00938" lon="6.97973">
        <ele>1285</ele>
        <time>2023-05-07T09:44:13Z</time>
      </trkpt>
      <trkpt lat="48.00936" lon="6.97958">
        <ele>1285</ele>
        <time>2023-05-07T09:44:21Z</time>
      </trkpt>
      <trkpt lat="48.00935" lon="6.97943">
        <ele>1284</ele>
        <time>2023-05-07T09:44:29Z</time>
      </trkpt>
      <trkpt lat="48.00932" lon="6.97923">
        <ele>1282</ele>
        <time>2023-05-07T09:44:41Z</time>
      </trkpt>
      <trkpt lat="48.0093" lon="6.97867">
        <ele>1277</ele>
        <time>2023-05-07T09:45:14Z</time>
      </trkpt>
      <trkpt lat="48.00929" lon="6.97852">
        <ele>1275</ele>
        <time>2023-05-07T09:45:22Z</time>
      </trkpt>
      <trkpt lat="48.00931" lon="6.97832">
        <ele>1272</ele>
        <time>2023-05-07T09:45:35Z</time>
      </trkpt>
      <trkpt lat="48.0093" lon="6.97823">
        <ele>1270</ele>
        <time>2023-05-07T09:45:41Z</time>
      </trkpt>
      <trkpt lat="48.00929" lon="6.9781">
        <ele>1269</ele>
        <time>2023-05-07T09:45:49Z</time>
      </trkpt>
      <trkpt lat="48.00927" lon="6.97804">
        <ele>1268</ele>
        <time>2023-05-07T09:45:53Z</time>
      </trkpt>
      <trkpt lat="48.00927" lon="6.9779">
        <ele>1266</ele>
        <time>2023-05-07T09:46:03Z</time>
      </trkpt>
      <trkpt lat="48.00929" lon="6.97776">
        <ele>1263</ele>
        <time>2023-05-07T09:46:12Z</time>
      </trkpt>
      <trkpt lat="48.00928" lon="6.97736">
        <ele>1257</ele>
        <time>2023-05-07T09:46:39Z</time>
      </trkpt>
      <trkpt lat="48.00929" lon="6.97729">
        <ele>1256</ele>
        <time>2023-05-07T09:46:44Z</time>
      </trkpt>
      <trkpt lat="48.00928" lon="6.9772">
        <ele>1254</ele>
        <time>2023-05-07T09:46:50Z</time>
      </trkpt>
      <trkpt lat="48.00929" lon="6.97712">
        <ele>1253</ele>
        <time>2023-05-07T09:46:55Z</time>
      </trkpt>
      <trkpt lat="48.00928" lon="6.977">
        <ele>1251</ele>
        <time>2023-05-07T09:47:03Z</time>
      </trkpt>
      <trkpt lat="48.00929" lon="6.97652">
        <ele>1243</ele>
        <time>2023-05-07T09:47:35Z</time>
      </trkpt>
      <trkpt lat="48.00933" lon="6.97625">
        <ele>1238</ele>
        <time>2023-05-07T09:47:54Z</time>
      </trkpt>
      <trkpt lat="48.0093" lon="6.97619">
        <ele>1237</ele>
        <time>2023-05-07T09:47:59Z</time>
      </trkpt>
      <trkpt lat="48.00929" lon="6.97599">
        <ele>1234</ele>
        <time>2023-05-07T09:48:25Z</time>
      </trkpt>
      <trkpt lat="48.00928" lon="6.97592">
        <ele>1234</ele>
        <time>2023-05-07T09:48:28Z</time>
      </trkpt>
      <trkpt lat="48.00929" lon="6.97577">
        <ele>1232</ele>
        <time>2023-05-07T09:48:36Z</time>
      </trkpt>
      <trkpt lat="48.00928" lon="6.9757">
        <ele>1231</ele>
        <time>2023-05-07T09:48:40Z</time>
      </trkpt>
      <trkpt lat="48.00929" lon="6.97563">
        <ele>1230</ele>
        <time>2023-05-07T09:48:44Z</time>
      </trkpt>
      <trkpt lat="48.00927" lon="6.97547">
        <ele>1229</ele>
        <time>2023-05-07T09:48:52Z</time>
      </trkpt>
      <trkpt lat="48.00929" lon="6.9754">
        <ele>1228</ele>
        <time>2023-05-07T09:48:56Z</time>
      </trkpt>
      <trkpt lat="48.00928" lon="6.97533">
        <ele>1228</ele>
        <time>2023-05-07T09:48:59Z</time>
      </trkpt>
      <trkpt lat="48.00926" lon="6.97527">
        <ele>1227</ele>
        <time>2023-05-07T09:49:03Z</time>
      </trkpt>
      <trkpt lat="48.00921" lon="6.97523">
        <ele>1227</ele>
        <time>2023-05-07T09:49:09Z</time>
      </trkpt>
      <trkpt lat="48.00918" lon="6.97517">
        <ele>1226</ele>
        <time>2023-05-07T09:49:13Z</time>
      </trkpt>
      <trkpt lat="48.0091" lon="6.97509">
        <ele>1225</ele>
        <time>2023-05-07T09:49:22Z</time>
      </trkpt>
      <trkpt lat="48.00907" lon="6.97503">
        <ele>1224</ele>
        <time>2023-05-07T09:49:27Z</time>
      </trkpt>
      <trkpt lat="48.00906" lon="6.97497">
        <ele>1223</ele>
        <time>2023-05-07T09:49:31Z</time>
      </trkpt>
      <trkpt lat="48.00901" lon="6.9749">
        <ele>1222</ele>
        <time>2023-05-07T09:49:38Z</time>
      </trkpt>
      <trkpt lat="48.00901" lon="6.97484">
        <ele>1221</ele>
        <time>2023-05-07T09:49:42Z</time>
      </trkpt>
      <trkpt lat="48.00898" lon="6.97476">
        <ele>1220</ele>
        <time>2023-05-07T09:49:48Z</time>
      </trkpt>
      <trkpt lat="48.00878" lon="6.97455">
        <ele>1213</ele>
        <time>2023-05-07T09:50:16Z</time>
      </trkpt>
      <trkpt lat="48.00872" lon="6.97442">
        <ele>1210</ele>
        <time>2023-05-07T09:50:29Z</time>
      </trkpt>
      <trkpt lat="48.00862" lon="6.97436">
        <ele>1207</ele>
        <time>2023-05-07T09:50:42Z</time>
      </trkpt>
      <trkpt lat="48.00858" lon="6.97426">
        <ele>1205</ele>
        <time>2023-05-07T09:50:51Z</time>
      </trkpt>
      <trkpt lat="48.00853" lon="6.97425">
        <ele>1205</ele>
        <time>2023-05-07T09:50:55Z</time>
      </trkpt>
      <trkpt lat="48.00849" lon="6.97408">
        <ele>1202</ele>
        <time>2023-05-07T09:51:09Z</time>
      </trkpt>
      <trkpt lat="48.00844" lon="6.97402">
        <ele>1200</ele>
        <time>2023-05-07T09:51:15Z</time>
      </trkpt>
      <trkpt lat="48.00836" lon="6.97372">
        <ele>1194</ele>
        <time>2023-05-07T09:51:36Z</time>
      </trkpt>
      <trkpt lat="48.00833" lon="6.97363">
        <ele>1192</ele>
        <time>2023-05-07T09:51:44Z</time>
      </trkpt>
      <trkpt lat="48.00826" lon="6.97353">
        <ele>1190</ele>
        <time>2023-05-07T09:51:53Z</time>
      </trkpt>
      <trkpt lat="48.00823" lon="6.97348">
        <ele>1189</ele>
        <time>2023-05-07T09:51:56Z</time>
      </trkpt>
      <trkpt lat="48.00821" lon="6.97339">
        <ele>1188</ele>
        <time>2023-05-07T09:52:03Z</time>
      </trkpt>
      <trkpt lat="48.00815" lon="6.97323">
        <ele>1185</ele>
        <time>2023-05-07T09:52:16Z</time>
      </trkpt>
      <trkpt lat="48.00808" lon="6.97314">
        <ele>1183</ele>
        <time>2023-05-07T09:52:24Z</time>
      </trkpt>
      <trkpt lat="48.00804" lon="6.97325">
        <ele>1182</ele>
        <time>2023-05-07T09:52:35Z</time>
      </trkpt>
      <trkpt lat="48.00802" lon="6.97331">
        <ele>1183</ele>
        <time>2023-05-07T09:52:39Z</time>
      </trkpt>
      <trkpt lat="48.00797" lon="6.97389">
        <ele>1186</ele>
        <time>2023-05-07T09:53:12Z</time>
      </trkpt>
      <trkpt lat="48.00798" lon="6.97432">
        <ele>1189</ele>
        <time>2023-05-07T09:53:39Z</time>
      </trkpt>
      <trkpt lat="48.0079" lon="6.97474">
        <ele>1192</ele>
        <time>2023-05-07T09:54:06Z</time>
      </trkpt>
      <trkpt lat="48.00787" lon="6.9748">
        <ele>1192</ele>
        <time>2023-05-07T09:54:10Z</time>
      </trkpt>
      <trkpt lat="48.00785" lon="6.97486">
        <ele>1192</ele>
        <time>2023-05-07T09:54:14Z</time>
      </trkpt>
      <trkpt lat="48.00782" lon="6.97492">
        <ele>1192</ele>
        <time>2023-05-07T09:54:18Z</time>
      </trkpt>
      <trkpt lat="48.00778" lon="6.97498">
        <ele>1193</ele>
        <time>2023-05-07T09:54:23Z</time>
      </trkpt>
      <trkpt lat="48.00777" lon="6.97504">
        <ele>1193</ele>
        <time>2023-05-07T09:54:28Z</time>
      </trkpt>
      <trkpt lat="48.00788" lon="6.97464">
        <ele>1194</ele>
        <time>2023-05-07T10:02:22Z</time>
      </trkpt>
      <trkpt lat="48.00792" lon="6.97422">
        <ele>1191</ele>
        <time>2023-05-07T10:02:47Z</time>
      </trkpt>
      <trkpt lat="48.0079" lon="6.97413">
        <ele>1190</ele>
        <time>2023-05-07T10:02:54Z</time>
      </trkpt>
      <trkpt lat="48.00791" lon="6.97406">
        <ele>1190</ele>
        <time>2023-05-07T10:02:58Z</time>
      </trkpt>
      <trkpt lat="48.00792" lon="6.97368">
        <ele>1187</ele>
        <time>2023-05-07T10:03:18Z</time>
      </trkpt>
      <trkpt lat="48.00804" lon="6.97314">
        <ele>1184</ele>
        <time>2023-05-07T10:03:47Z</time>
      </trkpt>
      <trkpt lat="48.00798" lon="6.97314">
        <ele>1184</ele>
        <time>2023-05-07T10:03:56Z</time>
      </trkpt>
      <trkpt lat="48.00795" lon="6.97317">
        <ele>1183</ele>
        <time>2023-05-07T10:04:00Z</time>
      </trkpt>
      <trkpt lat="48.00784" lon="6.97308">
        <ele>1180</ele>
        <time>2023-05-07T10:04:12Z</time>
      </trkpt>
      <trkpt lat="48.00781" lon="6.97298">
        <ele>1179</ele>
        <time>2023-05-07T10:04:19Z</time>
      </trkpt>
      <trkpt lat="48.00763" lon="6.97252">
        <ele>1169</ele>
        <time>2023-05-07T10:04:55Z</time>
      </trkpt>
      <trkpt lat="48.0076" lon="6.97247">
        <ele>1169</ele>
        <time>2023-05-07T10:04:59Z</time>
      </trkpt>
      <trkpt lat="48.00756" lon="6.97244">
        <ele>1168</ele>
        <time>2023-05-07T10:05:03Z</time>
      </trkpt>
      <trkpt lat="48.00753" lon="6.97238">
        <ele>1168</ele>
        <time>2023-05-07T10:05:08Z</time>
      </trkpt>
      <trkpt lat="48.00744" lon="6.97193">
        <ele>1162</ele>
        <time>2023-05-07T10:05:41Z</time>
      </trkpt>
      <trkpt lat="48.00745" lon="6.97184">
        <ele>1161</ele>
        <time>2023-05-07T10:05:48Z</time>
      </trkpt>
      <trkpt lat="48.0074" lon="6.97175">
        <ele>1159</ele>
        <time>2023-05-07T10:06:00Z</time>
      </trkpt>
      <trkpt lat="48.00738" lon="6.97169">
        <ele>1159</ele>
        <time>2023-05-07T10:06:05Z</time>
      </trkpt>
      <trkpt lat="48.00733" lon="6.97165">
        <ele>1158</ele>
        <time>2023-05-07T10:06:10Z</time>
      </trkpt>
      <trkpt lat="48.0073" lon="6.97159">
        <ele>1158</ele>
        <time>2023-05-07T10:06:16Z</time>
      </trkpt>
      <trkpt lat="48.00721" lon="6.97152">
        <ele>1156</ele>
        <time>2023-05-07T10:06:24Z</time>
      </trkpt>
      <trkpt lat="48.00718" lon="6.97147">
        <ele>1155</ele>
        <time>2023-05-07T10:06:28Z</time>
      </trkpt>
      <trkpt lat="48.00716" lon="6.97141">
        <ele>1155</ele>
        <time>2023-05-07T10:06:32Z</time>
      </trkpt>
      <trkpt lat="48.00713" lon="6.97137">
        <ele>1155</ele>
        <time>2023-05-07T10:06:35Z</time>
      </trkpt>
      <trkpt lat="48.00698" lon="6.97112">
        <ele>1151</ele>
        <time>2023-05-07T10:06:56Z</time>
      </trkpt>
      <trkpt lat="48.00696" lon="6.97105">
        <ele>1150</ele>
        <time>2023-05-07T10:07:02Z</time>
      </trkpt>
      <trkpt lat="48.0069" lon="6.97094">
        <ele>1148</ele>
        <time>2023-05-07T10:07:11Z</time>
      </trkpt>
      <trkpt lat="48.00685" lon="6.97092">
        <ele>1148</ele>
        <time>2023-05-07T10:07:15Z</time>
      </trkpt>
      <trkpt lat="48.00685" lon="6.97086">
        <ele>1147</ele>
        <time>2023-05-07T10:07:19Z</time>
      </trkpt>
      <trkpt lat="48.00662" lon="6.97049">
        <ele>1144</ele>
        <time>2023-05-07T10:07:48Z</time>
      </trkpt>
      <trkpt lat="48.00658" lon="6.97045">
        <ele>1143</ele>
        <time>2023-05-07T10:07:51Z</time>
      </trkpt>
      <trkpt lat="48.0065" lon="6.97027">
        <ele>1140</ele>
        <time>2023-05-07T10:08:05Z</time>
      </trkpt>
      <trkpt lat="48.00648" lon="6.96998">
        <ele>1136</ele>
        <time>2023-05-07T10:08:24Z</time>
      </trkpt>
      <trkpt lat="48.00647" lon="6.96992">
        <ele>1136</ele>
        <time>2023-05-07T10:08:28Z</time>
      </trkpt>
      <trkpt lat="48.00648" lon="6.96985">
        <ele>1135</ele>
        <time>2023-05-07T10:08:33Z</time>
      </trkpt>
      <trkpt lat="48.00646" lon="6.96977">
        <ele>1133</ele>
        <time>2023-05-07T10:08:39Z</time>
      </trkpt>
      <trkpt lat="48.00641" lon="6.96964">
        <ele>1131</ele>
        <time>2023-05-07T10:08:52Z</time>
      </trkpt>
      <trkpt lat="48.00633" lon="6.96941">
        <ele>1127</ele>
        <time>2023-05-07T10:09:11Z</time>
      </trkpt>
      <trkpt lat="48.00633" lon="6.96935">
        <ele>1127</ele>
        <time>2023-05-07T10:09:15Z</time>
      </trkpt>
      <trkpt lat="48.00623" lon="6.96898">
        <ele>1122</ele>
        <time>2023-05-07T10:09:48Z</time>
      </trkpt>
      <trkpt lat="48.00611" lon="6.96883">
        <ele>1118</ele>
        <time>2023-05-07T10:10:07Z</time>
      </trkpt>
      <trkpt lat="48.00607" lon="6.96889">
        <ele>1116</ele>
        <time>2023-05-07T10:10:20Z</time>
      </trkpt>
      <trkpt lat="48.00604" lon="6.96904">
        <ele>1115</ele>
        <time>2023-05-07T10:10:30Z</time>
      </trkpt>
      <trkpt lat="48.00598" lon="6.96923">
        <ele>1112</ele>
        <time>2023-05-07T10:10:47Z</time>
      </trkpt>
      <trkpt lat="48.00596" lon="6.96929">
        <ele>1111</ele>
        <time>2023-05-07T10:10:52Z</time>
      </trkpt>
      <trkpt lat="48.00592" lon="6.96931">
        <ele>1110</ele>
        <time>2023-05-07T10:10:57Z</time>
      </trkpt>
      <trkpt lat="48.00588" lon="6.96936">
        <ele>1110</ele>
        <time>2023-05-07T10:11:01Z</time>
      </trkpt>
      <trkpt lat="48.0058" lon="6.96949">
        <ele>1108</ele>
        <time>2023-05-07T10:11:14Z</time>
      </trkpt>
      <trkpt lat="48.00578" lon="6.96941">
        <ele>1106</ele>
        <time>2023-05-07T10:11:22Z</time>
      </trkpt>
      <trkpt lat="48.00578" lon="6.96935">
        <ele>1106</ele>
        <time>2023-05-07T10:11:26Z</time>
      </trkpt>
      <trkpt lat="48.00574" lon="6.96929">
        <ele>1105</ele>
        <time>2023-05-07T10:11:29Z</time>
      </trkpt>
      <trkpt lat="48.00574" lon="6.96923">
        <ele>1104</ele>
        <time>2023-05-07T10:11:33Z</time>
      </trkpt>
      <trkpt lat="48.00573" lon="6.96906">
        <ele>1102</ele>
        <time>2023-05-07T10:11:44Z</time>
      </trkpt>
      <trkpt lat="48.0057" lon="6.96913">
        <ele>1100</ele>
        <time>2023-05-07T10:11:57Z</time>
      </trkpt>
      <trkpt lat="48.00569" lon="6.96923">
        <ele>1098</ele>
        <time>2023-05-07T10:12:03Z</time>
      </trkpt>
      <trkpt lat="48.00569" lon="6.96929">
        <ele>1097</ele>
        <time>2023-05-07T10:12:07Z</time>
      </trkpt>
      <trkpt lat="48.00564" lon="6.96941">
        <ele>1096</ele>
        <time>2023-05-07T10:12:16Z</time>
      </trkpt>
      <trkpt lat="48.0056" lon="6.96936">
        <ele>1094</ele>
        <time>2023-05-07T10:12:23Z</time>
      </trkpt>
      <trkpt lat="48.00556" lon="6.96916">
        <ele>1091</ele>
        <time>2023-05-07T10:12:35Z</time>
      </trkpt>
      <trkpt lat="48.00556" lon="6.96909">
        <ele>1090</ele>
        <time>2023-05-07T10:12:40Z</time>
      </trkpt>
      <trkpt lat="48.00553" lon="6.96922">
        <ele>1088</ele>
        <time>2023-05-07T10:12:51Z</time>
      </trkpt>
      <trkpt lat="48.00551" lon="6.96928">
        <ele>1087</ele>
        <time>2023-05-07T10:12:55Z</time>
      </trkpt>
      <trkpt lat="48.00546" lon="6.96924">
        <ele>1085</ele>
        <time>2023-05-07T10:13:03Z</time>
      </trkpt>
      <trkpt lat="48.0054" lon="6.96913">
        <ele>1084</ele>
        <time>2023-05-07T10:13:10Z</time>
      </trkpt>
      <trkpt lat="48.00538" lon="6.9692">
        <ele>1083</ele>
        <time>2023-05-07T10:13:18Z</time>
      </trkpt>
      <trkpt lat="48.0054" lon="6.96927">
        <ele>1082</ele>
        <time>2023-05-07T10:13:22Z</time>
      </trkpt>
      <trkpt lat="48.00539" lon="6.96934">
        <ele>1082</ele>
        <time>2023-05-07T10:13:26Z</time>
      </trkpt>
      <trkpt lat="48.00533" lon="6.96946">
        <ele>1080</ele>
        <time>2023-05-07T10:13:35Z</time>
      </trkpt>
      <trkpt lat="48.00527" lon="6.9695">
        <ele>1079</ele>
        <time>2023-05-07T10:13:43Z</time>
      </trkpt>
      <trkpt lat="48.00524" lon="6.96942">
        <ele>1078</ele>
        <time>2023-05-07T10:13:51Z</time>
      </trkpt>
      <trkpt lat="48.00524" lon="6.96935">
        <ele>1077</ele>
        <time>2023-05-07T10:13:54Z</time>
      </trkpt>
      <trkpt lat="48.00517" lon="6.96899">
        <ele>1073</ele>
        <time>2023-05-07T10:14:14Z</time>
      </trkpt>
      <trkpt lat="48.00515" lon="6.96903">
        <ele>1070</ele>
        <time>2023-05-07T10:14:28Z</time>
      </trkpt>
      <trkpt lat="48.00515" lon="6.96912">
        <ele>1069</ele>
        <time>2023-05-07T10:14:34Z</time>
      </trkpt>
      <trkpt lat="48.00513" lon="6.96918">
        <ele>1068</ele>
        <time>2023-05-07T10:14:38Z</time>
      </trkpt>
      <trkpt lat="48.0051" lon="6.96919">
        <ele>1066</ele>
        <time>2023-05-07T10:14:47Z</time>
      </trkpt>
      <trkpt lat="48.00506" lon="6.96906">
        <ele>1063</ele>
        <time>2023-05-07T10:14:55Z</time>
      </trkpt>
      <trkpt lat="48.005" lon="6.96895">
        <ele>1060</ele>
        <time>2023-05-07T10:15:05Z</time>
      </trkpt>
      <trkpt lat="48.00485" lon="6.96858">
        <ele>1054</ele>
        <time>2023-05-07T10:15:32Z</time>
      </trkpt>
      <trkpt lat="48.0048" lon="6.96856">
        <ele>1052</ele>
        <time>2023-05-07T10:15:39Z</time>
      </trkpt>
      <trkpt lat="48.00472" lon="6.96826">
        <ele>1048</ele>
        <time>2023-05-07T10:15:58Z</time>
      </trkpt>
      <trkpt lat="48.00472" lon="6.9682">
        <ele>1047</ele>
        <time>2023-05-07T10:16:02Z</time>
      </trkpt>
      <trkpt lat="48.00465" lon="6.96823">
        <ele>1044</ele>
        <time>2023-05-07T10:16:11Z</time>
      </trkpt>
      <trkpt lat="48.00462" lon="6.96826">
        <ele>1043</ele>
        <time>2023-05-07T10:16:14Z</time>
      </trkpt>
      <trkpt lat="48.00458" lon="6.96829">
        <ele>1042</ele>
        <time>2023-05-07T10:16:22Z</time>
      </trkpt>
      <trkpt lat="48.00452" lon="6.96819">
        <ele>1040</ele>
        <time>2023-05-07T10:16:32Z</time>
      </trkpt>
      <trkpt lat="48.00447" lon="6.96815">
        <ele>1038</ele>
        <time>2023-05-07T10:16:39Z</time>
      </trkpt>
      <trkpt lat="48.00442" lon="6.96818">
        <ele>1038</ele>
        <time>2023-05-07T10:16:43Z</time>
      </trkpt>
      <trkpt lat="48.00439" lon="6.96822">
        <ele>1037</ele>
        <time>2023-05-07T10:16:47Z</time>
      </trkpt>
      <trkpt lat="48.00432" lon="6.9682">
        <ele>1036</ele>
        <time>2023-05-07T10:16:54Z</time>
      </trkpt>
      <trkpt lat="48.00425" lon="6.96817">
        <ele>1036</ele>
        <time>2023-05-07T10:17:02Z</time>
      </trkpt>
      <trkpt lat="48.00422" lon="6.96811">
        <ele>1035</ele>
        <time>2023-05-07T10:17:05Z</time>
      </trkpt>
      <trkpt lat="48.00417" lon="6.9681">
        <ele>1036</ele>
        <time>2023-05-07T10:17:11Z</time>
      </trkpt>
      <trkpt lat="48.00415" lon="6.96801">
        <ele>1035</ele>
        <time>2023-05-07T10:17:18Z</time>
      </trkpt>
      <trkpt lat="48.00414" lon="6.96795">
        <ele>1035</ele>
        <time>2023-05-07T10:17:22Z</time>
      </trkpt>
      <trkpt lat="48.00416" lon="6.96789">
        <ele>1035</ele>
        <time>2023-05-07T10:17:26Z</time>
      </trkpt>
      <trkpt lat="48.0041" lon="6.96768">
        <ele>1032</ele>
        <time>2023-05-07T10:17:46Z</time>
      </trkpt>
      <trkpt lat="48.00402" lon="6.96752">
        <ele>1031</ele>
        <time>2023-05-07T10:17:58Z</time>
      </trkpt>
      <trkpt lat="48.00392" lon="6.96746">
        <ele>1030</ele>
        <time>2023-05-07T10:18:07Z</time>
      </trkpt>
      <trkpt lat="48.00392" lon="6.96739">
        <ele>1029</ele>
        <time>2023-05-07T10:18:11Z</time>
      </trkpt>
      <trkpt lat="48.00392" lon="6.96733">
        <ele>1029</ele>
        <time>2023-05-07T10:18:15Z</time>
      </trkpt>
      <trkpt lat="48.0039" lon="6.9672">
        <ele>1027</ele>
        <time>2023-05-07T10:18:23Z</time>
      </trkpt>
      <trkpt lat="48.00375" lon="6.96687">
        <ele>1025</ele>
        <time>2023-05-07T10:18:53Z</time>
      </trkpt>
      <trkpt lat="48.0037" lon="6.96678">
        <ele>1025</ele>
        <time>2023-05-07T10:19:03Z</time>
      </trkpt>
      <trkpt lat="48.00368" lon="6.96672">
        <ele>1026</ele>
        <time>2023-05-07T10:19:07Z</time>
      </trkpt>
      <trkpt lat="48.00366" lon="6.96665">
        <ele>1026</ele>
        <time>2023-05-07T10:19:11Z</time>
      </trkpt>
      <trkpt lat="48.00361" lon="6.96655">
        <ele>1026</ele>
        <time>2023-05-07T10:19:18Z</time>
      </trkpt>
      <trkpt lat="48.00348" lon="6.96635">
        <ele>1027</ele>
        <time>2023-05-07T10:19:32Z</time>
      </trkpt>
      <trkpt lat="48.00346" lon="6.96626">
        <ele>1028</ele>
        <time>2023-05-07T10:19:38Z</time>
      </trkpt>
      <trkpt lat="48.00345" lon="6.96606">
        <ele>1028</ele>
        <time>2023-05-07T10:19:49Z</time>
      </trkpt>
      <trkpt lat="48.00345" lon="6.96592">
        <ele>1029</ele>
        <time>2023-05-07T10:19:58Z</time>
      </trkpt>
      <trkpt lat="48.00343" lon="6.96585">
        <ele>1030</ele>
        <time>2023-05-07T10:20:03Z</time>
      </trkpt>
      <trkpt lat="48.00341" lon="6.9658">
        <ele>1030</ele>
        <time>2023-05-07T10:20:07Z</time>
      </trkpt>
      <trkpt lat="48.00334" lon="6.96574">
        <ele>1032</ele>
        <time>2023-05-07T10:20:20Z</time>
      </trkpt>
      <trkpt lat="48.00331" lon="6.96567">
        <ele>1033</ele>
        <time>2023-05-07T10:20:24Z</time>
      </trkpt>
      <trkpt lat="48.0031" lon="6.96548">
        <ele>1037</ele>
        <time>2023-05-07T10:20:52Z</time>
      </trkpt>
      <trkpt lat="48.00306" lon="6.96548">
        <ele>1039</ele>
        <time>2023-05-07T10:21:00Z</time>
      </trkpt>
      <trkpt lat="48.00298" lon="6.96544">
        <ele>1041</ele>
        <time>2023-05-07T10:21:11Z</time>
      </trkpt>
      <trkpt lat="48.00279" lon="6.96521">
        <ele>1046</ele>
        <time>2023-05-07T10:21:43Z</time>
      </trkpt>
      <trkpt lat="48.00274" lon="6.96517">
        <ele>1047</ele>
        <time>2023-05-07T10:21:50Z</time>
      </trkpt>
      <trkpt lat="48.00267" lon="6.96505">
        <ele>1049</ele>
        <time>2023-05-07T10:22:04Z</time>
      </trkpt>
      <trkpt lat="48.00265" lon="6.96499">
        <ele>1050</ele>
        <time>2023-05-07T10:22:09Z</time>
      </trkpt>
      <trkpt lat="48.00255" lon="6.96486">
        <ele>1052</ele>
        <time>2023-05-07T10:22:23Z</time>
      </trkpt>
      <trkpt lat="48.00243" lon="6.96473">
        <ele>1053</ele>
        <time>2023-05-07T10:22:37Z</time>
      </trkpt>
      <trkpt lat="48.00234" lon="6.96466">
        <ele>1055</ele>
        <time>2023-05-07T10:22:49Z</time>
      </trkpt>
      <trkpt lat="48.00231" lon="6.96461">
        <ele>1056</ele>
        <time>2023-05-07T10:22:54Z</time>
      </trkpt>
      <trkpt lat="48.00227" lon="6.96458">
        <ele>1056</ele>
        <time>2023-05-07T10:22:58Z</time>
      </trkpt>
      <trkpt lat="48.00218" lon="6.96457">
        <ele>1057</ele>
        <time>2023-05-07T10:23:06Z</time>
      </trkpt>
      <trkpt lat="48.00212" lon="6.96452">
        <ele>1058</ele>
        <time>2023-05-07T10:23:12Z</time>
      </trkpt>
      <trkpt lat="48.00192" lon="6.96445">
        <ele>1058</ele>
        <time>2023-05-07T10:23:28Z</time>
      </trkpt>
      <trkpt lat="48.00184" lon="6.96435">
        <ele>1060</ele>
        <time>2023-05-07T10:23:40Z</time>
      </trkpt>
      <trkpt lat="48.0018" lon="6.96433">
        <ele>1060</ele>
        <time>2023-05-07T10:23:44Z</time>
      </trkpt>
      <trkpt lat="48.00175" lon="6.96433">
        <ele>1061</ele>
        <time>2023-05-07T10:23:50Z</time>
      </trkpt>
      <trkpt lat="48.00166" lon="6.96435">
        <ele>1061</ele>
        <time>2023-05-07T10:23:58Z</time>
      </trkpt>
      <trkpt lat="48.00158" lon="6.9643">
        <ele>1061</ele>
        <time>2023-05-07T10:24:06Z</time>
      </trkpt>
      <trkpt lat="48.00153" lon="6.96431">
        <ele>1061</ele>
        <time>2023-05-07T10:24:10Z</time>
      </trkpt>
      <trkpt lat="48.00148" lon="6.96432">
        <ele>1060</ele>
        <time>2023-05-07T10:24:14Z</time>
      </trkpt>
      <trkpt lat="48.00141" lon="6.96433">
        <ele>1061</ele>
        <time>2023-05-07T10:24:22Z</time>
      </trkpt>
      <trkpt lat="48.00136" lon="6.96432">
        <ele>1062</ele>
        <time>2023-05-07T10:24:25Z</time>
      </trkpt>
      <trkpt lat="48.00129" lon="6.96436">
        <ele>1062</ele>
        <time>2023-05-07T10:24:32Z</time>
      </trkpt>
      <trkpt lat="48.00116" lon="6.96437">
        <ele>1061</ele>
        <time>2023-05-07T10:24:43Z</time>
      </trkpt>
      <trkpt lat="48.00111" lon="6.96436">
        <ele>1061</ele>
        <time>2023-05-07T10:24:47Z</time>
      </trkpt>
      <trkpt lat="48.00081" lon="6.96444">
        <ele>1058</ele>
        <time>2023-05-07T10:25:12Z</time>
      </trkpt>
      <trkpt lat="48.00066" lon="6.96442">
        <ele>1056</ele>
        <time>2023-05-07T10:25:24Z</time>
      </trkpt>
      <trkpt lat="48.00052" lon="6.96449">
        <ele>1055</ele>
        <time>2023-05-07T10:25:35Z</time>
      </trkpt>
      <trkpt lat="48.00047" lon="6.96448">
        <ele>1054</ele>
        <time>2023-05-07T10:25:39Z</time>
      </trkpt>
      <trkpt lat="48.00043" lon="6.96447">
        <ele>1055</ele>
        <time>2023-05-07T10:25:43Z</time>
      </trkpt>
      <trkpt lat="48.0004" lon="6.9644">
        <ele>1055</ele>
        <time>2023-05-07T10:25:49Z</time>
      </trkpt>
      <trkpt lat="48.00035" lon="6.96437">
        <ele>1056</ele>
        <time>2023-05-07T10:25:55Z</time>
      </trkpt>
      <trkpt lat="48.00031" lon="6.96432">
        <ele>1056</ele>
        <time>2023-05-07T10:25:59Z</time>
      </trkpt>
      <trkpt lat="48.00011" lon="6.96418">
        <ele>1058</ele>
        <time>2023-05-07T10:26:25Z</time>
      </trkpt>
      <trkpt lat="48.00002" lon="6.96412">
        <ele>1059</ele>
        <time>2023-05-07T10:26:35Z</time>
      </trkpt>
      <trkpt lat="47.99992" lon="6.96406">
        <ele>1060</ele>
        <time>2023-05-07T10:26:45Z</time>
      </trkpt>
      <trkpt lat="47.99985" lon="6.96398">
        <ele>1062</ele>
        <time>2023-05-07T10:26:53Z</time>
      </trkpt>
      <trkpt lat="47.99976" lon="6.96393">
        <ele>1062</ele>
        <time>2023-05-07T10:27:03Z</time>
      </trkpt>
      <trkpt lat="47.99966" lon="6.96387">
        <ele>1064</ele>
        <time>2023-05-07T10:27:15Z</time>
      </trkpt>
      <trkpt lat="47.99957" lon="6.96381">
        <ele>1064</ele>
        <time>2023-05-07T10:27:22Z</time>
      </trkpt>
      <trkpt lat="47.99951" lon="6.96375">
        <ele>1065</ele>
        <time>2023-05-07T10:27:30Z</time>
      </trkpt>
      <trkpt lat="47.99947" lon="6.96366">
        <ele>1066</ele>
        <time>2023-05-07T10:27:38Z</time>
      </trkpt>
      <trkpt lat="47.99943" lon="6.96365">
        <ele>1067</ele>
        <time>2023-05-07T10:27:42Z</time>
      </trkpt>
      <trkpt lat="47.99941" lon="6.96359">
        <ele>1067</ele>
        <time>2023-05-07T10:27:47Z</time>
      </trkpt>
      <trkpt lat="47.99932" lon="6.96349">
        <ele>1068</ele>
        <time>2023-05-07T10:27:58Z</time>
      </trkpt>
      <trkpt lat="47.99909" lon="6.96336">
        <ele>1071</ele>
        <time>2023-05-07T10:28:22Z</time>
      </trkpt>
      <trkpt lat="47.99905" lon="6.9633">
        <ele>1072</ele>
        <time>2023-05-07T10:28:28Z</time>
      </trkpt>
      <trkpt lat="47.99892" lon="6.96325">
        <ele>1074</ele>
        <time>2023-05-07T10:28:42Z</time>
      </trkpt>
      <trkpt lat="47.99866" lon="6.96307">
        <ele>1078</ele>
        <time>2023-05-07T10:29:13Z</time>
      </trkpt>
      <trkpt lat="47.99859" lon="6.96304">
        <ele>1079</ele>
        <time>2023-05-07T10:29:22Z</time>
      </trkpt>
      <trkpt lat="47.99854" lon="6.96302">
        <ele>1079</ele>
        <time>2023-05-07T10:29:25Z</time>
      </trkpt>
      <trkpt lat="47.99849" lon="6.96302">
        <ele>1079</ele>
        <time>2023-05-07T10:29:28Z</time>
      </trkpt>
      <trkpt lat="47.99842" lon="6.96298">
        <ele>1080</ele>
        <time>2023-05-07T10:29:37Z</time>
      </trkpt>
      <trkpt lat="47.99835" lon="6.96289">
        <ele>1082</ele>
        <time>2023-05-07T10:29:47Z</time>
      </trkpt>
      <trkpt lat="47.99823" lon="6.96287">
        <ele>1083</ele>
        <time>2023-05-07T10:30:00Z</time>
      </trkpt>
      <trkpt lat="47.99819" lon="6.96284">
        <ele>1084</ele>
        <time>2023-05-07T10:30:05Z</time>
      </trkpt>
      <trkpt lat="47.99814" lon="6.96283">
        <ele>1084</ele>
        <time>2023-05-07T10:30:10Z</time>
      </trkpt>
      <trkpt lat="47.99809" lon="6.96281">
        <ele>1084</ele>
        <time>2023-05-07T10:30:15Z</time>
      </trkpt>
      <trkpt lat="47.99805" lon="6.96277">
        <ele>1085</ele>
        <time>2023-05-07T10:30:20Z</time>
      </trkpt>
      <trkpt lat="47.998" lon="6.96274">
        <ele>1085</ele>
        <time>2023-05-07T10:30:25Z</time>
      </trkpt>
      <trkpt lat="47.99796" lon="6.96269">
        <ele>1085</ele>
        <time>2023-05-07T10:30:30Z</time>
      </trkpt>
      <trkpt lat="47.99794" lon="6.96265">
        <ele>1086</ele>
        <time>2023-05-07T10:30:34Z</time>
      </trkpt>
      <trkpt lat="47.9979" lon="6.96261">
        <ele>1086</ele>
        <time>2023-05-07T10:30:37Z</time>
      </trkpt>
      <trkpt lat="47.9978" lon="6.96243">
        <ele>1087</ele>
        <time>2023-05-07T10:30:51Z</time>
      </trkpt>
      <trkpt lat="47.99778" lon="6.96235">
        <ele>1087</ele>
        <time>2023-05-07T10:30:56Z</time>
      </trkpt>
      <trkpt lat="47.99773" lon="6.96212">
        <ele>1089</ele>
        <time>2023-05-07T10:31:10Z</time>
      </trkpt>
      <trkpt lat="47.99774" lon="6.96201">
        <ele>1090</ele>
        <time>2023-05-07T10:31:18Z</time>
      </trkpt>
      <trkpt lat="47.99779" lon="6.96189">
        <ele>1091</ele>
        <time>2023-05-07T10:31:26Z</time>
      </trkpt>
      <trkpt lat="47.99781" lon="6.96175">
        <ele>1092</ele>
        <time>2023-05-07T10:31:36Z</time>
      </trkpt>
      <trkpt lat="47.99781" lon="6.96163">
        <ele>1093</ele>
        <time>2023-05-07T10:31:44Z</time>
      </trkpt>
      <trkpt lat="47.99782" lon="6.96154">
        <ele>1093</ele>
        <time>2023-05-07T10:31:52Z</time>
      </trkpt>
      <trkpt lat="47.99782" lon="6.96146">
        <ele>1094</ele>
        <time>2023-05-07T10:31:57Z</time>
      </trkpt>
      <trkpt lat="47.99782" lon="6.9614">
        <ele>1094</ele>
        <time>2023-05-07T10:32:02Z</time>
      </trkpt>
      <trkpt lat="47.99782" lon="6.96132">
        <ele>1095</ele>
        <time>2023-05-07T10:32:10Z</time>
      </trkpt>
      <trkpt lat="47.99789" lon="6.96124">
        <ele>1096</ele>
        <time>2023-05-07T10:32:56Z</time>
      </trkpt>
      <trkpt lat="47.99789" lon="6.96116">
        <ele>1096</ele>
        <time>2023-05-07T10:32:59Z</time>
      </trkpt>
      <trkpt lat="47.99788" lon="6.9611">
        <ele>1097</ele>
        <time>2023-05-07T10:33:03Z</time>
      </trkpt>
      <trkpt lat="47.99795" lon="6.96083">
        <ele>1102</ele>
        <time>2023-05-07T10:33:31Z</time>
      </trkpt>
      <trkpt lat="47.99797" lon="6.96069">
        <ele>1104</ele>
        <time>2023-05-07T10:33:42Z</time>
      </trkpt>
      <trkpt lat="47.99804" lon="6.96065">
        <ele>1105</ele>
        <time>2023-05-07T10:33:50Z</time>
      </trkpt>
      <trkpt lat="47.99808" lon="6.9606">
        <ele>1105</ele>
        <time>2023-05-07T10:33:55Z</time>
      </trkpt>
      <trkpt lat="47.99814" lon="6.96048">
        <ele>1106</ele>
        <time>2023-05-07T10:34:04Z</time>
      </trkpt>
      <trkpt lat="47.99828" lon="6.96036">
        <ele>1109</ele>
        <time>2023-05-07T10:34:25Z</time>
      </trkpt>
      <trkpt lat="47.99839" lon="6.96018">
        <ele>1111</ele>
        <time>2023-05-07T10:34:41Z</time>
      </trkpt>
      <trkpt lat="47.9985" lon="6.96006">
        <ele>1111</ele>
        <time>2023-05-07T10:34:52Z</time>
      </trkpt>
      <trkpt lat="47.99858" lon="6.95999">
        <ele>1111</ele>
        <time>2023-05-07T10:34:59Z</time>
      </trkpt>
      <trkpt lat="47.99873" lon="6.95971">
        <ele>1109</ele>
        <time>2023-05-07T10:35:18Z</time>
      </trkpt>
      <trkpt lat="47.99875" lon="6.95965">
        <ele>1108</ele>
        <time>2023-05-07T10:35:22Z</time>
      </trkpt>
      <trkpt lat="47.99879" lon="6.95939">
        <ele>1106</ele>
        <time>2023-05-07T10:35:36Z</time>
      </trkpt>
      <trkpt lat="47.9988" lon="6.95932">
        <ele>1106</ele>
        <time>2023-05-07T10:35:39Z</time>
      </trkpt>
      <trkpt lat="47.99884" lon="6.95926">
        <ele>1105</ele>
        <time>2023-05-07T10:35:43Z</time>
      </trkpt>
      <trkpt lat="47.99886" lon="6.95921">
        <ele>1105</ele>
        <time>2023-05-07T10:35:46Z</time>
      </trkpt>
      <trkpt lat="47.99889" lon="6.95915">
        <ele>1104</ele>
        <time>2023-05-07T10:35:50Z</time>
      </trkpt>
      <trkpt lat="47.99891" lon="6.95907">
        <ele>1104</ele>
        <time>2023-05-07T10:35:54Z</time>
      </trkpt>
      <trkpt lat="47.99894" lon="6.95903">
        <ele>1104</ele>
        <time>2023-05-07T10:35:58Z</time>
      </trkpt>
      <trkpt lat="47.9991" lon="6.9589">
        <ele>1102</ele>
        <time>2023-05-07T10:36:13Z</time>
      </trkpt>
      <trkpt lat="47.99926" lon="6.95882">
        <ele>1100</ele>
        <time>2023-05-07T10:36:25Z</time>
      </trkpt>
      <trkpt lat="47.99929" lon="6.95877">
        <ele>1100</ele>
        <time>2023-05-07T10:36:29Z</time>
      </trkpt>
      <trkpt lat="47.99933" lon="6.95875">
        <ele>1099</ele>
        <time>2023-05-07T10:36:32Z</time>
      </trkpt>
      <trkpt lat="47.99946" lon="6.95864">
        <ele>1097</ele>
        <time>2023-05-07T10:36:44Z</time>
      </trkpt>
      <trkpt lat="47.99951" lon="6.95861">
        <ele>1097</ele>
        <time>2023-05-07T10:36:48Z</time>
      </trkpt>
      <trkpt lat="47.9997" lon="6.95817">
        <ele>1094</ele>
        <time>2023-05-07T10:37:20Z</time>
      </trkpt>
      <trkpt lat="47.99989" lon="6.95783">
        <ele>1090</ele>
        <time>2023-05-07T10:37:47Z</time>
      </trkpt>
      <trkpt lat="47.99993" lon="6.95778">
        <ele>1090</ele>
        <time>2023-05-07T10:37:50Z</time>
      </trkpt>
      <trkpt lat="47.99998" lon="6.95765">
        <ele>1089</ele>
        <time>2023-05-07T10:37:58Z</time>
      </trkpt>
      <trkpt lat="48.00006" lon="6.95758">
        <ele>1088</ele>
        <time>2023-05-07T10:38:05Z</time>
      </trkpt>
      <trkpt lat="48.00008" lon="6.95751">
        <ele>1087</ele>
        <time>2023-05-07T10:38:09Z</time>
      </trkpt>
      <trkpt lat="48.0002" lon="6.95736">
        <ele>1085</ele>
        <time>2023-05-07T10:38:22Z</time>
      </trkpt>
      <trkpt lat="48.00027" lon="6.95731">
        <ele>1084</ele>
        <time>2023-05-07T10:38:30Z</time>
      </trkpt>
      <trkpt lat="48.00033" lon="6.9572">
        <ele>1083</ele>
        <time>2023-05-07T10:38:38Z</time>
      </trkpt>
      <trkpt lat="48.00034" lon="6.95713">
        <ele>1083</ele>
        <time>2023-05-07T10:38:42Z</time>
      </trkpt>
      <trkpt lat="48.00045" lon="6.95691">
        <ele>1081</ele>
        <time>2023-05-07T10:39:13Z</time>
      </trkpt>
      <trkpt lat="48.00048" lon="6.95686">
        <ele>1081</ele>
        <time>2023-05-07T10:39:17Z</time>
      </trkpt>
      <trkpt lat="48.0005" lon="6.95676">
        <ele>1079</ele>
        <time>2023-05-07T10:39:23Z</time>
      </trkpt>
      <trkpt lat="48.00056" lon="6.95656">
        <ele>1078</ele>
        <time>2023-05-07T10:39:33Z</time>
      </trkpt>
      <trkpt lat="48.00062" lon="6.95645">
        <ele>1077</ele>
        <time>2023-05-07T10:39:40Z</time>
      </trkpt>
      <trkpt lat="48.00057" lon="6.95616">
        <ele>1075</ele>
        <time>2023-05-07T10:39:55Z</time>
      </trkpt>
      <trkpt lat="48.00056" lon="6.9561">
        <ele>1075</ele>
        <time>2023-05-07T10:40:00Z</time>
      </trkpt>
      <trkpt lat="48.00054" lon="6.95588">
        <ele>1074</ele>
        <time>2023-05-07T10:40:11Z</time>
      </trkpt>
      <trkpt lat="48.00051" lon="6.95583">
        <ele>1073</ele>
        <time>2023-05-07T10:40:16Z</time>
      </trkpt>
      <trkpt lat="48.00048" lon="6.95578">
        <ele>1072</ele>
        <time>2023-05-07T10:40:20Z</time>
      </trkpt>
      <trkpt lat="48.00041" lon="6.95567">
        <ele>1071</ele>
        <time>2023-05-07T10:40:27Z</time>
      </trkpt>
      <trkpt lat="48.00039" lon="6.95562">
        <ele>1070</ele>
        <time>2023-05-07T10:40:31Z</time>
      </trkpt>
      <trkpt lat="48.00036" lon="6.95556">
        <ele>1070</ele>
        <time>2023-05-07T10:40:34Z</time>
      </trkpt>
      <trkpt lat="48.00033" lon="6.95543">
        <ele>1069</ele>
        <time>2023-05-07T10:40:45Z</time>
      </trkpt>
      <trkpt lat="48.00029" lon="6.95524">
        <ele>1067</ele>
        <time>2023-05-07T10:40:56Z</time>
      </trkpt>
      <trkpt lat="48.00021" lon="6.95515">
        <ele>1066</ele>
        <time>2023-05-07T10:41:04Z</time>
      </trkpt>
      <trkpt lat="48.00018" lon="6.95504">
        <ele>1065</ele>
        <time>2023-05-07T10:41:12Z</time>
      </trkpt>
      <trkpt lat="48.00013" lon="6.95474">
        <ele>1063</ele>
        <time>2023-05-07T10:41:25Z</time>
      </trkpt>
      <trkpt lat="48.00009" lon="6.95461">
        <ele>1062</ele>
        <time>2023-05-07T10:41:32Z</time>
      </trkpt>
      <trkpt lat="48.0001" lon="6.95438">
        <ele>1060</ele>
        <time>2023-05-07T10:41:45Z</time>
      </trkpt>
      <trkpt lat="48.00007" lon="6.95424">
        <ele>1059</ele>
        <time>2023-05-07T10:41:54Z</time>
      </trkpt>
      <trkpt lat="48" lon="6.95407">
        <ele>1057</ele>
        <time>2023-05-07T10:42:05Z</time>
      </trkpt>
      <trkpt lat="48" lon="6.95399">
        <ele>1057</ele>
        <time>2023-05-07T10:42:08Z</time>
      </trkpt>
      <trkpt lat="48.00002" lon="6.95394">
        <ele>1057</ele>
        <time>2023-05-07T10:42:12Z</time>
      </trkpt>
      <trkpt lat="48.00006" lon="6.95372">
        <ele>1055</ele>
        <time>2023-05-07T10:42:24Z</time>
      </trkpt>
      <trkpt lat="48.00006" lon="6.9535">
        <ele>1053</ele>
        <time>2023-05-07T10:42:33Z</time>
      </trkpt>
      <trkpt lat="48.00009" lon="6.95315">
        <ele>1051</ele>
        <time>2023-05-07T10:42:53Z</time>
      </trkpt>
      <trkpt lat="48.00009" lon="6.95306">
        <ele>1050</ele>
        <time>2023-05-07T10:42:58Z</time>
      </trkpt>
      <trkpt lat="48.00006" lon="6.95299">
        <ele>1049</ele>
        <time>2023-05-07T10:43:05Z</time>
      </trkpt>
      <trkpt lat="48.00002" lon="6.95291">
        <ele>1048</ele>
        <time>2023-05-07T10:43:11Z</time>
      </trkpt>
      <trkpt lat="48.00001" lon="6.95284">
        <ele>1047</ele>
        <time>2023-05-07T10:43:15Z</time>
      </trkpt>
      <trkpt lat="48.00001" lon="6.95277">
        <ele>1046</ele>
        <time>2023-05-07T10:43:18Z</time>
      </trkpt>
      <trkpt lat="47.99997" lon="6.95263">
        <ele>1045</ele>
        <time>2023-05-07T10:43:29Z</time>
      </trkpt>
      <trkpt lat="47.99998" lon="6.95245">
        <ele>1043</ele>
        <time>2023-05-07T10:43:39Z</time>
      </trkpt>
      <trkpt lat="47.99995" lon="6.95232">
        <ele>1041</ele>
        <time>2023-05-07T10:43:45Z</time>
      </trkpt>
      <trkpt lat="47.99995" lon="6.95225">
        <ele>1040</ele>
        <time>2023-05-07T10:43:49Z</time>
      </trkpt>
      <trkpt lat="47.99991" lon="6.95204">
        <ele>1039</ele>
        <time>2023-05-07T10:43:59Z</time>
      </trkpt>
      <trkpt lat="47.99989" lon="6.95191">
        <ele>1037</ele>
        <time>2023-05-07T10:44:07Z</time>
      </trkpt>
      <trkpt lat="47.99993" lon="6.95159">
        <ele>1034</ele>
        <time>2023-05-07T10:44:26Z</time>
      </trkpt>
      <trkpt lat="47.99993" lon="6.95149">
        <ele>1033</ele>
        <time>2023-05-07T10:44:32Z</time>
      </trkpt>
      <trkpt lat="47.99994" lon="6.95136">
        <ele>1032</ele>
        <time>2023-05-07T10:44:39Z</time>
      </trkpt>
      <trkpt lat="47.99993" lon="6.95128">
        <ele>1031</ele>
        <time>2023-05-07T10:44:43Z</time>
      </trkpt>
      <trkpt lat="47.99997" lon="6.95102">
        <ele>1028</ele>
        <time>2023-05-07T10:45:00Z</time>
      </trkpt>
      <trkpt lat="47.9999" lon="6.95061">
        <ele>1025</ele>
        <time>2023-05-07T10:45:23Z</time>
      </trkpt>
      <trkpt lat="47.99987" lon="6.95055">
        <ele>1024</ele>
        <time>2023-05-07T10:45:27Z</time>
      </trkpt>
      <trkpt lat="47.99987" lon="6.95048">
        <ele>1024</ele>
        <time>2023-05-07T10:45:32Z</time>
      </trkpt>
      <trkpt lat="47.99986" lon="6.9504">
        <ele>1023</ele>
        <time>2023-05-07T10:45:36Z</time>
      </trkpt>
      <trkpt lat="47.99989" lon="6.95025">
        <ele>1022</ele>
        <time>2023-05-07T10:45:43Z</time>
      </trkpt>
      <trkpt lat="47.99996" lon="6.95015">
        <ele>1021</ele>
        <time>2023-05-07T10:45:49Z</time>
      </trkpt>
      <trkpt lat="47.99998" lon="6.94998">
        <ele>1019</ele>
        <time>2023-05-07T10:45:59Z</time>
      </trkpt>
      <trkpt lat="48.00003" lon="6.94995">
        <ele>1019</ele>
        <time>2023-05-07T10:46:02Z</time>
      </trkpt>
      <trkpt lat="48.00004" lon="6.94988">
        <ele>1018</ele>
        <time>2023-05-07T10:46:05Z</time>
      </trkpt>
      <trkpt lat="48.00009" lon="6.94982">
        <ele>1017</ele>
        <time>2023-05-07T10:46:14Z</time>
      </trkpt>
      <trkpt lat="48.00013" lon="6.94976">
        <ele>1016</ele>
        <time>2023-05-07T10:46:17Z</time>
      </trkpt>
      <trkpt lat="48.00016" lon="6.94962">
        <ele>1015</ele>
        <time>2023-05-07T10:46:24Z</time>
      </trkpt>
      <trkpt lat="48.00016" lon="6.94956">
        <ele>1015</ele>
        <time>2023-05-07T10:46:29Z</time>
      </trkpt>
      <trkpt lat="48.00011" lon="6.9495">
        <ele>1013</ele>
        <time>2023-05-07T10:46:39Z</time>
      </trkpt>
      <trkpt lat="48" lon="6.94951">
        <ele>1012</ele>
        <time>2023-05-07T10:46:46Z</time>
      </trkpt>
      <trkpt lat="47.99996" lon="6.94949">
        <ele>1012</ele>
        <time>2023-05-07T10:46:50Z</time>
      </trkpt>
      <trkpt lat="47.99992" lon="6.94943">
        <ele>1011</ele>
        <time>2023-05-07T10:46:54Z</time>
      </trkpt>
      <trkpt lat="47.99992" lon="6.94926">
        <ele>1010</ele>
        <time>2023-05-07T10:47:03Z</time>
      </trkpt>
      <trkpt lat="47.99989" lon="6.94919">
        <ele>1009</ele>
        <time>2023-05-07T10:47:07Z</time>
      </trkpt>
      <trkpt lat="47.99984" lon="6.94874">
        <ele>1005</ele>
        <time>2023-05-07T10:47:33Z</time>
      </trkpt>
      <trkpt lat="47.9998" lon="6.94867">
        <ele>1003</ele>
        <time>2023-05-07T10:47:41Z</time>
      </trkpt>
      <trkpt lat="47.9998" lon="6.94858">
        <ele>1002</ele>
        <time>2023-05-07T10:47:46Z</time>
      </trkpt>
      <trkpt lat="47.99978" lon="6.9485">
        <ele>1000</ele>
        <time>2023-05-07T10:47:52Z</time>
      </trkpt>
      <trkpt lat="47.99978" lon="6.94841">
        <ele>1000</ele>
        <time>2023-05-07T10:48:00Z</time>
      </trkpt>
      <trkpt lat="47.9998" lon="6.94834">
        <ele>999</ele>
        <time>2023-05-07T10:48:04Z</time>
      </trkpt>
      <trkpt lat="47.99988" lon="6.9482">
        <ele>1000</ele>
        <time>2023-05-07T10:48:14Z</time>
      </trkpt>
      <trkpt lat="47.99991" lon="6.94805">
        <ele>999</ele>
        <time>2023-05-07T10:48:23Z</time>
      </trkpt>
      <trkpt lat="47.99992" lon="6.94797">
        <ele>1000</ele>
        <time>2023-05-07T10:48:29Z</time>
      </trkpt>
      <trkpt lat="47.99994" lon="6.9479">
        <ele>1000</ele>
        <time>2023-05-07T10:48:33Z</time>
      </trkpt>
      <trkpt lat="47.99997" lon="6.94776">
        <ele>998</ele>
        <time>2023-05-07T10:48:41Z</time>
      </trkpt>
      <trkpt lat="48" lon="6.94766">
        <ele>996</ele>
        <time>2023-05-07T10:48:50Z</time>
      </trkpt>
      <trkpt lat="48.00004" lon="6.94752">
        <ele>994</ele>
        <time>2023-05-07T10:49:01Z</time>
      </trkpt>
      <trkpt lat="47.99999" lon="6.94755">
        <ele>992</ele>
        <time>2023-05-07T10:49:08Z</time>
      </trkpt>
      <trkpt lat="47.99999" lon="6.94744">
        <ele>990</ele>
        <time>2023-05-07T10:49:14Z</time>
      </trkpt>
      <trkpt lat="47.99998" lon="6.94734">
        <ele>988</ele>
        <time>2023-05-07T10:49:29Z</time>
      </trkpt>
      <trkpt lat="47.99999" lon="6.94727">
        <ele>987</ele>
        <time>2023-05-07T10:49:33Z</time>
      </trkpt>
      <trkpt lat="47.99996" lon="6.94721">
        <ele>987</ele>
        <time>2023-05-07T10:49:36Z</time>
      </trkpt>
      <trkpt lat="47.99994" lon="6.94706">
        <ele>986</ele>
        <time>2023-05-07T10:49:43Z</time>
      </trkpt>
      <trkpt lat="47.99991" lon="6.94701">
        <ele>986</ele>
        <time>2023-05-07T10:49:46Z</time>
      </trkpt>
      <trkpt lat="47.99992" lon="6.94677">
        <ele>983</ele>
        <time>2023-05-07T10:50:01Z</time>
      </trkpt>
      <trkpt lat="47.99991" lon="6.94669">
        <ele>982</ele>
        <time>2023-05-07T10:50:05Z</time>
      </trkpt>
      <trkpt lat="47.99992" lon="6.9466">
        <ele>982</ele>
        <time>2023-05-07T10:50:09Z</time>
      </trkpt>
      <trkpt lat="47.99995" lon="6.94646">
        <ele>980</ele>
        <time>2023-05-07T10:50:17Z</time>
      </trkpt>
      <trkpt lat="48.00002" lon="6.94638">
        <ele>979</ele>
        <time>2023-05-07T10:50:25Z</time>
      </trkpt>
      <trkpt lat="48.00005" lon="6.94632">
        <ele>977</ele>
        <time>2023-05-07T10:50:30Z</time>
      </trkpt>
      <trkpt lat="48.0001" lon="6.94629">
        <ele>976</ele>
        <time>2023-05-07T10:50:37Z</time>
      </trkpt>
      <trkpt lat="48.00013" lon="6.94623">
        <ele>975</ele>
        <time>2023-05-07T10:50:41Z</time>
      </trkpt>
      <trkpt lat="48.00026" lon="6.9461">
        <ele>971</ele>
        <time>2023-05-07T10:50:58Z</time>
      </trkpt>
      <trkpt lat="48.00021" lon="6.94611">
        <ele>968</ele>
        <time>2023-05-07T10:51:13Z</time>
      </trkpt>
      <trkpt lat="48.00017" lon="6.94606">
        <ele>965</ele>
        <time>2023-05-07T10:51:25Z</time>
      </trkpt>
      <trkpt lat="48.00016" lon="6.94598">
        <ele>964</ele>
        <time>2023-05-07T10:51:31Z</time>
      </trkpt>
      <trkpt lat="48.00018" lon="6.94591">
        <ele>963</ele>
        <time>2023-05-07T10:51:35Z</time>
      </trkpt>
      <trkpt lat="48.00024" lon="6.9458">
        <ele>962</ele>
        <time>2023-05-07T10:51:43Z</time>
      </trkpt>
      <trkpt lat="48.00029" lon="6.94558">
        <ele>961</ele>
        <time>2023-05-07T10:51:55Z</time>
      </trkpt>
      <trkpt lat="48.00029" lon="6.94546">
        <ele>961</ele>
        <time>2023-05-07T10:52:01Z</time>
      </trkpt>
      <trkpt lat="48.00029" lon="6.94547">
        <ele>961</ele>
        <time>2023-05-07T10:52:29Z</time>
      </trkpt>
      <trkpt lat="48.00032" lon="6.94547">
        <ele>961</ele>
        <time>2023-05-07T10:52:45Z</time>
      </trkpt>
      <trkpt lat="48.00041" lon="6.9453">
        <ele>960</ele>
        <time>2023-05-07T10:52:55Z</time>
      </trkpt>
      <trkpt lat="48.00046" lon="6.94526">
        <ele>960</ele>
        <time>2023-05-07T10:52:58Z</time>
      </trkpt>
      <trkpt lat="48.00047" lon="6.94518">
        <ele>960</ele>
        <time>2023-05-07T10:53:10Z</time>
      </trkpt>
      <trkpt lat="48.00049" lon="6.94511">
        <ele>960</ele>
        <time>2023-05-07T10:53:15Z</time>
      </trkpt>
      <trkpt lat="48.00048" lon="6.94502">
        <ele>961</ele>
        <time>2023-05-07T10:53:22Z</time>
      </trkpt>
      <trkpt lat="48.00053" lon="6.94482">
        <ele>962</ele>
        <time>2023-05-07T10:53:34Z</time>
      </trkpt>
      <trkpt lat="48.00054" lon="6.94475">
        <ele>962</ele>
        <time>2023-05-07T10:53:38Z</time>
      </trkpt>
      <trkpt lat="48.00055" lon="6.94468">
        <ele>962</ele>
        <time>2023-05-07T10:53:42Z</time>
      </trkpt>
      <trkpt lat="48.00052" lon="6.94452">
        <ele>963</ele>
        <time>2023-05-07T10:53:52Z</time>
      </trkpt>
      <trkpt lat="48.00047" lon="6.94445">
        <ele>964</ele>
        <time>2023-05-07T10:54:00Z</time>
      </trkpt>
      <trkpt lat="48.00045" lon="6.94439">
        <ele>964</ele>
        <time>2023-05-07T10:54:05Z</time>
      </trkpt>
      <trkpt lat="48.0004" lon="6.94436">
        <ele>965</ele>
        <time>2023-05-07T10:54:08Z</time>
      </trkpt>
      <trkpt lat="48.00036" lon="6.94435">
        <ele>965</ele>
        <time>2023-05-07T10:54:11Z</time>
      </trkpt>
      <trkpt lat="48.00026" lon="6.94432">
        <ele>966</ele>
        <time>2023-05-07T10:54:20Z</time>
      </trkpt>
      <trkpt lat="48.00018" lon="6.94425">
        <ele>967</ele>
        <time>2023-05-07T10:54:27Z</time>
      </trkpt>
      <trkpt lat="48.00016" lon="6.9442">
        <ele>967</ele>
        <time>2023-05-07T10:54:30Z</time>
      </trkpt>
      <trkpt lat="48.00013" lon="6.94403">
        <ele>968</ele>
        <time>2023-05-07T10:54:37Z</time>
      </trkpt>
      <trkpt lat="48.00013" lon="6.94395">
        <ele>968</ele>
        <time>2023-05-07T10:54:41Z</time>
      </trkpt>
      <trkpt lat="48.00016" lon="6.94378">
        <ele>969</ele>
        <time>2023-05-07T10:54:48Z</time>
      </trkpt>
      <trkpt lat="48.0002" lon="6.94364">
        <ele>970</ele>
        <time>2023-05-07T10:54:56Z</time>
      </trkpt>
      <trkpt lat="48.00022" lon="6.9435">
        <ele>971</ele>
        <time>2023-05-07T10:55:03Z</time>
      </trkpt>
      <trkpt lat="48.00025" lon="6.94344">
        <ele>971</ele>
        <time>2023-05-07T10:55:07Z</time>
      </trkpt>
      <trkpt lat="48.00027" lon="6.94338">
        <ele>971</ele>
        <time>2023-05-07T10:55:11Z</time>
      </trkpt>
      <trkpt lat="48.00032" lon="6.94323">
        <ele>973</ele>
        <time>2023-05-07T10:55:25Z</time>
      </trkpt>
      <trkpt lat="48.00035" lon="6.94318">
        <ele>973</ele>
        <time>2023-05-07T10:55:29Z</time>
      </trkpt>
      <trkpt lat="48.00038" lon="6.94295">
        <ele>974</ele>
        <time>2023-05-07T10:55:40Z</time>
      </trkpt>
      <trkpt lat="48.00041" lon="6.94289">
        <ele>975</ele>
        <time>2023-05-07T10:55:45Z</time>
      </trkpt>
      <trkpt lat="48.00042" lon="6.94281">
        <ele>976</ele>
        <time>2023-05-07T10:55:49Z</time>
      </trkpt>
      <trkpt lat="48.00041" lon="6.94273">
        <ele>976</ele>
        <time>2023-05-07T10:55:53Z</time>
      </trkpt>
      <trkpt lat="48.00041" lon="6.94264">
        <ele>977</ele>
        <time>2023-05-07T10:56:00Z</time>
      </trkpt>
      <trkpt lat="48.00041" lon="6.94256">
        <ele>978</ele>
        <time>2023-05-07T10:56:11Z</time>
      </trkpt>
      <trkpt lat="48.00036" lon="6.94241">
        <ele>979</ele>
        <time>2023-05-07T10:56:31Z</time>
      </trkpt>
      <trkpt lat="48.00035" lon="6.94233">
        <ele>979</ele>
        <time>2023-05-07T10:56:35Z</time>
      </trkpt>
      <trkpt lat="48.00013" lon="6.94179">
        <ele>984</ele>
        <time>2023-05-07T10:57:13Z</time>
      </trkpt>
      <trkpt lat="48.0001" lon="6.94172">
        <ele>984</ele>
        <time>2023-05-07T10:57:17Z</time>
      </trkpt>
      <trkpt lat="48.00002" lon="6.94139">
        <ele>987</ele>
        <time>2023-05-07T10:57:39Z</time>
      </trkpt>
      <trkpt lat="47.99995" lon="6.94129">
        <ele>988</ele>
        <time>2023-05-07T10:57:47Z</time>
      </trkpt>
      <trkpt lat="47.9997" lon="6.94096">
        <ele>991</ele>
        <time>2023-05-07T10:58:17Z</time>
      </trkpt>
      <trkpt lat="47.99965" lon="6.94085">
        <ele>992</ele>
        <time>2023-05-07T10:58:24Z</time>
      </trkpt>
      <trkpt lat="47.99944" lon="6.94055">
        <ele>995</ele>
        <time>2023-05-07T10:58:49Z</time>
      </trkpt>
      <trkpt lat="47.99918" lon="6.94035">
        <ele>996</ele>
        <time>2023-05-07T10:59:11Z</time>
      </trkpt>
      <trkpt lat="47.99906" lon="6.94017">
        <ele>998</ele>
        <time>2023-05-07T10:59:28Z</time>
      </trkpt>
      <trkpt lat="47.9989" lon="6.94004">
        <ele>1000</ele>
        <time>2023-05-07T10:59:43Z</time>
      </trkpt>
      <trkpt lat="47.99881" lon="6.94001">
        <ele>1000</ele>
        <time>2023-05-07T10:59:51Z</time>
      </trkpt>
      <trkpt lat="47.99869" lon="6.93991">
        <ele>1001</ele>
        <time>2023-05-07T11:00:03Z</time>
      </trkpt>
      <trkpt lat="47.99847" lon="6.93977">
        <ele>1003</ele>
        <time>2023-05-07T11:00:24Z</time>
      </trkpt>
      <trkpt lat="47.99843" lon="6.93974">
        <ele>1003</ele>
        <time>2023-05-07T11:00:27Z</time>
      </trkpt>
      <trkpt lat="47.9982" lon="6.93965">
        <ele>1005</ele>
        <time>2023-05-07T11:00:46Z</time>
      </trkpt>
      <trkpt lat="47.99785" lon="6.93962">
        <ele>1007</ele>
        <time>2023-05-07T11:01:14Z</time>
      </trkpt>
      <trkpt lat="47.99752" lon="6.9395">
        <ele>1009</ele>
        <time>2023-05-07T11:01:44Z</time>
      </trkpt>
      <trkpt lat="47.99719" lon="6.93952">
        <ele>1012</ele>
        <time>2023-05-07T11:02:11Z</time>
      </trkpt>
      <trkpt lat="47.99706" lon="6.93944">
        <ele>1012</ele>
        <time>2023-05-07T11:02:22Z</time>
      </trkpt>
      <trkpt lat="47.99701" lon="6.9394">
        <ele>1013</ele>
        <time>2023-05-07T11:02:26Z</time>
      </trkpt>
      <trkpt lat="47.99697" lon="6.93933">
        <ele>1013</ele>
        <time>2023-05-07T11:02:32Z</time>
      </trkpt>
      <trkpt lat="47.99663" lon="6.93906">
        <ele>1016</ele>
        <time>2023-05-07T11:03:03Z</time>
      </trkpt>
      <trkpt lat="47.99626" lon="6.93887">
        <ele>1018</ele>
        <time>2023-05-07T11:03:36Z</time>
      </trkpt>
      <trkpt lat="47.99612" lon="6.93881">
        <ele>1019</ele>
        <time>2023-05-07T11:03:48Z</time>
      </trkpt>
      <trkpt lat="47.99577" lon="6.93855">
        <ele>1021</ele>
        <time>2023-05-07T11:04:19Z</time>
      </trkpt>
      <trkpt lat="47.99568" lon="6.93851">
        <ele>1022</ele>
        <time>2023-05-07T11:04:29Z</time>
      </trkpt>
      <trkpt lat="47.99556" lon="6.93838">
        <ele>1023</ele>
        <time>2023-05-07T11:04:40Z</time>
      </trkpt>
      <trkpt lat="47.99552" lon="6.93835">
        <ele>1023</ele>
        <time>2023-05-07T11:04:44Z</time>
      </trkpt>
      <trkpt lat="47.99548" lon="6.93832">
        <ele>1024</ele>
        <time>2023-05-07T11:04:48Z</time>
      </trkpt>
      <trkpt lat="47.99533" lon="6.93826">
        <ele>1025</ele>
        <time>2023-05-07T11:05:01Z</time>
      </trkpt>
      <trkpt lat="47.99525" lon="6.9382">
        <ele>1025</ele>
        <time>2023-05-07T11:05:09Z</time>
      </trkpt>
      <trkpt lat="47.99508" lon="6.93813">
        <ele>1027</ele>
        <time>2023-05-07T11:05:24Z</time>
      </trkpt>
      <trkpt lat="47.99473" lon="6.93792">
        <ele>1029</ele>
        <time>2023-05-07T11:05:57Z</time>
      </trkpt>
      <trkpt lat="47.9946" lon="6.93779">
        <ele>1031</ele>
        <time>2023-05-07T11:06:11Z</time>
      </trkpt>
      <trkpt lat="47.99451" lon="6.93767">
        <ele>1031</ele>
        <time>2023-05-07T11:06:21Z</time>
      </trkpt>
      <trkpt lat="47.99434" lon="6.93757">
        <ele>1033</ele>
        <time>2023-05-07T11:06:37Z</time>
      </trkpt>
      <trkpt lat="47.99402" lon="6.93754">
        <ele>1035</ele>
        <time>2023-05-07T11:07:05Z</time>
      </trkpt>
      <trkpt lat="47.9938" lon="6.93738">
        <ele>1037</ele>
        <time>2023-05-07T11:07:27Z</time>
      </trkpt>
      <trkpt lat="47.99375" lon="6.93738">
        <ele>1037</ele>
        <time>2023-05-07T11:07:30Z</time>
      </trkpt>
      <trkpt lat="47.9937" lon="6.93734">
        <ele>1037</ele>
        <time>2023-05-07T11:07:35Z</time>
      </trkpt>
      <trkpt lat="47.99361" lon="6.93731">
        <ele>1038</ele>
        <time>2023-05-07T11:07:42Z</time>
      </trkpt>
      <trkpt lat="47.99353" lon="6.93726">
        <ele>1039</ele>
        <time>2023-05-07T11:07:50Z</time>
      </trkpt>
      <trkpt lat="47.99345" lon="6.93716">
        <ele>1039</ele>
        <time>2023-05-07T11:08:02Z</time>
      </trkpt>
      <trkpt lat="47.99341" lon="6.93713">
        <ele>1040</ele>
        <time>2023-05-07T11:08:14Z</time>
      </trkpt>
      <trkpt lat="47.99336" lon="6.93707">
        <ele>1040</ele>
        <time>2023-05-07T11:08:19Z</time>
      </trkpt>
      <trkpt lat="47.99326" lon="6.93692">
        <ele>1041</ele>
        <time>2023-05-07T11:08:31Z</time>
      </trkpt>
      <trkpt lat="47.99295" lon="6.93666">
        <ele>1044</ele>
        <time>2023-05-07T11:09:04Z</time>
      </trkpt>
      <trkpt lat="47.99288" lon="6.93657">
        <ele>1044</ele>
        <time>2023-05-07T11:09:12Z</time>
      </trkpt>
      <trkpt lat="47.99283" lon="6.93653">
        <ele>1045</ele>
        <time>2023-05-07T11:09:16Z</time>
      </trkpt>
      <trkpt lat="47.99276" lon="6.93644">
        <ele>1045</ele>
        <time>2023-05-07T11:09:24Z</time>
      </trkpt>
      <trkpt lat="47.99247" lon="6.93616">
        <ele>1047</ele>
        <time>2023-05-07T11:09:53Z</time>
      </trkpt>
      <trkpt lat="47.9924" lon="6.93605">
        <ele>1048</ele>
        <time>2023-05-07T11:10:02Z</time>
      </trkpt>
      <trkpt lat="47.99226" lon="6.93572">
        <ele>1049</ele>
        <time>2023-05-07T11:10:25Z</time>
      </trkpt>
      <trkpt lat="47.99216" lon="6.93559">
        <ele>1050</ele>
        <time>2023-05-07T11:10:37Z</time>
      </trkpt>
      <trkpt lat="47.99211" lon="6.93557">
        <ele>1050</ele>
        <time>2023-05-07T11:10:40Z</time>
      </trkpt>
      <trkpt lat="47.99183" lon="6.93517">
        <ele>1053</ele>
        <time>2023-05-07T11:11:11Z</time>
      </trkpt>
      <trkpt lat="47.99171" lon="6.93494">
        <ele>1054</ele>
        <time>2023-05-07T11:11:29Z</time>
      </trkpt>
      <trkpt lat="47.99167" lon="6.93492">
        <ele>1054</ele>
        <time>2023-05-07T11:11:32Z</time>
      </trkpt>
      <trkpt lat="47.99153" lon="6.93475">
        <ele>1055</ele>
        <time>2023-05-07T11:11:48Z</time>
      </trkpt>
      <trkpt lat="47.99141" lon="6.9345">
        <ele>1056</ele>
        <time>2023-05-07T11:12:06Z</time>
      </trkpt>
      <trkpt lat="47.99139" lon="6.93443">
        <ele>1057</ele>
        <time>2023-05-07T11:12:10Z</time>
      </trkpt>
      <trkpt lat="47.99134" lon="6.93432">
        <ele>1057</ele>
        <time>2023-05-07T11:12:17Z</time>
      </trkpt>
      <trkpt lat="47.9912" lon="6.93384">
        <ele>1059</ele>
        <time>2023-05-07T11:12:48Z</time>
      </trkpt>
      <trkpt lat="47.99119" lon="6.93377">
        <ele>1060</ele>
        <time>2023-05-07T11:12:52Z</time>
      </trkpt>
      <trkpt lat="47.99111" lon="6.93351">
        <ele>1061</ele>
        <time>2023-05-07T11:13:07Z</time>
      </trkpt>
      <trkpt lat="47.99109" lon="6.93321">
        <ele>1062</ele>
        <time>2023-05-07T11:13:24Z</time>
      </trkpt>
      <trkpt lat="47.99107" lon="6.93307">
        <ele>1063</ele>
        <time>2023-05-07T11:13:32Z</time>
      </trkpt>
      <trkpt lat="47.99108" lon="6.933">
        <ele>1063</ele>
        <time>2023-05-07T11:13:36Z</time>
      </trkpt>
      <trkpt lat="47.99106" lon="6.93285">
        <ele>1063</ele>
        <time>2023-05-07T11:13:45Z</time>
      </trkpt>
      <trkpt lat="47.99102" lon="6.93272">
        <ele>1064</ele>
        <time>2023-05-07T11:13:53Z</time>
      </trkpt>
      <trkpt lat="47.99102" lon="6.93264">
        <ele>1064</ele>
        <time>2023-05-07T11:13:57Z</time>
      </trkpt>
      <trkpt lat="47.99092" lon="6.93217">
        <ele>1067</ele>
        <time>2023-05-07T11:14:29Z</time>
      </trkpt>
      <trkpt lat="47.99089" lon="6.93204">
        <ele>1067</ele>
        <time>2023-05-07T11:14:36Z</time>
      </trkpt>
      <trkpt lat="47.99088" lon="6.93169">
        <ele>1068</ele>
        <time>2023-05-07T11:14:55Z</time>
      </trkpt>
      <trkpt lat="47.9909" lon="6.9316">
        <ele>1069</ele>
        <time>2023-05-07T11:15:04Z</time>
      </trkpt>
      <trkpt lat="47.99092" lon="6.93153">
        <ele>1069</ele>
        <time>2023-05-07T11:15:07Z</time>
      </trkpt>
      <trkpt lat="47.9909" lon="6.93147">
        <ele>1069</ele>
        <time>2023-05-07T11:15:10Z</time>
      </trkpt>
      <trkpt lat="47.99095" lon="6.93118">
        <ele>1070</ele>
        <time>2023-05-07T11:15:25Z</time>
      </trkpt>
      <trkpt lat="47.99094" lon="6.93111">
        <ele>1070</ele>
        <time>2023-05-07T11:15:29Z</time>
      </trkpt>
      <trkpt lat="47.99097" lon="6.93083">
        <ele>1071</ele>
        <time>2023-05-07T11:15:45Z</time>
      </trkpt>
      <trkpt lat="47.99102" lon="6.93048">
        <ele>1072</ele>
        <time>2023-05-07T11:16:05Z</time>
      </trkpt>
      <trkpt lat="47.99103" lon="6.93027">
        <ele>1073</ele>
        <time>2023-05-07T11:16:19Z</time>
      </trkpt>
      <trkpt lat="47.99102" lon="6.9302">
        <ele>1073</ele>
        <time>2023-05-07T11:16:23Z</time>
      </trkpt>
      <trkpt lat="47.99103" lon="6.93006">
        <ele>1074</ele>
        <time>2023-05-07T11:16:31Z</time>
      </trkpt>
      <trkpt lat="47.99098" lon="6.9297">
        <ele>1075</ele>
        <time>2023-05-07T11:16:51Z</time>
      </trkpt>
      <trkpt lat="47.99096" lon="6.92964">
        <ele>1075</ele>
        <time>2023-05-07T11:16:55Z</time>
      </trkpt>
      <trkpt lat="47.99078" lon="6.92931">
        <ele>1076</ele>
        <time>2023-05-07T11:17:18Z</time>
      </trkpt>
      <trkpt lat="47.99075" lon="6.92916">
        <ele>1075</ele>
        <time>2023-05-07T11:17:27Z</time>
      </trkpt>
      <trkpt lat="47.99076" lon="6.92891">
        <ele>1075</ele>
        <time>2023-05-07T11:17:39Z</time>
      </trkpt>
      <trkpt lat="47.99077" lon="6.92883">
        <ele>1075</ele>
        <time>2023-05-07T11:17:43Z</time>
      </trkpt>
      <trkpt lat="47.99077" lon="6.92826">
        <ele>1075</ele>
        <time>2023-05-07T11:18:14Z</time>
      </trkpt>
      <trkpt lat="47.99075" lon="6.92796">
        <ele>1073</ele>
        <time>2023-05-07T11:18:33Z</time>
      </trkpt>
      <trkpt lat="47.99064" lon="6.92742">
        <ele>1071</ele>
        <time>2023-05-07T11:19:07Z</time>
      </trkpt>
      <trkpt lat="47.99056" lon="6.92717">
        <ele>1071</ele>
        <time>2023-05-07T11:19:21Z</time>
      </trkpt>
      <trkpt lat="47.99053" lon="6.92697">
        <ele>1072</ele>
        <time>2023-05-07T11:19:39Z</time>
      </trkpt>
      <trkpt lat="47.99053" lon="6.9269">
        <ele>1071</ele>
        <time>2023-05-07T11:19:43Z</time>
      </trkpt>
      <trkpt lat="47.99053" lon="6.92682">
        <ele>1071</ele>
        <time>2023-05-07T11:19:47Z</time>
      </trkpt>
      <trkpt lat="47.99053" lon="6.92676">
        <ele>1072</ele>
        <time>2023-05-07T11:19:52Z</time>
      </trkpt>
      <trkpt lat="47.99049" lon="6.92696">
        <ele>1071</ele>
        <time>2023-05-07T11:21:09Z</time>
      </trkpt>
      <trkpt lat="47.99053" lon="6.92695">
        <ele>1071</ele>
        <time>2023-05-07T11:21:13Z</time>
      </trkpt>
      <trkpt lat="47.99059" lon="6.927">
        <ele>1070</ele>
        <time>2023-05-07T11:21:19Z</time>
      </trkpt>
      <trkpt lat="47.99057" lon="6.92706">
        <ele>1071</ele>
        <time>2023-05-07T11:21:27Z</time>
      </trkpt>
      <trkpt lat="47.99054" lon="6.927">
        <ele>1070</ele>
        <time>2023-05-07T11:21:39Z</time>
      </trkpt>
      <trkpt lat="47.99053" lon="6.92711">
        <ele>1067</ele>
        <time>2023-05-07T12:20:13Z</time>
      </trkpt>
      <trkpt lat="47.99054" lon="6.92712">
        <ele>1067</ele>
        <time>2023-05-07T12:20:14Z</time>
      </trkpt>
      <trkpt lat="47.99046" lon="6.92716">
        <ele>1067</ele>
        <time>2023-05-07T12:20:26Z</time>
      </trkpt>
      <trkpt lat="47.99046" lon="6.92724">
        <ele>1066</ele>
        <time>2023-05-07T12:20:30Z</time>
      </trkpt>
      <trkpt lat="47.99048" lon="6.92731">
        <ele>1066</ele>
        <time>2023-05-07T12:20:35Z</time>
      </trkpt>
      <trkpt lat="47.99055" lon="6.92728">
        <ele>1066</ele>
        <time>2023-05-07T12:20:41Z</time>
      </trkpt>
      <trkpt lat="47.9906" lon="6.92729">
        <ele>1067</ele>
        <time>2023-05-07T12:20:43Z</time>
      </trkpt>
      <trkpt lat="47.99064" lon="6.92729">
        <ele>1066</ele>
        <time>2023-05-07T12:20:47Z</time>
      </trkpt>
      <trkpt lat="47.99069" lon="6.92732">
        <ele>1066</ele>
        <time>2023-05-07T12:20:51Z</time>
      </trkpt>
      <trkpt lat="47.99071" lon="6.92737">
        <ele>1066</ele>
        <time>2023-05-07T12:20:57Z</time>
      </trkpt>
      <trkpt lat="47.99072" lon="6.92746">
        <ele>1066</ele>
        <time>2023-05-07T12:21:03Z</time>
      </trkpt>
      <trkpt lat="47.99076" lon="6.92759">
        <ele>1067</ele>
        <time>2023-05-07T12:21:12Z</time>
      </trkpt>
      <trkpt lat="47.99077" lon="6.92767">
        <ele>1067</ele>
        <time>2023-05-07T12:21:15Z</time>
      </trkpt>
      <trkpt lat="47.99079" lon="6.92772">
        <ele>1067</ele>
        <time>2023-05-07T12:21:18Z</time>
      </trkpt>
      <trkpt lat="47.9908" lon="6.92787">
        <ele>1068</ele>
        <time>2023-05-07T12:21:29Z</time>
      </trkpt>
      <trkpt lat="47.99083" lon="6.92794">
        <ele>1068</ele>
        <time>2023-05-07T12:21:33Z</time>
      </trkpt>
      <trkpt lat="47.99084" lon="6.92801">
        <ele>1068</ele>
        <time>2023-05-07T12:21:37Z</time>
      </trkpt>
      <trkpt lat="47.99086" lon="6.92843">
        <ele>1070</ele>
        <time>2023-05-07T12:22:01Z</time>
      </trkpt>
      <trkpt lat="47.99088" lon="6.9285">
        <ele>1070</ele>
        <time>2023-05-07T12:22:05Z</time>
      </trkpt>
      <trkpt lat="47.99086" lon="6.92864">
        <ele>1070</ele>
        <time>2023-05-07T12:22:14Z</time>
      </trkpt>
      <trkpt lat="47.99085" lon="6.92871">
        <ele>1070</ele>
        <time>2023-05-07T12:22:18Z</time>
      </trkpt>
      <trkpt lat="47.99085" lon="6.92878">
        <ele>1070</ele>
        <time>2023-05-07T12:22:22Z</time>
      </trkpt>
      <trkpt lat="47.99084" lon="6.92885">
        <ele>1070</ele>
        <time>2023-05-07T12:22:26Z</time>
      </trkpt>
      <trkpt lat="47.99082" lon="6.9292">
        <ele>1071</ele>
        <time>2023-05-07T12:22:47Z</time>
      </trkpt>
      <trkpt lat="47.99085" lon="6.92934">
        <ele>1071</ele>
        <time>2023-05-07T12:23:04Z</time>
      </trkpt>
      <trkpt lat="47.99085" lon="6.92948">
        <ele>1072</ele>
        <time>2023-05-07T12:23:12Z</time>
      </trkpt>
      <trkpt lat="47.9907" lon="6.92989">
        <ele>1076</ele>
        <time>2023-05-07T12:23:46Z</time>
      </trkpt>
      <trkpt lat="47.99068" lon="6.92996">
        <ele>1077</ele>
        <time>2023-05-07T12:23:51Z</time>
      </trkpt>
      <trkpt lat="47.99065" lon="6.93001">
        <ele>1077</ele>
        <time>2023-05-07T12:23:56Z</time>
      </trkpt>
      <trkpt lat="47.99064" lon="6.93008">
        <ele>1078</ele>
        <time>2023-05-07T12:24:00Z</time>
      </trkpt>
      <trkpt lat="47.9905" lon="6.93031">
        <ele>1080</ele>
        <time>2023-05-07T12:24:20Z</time>
      </trkpt>
      <trkpt lat="47.99048" lon="6.93037">
        <ele>1080</ele>
        <time>2023-05-07T12:24:23Z</time>
      </trkpt>
      <trkpt lat="47.99043" lon="6.93044">
        <ele>1081</ele>
        <time>2023-05-07T12:24:31Z</time>
      </trkpt>
      <trkpt lat="47.99039" lon="6.93065">
        <ele>1084</ele>
        <time>2023-05-07T12:24:51Z</time>
      </trkpt>
      <trkpt lat="47.99037" lon="6.9307">
        <ele>1085</ele>
        <time>2023-05-07T12:24:58Z</time>
      </trkpt>
      <trkpt lat="47.99021" lon="6.93081">
        <ele>1088</ele>
        <time>2023-05-07T12:25:29Z</time>
      </trkpt>
      <trkpt lat="47.99018" lon="6.93093">
        <ele>1090</ele>
        <time>2023-05-07T12:25:41Z</time>
      </trkpt>
      <trkpt lat="47.99015" lon="6.9312">
        <ele>1093</ele>
        <time>2023-05-07T12:26:01Z</time>
      </trkpt>
      <trkpt lat="47.99009" lon="6.93123">
        <ele>1094</ele>
        <time>2023-05-07T12:26:07Z</time>
      </trkpt>
      <trkpt lat="47.99" lon="6.93121">
        <ele>1095</ele>
        <time>2023-05-07T12:26:15Z</time>
      </trkpt>
      <trkpt lat="47.98995" lon="6.93123">
        <ele>1095</ele>
        <time>2023-05-07T12:26:19Z</time>
      </trkpt>
      <trkpt lat="47.9899" lon="6.93122">
        <ele>1095</ele>
        <time>2023-05-07T12:26:22Z</time>
      </trkpt>
      <trkpt lat="47.98986" lon="6.93122">
        <ele>1096</ele>
        <time>2023-05-07T12:26:27Z</time>
      </trkpt>
      <trkpt lat="47.98959" lon="6.93151">
        <ele>1101</ele>
        <time>2023-05-07T12:27:05Z</time>
      </trkpt>
      <trkpt lat="47.98953" lon="6.93153">
        <ele>1102</ele>
        <time>2023-05-07T12:27:13Z</time>
      </trkpt>
      <trkpt lat="47.9895" lon="6.93158">
        <ele>1103</ele>
        <time>2023-05-07T12:27:18Z</time>
      </trkpt>
      <trkpt lat="47.98949" lon="6.93167">
        <ele>1105</ele>
        <time>2023-05-07T12:27:29Z</time>
      </trkpt>
      <trkpt lat="47.98951" lon="6.93173">
        <ele>1106</ele>
        <time>2023-05-07T12:27:35Z</time>
      </trkpt>
      <trkpt lat="47.98954" lon="6.93178">
        <ele>1106</ele>
        <time>2023-05-07T12:27:40Z</time>
      </trkpt>
      <trkpt lat="47.9896" lon="6.93195">
        <ele>1109</ele>
        <time>2023-05-07T12:27:56Z</time>
      </trkpt>
      <trkpt lat="47.98957" lon="6.93201">
        <ele>1110</ele>
        <time>2023-05-07T12:28:00Z</time>
      </trkpt>
      <trkpt lat="47.98949" lon="6.93207">
        <ele>1111</ele>
        <time>2023-05-07T12:28:07Z</time>
      </trkpt>
      <trkpt lat="47.98945" lon="6.93206">
        <ele>1111</ele>
        <time>2023-05-07T12:28:09Z</time>
      </trkpt>
      <trkpt lat="47.98937" lon="6.93211">
        <ele>1112</ele>
        <time>2023-05-07T12:28:17Z</time>
      </trkpt>
      <trkpt lat="47.98955" lon="6.93242">
        <ele>1116</ele>
        <time>2023-05-07T12:28:46Z</time>
      </trkpt>
      <trkpt lat="47.98955" lon="6.93251">
        <ele>1117</ele>
        <time>2023-05-07T12:28:54Z</time>
      </trkpt>
      <trkpt lat="47.98945" lon="6.93262">
        <ele>1119</ele>
        <time>2023-05-07T12:29:08Z</time>
      </trkpt>
      <trkpt lat="47.9894" lon="6.93268">
        <ele>1121</ele>
        <time>2023-05-07T12:29:17Z</time>
      </trkpt>
      <trkpt lat="47.98935" lon="6.9327">
        <ele>1121</ele>
        <time>2023-05-07T12:29:21Z</time>
      </trkpt>
      <trkpt lat="47.98933" lon="6.93275">
        <ele>1122</ele>
        <time>2023-05-07T12:29:26Z</time>
      </trkpt>
      <trkpt lat="47.98929" lon="6.93296">
        <ele>1125</ele>
        <time>2023-05-07T12:29:43Z</time>
      </trkpt>
      <trkpt lat="47.98929" lon="6.93303">
        <ele>1125</ele>
        <time>2023-05-07T12:29:48Z</time>
      </trkpt>
      <trkpt lat="47.98926" lon="6.93307">
        <ele>1126</ele>
        <time>2023-05-07T12:29:52Z</time>
      </trkpt>
      <trkpt lat="47.98923" lon="6.93316">
        <ele>1127</ele>
        <time>2023-05-07T12:30:00Z</time>
      </trkpt>
      <trkpt lat="47.98917" lon="6.93327">
        <ele>1128</ele>
        <time>2023-05-07T12:30:09Z</time>
      </trkpt>
      <trkpt lat="47.98916" lon="6.93345">
        <ele>1129</ele>
        <time>2023-05-07T12:30:23Z</time>
      </trkpt>
      <trkpt lat="47.98921" lon="6.93383">
        <ele>1133</ele>
        <time>2023-05-07T12:30:50Z</time>
      </trkpt>
      <trkpt lat="47.98923" lon="6.9339">
        <ele>1133</ele>
        <time>2023-05-07T12:30:55Z</time>
      </trkpt>
      <trkpt lat="47.98924" lon="6.93404">
        <ele>1133</ele>
        <time>2023-05-07T12:31:05Z</time>
      </trkpt>
      <trkpt lat="47.98931" lon="6.93432">
        <ele>1133</ele>
        <time>2023-05-07T12:31:24Z</time>
      </trkpt>
      <trkpt lat="47.98931" lon="6.9344">
        <ele>1133</ele>
        <time>2023-05-07T12:31:29Z</time>
      </trkpt>
      <trkpt lat="47.98938" lon="6.93467">
        <ele>1134</ele>
        <time>2023-05-07T12:31:48Z</time>
      </trkpt>
      <trkpt lat="47.98941" lon="6.93472">
        <ele>1134</ele>
        <time>2023-05-07T12:31:52Z</time>
      </trkpt>
      <trkpt lat="47.9895" lon="6.93507">
        <ele>1135</ele>
        <time>2023-05-07T12:32:16Z</time>
      </trkpt>
      <trkpt lat="47.98952" lon="6.93521">
        <ele>1135</ele>
        <time>2023-05-07T12:32:25Z</time>
      </trkpt>
      <trkpt lat="47.98951" lon="6.93542">
        <ele>1135</ele>
        <time>2023-05-07T12:32:38Z</time>
      </trkpt>
      <trkpt lat="47.98955" lon="6.93596">
        <ele>1137</ele>
        <time>2023-05-07T12:33:15Z</time>
      </trkpt>
      <trkpt lat="47.98957" lon="6.9361">
        <ele>1138</ele>
        <time>2023-05-07T12:33:25Z</time>
      </trkpt>
      <trkpt lat="47.98962" lon="6.93653">
        <ele>1139</ele>
        <time>2023-05-07T12:33:55Z</time>
      </trkpt>
      <trkpt lat="47.98963" lon="6.93682">
        <ele>1139</ele>
        <time>2023-05-07T12:34:15Z</time>
      </trkpt>
      <trkpt lat="47.9896" lon="6.93732">
        <ele>1140</ele>
        <time>2023-05-07T12:34:49Z</time>
      </trkpt>
      <trkpt lat="47.98959" lon="6.93739">
        <ele>1141</ele>
        <time>2023-05-07T12:34:54Z</time>
      </trkpt>
      <trkpt lat="47.98961" lon="6.93766">
        <ele>1142</ele>
        <time>2023-05-07T12:35:13Z</time>
      </trkpt>
      <trkpt lat="47.98963" lon="6.93773">
        <ele>1143</ele>
        <time>2023-05-07T12:35:18Z</time>
      </trkpt>
      <trkpt lat="47.98967" lon="6.93784">
        <ele>1144</ele>
        <time>2023-05-07T12:35:27Z</time>
      </trkpt>
      <trkpt lat="47.9897" lon="6.93797">
        <ele>1145</ele>
        <time>2023-05-07T12:35:39Z</time>
      </trkpt>
      <trkpt lat="47.98972" lon="6.93803">
        <ele>1145</ele>
        <time>2023-05-07T12:35:44Z</time>
      </trkpt>
      <trkpt lat="47.98976" lon="6.9381">
        <ele>1145</ele>
        <time>2023-05-07T12:35:51Z</time>
      </trkpt>
      <trkpt lat="47.9898" lon="6.93825">
        <ele>1147</ele>
        <time>2023-05-07T12:36:04Z</time>
      </trkpt>
      <trkpt lat="47.98981" lon="6.93841">
        <ele>1147</ele>
        <time>2023-05-07T12:36:15Z</time>
      </trkpt>
      <trkpt lat="47.98984" lon="6.93851">
        <ele>1148</ele>
        <time>2023-05-07T12:36:22Z</time>
      </trkpt>
      <trkpt lat="47.98991" lon="6.93869">
        <ele>1149</ele>
        <time>2023-05-07T12:36:34Z</time>
      </trkpt>
      <trkpt lat="47.98993" lon="6.93882">
        <ele>1150</ele>
        <time>2023-05-07T12:36:42Z</time>
      </trkpt>
      <trkpt lat="47.98992" lon="6.93889">
        <ele>1150</ele>
        <time>2023-05-07T12:36:47Z</time>
      </trkpt>
      <trkpt lat="47.9899" lon="6.93896">
        <ele>1150</ele>
        <time>2023-05-07T12:36:51Z</time>
      </trkpt>
      <trkpt lat="47.98991" lon="6.93898">
        <ele>1150</ele>
        <time>2023-05-07T12:38:30Z</time>
      </trkpt>
      <trkpt lat="47.98994" lon="6.93909">
        <ele>1151</ele>
        <time>2023-05-07T12:38:41Z</time>
      </trkpt>
      <trkpt lat="47.98992" lon="6.93919">
        <ele>1151</ele>
        <time>2023-05-07T12:38:49Z</time>
      </trkpt>
      <trkpt lat="47.9898" lon="6.93942">
        <ele>1152</ele>
        <time>2023-05-07T12:39:08Z</time>
      </trkpt>
      <trkpt lat="47.98955" lon="6.93975">
        <ele>1152</ele>
        <time>2023-05-07T12:39:36Z</time>
      </trkpt>
      <trkpt lat="47.98948" lon="6.93994">
        <ele>1152</ele>
        <time>2023-05-07T12:39:49Z</time>
      </trkpt>
      <trkpt lat="47.98944" lon="6.94031">
        <ele>1151</ele>
        <time>2023-05-07T12:40:13Z</time>
      </trkpt>
      <trkpt lat="47.98944" lon="6.94086">
        <ele>1151</ele>
        <time>2023-05-07T12:40:45Z</time>
      </trkpt>
      <trkpt lat="47.9894" lon="6.94114">
        <ele>1152</ele>
        <time>2023-05-07T12:41:02Z</time>
      </trkpt>
      <trkpt lat="47.98939" lon="6.94149">
        <ele>1153</ele>
        <time>2023-05-07T12:41:24Z</time>
      </trkpt>
      <trkpt lat="47.98943" lon="6.9417">
        <ele>1153</ele>
        <time>2023-05-07T12:41:37Z</time>
      </trkpt>
      <trkpt lat="47.98944" lon="6.94181">
        <ele>1153</ele>
        <time>2023-05-07T12:41:45Z</time>
      </trkpt>
      <trkpt lat="47.98945" lon="6.94194">
        <ele>1153</ele>
        <time>2023-05-07T12:41:54Z</time>
      </trkpt>
      <trkpt lat="47.98945" lon="6.94201">
        <ele>1152</ele>
        <time>2023-05-07T12:41:58Z</time>
      </trkpt>
      <trkpt lat="47.98949" lon="6.94214">
        <ele>1152</ele>
        <time>2023-05-07T12:42:07Z</time>
      </trkpt>
      <trkpt lat="47.98954" lon="6.9423">
        <ele>1151</ele>
        <time>2023-05-07T12:42:18Z</time>
      </trkpt>
      <trkpt lat="47.98952" lon="6.94244">
        <ele>1150</ele>
        <time>2023-05-07T12:42:27Z</time>
      </trkpt>
      <trkpt lat="47.98956" lon="6.94275">
        <ele>1149</ele>
        <time>2023-05-07T12:42:47Z</time>
      </trkpt>
      <trkpt lat="47.98955" lon="6.94289">
        <ele>1148</ele>
        <time>2023-05-07T12:42:56Z</time>
      </trkpt>
      <trkpt lat="47.98953" lon="6.94302">
        <ele>1147</ele>
        <time>2023-05-07T12:43:04Z</time>
      </trkpt>
      <trkpt lat="47.98955" lon="6.94308">
        <ele>1147</ele>
        <time>2023-05-07T12:43:08Z</time>
      </trkpt>
      <trkpt lat="47.98955" lon="6.94322">
        <ele>1148</ele>
        <time>2023-05-07T12:43:17Z</time>
      </trkpt>
      <trkpt lat="47.98957" lon="6.9433">
        <ele>1148</ele>
        <time>2023-05-07T12:43:22Z</time>
      </trkpt>
      <trkpt lat="47.98959" lon="6.94341">
        <ele>1148</ele>
        <time>2023-05-07T12:43:31Z</time>
      </trkpt>
      <trkpt lat="47.98959" lon="6.94348">
        <ele>1148</ele>
        <time>2023-05-07T12:43:35Z</time>
      </trkpt>
      <trkpt lat="47.98961" lon="6.94355">
        <ele>1148</ele>
        <time>2023-05-07T12:43:39Z</time>
      </trkpt>
      <trkpt lat="47.98961" lon="6.94361">
        <ele>1149</ele>
        <time>2023-05-07T12:43:43Z</time>
      </trkpt>
      <trkpt lat="47.98961" lon="6.94376">
        <ele>1148</ele>
        <time>2023-05-07T12:43:51Z</time>
      </trkpt>
      <trkpt lat="47.98966" lon="6.94388">
        <ele>1148</ele>
        <time>2023-05-07T12:44:00Z</time>
      </trkpt>
      <trkpt lat="47.98966" lon="6.94395">
        <ele>1148</ele>
        <time>2023-05-07T12:44:04Z</time>
      </trkpt>
      <trkpt lat="47.98967" lon="6.94402">
        <ele>1148</ele>
        <time>2023-05-07T12:44:08Z</time>
      </trkpt>
      <trkpt lat="47.98965" lon="6.94408">
        <ele>1148</ele>
        <time>2023-05-07T12:44:12Z</time>
      </trkpt>
      <trkpt lat="47.98963" lon="6.94415">
        <ele>1147</ele>
        <time>2023-05-07T12:44:20Z</time>
      </trkpt>
      <trkpt lat="47.98965" lon="6.94422">
        <ele>1147</ele>
        <time>2023-05-07T12:44:26Z</time>
      </trkpt>
      <trkpt lat="47.98964" lon="6.9443">
        <ele>1146</ele>
        <time>2023-05-07T12:44:33Z</time>
      </trkpt>
      <trkpt lat="47.98962" lon="6.94439">
        <ele>1146</ele>
        <time>2023-05-07T12:44:40Z</time>
      </trkpt>
      <trkpt lat="47.98966" lon="6.94465">
        <ele>1143</ele>
        <time>2023-05-07T12:45:02Z</time>
      </trkpt>
      <trkpt lat="47.98975" lon="6.94501">
        <ele>1141</ele>
        <time>2023-05-07T12:45:30Z</time>
      </trkpt>
      <trkpt lat="47.98975" lon="6.94508">
        <ele>1140</ele>
        <time>2023-05-07T12:45:35Z</time>
      </trkpt>
      <trkpt lat="47.9898" lon="6.94528">
        <ele>1139</ele>
        <time>2023-05-07T12:45:51Z</time>
      </trkpt>
      <trkpt lat="47.98984" lon="6.94537">
        <ele>1139</ele>
        <time>2023-05-07T12:46:00Z</time>
      </trkpt>
      <trkpt lat="47.98987" lon="6.94543">
        <ele>1138</ele>
        <time>2023-05-07T12:46:06Z</time>
      </trkpt>
      <trkpt lat="47.99001" lon="6.94554">
        <ele>1138</ele>
        <time>2023-05-07T12:46:21Z</time>
      </trkpt>
      <trkpt lat="47.99007" lon="6.94567">
        <ele>1137</ele>
        <time>2023-05-07T12:46:31Z</time>
      </trkpt>
      <trkpt lat="47.99013" lon="6.94578">
        <ele>1136</ele>
        <time>2023-05-07T12:46:41Z</time>
      </trkpt>
      <trkpt lat="47.99017" lon="6.94583">
        <ele>1137</ele>
        <time>2023-05-07T12:46:46Z</time>
      </trkpt>
      <trkpt lat="47.99019" lon="6.94592">
        <ele>1136</ele>
        <time>2023-05-07T12:46:54Z</time>
      </trkpt>
      <trkpt lat="47.99015" lon="6.94598">
        <ele>1135</ele>
        <time>2023-05-07T12:46:59Z</time>
      </trkpt>
      <trkpt lat="47.99011" lon="6.94599">
        <ele>1135</ele>
        <time>2023-05-07T12:47:02Z</time>
      </trkpt>
      <trkpt lat="47.99006" lon="6.946">
        <ele>1134</ele>
        <time>2023-05-07T12:47:04Z</time>
      </trkpt>
      <trkpt lat="47.98996" lon="6.94595">
        <ele>1133</ele>
        <time>2023-05-07T12:47:15Z</time>
      </trkpt>
      <trkpt lat="47.98991" lon="6.94595">
        <ele>1133</ele>
        <time>2023-05-07T12:47:20Z</time>
      </trkpt>
      <trkpt lat="47.98988" lon="6.94599">
        <ele>1132</ele>
        <time>2023-05-07T12:47:25Z</time>
      </trkpt>
      <trkpt lat="47.98983" lon="6.94599">
        <ele>1131</ele>
        <time>2023-05-07T12:47:31Z</time>
      </trkpt>
      <trkpt lat="47.98979" lon="6.94596">
        <ele>1130</ele>
        <time>2023-05-07T12:47:39Z</time>
      </trkpt>
      <trkpt lat="47.98971" lon="6.94588">
        <ele>1129</ele>
        <time>2023-05-07T12:47:47Z</time>
      </trkpt>
      <trkpt lat="47.98944" lon="6.9457">
        <ele>1125</ele>
        <time>2023-05-07T12:48:18Z</time>
      </trkpt>
      <trkpt lat="47.98941" lon="6.94566">
        <ele>1124</ele>
        <time>2023-05-07T12:48:23Z</time>
      </trkpt>
      <trkpt lat="47.98938" lon="6.9456">
        <ele>1124</ele>
        <time>2023-05-07T12:48:28Z</time>
      </trkpt>
      <trkpt lat="47.98921" lon="6.94543">
        <ele>1121</ele>
        <time>2023-05-07T12:48:49Z</time>
      </trkpt>
      <trkpt lat="47.9892" lon="6.94547">
        <ele>1119</ele>
        <time>2023-05-07T12:49:08Z</time>
      </trkpt>
      <trkpt lat="47.98921" lon="6.94553">
        <ele>1118</ele>
        <time>2023-05-07T12:49:13Z</time>
      </trkpt>
      <trkpt lat="47.98923" lon="6.94559">
        <ele>1117</ele>
        <time>2023-05-07T12:49:16Z</time>
      </trkpt>
      <trkpt lat="47.98919" lon="6.94568">
        <ele>1116</ele>
        <time>2023-05-07T12:49:26Z</time>
      </trkpt>
      <trkpt lat="47.98916" lon="6.94564">
        <ele>1116</ele>
        <time>2023-05-07T12:49:29Z</time>
      </trkpt>
      <trkpt lat="47.98908" lon="6.94542">
        <ele>1115</ele>
        <time>2023-05-07T12:49:43Z</time>
      </trkpt>
      <trkpt lat="47.98905" lon="6.94536">
        <ele>1115</ele>
        <time>2023-05-07T12:49:47Z</time>
      </trkpt>
      <trkpt lat="47.98902" lon="6.9453">
        <ele>1114</ele>
        <time>2023-05-07T12:49:51Z</time>
      </trkpt>
      <trkpt lat="47.98893" lon="6.94516">
        <ele>1112</ele>
        <time>2023-05-07T12:50:06Z</time>
      </trkpt>
      <trkpt lat="47.98892" lon="6.9451">
        <ele>1111</ele>
        <time>2023-05-07T12:50:13Z</time>
      </trkpt>
      <trkpt lat="47.98889" lon="6.94504">
        <ele>1111</ele>
        <time>2023-05-07T12:50:19Z</time>
      </trkpt>
      <trkpt lat="47.98885" lon="6.94501">
        <ele>1111</ele>
        <time>2023-05-07T12:50:23Z</time>
      </trkpt>
      <trkpt lat="47.98882" lon="6.94497">
        <ele>1110</ele>
        <time>2023-05-07T12:50:29Z</time>
      </trkpt>
      <trkpt lat="47.98876" lon="6.94495">
        <ele>1108</ele>
        <time>2023-05-07T12:50:43Z</time>
      </trkpt>
      <trkpt lat="47.9887" lon="6.94502">
        <ele>1106</ele>
        <time>2023-05-07T12:50:54Z</time>
      </trkpt>
      <trkpt lat="47.98865" lon="6.94511">
        <ele>1104</ele>
        <time>2023-05-07T12:51:02Z</time>
      </trkpt>
      <trkpt lat="47.98861" lon="6.94514">
        <ele>1104</ele>
        <time>2023-05-07T12:51:06Z</time>
      </trkpt>
      <trkpt lat="47.98855" lon="6.94516">
        <ele>1101</ele>
        <time>2023-05-07T12:51:20Z</time>
      </trkpt>
      <trkpt lat="47.98852" lon="6.94513">
        <ele>1101</ele>
        <time>2023-05-07T12:51:24Z</time>
      </trkpt>
      <trkpt lat="47.98844" lon="6.94514">
        <ele>1100</ele>
        <time>2023-05-07T12:51:33Z</time>
      </trkpt>
      <trkpt lat="47.98822" lon="6.94519">
        <ele>1100</ele>
        <time>2023-05-07T12:52:48Z</time>
      </trkpt>
      <trkpt lat="47.98817" lon="6.94521">
        <ele>1100</ele>
        <time>2023-05-07T12:52:52Z</time>
      </trkpt>
      <trkpt lat="47.98808" lon="6.94522">
        <ele>1100</ele>
        <time>2023-05-07T12:53:00Z</time>
      </trkpt>
      <trkpt lat="47.9879" lon="6.94532">
        <ele>1100</ele>
        <time>2023-05-07T12:53:17Z</time>
      </trkpt>
      <trkpt lat="47.98779" lon="6.94535">
        <ele>1102</ele>
        <time>2023-05-07T12:53:32Z</time>
      </trkpt>
      <trkpt lat="47.9877" lon="6.94534">
        <ele>1103</ele>
        <time>2023-05-07T12:53:41Z</time>
      </trkpt>
      <trkpt lat="47.98766" lon="6.9453">
        <ele>1103</ele>
        <time>2023-05-07T12:53:45Z</time>
      </trkpt>
      <trkpt lat="47.98761" lon="6.94529">
        <ele>1104</ele>
        <time>2023-05-07T12:53:49Z</time>
      </trkpt>
      <trkpt lat="47.98756" lon="6.9453">
        <ele>1104</ele>
        <time>2023-05-07T12:53:54Z</time>
      </trkpt>
      <trkpt lat="47.98742" lon="6.94525">
        <ele>1105</ele>
        <time>2023-05-07T12:54:10Z</time>
      </trkpt>
      <trkpt lat="47.98736" lon="6.94525">
        <ele>1106</ele>
        <time>2023-05-07T12:54:18Z</time>
      </trkpt>
      <trkpt lat="47.98726" lon="6.94518">
        <ele>1106</ele>
        <time>2023-05-07T12:54:30Z</time>
      </trkpt>
      <trkpt lat="47.98721" lon="6.94513">
        <ele>1106</ele>
        <time>2023-05-07T12:54:38Z</time>
      </trkpt>
      <trkpt lat="47.98706" lon="6.94495">
        <ele>1105</ele>
        <time>2023-05-07T12:54:59Z</time>
      </trkpt>
      <trkpt lat="47.98697" lon="6.94483">
        <ele>1104</ele>
        <time>2023-05-07T12:55:10Z</time>
      </trkpt>
      <trkpt lat="47.98681" lon="6.94468">
        <ele>1103</ele>
        <time>2023-05-07T12:55:27Z</time>
      </trkpt>
      <trkpt lat="47.98671" lon="6.94463">
        <ele>1103</ele>
        <time>2023-05-07T12:55:40Z</time>
      </trkpt>
      <trkpt lat="47.9865" lon="6.94449">
        <ele>1101</ele>
        <time>2023-05-07T12:56:04Z</time>
      </trkpt>
      <trkpt lat="47.98646" lon="6.94444">
        <ele>1101</ele>
        <time>2023-05-07T12:56:09Z</time>
      </trkpt>
      <trkpt lat="47.98639" lon="6.94426">
        <ele>1099</ele>
        <time>2023-05-07T12:56:26Z</time>
      </trkpt>
      <trkpt lat="47.98635" lon="6.9442">
        <ele>1099</ele>
        <time>2023-05-07T12:56:33Z</time>
      </trkpt>
      <trkpt lat="47.98616" lon="6.94404">
        <ele>1097</ele>
        <time>2023-05-07T12:56:57Z</time>
      </trkpt>
      <trkpt lat="47.9861" lon="6.94394">
        <ele>1096</ele>
        <time>2023-05-07T12:57:08Z</time>
      </trkpt>
      <trkpt lat="47.98594" lon="6.94381">
        <ele>1095</ele>
        <time>2023-05-07T12:57:24Z</time>
      </trkpt>
      <trkpt lat="47.98588" lon="6.94364">
        <ele>1094</ele>
        <time>2023-05-07T12:57:35Z</time>
      </trkpt>
      <trkpt lat="47.98574" lon="6.94336">
        <ele>1093</ele>
        <time>2023-05-07T12:57:58Z</time>
      </trkpt>
      <trkpt lat="47.98565" lon="6.94325">
        <ele>1094</ele>
        <time>2023-05-07T12:58:10Z</time>
      </trkpt>
      <trkpt lat="47.98554" lon="6.9431">
        <ele>1093</ele>
        <time>2023-05-07T12:58:24Z</time>
      </trkpt>
      <trkpt lat="47.98549" lon="6.94306">
        <ele>1093</ele>
        <time>2023-05-07T12:58:29Z</time>
      </trkpt>
      <trkpt lat="47.98543" lon="6.94303">
        <ele>1094</ele>
        <time>2023-05-07T12:58:35Z</time>
      </trkpt>
      <trkpt lat="47.98539" lon="6.94299">
        <ele>1094</ele>
        <time>2023-05-07T12:58:41Z</time>
      </trkpt>
      <trkpt lat="47.98529" lon="6.94293">
        <ele>1093</ele>
        <time>2023-05-07T12:58:51Z</time>
      </trkpt>
      <trkpt lat="47.9852" lon="6.94284">
        <ele>1093</ele>
        <time>2023-05-07T12:59:01Z</time>
      </trkpt>
      <trkpt lat="47.98512" lon="6.94274">
        <ele>1094</ele>
        <time>2023-05-07T12:59:14Z</time>
      </trkpt>
      <trkpt lat="47.98501" lon="6.94252">
        <ele>1094</ele>
        <time>2023-05-07T12:59:34Z</time>
      </trkpt>
      <trkpt lat="47.98498" lon="6.94244">
        <ele>1094</ele>
        <time>2023-05-07T12:59:41Z</time>
      </trkpt>
      <trkpt lat="47.98481" lon="6.94208">
        <ele>1094</ele>
        <time>2023-05-07T13:00:08Z</time>
      </trkpt>
      <trkpt lat="47.98475" lon="6.94199">
        <ele>1094</ele>
        <time>2023-05-07T13:00:18Z</time>
      </trkpt>
      <trkpt lat="47.98467" lon="6.94194">
        <ele>1093</ele>
        <time>2023-05-07T13:00:26Z</time>
      </trkpt>
      <trkpt lat="47.98458" lon="6.94192">
        <ele>1093</ele>
        <time>2023-05-07T13:00:33Z</time>
      </trkpt>
      <trkpt lat="47.98451" lon="6.94191">
        <ele>1093</ele>
        <time>2023-05-07T13:00:40Z</time>
      </trkpt>
      <trkpt lat="47.98413" lon="6.9417">
        <ele>1094</ele>
        <time>2023-05-07T13:01:18Z</time>
      </trkpt>
      <trkpt lat="47.98408" lon="6.9417">
        <ele>1095</ele>
        <time>2023-05-07T13:01:23Z</time>
      </trkpt>
      <trkpt lat="47.98393" lon="6.94163">
        <ele>1095</ele>
        <time>2023-05-07T13:01:38Z</time>
      </trkpt>
      <trkpt lat="47.98384" lon="6.94161">
        <ele>1095</ele>
        <time>2023-05-07T13:01:47Z</time>
      </trkpt>
      <trkpt lat="47.9837" lon="6.94155">
        <ele>1094</ele>
        <time>2023-05-07T13:01:59Z</time>
      </trkpt>
      <trkpt lat="47.98366" lon="6.94151">
        <ele>1094</ele>
        <time>2023-05-07T13:02:04Z</time>
      </trkpt>
      <trkpt lat="47.98362" lon="6.94149">
        <ele>1094</ele>
        <time>2023-05-07T13:02:09Z</time>
      </trkpt>
      <trkpt lat="47.98357" lon="6.94149">
        <ele>1094</ele>
        <time>2023-05-07T13:02:14Z</time>
      </trkpt>
      <trkpt lat="47.98352" lon="6.94147">
        <ele>1094</ele>
        <time>2023-05-07T13:02:21Z</time>
      </trkpt>
      <trkpt lat="47.98335" lon="6.94146">
        <ele>1092</ele>
        <time>2023-05-07T13:02:37Z</time>
      </trkpt>
      <trkpt lat="47.98329" lon="6.94142">
        <ele>1092</ele>
        <time>2023-05-07T13:02:45Z</time>
      </trkpt>
      <trkpt lat="47.9832" lon="6.94141">
        <ele>1091</ele>
        <time>2023-05-07T13:02:54Z</time>
      </trkpt>
      <trkpt lat="47.98315" lon="6.94142">
        <ele>1091</ele>
        <time>2023-05-07T13:02:58Z</time>
      </trkpt>
      <trkpt lat="47.98292" lon="6.94134">
        <ele>1090</ele>
        <time>2023-05-07T13:03:21Z</time>
      </trkpt>
      <trkpt lat="47.98287" lon="6.94134">
        <ele>1090</ele>
        <time>2023-05-07T13:03:26Z</time>
      </trkpt>
      <trkpt lat="47.98277" lon="6.94133">
        <ele>1090</ele>
        <time>2023-05-07T13:03:37Z</time>
      </trkpt>
      <trkpt lat="47.98264" lon="6.94132">
        <ele>1090</ele>
        <time>2023-05-07T13:03:49Z</time>
      </trkpt>
      <trkpt lat="47.98229" lon="6.94116">
        <ele>1088</ele>
        <time>2023-05-07T13:04:21Z</time>
      </trkpt>
      <trkpt lat="47.98219" lon="6.94106">
        <ele>1087</ele>
        <time>2023-05-07T13:04:33Z</time>
      </trkpt>
      <trkpt lat="47.98197" lon="6.94081">
        <ele>1084</ele>
        <time>2023-05-07T13:05:16Z</time>
      </trkpt>
      <trkpt lat="47.9819" lon="6.94066">
        <ele>1083</ele>
        <time>2023-05-07T13:05:45Z</time>
      </trkpt>
      <trkpt lat="47.98185" lon="6.94066">
        <ele>1081</ele>
        <time>2023-05-07T13:05:59Z</time>
      </trkpt>
      <trkpt lat="47.98182" lon="6.94061">
        <ele>1081</ele>
        <time>2023-05-07T13:06:05Z</time>
      </trkpt>
      <trkpt lat="47.98174" lon="6.94052">
        <ele>1079</ele>
        <time>2023-05-07T13:06:16Z</time>
      </trkpt>
      <trkpt lat="47.98168" lon="6.94049">
        <ele>1078</ele>
        <time>2023-05-07T13:06:23Z</time>
      </trkpt>
      <trkpt lat="47.98164" lon="6.94043">
        <ele>1077</ele>
        <time>2023-05-07T13:06:30Z</time>
      </trkpt>
      <trkpt lat="47.98155" lon="6.94035">
        <ele>1076</ele>
        <time>2023-05-07T13:06:39Z</time>
      </trkpt>
      <trkpt lat="47.98151" lon="6.94033">
        <ele>1075</ele>
        <time>2023-05-07T13:06:43Z</time>
      </trkpt>
      <trkpt lat="47.98146" lon="6.94032">
        <ele>1075</ele>
        <time>2023-05-07T13:06:47Z</time>
      </trkpt>
      <trkpt lat="47.98142" lon="6.94027">
        <ele>1074</ele>
        <time>2023-05-07T13:06:51Z</time>
      </trkpt>
      <trkpt lat="47.98131" lon="6.94023">
        <ele>1072</ele>
        <time>2023-05-07T13:07:01Z</time>
      </trkpt>
      <trkpt lat="47.98116" lon="6.94011">
        <ele>1069</ele>
        <time>2023-05-07T13:07:19Z</time>
      </trkpt>
      <trkpt lat="47.98082" lon="6.94004">
        <ele>1065</ele>
        <time>2023-05-07T13:07:54Z</time>
      </trkpt>
      <trkpt lat="47.98077" lon="6.94005">
        <ele>1064</ele>
        <time>2023-05-07T13:07:59Z</time>
      </trkpt>
      <trkpt lat="47.98066" lon="6.9401">
        <ele>1063</ele>
        <time>2023-05-07T13:08:10Z</time>
      </trkpt>
      <trkpt lat="47.98063" lon="6.94014">
        <ele>1062</ele>
        <time>2023-05-07T13:08:14Z</time>
      </trkpt>
      <trkpt lat="47.98048" lon="6.94031">
        <ele>1063</ele>
        <time>2023-05-07T13:08:30Z</time>
      </trkpt>
      <trkpt lat="47.98046" lon="6.94037">
        <ele>1063</ele>
        <time>2023-05-07T13:08:34Z</time>
      </trkpt>
      <trkpt lat="47.9804" lon="6.94045">
        <ele>1064</ele>
        <time>2023-05-07T13:08:44Z</time>
      </trkpt>
      <trkpt lat="47.98028" lon="6.94056">
        <ele>1065</ele>
        <time>2023-05-07T13:08:57Z</time>
      </trkpt>
      <trkpt lat="47.98024" lon="6.94057">
        <ele>1065</ele>
        <time>2023-05-07T13:09:01Z</time>
      </trkpt>
      <trkpt lat="47.98019" lon="6.94059">
        <ele>1065</ele>
        <time>2023-05-07T13:09:05Z</time>
      </trkpt>
      <trkpt lat="47.98009" lon="6.94059">
        <ele>1064</ele>
        <time>2023-05-07T13:09:15Z</time>
      </trkpt>
      <trkpt lat="47.98" lon="6.94061">
        <ele>1063</ele>
        <time>2023-05-07T13:09:23Z</time>
      </trkpt>
      <trkpt lat="47.97995" lon="6.94058">
        <ele>1063</ele>
        <time>2023-05-07T13:09:28Z</time>
      </trkpt>
      <trkpt lat="47.97992" lon="6.94055">
        <ele>1063</ele>
        <time>2023-05-07T13:09:31Z</time>
      </trkpt>
      <trkpt lat="47.97987" lon="6.94047">
        <ele>1062</ele>
        <time>2023-05-07T13:09:39Z</time>
      </trkpt>
      <trkpt lat="47.97976" lon="6.94017">
        <ele>1059</ele>
        <time>2023-05-07T13:10:04Z</time>
      </trkpt>
      <trkpt lat="47.97974" lon="6.94006">
        <ele>1059</ele>
        <time>2023-05-07T13:10:12Z</time>
      </trkpt>
      <trkpt lat="47.9797" lon="6.93999">
        <ele>1059</ele>
        <time>2023-05-07T13:10:21Z</time>
      </trkpt>
      <trkpt lat="47.97968" lon="6.93993">
        <ele>1060</ele>
        <time>2023-05-07T13:10:26Z</time>
      </trkpt>
      <trkpt lat="47.97963" lon="6.93948">
        <ele>1059</ele>
        <time>2023-05-07T13:10:56Z</time>
      </trkpt>
      <trkpt lat="47.97963" lon="6.93941">
        <ele>1058</ele>
        <time>2023-05-07T13:11:01Z</time>
      </trkpt>
      <trkpt lat="47.97958" lon="6.9392">
        <ele>1058</ele>
        <time>2023-05-07T13:11:13Z</time>
      </trkpt>
      <trkpt lat="47.97957" lon="6.93914">
        <ele>1057</ele>
        <time>2023-05-07T13:11:17Z</time>
      </trkpt>
      <trkpt lat="47.97954" lon="6.93908">
        <ele>1057</ele>
        <time>2023-05-07T13:11:21Z</time>
      </trkpt>
      <trkpt lat="47.97949" lon="6.93882">
        <ele>1057</ele>
        <time>2023-05-07T13:11:37Z</time>
      </trkpt>
      <trkpt lat="47.97949" lon="6.93876">
        <ele>1057</ele>
        <time>2023-05-07T13:11:41Z</time>
      </trkpt>
      <trkpt lat="47.97949" lon="6.93868">
        <ele>1056</ele>
        <time>2023-05-07T13:11:45Z</time>
      </trkpt>
      <trkpt lat="47.97951" lon="6.93861">
        <ele>1056</ele>
        <time>2023-05-07T13:11:49Z</time>
      </trkpt>
      <trkpt lat="47.97951" lon="6.93844">
        <ele>1054</ele>
        <time>2023-05-07T13:11:59Z</time>
      </trkpt>
      <trkpt lat="47.97946" lon="6.93812">
        <ele>1051</ele>
        <time>2023-05-07T13:12:18Z</time>
      </trkpt>
      <trkpt lat="47.97949" lon="6.93804">
        <ele>1051</ele>
        <time>2023-05-07T13:12:25Z</time>
      </trkpt>
      <trkpt lat="47.9795" lon="6.93795">
        <ele>1050</ele>
        <time>2023-05-07T13:12:31Z</time>
      </trkpt>
      <trkpt lat="47.97948" lon="6.93763">
        <ele>1048</ele>
        <time>2023-05-07T13:12:54Z</time>
      </trkpt>
      <trkpt lat="47.97958" lon="6.93712">
        <ele>1044</ele>
        <time>2023-05-07T13:13:27Z</time>
      </trkpt>
      <trkpt lat="47.97962" lon="6.93699">
        <ele>1042</ele>
        <time>2023-05-07T13:13:37Z</time>
      </trkpt>
      <trkpt lat="47.97965" lon="6.93677">
        <ele>1041</ele>
        <time>2023-05-07T13:14:11Z</time>
      </trkpt>
      <trkpt lat="47.97963" lon="6.93649">
        <ele>1041</ele>
        <time>2023-05-07T13:14:28Z</time>
      </trkpt>
      <trkpt lat="47.97951" lon="6.93613">
        <ele>1040</ele>
        <time>2023-05-07T13:14:53Z</time>
      </trkpt>
      <trkpt lat="47.97946" lon="6.93607">
        <ele>1040</ele>
        <time>2023-05-07T13:14:58Z</time>
      </trkpt>
      <trkpt lat="47.97935" lon="6.93568">
        <ele>1037</ele>
        <time>2023-05-07T13:15:30Z</time>
      </trkpt>
      <trkpt lat="47.97931" lon="6.93549">
        <ele>1035</ele>
        <time>2023-05-07T13:15:42Z</time>
      </trkpt>
      <trkpt lat="47.97929" lon="6.9352">
        <ele>1033</ele>
        <time>2023-05-07T13:16:00Z</time>
      </trkpt>
      <trkpt lat="47.97927" lon="6.93508">
        <ele>1033</ele>
        <time>2023-05-07T13:16:09Z</time>
      </trkpt>
      <trkpt lat="47.97921" lon="6.93489">
        <ele>1031</ele>
        <time>2023-05-07T13:16:26Z</time>
      </trkpt>
      <trkpt lat="47.9792" lon="6.93483">
        <ele>1030</ele>
        <time>2023-05-07T13:16:31Z</time>
      </trkpt>
      <trkpt lat="47.9791" lon="6.93462">
        <ele>1027</ele>
        <time>2023-05-07T13:16:48Z</time>
      </trkpt>
      <trkpt lat="47.97907" lon="6.93454">
        <ele>1026</ele>
        <time>2023-05-07T13:16:57Z</time>
      </trkpt>
      <trkpt lat="47.97903" lon="6.93446">
        <ele>1025</ele>
        <time>2023-05-07T13:17:04Z</time>
      </trkpt>
      <trkpt lat="47.97897" lon="6.93432">
        <ele>1023</ele>
        <time>2023-05-07T13:17:17Z</time>
      </trkpt>
      <trkpt lat="47.97893" lon="6.93425">
        <ele>1022</ele>
        <time>2023-05-07T13:17:23Z</time>
      </trkpt>
      <trkpt lat="47.97889" lon="6.93423">
        <ele>1021</ele>
        <time>2023-05-07T13:17:27Z</time>
      </trkpt>
      <trkpt lat="47.97873" lon="6.93411">
        <ele>1019</ele>
        <time>2023-05-07T13:17:46Z</time>
      </trkpt>
      <trkpt lat="47.97867" lon="6.93409">
        <ele>1019</ele>
        <time>2023-05-07T13:17:56Z</time>
      </trkpt>
      <trkpt lat="47.97862" lon="6.93408">
        <ele>1019</ele>
        <time>2023-05-07T13:18:00Z</time>
      </trkpt>
      <trkpt lat="47.97852" lon="6.93406">
        <ele>1019</ele>
        <time>2023-05-07T13:18:10Z</time>
      </trkpt>
      <trkpt lat="47.97819" lon="6.9341">
        <ele>1018</ele>
        <time>2023-05-07T13:18:40Z</time>
      </trkpt>
      <trkpt lat="47.97801" lon="6.93413">
        <ele>1018</ele>
        <time>2023-05-07T13:18:56Z</time>
      </trkpt>
      <trkpt lat="47.97776" lon="6.93419">
        <ele>1017</ele>
        <time>2023-05-07T13:19:23Z</time>
      </trkpt>
      <trkpt lat="47.97755" lon="6.93434">
        <ele>1017</ele>
        <time>2023-05-07T13:19:49Z</time>
      </trkpt>
      <trkpt lat="47.97727" lon="6.93464">
        <ele>1016</ele>
        <time>2023-05-07T13:20:20Z</time>
      </trkpt>
      <trkpt lat="47.97719" lon="6.93471">
        <ele>1016</ele>
        <time>2023-05-07T13:20:28Z</time>
      </trkpt>
      <trkpt lat="47.97708" lon="6.93483">
        <ele>1016</ele>
        <time>2023-05-07T13:20:41Z</time>
      </trkpt>
      <trkpt lat="47.97703" lon="6.93487">
        <ele>1016</ele>
        <time>2023-05-07T13:20:45Z</time>
      </trkpt>
      <trkpt lat="47.97691" lon="6.93498">
        <ele>1016</ele>
        <time>2023-05-07T13:20:57Z</time>
      </trkpt>
      <trkpt lat="47.97667" lon="6.93511">
        <ele>1016</ele>
        <time>2023-05-07T13:21:20Z</time>
      </trkpt>
      <trkpt lat="47.97657" lon="6.93512">
        <ele>1016</ele>
        <time>2023-05-07T13:21:28Z</time>
      </trkpt>
      <trkpt lat="47.97653" lon="6.93514">
        <ele>1016</ele>
        <time>2023-05-07T13:21:32Z</time>
      </trkpt>
      <trkpt lat="47.97649" lon="6.93518">
        <ele>1016</ele>
        <time>2023-05-07T13:21:36Z</time>
      </trkpt>
      <trkpt lat="47.97619" lon="6.93534">
        <ele>1017</ele>
        <time>2023-05-07T13:22:09Z</time>
      </trkpt>
      <trkpt lat="47.97592" lon="6.93559">
        <ele>1018</ele>
        <time>2023-05-07T13:22:36Z</time>
      </trkpt>
      <trkpt lat="47.97562" lon="6.93566">
        <ele>1019</ele>
        <time>2023-05-07T13:23:02Z</time>
      </trkpt>
      <trkpt lat="47.97558" lon="6.93562">
        <ele>1020</ele>
        <time>2023-05-07T13:23:06Z</time>
      </trkpt>
      <trkpt lat="47.97554" lon="6.93556">
        <ele>1020</ele>
        <time>2023-05-07T13:23:10Z</time>
      </trkpt>
      <trkpt lat="47.97548" lon="6.93544">
        <ele>1020</ele>
        <time>2023-05-07T13:23:18Z</time>
      </trkpt>
      <trkpt lat="47.97536" lon="6.93495">
        <ele>1021</ele>
        <time>2023-05-07T13:23:50Z</time>
      </trkpt>
      <trkpt lat="47.9753" lon="6.93485">
        <ele>1021</ele>
        <time>2023-05-07T13:23:59Z</time>
      </trkpt>
      <trkpt lat="47.9751" lon="6.93465">
        <ele>1020</ele>
        <time>2023-05-07T13:24:21Z</time>
      </trkpt>
      <trkpt lat="47.97487" lon="6.93429">
        <ele>1020</ele>
        <time>2023-05-07T13:24:48Z</time>
      </trkpt>
      <trkpt lat="47.97478" lon="6.93422">
        <ele>1020</ele>
        <time>2023-05-07T13:24:56Z</time>
      </trkpt>
      <trkpt lat="47.9747" lon="6.93406">
        <ele>1020</ele>
        <time>2023-05-07T13:25:08Z</time>
      </trkpt>
      <trkpt lat="47.9746" lon="6.93374">
        <ele>1020</ele>
        <time>2023-05-07T13:25:29Z</time>
      </trkpt>
      <trkpt lat="47.97439" lon="6.93329">
        <ele>1021</ele>
        <time>2023-05-07T13:26:03Z</time>
      </trkpt>
      <trkpt lat="47.97429" lon="6.93315">
        <ele>1021</ele>
        <time>2023-05-07T13:26:15Z</time>
      </trkpt>
      <trkpt lat="47.97417" lon="6.93304">
        <ele>1021</ele>
        <time>2023-05-07T13:26:28Z</time>
      </trkpt>
      <trkpt lat="47.97408" lon="6.93301">
        <ele>1021</ele>
        <time>2023-05-07T13:26:36Z</time>
      </trkpt>
      <trkpt lat="47.97399" lon="6.93298">
        <ele>1022</ele>
        <time>2023-05-07T13:26:44Z</time>
      </trkpt>
      <trkpt lat="47.97386" lon="6.93289">
        <ele>1022</ele>
        <time>2023-05-07T13:26:55Z</time>
      </trkpt>
      <trkpt lat="47.9738" lon="6.93279">
        <ele>1022</ele>
        <time>2023-05-07T13:27:03Z</time>
      </trkpt>
      <trkpt lat="47.97364" lon="6.93242">
        <ele>1022</ele>
        <time>2023-05-07T13:27:28Z</time>
      </trkpt>
      <trkpt lat="47.97351" lon="6.93221">
        <ele>1022</ele>
        <time>2023-05-07T13:27:45Z</time>
      </trkpt>
      <trkpt lat="47.97345" lon="6.93215">
        <ele>1022</ele>
        <time>2023-05-07T13:27:51Z</time>
      </trkpt>
      <trkpt lat="47.97335" lon="6.93201">
        <ele>1021</ele>
        <time>2023-05-07T13:28:03Z</time>
      </trkpt>
      <trkpt lat="47.97329" lon="6.93198">
        <ele>1021</ele>
        <time>2023-05-07T13:28:09Z</time>
      </trkpt>
      <trkpt lat="47.97325" lon="6.932">
        <ele>1021</ele>
        <time>2023-05-07T13:28:13Z</time>
      </trkpt>
      <trkpt lat="47.97322" lon="6.93203">
        <ele>1021</ele>
        <time>2023-05-07T13:28:16Z</time>
      </trkpt>
      <trkpt lat="47.973" lon="6.9324">
        <ele>1020</ele>
        <time>2023-05-07T13:28:46Z</time>
      </trkpt>
      <trkpt lat="47.97293" lon="6.93243">
        <ele>1019</ele>
        <time>2023-05-07T13:28:53Z</time>
      </trkpt>
      <trkpt lat="47.97289" lon="6.9324">
        <ele>1018</ele>
        <time>2023-05-07T13:28:58Z</time>
      </trkpt>
      <trkpt lat="47.97285" lon="6.93242">
        <ele>1017</ele>
        <time>2023-05-07T13:29:06Z</time>
      </trkpt>
      <trkpt lat="47.97271" lon="6.93232">
        <ele>1016</ele>
        <time>2023-05-07T13:29:21Z</time>
      </trkpt>
      <trkpt lat="47.97266" lon="6.93234">
        <ele>1016</ele>
        <time>2023-05-07T13:29:25Z</time>
      </trkpt>
      <trkpt lat="47.97256" lon="6.93229">
        <ele>1016</ele>
        <time>2023-05-07T13:29:33Z</time>
      </trkpt>
      <trkpt lat="47.97251" lon="6.93229">
        <ele>1016</ele>
        <time>2023-05-07T13:29:37Z</time>
      </trkpt>
      <trkpt lat="47.97247" lon="6.93231">
        <ele>1015</ele>
        <time>2023-05-07T13:29:41Z</time>
      </trkpt>
      <trkpt lat="47.97239" lon="6.93239">
        <ele>1014</ele>
        <time>2023-05-07T13:29:49Z</time>
      </trkpt>
      <trkpt lat="47.97235" lon="6.93244">
        <ele>1014</ele>
        <time>2023-05-07T13:29:55Z</time>
      </trkpt>
      <trkpt lat="47.9723" lon="6.93247">
        <ele>1014</ele>
        <time>2023-05-07T13:30:00Z</time>
      </trkpt>
      <trkpt lat="47.97225" lon="6.93246">
        <ele>1014</ele>
        <time>2023-05-07T13:30:05Z</time>
      </trkpt>
      <trkpt lat="47.97217" lon="6.93246">
        <ele>1013</ele>
        <time>2023-05-07T13:30:12Z</time>
      </trkpt>
      <trkpt lat="47.97213" lon="6.93248">
        <ele>1013</ele>
        <time>2023-05-07T13:30:17Z</time>
      </trkpt>
      <trkpt lat="47.97209" lon="6.93247">
        <ele>1013</ele>
        <time>2023-05-07T13:30:22Z</time>
      </trkpt>
      <trkpt lat="47.97203" lon="6.93246">
        <ele>1014</ele>
        <time>2023-05-07T13:30:28Z</time>
      </trkpt>
      <trkpt lat="47.97198" lon="6.93246">
        <ele>1014</ele>
        <time>2023-05-07T13:30:32Z</time>
      </trkpt>
      <trkpt lat="47.97194" lon="6.93243">
        <ele>1014</ele>
        <time>2023-05-07T13:30:36Z</time>
      </trkpt>
      <trkpt lat="47.97183" lon="6.93239">
        <ele>1016</ele>
        <time>2023-05-07T13:30:49Z</time>
      </trkpt>
      <trkpt lat="47.97178" lon="6.93242">
        <ele>1016</ele>
        <time>2023-05-07T13:30:53Z</time>
      </trkpt>
      <trkpt lat="47.97175" lon="6.93246">
        <ele>1017</ele>
        <time>2023-05-07T13:30:57Z</time>
      </trkpt>
      <trkpt lat="47.9717" lon="6.93249">
        <ele>1018</ele>
        <time>2023-05-07T13:31:04Z</time>
      </trkpt>
      <trkpt lat="47.97166" lon="6.93255">
        <ele>1019</ele>
        <time>2023-05-07T13:31:10Z</time>
      </trkpt>
      <trkpt lat="47.97164" lon="6.93265">
        <ele>1020</ele>
        <time>2023-05-07T13:31:20Z</time>
      </trkpt>
      <trkpt lat="47.97162" lon="6.93273">
        <ele>1020</ele>
        <time>2023-05-07T13:31:25Z</time>
      </trkpt>
      <trkpt lat="47.97163" lon="6.93301">
        <ele>1020</ele>
        <time>2023-05-07T13:31:42Z</time>
      </trkpt>
      <trkpt lat="47.97161" lon="6.93313">
        <ele>1020</ele>
        <time>2023-05-07T13:31:50Z</time>
      </trkpt>
      <trkpt lat="47.97163" lon="6.93346">
        <ele>1022</ele>
        <time>2023-05-07T13:32:13Z</time>
      </trkpt>
      <trkpt lat="47.97161" lon="6.93353">
        <ele>1023</ele>
        <time>2023-05-07T13:32:19Z</time>
      </trkpt>
      <trkpt lat="47.9716" lon="6.9336">
        <ele>1023</ele>
        <time>2023-05-07T13:32:24Z</time>
      </trkpt>
      <trkpt lat="47.97158" lon="6.9337">
        <ele>1024</ele>
        <time>2023-05-07T13:32:32Z</time>
      </trkpt>
      <trkpt lat="47.97156" lon="6.93376">
        <ele>1024</ele>
        <time>2023-05-07T13:32:36Z</time>
      </trkpt>
      <trkpt lat="47.97151" lon="6.93377">
        <ele>1024</ele>
        <time>2023-05-07T13:32:41Z</time>
      </trkpt>
      <trkpt lat="47.9715" lon="6.93369">
        <ele>1024</ele>
        <time>2023-05-07T13:32:48Z</time>
      </trkpt>
      <trkpt lat="47.97149" lon="6.93361">
        <ele>1026</ele>
        <time>2023-05-07T13:32:57Z</time>
      </trkpt>
      <trkpt lat="47.97143" lon="6.93354">
        <ele>1026</ele>
        <time>2023-05-07T13:33:07Z</time>
      </trkpt>
      <trkpt lat="47.97141" lon="6.93324">
        <ele>1028</ele>
        <time>2023-05-07T13:33:32Z</time>
      </trkpt>
      <trkpt lat="47.97142" lon="6.93317">
        <ele>1029</ele>
        <time>2023-05-07T13:33:36Z</time>
      </trkpt>
      <trkpt lat="47.97137" lon="6.93293">
        <ele>1030</ele>
        <time>2023-05-07T13:33:53Z</time>
      </trkpt>
      <trkpt lat="47.97134" lon="6.93288">
        <ele>1031</ele>
        <time>2023-05-07T13:33:58Z</time>
      </trkpt>
      <trkpt lat="47.97134" lon="6.9328">
        <ele>1032</ele>
        <time>2023-05-07T13:34:03Z</time>
      </trkpt>
      <trkpt lat="47.97134" lon="6.93271">
        <ele>1033</ele>
        <time>2023-05-07T13:34:11Z</time>
      </trkpt>
      <trkpt lat="47.9713" lon="6.93266">
        <ele>1033</ele>
        <time>2023-05-07T13:34:15Z</time>
      </trkpt>
      <trkpt lat="47.9713" lon="6.93259">
        <ele>1033</ele>
        <time>2023-05-07T13:34:18Z</time>
      </trkpt>
      <trkpt lat="47.97129" lon="6.93253">
        <ele>1034</ele>
        <time>2023-05-07T13:34:24Z</time>
      </trkpt>
      <trkpt lat="47.97129" lon="6.93246">
        <ele>1034</ele>
        <time>2023-05-07T13:34:29Z</time>
      </trkpt>
      <trkpt lat="47.97119" lon="6.93211">
        <ele>1038</ele>
        <time>2023-05-07T13:34:58Z</time>
      </trkpt>
      <trkpt lat="47.97115" lon="6.93205">
        <ele>1039</ele>
        <time>2023-05-07T13:35:03Z</time>
      </trkpt>
      <trkpt lat="47.97112" lon="6.93195">
        <ele>1041</ele>
        <time>2023-05-07T13:35:18Z</time>
      </trkpt>
      <trkpt lat="47.97106" lon="6.93194">
        <ele>1042</ele>
        <time>2023-05-07T13:35:22Z</time>
      </trkpt>
      <trkpt lat="47.97103" lon="6.93185">
        <ele>1044</ele>
        <time>2023-05-07T13:35:31Z</time>
      </trkpt>
      <trkpt lat="47.97101" lon="6.93177">
        <ele>1044</ele>
        <time>2023-05-07T13:35:37Z</time>
      </trkpt>
      <trkpt lat="47.97097" lon="6.93175">
        <ele>1046</ele>
        <time>2023-05-07T13:36:15Z</time>
      </trkpt>
      <trkpt lat="47.97094" lon="6.9317">
        <ele>1046</ele>
        <time>2023-05-07T13:36:27Z</time>
      </trkpt>
      <trkpt lat="47.97092" lon="6.93164">
        <ele>1049</ele>
        <time>2023-05-07T13:36:39Z</time>
      </trkpt>
      <trkpt lat="47.97088" lon="6.93161">
        <ele>1051</ele>
        <time>2023-05-07T13:36:51Z</time>
      </trkpt>
      <trkpt lat="47.97082" lon="6.9316">
        <ele>1052</ele>
        <time>2023-05-07T13:36:57Z</time>
      </trkpt>
      <trkpt lat="47.97079" lon="6.93163">
        <ele>1053</ele>
        <time>2023-05-07T13:37:06Z</time>
      </trkpt>
      <trkpt lat="47.97075" lon="6.93167">
        <ele>1053</ele>
        <time>2023-05-07T13:37:13Z</time>
      </trkpt>
      <trkpt lat="47.9707" lon="6.93165">
        <ele>1053</ele>
        <time>2023-05-07T13:37:17Z</time>
      </trkpt>
      <trkpt lat="47.97066" lon="6.93161">
        <ele>1053</ele>
        <time>2023-05-07T13:37:20Z</time>
      </trkpt>
      <trkpt lat="47.97052" lon="6.93161">
        <ele>1054</ele>
        <time>2023-05-07T13:37:40Z</time>
      </trkpt>
      <trkpt lat="47.97032" lon="6.93169">
        <ele>1057</ele>
        <time>2023-05-07T13:38:01Z</time>
      </trkpt>
      <trkpt lat="47.97027" lon="6.93169">
        <ele>1057</ele>
        <time>2023-05-07T13:38:06Z</time>
      </trkpt>
      <trkpt lat="47.97018" lon="6.93167">
        <ele>1057</ele>
        <time>2023-05-07T13:38:15Z</time>
      </trkpt>
      <trkpt lat="47.97005" lon="6.93165">
        <ele>1058</ele>
        <time>2023-05-07T13:38:29Z</time>
      </trkpt>
      <trkpt lat="47.96995" lon="6.93163">
        <ele>1060</ele>
        <time>2023-05-07T13:38:41Z</time>
      </trkpt>
      <trkpt lat="47.96987" lon="6.93167">
        <ele>1062</ele>
        <time>2023-05-07T13:38:51Z</time>
      </trkpt>
      <trkpt lat="47.96976" lon="6.93176">
        <ele>1063</ele>
        <time>2023-05-07T13:39:04Z</time>
      </trkpt>
      <trkpt lat="47.96971" lon="6.93176">
        <ele>1063</ele>
        <time>2023-05-07T13:39:08Z</time>
      </trkpt>
      <trkpt lat="47.96967" lon="6.9317">
        <ele>1063</ele>
        <time>2023-05-07T13:39:13Z</time>
      </trkpt>
      <trkpt lat="47.96964" lon="6.93163">
        <ele>1063</ele>
        <time>2023-05-07T13:39:18Z</time>
      </trkpt>
      <trkpt lat="47.9696" lon="6.93158">
        <ele>1063</ele>
        <time>2023-05-07T13:39:22Z</time>
      </trkpt>
      <trkpt lat="47.96951" lon="6.93137">
        <ele>1064</ele>
        <time>2023-05-07T13:39:38Z</time>
      </trkpt>
      <trkpt lat="47.96948" lon="6.93129">
        <ele>1065</ele>
        <time>2023-05-07T13:39:46Z</time>
      </trkpt>
      <trkpt lat="47.96947" lon="6.93121">
        <ele>1065</ele>
        <time>2023-05-07T13:39:50Z</time>
      </trkpt>
      <trkpt lat="47.96942" lon="6.93107">
        <ele>1065</ele>
        <time>2023-05-07T13:39:56Z</time>
      </trkpt>
      <trkpt lat="47.96937" lon="6.9309">
        <ele>1065</ele>
        <time>2023-05-07T13:40:08Z</time>
      </trkpt>
      <trkpt lat="47.96928" lon="6.93072">
        <ele>1065</ele>
        <time>2023-05-07T13:40:20Z</time>
      </trkpt>
      <trkpt lat="47.96926" lon="6.93066">
        <ele>1065</ele>
        <time>2023-05-07T13:40:24Z</time>
      </trkpt>
      <trkpt lat="47.96921" lon="6.93064">
        <ele>1066</ele>
        <time>2023-05-07T13:40:29Z</time>
      </trkpt>
      <trkpt lat="47.96917" lon="6.93057">
        <ele>1067</ele>
        <time>2023-05-07T13:40:41Z</time>
      </trkpt>
      <trkpt lat="47.96918" lon="6.9305">
        <ele>1067</ele>
        <time>2023-05-07T13:40:44Z</time>
      </trkpt>
      <trkpt lat="47.96914" lon="6.93046">
        <ele>1067</ele>
        <time>2023-05-07T13:40:48Z</time>
      </trkpt>
      <trkpt lat="47.9691" lon="6.93048">
        <ele>1068</ele>
        <time>2023-05-07T13:40:55Z</time>
      </trkpt>
      <trkpt lat="47.96905" lon="6.93047">
        <ele>1069</ele>
        <time>2023-05-07T13:41:01Z</time>
      </trkpt>
      <trkpt lat="47.969" lon="6.93042">
        <ele>1069</ele>
        <time>2023-05-07T13:41:10Z</time>
      </trkpt>
      <trkpt lat="47.96896" lon="6.93036">
        <ele>1069</ele>
        <time>2023-05-07T13:41:14Z</time>
      </trkpt>
      <trkpt lat="47.96891" lon="6.93034">
        <ele>1070</ele>
        <time>2023-05-07T13:41:18Z</time>
      </trkpt>
      <trkpt lat="47.96878" lon="6.93018">
        <ele>1070</ele>
        <time>2023-05-07T13:41:34Z</time>
      </trkpt>
      <trkpt lat="47.96871" lon="6.93015">
        <ele>1070</ele>
        <time>2023-05-07T13:41:42Z</time>
      </trkpt>
      <trkpt lat="47.96869" lon="6.93023">
        <ele>1070</ele>
        <time>2023-05-07T13:41:49Z</time>
      </trkpt>
      <trkpt lat="47.96867" lon="6.93033">
        <ele>1073</ele>
        <time>2023-05-07T13:42:08Z</time>
      </trkpt>
      <trkpt lat="47.96864" lon="6.93039">
        <ele>1073</ele>
        <time>2023-05-07T13:42:16Z</time>
      </trkpt>
      <trkpt lat="47.96861" lon="6.93045">
        <ele>1074</ele>
        <time>2023-05-07T13:42:21Z</time>
      </trkpt>
      <trkpt lat="47.96859" lon="6.93052">
        <ele>1074</ele>
        <time>2023-05-07T13:42:25Z</time>
      </trkpt>
      <trkpt lat="47.9685" lon="6.93061">
        <ele>1074</ele>
        <time>2023-05-07T13:42:33Z</time>
      </trkpt>
      <trkpt lat="47.96846" lon="6.93061">
        <ele>1074</ele>
        <time>2023-05-07T13:42:38Z</time>
      </trkpt>
      <trkpt lat="47.96841" lon="6.93064">
        <ele>1074</ele>
        <time>2023-05-07T13:42:43Z</time>
      </trkpt>
      <trkpt lat="47.96831" lon="6.93068">
        <ele>1075</ele>
        <time>2023-05-07T13:42:51Z</time>
      </trkpt>
      <trkpt lat="47.96821" lon="6.93075">
        <ele>1077</ele>
        <time>2023-05-07T13:43:04Z</time>
      </trkpt>
      <trkpt lat="47.96815" lon="6.93071">
        <ele>1078</ele>
        <time>2023-05-07T13:43:09Z</time>
      </trkpt>
      <trkpt lat="47.96803" lon="6.93082">
        <ele>1081</ele>
        <time>2023-05-07T13:43:27Z</time>
      </trkpt>
      <trkpt lat="47.96798" lon="6.93081">
        <ele>1082</ele>
        <time>2023-05-07T13:43:35Z</time>
      </trkpt>
      <trkpt lat="47.9679" lon="6.93092">
        <ele>1084</ele>
        <time>2023-05-07T13:43:48Z</time>
      </trkpt>
      <trkpt lat="47.96785" lon="6.93067">
        <ele>1086</ele>
        <time>2023-05-07T13:43:58Z</time>
      </trkpt>
      <trkpt lat="47.96788" lon="6.9306">
        <ele>1087</ele>
        <time>2023-05-07T13:44:01Z</time>
      </trkpt>
      <trkpt lat="47.96792" lon="6.93038">
        <ele>1087</ele>
        <time>2023-05-07T13:44:12Z</time>
      </trkpt>
      <trkpt lat="47.96792" lon="6.93029">
        <ele>1088</ele>
        <time>2023-05-07T13:44:20Z</time>
      </trkpt>
      <trkpt lat="47.96789" lon="6.93035">
        <ele>1091</ele>
        <time>2023-05-07T13:44:38Z</time>
      </trkpt>
      <trkpt lat="47.96781" lon="6.93039">
        <ele>1092</ele>
        <time>2023-05-07T13:44:46Z</time>
      </trkpt>
      <trkpt lat="47.9678" lon="6.93045">
        <ele>1093</ele>
        <time>2023-05-07T13:44:51Z</time>
      </trkpt>
      <trkpt lat="47.96776" lon="6.93049">
        <ele>1093</ele>
        <time>2023-05-07T13:44:57Z</time>
      </trkpt>
      <trkpt lat="47.9677" lon="6.93043">
        <ele>1095</ele>
        <time>2023-05-07T13:45:03Z</time>
      </trkpt>
      <trkpt lat="47.96769" lon="6.93031">
        <ele>1096</ele>
        <time>2023-05-07T13:45:09Z</time>
      </trkpt>
      <trkpt lat="47.96772" lon="6.93026">
        <ele>1096</ele>
        <time>2023-05-07T13:45:12Z</time>
      </trkpt>
      <trkpt lat="47.96771" lon="6.92998">
        <ele>1099</ele>
        <time>2023-05-07T13:45:33Z</time>
      </trkpt>
      <trkpt lat="47.96767" lon="6.92995">
        <ele>1100</ele>
        <time>2023-05-07T13:45:41Z</time>
      </trkpt>
      <trkpt lat="47.96766" lon="6.92988">
        <ele>1100</ele>
        <time>2023-05-07T13:45:44Z</time>
      </trkpt>
      <trkpt lat="47.96761" lon="6.92989">
        <ele>1101</ele>
        <time>2023-05-07T13:45:54Z</time>
      </trkpt>
      <trkpt lat="47.96756" lon="6.9299">
        <ele>1102</ele>
        <time>2023-05-07T13:45:58Z</time>
      </trkpt>
      <trkpt lat="47.96754" lon="6.93">
        <ele>1103</ele>
        <time>2023-05-07T13:46:11Z</time>
      </trkpt>
      <trkpt lat="47.9675" lon="6.93008">
        <ele>1104</ele>
        <time>2023-05-07T13:46:18Z</time>
      </trkpt>
      <trkpt lat="47.96747" lon="6.93019">
        <ele>1105</ele>
        <time>2023-05-07T13:46:28Z</time>
      </trkpt>
      <trkpt lat="47.96745" lon="6.93026">
        <ele>1105</ele>
        <time>2023-05-07T13:46:33Z</time>
      </trkpt>
      <trkpt lat="47.96741" lon="6.93031">
        <ele>1105</ele>
        <time>2023-05-07T13:46:38Z</time>
      </trkpt>
      <trkpt lat="47.96741" lon="6.93041">
        <ele>1106</ele>
        <time>2023-05-07T13:46:45Z</time>
      </trkpt>
      <trkpt lat="47.96734" lon="6.93039">
        <ele>1106</ele>
        <time>2023-05-07T13:46:51Z</time>
      </trkpt>
      <trkpt lat="47.96731" lon="6.93025">
        <ele>1107</ele>
        <time>2023-05-07T13:46:59Z</time>
      </trkpt>
      <trkpt lat="47.96723" lon="6.93013">
        <ele>1109</ele>
        <time>2023-05-07T13:47:08Z</time>
      </trkpt>
      <trkpt lat="47.96723" lon="6.93006">
        <ele>1109</ele>
        <time>2023-05-07T13:47:12Z</time>
      </trkpt>
      <trkpt lat="47.9672" lon="6.92999">
        <ele>1109</ele>
        <time>2023-05-07T13:47:16Z</time>
      </trkpt>
      <trkpt lat="47.9672" lon="6.9298">
        <ele>1113</ele>
        <time>2023-05-07T13:47:41Z</time>
      </trkpt>
      <trkpt lat="47.96717" lon="6.92972">
        <ele>1114</ele>
        <time>2023-05-07T13:47:52Z</time>
      </trkpt>
      <trkpt lat="47.96712" lon="6.92969">
        <ele>1115</ele>
        <time>2023-05-07T13:47:59Z</time>
      </trkpt>
      <trkpt lat="47.96704" lon="6.92957">
        <ele>1118</ele>
        <time>2023-05-07T13:48:21Z</time>
      </trkpt>
      <trkpt lat="47.96698" lon="6.92961">
        <ele>1120</ele>
        <time>2023-05-07T13:48:36Z</time>
      </trkpt>
      <trkpt lat="47.96692" lon="6.92954">
        <ele>1122</ele>
        <time>2023-05-07T13:48:48Z</time>
      </trkpt>
      <trkpt lat="47.96687" lon="6.92952">
        <ele>1123</ele>
        <time>2023-05-07T13:48:54Z</time>
      </trkpt>
      <trkpt lat="47.96686" lon="6.92946">
        <ele>1123</ele>
        <time>2023-05-07T13:48:58Z</time>
      </trkpt>
      <trkpt lat="47.96676" lon="6.92941">
        <ele>1127</ele>
        <time>2023-05-07T13:49:24Z</time>
      </trkpt>
      <trkpt lat="47.96667" lon="6.92926">
        <ele>1130</ele>
        <time>2023-05-07T13:49:43Z</time>
      </trkpt>
      <trkpt lat="47.96664" lon="6.92919">
        <ele>1130</ele>
        <time>2023-05-07T13:49:47Z</time>
      </trkpt>
      <trkpt lat="47.9666" lon="6.92923">
        <ele>1131</ele>
        <time>2023-05-07T13:50:00Z</time>
      </trkpt>
      <trkpt lat="47.96657" lon="6.92918">
        <ele>1132</ele>
        <time>2023-05-07T13:50:05Z</time>
      </trkpt>
      <trkpt lat="47.96654" lon="6.9291">
        <ele>1133</ele>
        <time>2023-05-07T13:50:17Z</time>
      </trkpt>
      <trkpt lat="47.96651" lon="6.92903">
        <ele>1134</ele>
        <time>2023-05-07T13:50:22Z</time>
      </trkpt>
      <trkpt lat="47.96646" lon="6.929">
        <ele>1134</ele>
        <time>2023-05-07T13:50:26Z</time>
      </trkpt>
      <trkpt lat="47.96643" lon="6.92894">
        <ele>1134</ele>
        <time>2023-05-07T13:50:33Z</time>
      </trkpt>
      <trkpt lat="47.96636" lon="6.92893">
        <ele>1132</ele>
        <time>2023-05-07T13:50:42Z</time>
      </trkpt>
      <trkpt lat="47.96634" lon="6.92889">
        <ele>1132</ele>
        <time>2023-05-07T13:50:46Z</time>
      </trkpt>
      <trkpt lat="47.96627" lon="6.92893">
        <ele>1132</ele>
        <time>2023-05-07T13:50:56Z</time>
      </trkpt>
      <trkpt lat="47.96621" lon="6.92892">
        <ele>1130</ele>
        <time>2023-05-07T13:51:08Z</time>
      </trkpt>
      <trkpt lat="47.96611" lon="6.92883">
        <ele>1125</ele>
        <time>2023-05-07T13:51:38Z</time>
      </trkpt>
      <trkpt lat="47.96606" lon="6.92884">
        <ele>1124</ele>
        <time>2023-05-07T13:51:45Z</time>
      </trkpt>
      <trkpt lat="47.96604" lon="6.92876">
        <ele>1123</ele>
        <time>2023-05-07T13:51:49Z</time>
      </trkpt>
      <trkpt lat="47.96597" lon="6.92875">
        <ele>1122</ele>
        <time>2023-05-07T13:52:03Z</time>
      </trkpt>
      <trkpt lat="47.96586" lon="6.92876">
        <ele>1120</ele>
        <time>2023-05-07T13:52:17Z</time>
      </trkpt>
      <trkpt lat="47.9658" lon="6.92866">
        <ele>1118</ele>
        <time>2023-05-07T13:52:29Z</time>
      </trkpt>
      <trkpt lat="47.96577" lon="6.92858">
        <ele>1117</ele>
        <time>2023-05-07T13:52:37Z</time>
      </trkpt>
      <trkpt lat="47.96573" lon="6.92855">
        <ele>1117</ele>
        <time>2023-05-07T13:52:42Z</time>
      </trkpt>
      <trkpt lat="47.96567" lon="6.92855">
        <ele>1117</ele>
        <time>2023-05-07T13:52:45Z</time>
      </trkpt>
      <trkpt lat="47.96557" lon="6.92846">
        <ele>1117</ele>
        <time>2023-05-07T13:52:57Z</time>
      </trkpt>
      <trkpt lat="47.96548" lon="6.92847">
        <ele>1117</ele>
        <time>2023-05-07T13:53:05Z</time>
      </trkpt>
      <trkpt lat="47.96543" lon="6.92845">
        <ele>1118</ele>
        <time>2023-05-07T13:53:13Z</time>
      </trkpt>
      <trkpt lat="47.96531" lon="6.92837">
        <ele>1118</ele>
        <time>2023-05-07T13:53:21Z</time>
      </trkpt>
      <trkpt lat="47.96521" lon="6.92838">
        <ele>1119</ele>
        <time>2023-05-07T13:53:33Z</time>
      </trkpt>
      <trkpt lat="47.96517" lon="6.9284">
        <ele>1119</ele>
        <time>2023-05-07T13:53:38Z</time>
      </trkpt>
      <trkpt lat="47.96513" lon="6.92844">
        <ele>1119</ele>
        <time>2023-05-07T13:53:41Z</time>
      </trkpt>
      <trkpt lat="47.96509" lon="6.92847">
        <ele>1119</ele>
        <time>2023-05-07T13:53:49Z</time>
      </trkpt>
      <trkpt lat="47.96505" lon="6.92848">
        <ele>1119</ele>
        <time>2023-05-07T13:53:54Z</time>
      </trkpt>
      <trkpt lat="47.96494" lon="6.92855">
        <ele>1120</ele>
        <time>2023-05-07T13:54:02Z</time>
      </trkpt>
      <trkpt lat="47.96489" lon="6.92856">
        <ele>1120</ele>
        <time>2023-05-07T13:54:06Z</time>
      </trkpt>
      <trkpt lat="47.9648" lon="6.92854">
        <ele>1120</ele>
        <time>2023-05-07T13:54:13Z</time>
      </trkpt>
      <trkpt lat="47.96475" lon="6.92855">
        <ele>1120</ele>
        <time>2023-05-07T13:54:16Z</time>
      </trkpt>
      <trkpt lat="47.96469" lon="6.92852">
        <ele>1121</ele>
        <time>2023-05-07T13:54:22Z</time>
      </trkpt>
      <trkpt lat="47.9645" lon="6.92853">
        <ele>1121</ele>
        <time>2023-05-07T13:54:36Z</time>
      </trkpt>
      <trkpt lat="47.96446" lon="6.92858">
        <ele>1122</ele>
        <time>2023-05-07T13:54:41Z</time>
      </trkpt>
      <trkpt lat="47.96436" lon="6.92852">
        <ele>1123</ele>
        <time>2023-05-07T13:54:50Z</time>
      </trkpt>
      <trkpt lat="47.9643" lon="6.92848">
        <ele>1123</ele>
        <time>2023-05-07T13:54:56Z</time>
      </trkpt>
      <trkpt lat="47.96411" lon="6.92848">
        <ele>1125</ele>
        <time>2023-05-07T13:55:16Z</time>
      </trkpt>
      <trkpt lat="47.96404" lon="6.92846">
        <ele>1126</ele>
        <time>2023-05-07T13:55:25Z</time>
      </trkpt>
      <trkpt lat="47.96388" lon="6.92846">
        <ele>1128</ele>
        <time>2023-05-07T13:55:41Z</time>
      </trkpt>
      <trkpt lat="47.96384" lon="6.92844">
        <ele>1129</ele>
        <time>2023-05-07T13:55:50Z</time>
      </trkpt>
      <trkpt lat="47.9637" lon="6.92843">
        <ele>1133</ele>
        <time>2023-05-07T13:56:15Z</time>
      </trkpt>
      <trkpt lat="47.96365" lon="6.92838">
        <ele>1134</ele>
        <time>2023-05-07T13:56:20Z</time>
      </trkpt>
      <trkpt lat="47.9635" lon="6.92827">
        <ele>1136</ele>
        <time>2023-05-07T13:56:37Z</time>
      </trkpt>
      <trkpt lat="47.96338" lon="6.92825">
        <ele>1138</ele>
        <time>2023-05-07T13:56:55Z</time>
      </trkpt>
      <trkpt lat="47.96333" lon="6.92821">
        <ele>1139</ele>
        <time>2023-05-07T13:57:01Z</time>
      </trkpt>
      <trkpt lat="47.96329" lon="6.92819">
        <ele>1139</ele>
        <time>2023-05-07T13:57:04Z</time>
      </trkpt>
      <trkpt lat="47.96323" lon="6.92818">
        <ele>1140</ele>
        <time>2023-05-07T13:57:11Z</time>
      </trkpt>
      <trkpt lat="47.96316" lon="6.92818">
        <ele>1140</ele>
        <time>2023-05-07T13:57:20Z</time>
      </trkpt>
      <trkpt lat="47.96307" lon="6.92826">
        <ele>1140</ele>
        <time>2023-05-07T13:57:31Z</time>
      </trkpt>
      <trkpt lat="47.96292" lon="6.92824">
        <ele>1141</ele>
        <time>2023-05-07T13:57:46Z</time>
      </trkpt>
      <trkpt lat="47.96281" lon="6.92827">
        <ele>1143</ele>
        <time>2023-05-07T13:57:59Z</time>
      </trkpt>
      <trkpt lat="47.96272" lon="6.92834">
        <ele>1144</ele>
        <time>2023-05-07T13:58:11Z</time>
      </trkpt>
      <trkpt lat="47.96263" lon="6.92833">
        <ele>1147</ele>
        <time>2023-05-07T13:58:23Z</time>
      </trkpt>
      <trkpt lat="47.96258" lon="6.92836">
        <ele>1148</ele>
        <time>2023-05-07T13:58:29Z</time>
      </trkpt>
      <trkpt lat="47.96255" lon="6.92832">
        <ele>1149</ele>
        <time>2023-05-07T13:58:34Z</time>
      </trkpt>
      <trkpt lat="47.96237" lon="6.92833">
        <ele>1155</ele>
        <time>2023-05-07T13:59:06Z</time>
      </trkpt>
      <trkpt lat="47.96229" lon="6.92821">
        <ele>1157</ele>
        <time>2023-05-07T13:59:24Z</time>
      </trkpt>
      <trkpt lat="47.96224" lon="6.92817">
        <ele>1159</ele>
        <time>2023-05-07T13:59:35Z</time>
      </trkpt>
      <trkpt lat="47.96219" lon="6.92819">
        <ele>1160</ele>
        <time>2023-05-07T13:59:39Z</time>
      </trkpt>
      <trkpt lat="47.96217" lon="6.92825">
        <ele>1160</ele>
        <time>2023-05-07T13:59:44Z</time>
      </trkpt>
      <trkpt lat="47.96209" lon="6.92821">
        <ele>1161</ele>
        <time>2023-05-07T13:59:54Z</time>
      </trkpt>
      <trkpt lat="47.96204" lon="6.92824">
        <ele>1162</ele>
        <time>2023-05-07T14:00:03Z</time>
      </trkpt>
      <trkpt lat="47.96202" lon="6.9283">
        <ele>1162</ele>
        <time>2023-05-07T14:00:08Z</time>
      </trkpt>
      <trkpt lat="47.96197" lon="6.92831">
        <ele>1163</ele>
        <time>2023-05-07T14:00:14Z</time>
      </trkpt>
      <trkpt lat="47.96183" lon="6.92827">
        <ele>1165</ele>
        <time>2023-05-07T14:00:30Z</time>
      </trkpt>
      <trkpt lat="47.96174" lon="6.92816">
        <ele>1167</ele>
        <time>2023-05-07T14:00:44Z</time>
      </trkpt>
      <trkpt lat="47.96173" lon="6.92809">
        <ele>1167</ele>
        <time>2023-05-07T14:00:50Z</time>
      </trkpt>
      <trkpt lat="47.96165" lon="6.92799">
        <ele>1168</ele>
        <time>2023-05-07T14:00:59Z</time>
      </trkpt>
      <trkpt lat="47.96165" lon="6.92792">
        <ele>1168</ele>
        <time>2023-05-07T14:01:02Z</time>
      </trkpt>
      <trkpt lat="47.96151" lon="6.92762">
        <ele>1167</ele>
        <time>2023-05-07T14:01:25Z</time>
      </trkpt>
      <trkpt lat="47.96149" lon="6.92755">
        <ele>1168</ele>
        <time>2023-05-07T14:01:30Z</time>
      </trkpt>
      <trkpt lat="47.96143" lon="6.92748">
        <ele>1168</ele>
        <time>2023-05-07T14:01:35Z</time>
      </trkpt>
      <trkpt lat="47.96136" lon="6.92736">
        <ele>1169</ele>
        <time>2023-05-07T14:01:45Z</time>
      </trkpt>
      <trkpt lat="47.96132" lon="6.92732">
        <ele>1170</ele>
        <time>2023-05-07T14:01:51Z</time>
      </trkpt>
      <trkpt lat="47.96129" lon="6.9272">
        <ele>1170</ele>
        <time>2023-05-07T14:02:00Z</time>
      </trkpt>
      <trkpt lat="47.96122" lon="6.92712">
        <ele>1170</ele>
        <time>2023-05-07T14:02:09Z</time>
      </trkpt>
      <trkpt lat="47.96117" lon="6.92704">
        <ele>1171</ele>
        <time>2023-05-07T14:02:14Z</time>
      </trkpt>
      <trkpt lat="47.96115" lon="6.92689">
        <ele>1172</ele>
        <time>2023-05-07T14:02:25Z</time>
      </trkpt>
      <trkpt lat="47.96108" lon="6.92681">
        <ele>1174</ele>
        <time>2023-05-07T14:02:36Z</time>
      </trkpt>
      <trkpt lat="47.96102" lon="6.92671">
        <ele>1175</ele>
        <time>2023-05-07T14:02:45Z</time>
      </trkpt>
      <trkpt lat="47.96098" lon="6.92668">
        <ele>1176</ele>
        <time>2023-05-07T14:02:49Z</time>
      </trkpt>
      <trkpt lat="47.96098" lon="6.9266">
        <ele>1176</ele>
        <time>2023-05-07T14:02:55Z</time>
      </trkpt>
      <trkpt lat="47.9609" lon="6.92651">
        <ele>1177</ele>
        <time>2023-05-07T14:03:04Z</time>
      </trkpt>
      <trkpt lat="47.96088" lon="6.92644">
        <ele>1178</ele>
        <time>2023-05-07T14:03:08Z</time>
      </trkpt>
      <trkpt lat="47.96084" lon="6.92639">
        <ele>1178</ele>
        <time>2023-05-07T14:03:14Z</time>
      </trkpt>
      <trkpt lat="47.96081" lon="6.92634">
        <ele>1179</ele>
        <time>2023-05-07T14:03:19Z</time>
      </trkpt>
      <trkpt lat="47.9608" lon="6.92628">
        <ele>1179</ele>
        <time>2023-05-07T14:03:22Z</time>
      </trkpt>
      <trkpt lat="47.96081" lon="6.92618">
        <ele>1181</ele>
        <time>2023-05-07T14:03:30Z</time>
      </trkpt>
      <trkpt lat="47.96077" lon="6.92614">
        <ele>1182</ele>
        <time>2023-05-07T14:03:37Z</time>
      </trkpt>
      <trkpt lat="47.96074" lon="6.92607">
        <ele>1183</ele>
        <time>2023-05-07T14:03:43Z</time>
      </trkpt>
      <trkpt lat="47.96068" lon="6.92606">
        <ele>1183</ele>
        <time>2023-05-07T14:03:51Z</time>
      </trkpt>
      <trkpt lat="47.96061" lon="6.92602">
        <ele>1184</ele>
        <time>2023-05-07T14:03:59Z</time>
      </trkpt>
      <trkpt lat="47.96061" lon="6.92594">
        <ele>1184</ele>
        <time>2023-05-07T14:04:02Z</time>
      </trkpt>
      <trkpt lat="47.96062" lon="6.92588">
        <ele>1185</ele>
        <time>2023-05-07T14:04:06Z</time>
      </trkpt>
      <trkpt lat="47.96057" lon="6.92584">
        <ele>1185</ele>
        <time>2023-05-07T14:04:12Z</time>
      </trkpt>
      <trkpt lat="47.96055" lon="6.92578">
        <ele>1187</ele>
        <time>2023-05-07T14:04:20Z</time>
      </trkpt>
      <trkpt lat="47.96049" lon="6.92577">
        <ele>1189</ele>
        <time>2023-05-07T14:04:32Z</time>
      </trkpt>
      <trkpt lat="47.96045" lon="6.92581">
        <ele>1192</ele>
        <time>2023-05-07T14:04:49Z</time>
      </trkpt>
      <trkpt lat="47.9604" lon="6.92579">
        <ele>1193</ele>
        <time>2023-05-07T14:04:53Z</time>
      </trkpt>
      <trkpt lat="47.96035" lon="6.92574">
        <ele>1195</ele>
        <time>2023-05-07T14:05:02Z</time>
      </trkpt>
      <trkpt lat="47.96031" lon="6.92573">
        <ele>1196</ele>
        <time>2023-05-07T14:05:08Z</time>
      </trkpt>
      <trkpt lat="47.96007" lon="6.92556">
        <ele>1199</ele>
        <time>2023-05-07T14:05:33Z</time>
      </trkpt>
      <trkpt lat="47.96" lon="6.92553">
        <ele>1200</ele>
        <time>2023-05-07T14:05:42Z</time>
      </trkpt>
      <trkpt lat="47.95995" lon="6.92555">
        <ele>1200</ele>
        <time>2023-05-07T14:05:46Z</time>
      </trkpt>
      <trkpt lat="47.9597" lon="6.92556">
        <ele>1202</ele>
        <time>2023-05-07T14:06:11Z</time>
      </trkpt>
      <trkpt lat="47.95956" lon="6.92553">
        <ele>1204</ele>
        <time>2023-05-07T14:06:25Z</time>
      </trkpt>
      <trkpt lat="47.95953" lon="6.92549">
        <ele>1204</ele>
        <time>2023-05-07T14:06:29Z</time>
      </trkpt>
      <trkpt lat="47.9595" lon="6.92543">
        <ele>1204</ele>
        <time>2023-05-07T14:06:34Z</time>
      </trkpt>
      <trkpt lat="47.95947" lon="6.92536">
        <ele>1204</ele>
        <time>2023-05-07T14:06:59Z</time>
      </trkpt>
      <trkpt lat="47.95933" lon="6.92575">
        <ele>1206</ele>
        <time>2023-05-07T14:11:52Z</time>
      </trkpt>
      <trkpt lat="47.95907" lon="6.92599">
        <ele>1205</ele>
        <time>2023-05-07T14:12:29Z</time>
      </trkpt>
      <trkpt lat="47.95902" lon="6.92603">
        <ele>1205</ele>
        <time>2023-05-07T14:12:35Z</time>
      </trkpt>
      <trkpt lat="47.95893" lon="6.92611">
        <ele>1205</ele>
        <time>2023-05-07T14:12:45Z</time>
      </trkpt>
      <trkpt lat="47.95862" lon="6.9263">
        <ele>1202</ele>
        <time>2023-05-07T14:13:17Z</time>
      </trkpt>
      <trkpt lat="47.95826" lon="6.92642">
        <ele>1199</ele>
        <time>2023-05-07T14:13:50Z</time>
      </trkpt>
      <trkpt lat="47.95821" lon="6.92642">
        <ele>1198</ele>
        <time>2023-05-07T14:13:54Z</time>
      </trkpt>
      <trkpt lat="47.95807" lon="6.92648">
        <ele>1197</ele>
        <time>2023-05-07T14:14:07Z</time>
      </trkpt>
      <trkpt lat="47.95789" lon="6.92652">
        <ele>1195</ele>
        <time>2023-05-07T14:14:24Z</time>
      </trkpt>
      <trkpt lat="47.9578" lon="6.92646">
        <ele>1194</ele>
        <time>2023-05-07T14:14:37Z</time>
      </trkpt>
      <trkpt lat="47.95778" lon="6.92643">
        <ele>1194</ele>
        <time>2023-05-07T14:14:54Z</time>
      </trkpt>
      <trkpt lat="47.95762" lon="6.92628">
        <ele>1193</ele>
        <time>2023-05-07T14:15:10Z</time>
      </trkpt>
      <trkpt lat="47.9575" lon="6.92617">
        <ele>1191</ele>
        <time>2023-05-07T14:15:21Z</time>
      </trkpt>
      <trkpt lat="47.95744" lon="6.92606">
        <ele>1190</ele>
        <time>2023-05-07T14:15:32Z</time>
      </trkpt>
      <trkpt lat="47.9574" lon="6.92603">
        <ele>1189</ele>
        <time>2023-05-07T14:15:36Z</time>
      </trkpt>
      <trkpt lat="47.95729" lon="6.92589">
        <ele>1187</ele>
        <time>2023-05-07T14:15:49Z</time>
      </trkpt>
      <trkpt lat="47.95725" lon="6.92587">
        <ele>1186</ele>
        <time>2023-05-07T14:15:58Z</time>
      </trkpt>
      <trkpt lat="47.95722" lon="6.92581">
        <ele>1185</ele>
        <time>2023-05-07T14:16:02Z</time>
      </trkpt>
      <trkpt lat="47.95718" lon="6.92578">
        <ele>1185</ele>
        <time>2023-05-07T14:16:06Z</time>
      </trkpt>
      <trkpt lat="47.95713" lon="6.92578">
        <ele>1184</ele>
        <time>2023-05-07T14:16:10Z</time>
      </trkpt>
      <trkpt lat="47.95709" lon="6.92576">
        <ele>1184</ele>
        <time>2023-05-07T14:16:14Z</time>
      </trkpt>
      <trkpt lat="47.95702" lon="6.92568">
        <ele>1182</ele>
        <time>2023-05-07T14:16:23Z</time>
      </trkpt>
      <trkpt lat="47.95699" lon="6.92562">
        <ele>1181</ele>
        <time>2023-05-07T14:16:28Z</time>
      </trkpt>
      <trkpt lat="47.95695" lon="6.9256">
        <ele>1180</ele>
        <time>2023-05-07T14:16:32Z</time>
      </trkpt>
      <trkpt lat="47.95688" lon="6.92558">
        <ele>1178</ele>
        <time>2023-05-07T14:16:41Z</time>
      </trkpt>
      <trkpt lat="47.9568" lon="6.92559">
        <ele>1176</ele>
        <time>2023-05-07T14:16:51Z</time>
      </trkpt>
      <trkpt lat="47.95675" lon="6.92555">
        <ele>1174</ele>
        <time>2023-05-07T14:16:57Z</time>
      </trkpt>
      <trkpt lat="47.9566" lon="6.92534">
        <ele>1170</ele>
        <time>2023-05-07T14:17:16Z</time>
      </trkpt>
      <trkpt lat="47.9565" lon="6.92529">
        <ele>1169</ele>
        <time>2023-05-07T14:17:25Z</time>
      </trkpt>
      <trkpt lat="47.95634" lon="6.92527">
        <ele>1166</ele>
        <time>2023-05-07T14:17:43Z</time>
      </trkpt>
      <trkpt lat="47.9563" lon="6.92524">
        <ele>1165</ele>
        <time>2023-05-07T14:17:48Z</time>
      </trkpt>
      <trkpt lat="47.9562" lon="6.92512">
        <ele>1163</ele>
        <time>2023-05-07T14:18:04Z</time>
      </trkpt>
      <trkpt lat="47.95616" lon="6.92511">
        <ele>1162</ele>
        <time>2023-05-07T14:18:09Z</time>
      </trkpt>
      <trkpt lat="47.95611" lon="6.92511">
        <ele>1161</ele>
        <time>2023-05-07T14:18:14Z</time>
      </trkpt>
      <trkpt lat="47.956" lon="6.92501">
        <ele>1159</ele>
        <time>2023-05-07T14:18:26Z</time>
      </trkpt>
      <trkpt lat="47.95586" lon="6.92483">
        <ele>1157</ele>
        <time>2023-05-07T14:18:43Z</time>
      </trkpt>
      <trkpt lat="47.95583" lon="6.92476">
        <ele>1157</ele>
        <time>2023-05-07T14:18:47Z</time>
      </trkpt>
      <trkpt lat="47.95581" lon="6.92462">
        <ele>1156</ele>
        <time>2023-05-07T14:18:56Z</time>
      </trkpt>
      <trkpt lat="47.95577" lon="6.92454">
        <ele>1155</ele>
        <time>2023-05-07T14:19:03Z</time>
      </trkpt>
      <trkpt lat="47.95559" lon="6.92437">
        <ele>1152</ele>
        <time>2023-05-07T14:19:27Z</time>
      </trkpt>
      <trkpt lat="47.9555" lon="6.92431">
        <ele>1151</ele>
        <time>2023-05-07T14:19:36Z</time>
      </trkpt>
      <trkpt lat="47.95545" lon="6.9243">
        <ele>1150</ele>
        <time>2023-05-07T14:19:41Z</time>
      </trkpt>
      <trkpt lat="47.95536" lon="6.92421">
        <ele>1148</ele>
        <time>2023-05-07T14:19:54Z</time>
      </trkpt>
      <trkpt lat="47.95524" lon="6.92414">
        <ele>1146</ele>
        <time>2023-05-07T14:20:09Z</time>
      </trkpt>
      <trkpt lat="47.9552" lon="6.92415">
        <ele>1146</ele>
        <time>2023-05-07T14:20:13Z</time>
      </trkpt>
      <trkpt lat="47.95515" lon="6.92412">
        <ele>1145</ele>
        <time>2023-05-07T14:20:18Z</time>
      </trkpt>
      <trkpt lat="47.95507" lon="6.92405">
        <ele>1144</ele>
        <time>2023-05-07T14:20:28Z</time>
      </trkpt>
      <trkpt lat="47.95477" lon="6.92391">
        <ele>1139</ele>
        <time>2023-05-07T14:21:01Z</time>
      </trkpt>
      <trkpt lat="47.95464" lon="6.92386">
        <ele>1138</ele>
        <time>2023-05-07T14:21:13Z</time>
      </trkpt>
      <trkpt lat="47.95459" lon="6.92386">
        <ele>1138</ele>
        <time>2023-05-07T14:21:17Z</time>
      </trkpt>
      <trkpt lat="47.95454" lon="6.92386">
        <ele>1138</ele>
        <time>2023-05-07T14:21:21Z</time>
      </trkpt>
      <trkpt lat="47.95441" lon="6.9238">
        <ele>1138</ele>
        <time>2023-05-07T14:21:32Z</time>
      </trkpt>
      <trkpt lat="47.95436" lon="6.92377">
        <ele>1138</ele>
        <time>2023-05-07T14:21:36Z</time>
      </trkpt>
      <trkpt lat="47.95422" lon="6.92377">
        <ele>1140</ele>
        <time>2023-05-07T14:21:52Z</time>
      </trkpt>
      <trkpt lat="47.95402" lon="6.92367">
        <ele>1142</ele>
        <time>2023-05-07T14:22:14Z</time>
      </trkpt>
      <trkpt lat="47.95391" lon="6.92365">
        <ele>1144</ele>
        <time>2023-05-07T14:22:26Z</time>
      </trkpt>
      <trkpt lat="47.95384" lon="6.92363">
        <ele>1144</ele>
        <time>2023-05-07T14:22:33Z</time>
      </trkpt>
      <trkpt lat="47.9538" lon="6.92364">
        <ele>1145</ele>
        <time>2023-05-07T14:22:37Z</time>
      </trkpt>
      <trkpt lat="47.95352" lon="6.92359">
        <ele>1148</ele>
        <time>2023-05-07T14:23:06Z</time>
      </trkpt>
      <trkpt lat="47.95333" lon="6.92364">
        <ele>1148</ele>
        <time>2023-05-07T14:23:23Z</time>
      </trkpt>
      <trkpt lat="47.95323" lon="6.92359">
        <ele>1148</ele>
        <time>2023-05-07T14:23:33Z</time>
      </trkpt>
      <trkpt lat="47.95318" lon="6.9236">
        <ele>1149</ele>
        <time>2023-05-07T14:23:37Z</time>
      </trkpt>
      <trkpt lat="47.95313" lon="6.92357">
        <ele>1150</ele>
        <time>2023-05-07T14:23:45Z</time>
      </trkpt>
      <trkpt lat="47.95309" lon="6.92356">
        <ele>1150</ele>
        <time>2023-05-07T14:23:51Z</time>
      </trkpt>
      <trkpt lat="47.95304" lon="6.92353">
        <ele>1151</ele>
        <time>2023-05-07T14:23:56Z</time>
      </trkpt>
      <trkpt lat="47.95299" lon="6.92354">
        <ele>1151</ele>
        <time>2023-05-07T14:23:59Z</time>
      </trkpt>
      <trkpt lat="47.95287" lon="6.92348">
        <ele>1152</ele>
        <time>2023-05-07T14:24:10Z</time>
      </trkpt>
      <trkpt lat="47.9528" lon="6.92348">
        <ele>1152</ele>
        <time>2023-05-07T14:24:17Z</time>
      </trkpt>
      <trkpt lat="47.95276" lon="6.92346">
        <ele>1152</ele>
        <time>2023-05-07T14:24:21Z</time>
      </trkpt>
      <trkpt lat="47.95265" lon="6.92351">
        <ele>1151</ele>
        <time>2023-05-07T14:24:32Z</time>
      </trkpt>
      <trkpt lat="47.95261" lon="6.92355">
        <ele>1151</ele>
        <time>2023-05-07T14:24:36Z</time>
      </trkpt>
      <trkpt lat="47.95231" lon="6.92368">
        <ele>1146</ele>
        <time>2023-05-07T14:25:10Z</time>
      </trkpt>
      <trkpt lat="47.9522" lon="6.92376">
        <ele>1146</ele>
        <time>2023-05-07T14:25:23Z</time>
      </trkpt>
      <trkpt lat="47.95214" lon="6.92384">
        <ele>1146</ele>
        <time>2023-05-07T14:25:31Z</time>
      </trkpt>
      <trkpt lat="47.95207" lon="6.92397">
        <ele>1147</ele>
        <time>2023-05-07T14:25:39Z</time>
      </trkpt>
      <trkpt lat="47.95194" lon="6.92409">
        <ele>1148</ele>
        <time>2023-05-07T14:25:54Z</time>
      </trkpt>
      <trkpt lat="47.95185" lon="6.92425">
        <ele>1149</ele>
        <time>2023-05-07T14:26:06Z</time>
      </trkpt>
      <trkpt lat="47.95182" lon="6.92428">
        <ele>1149</ele>
        <time>2023-05-07T14:26:16Z</time>
      </trkpt>
      <trkpt lat="47.95173" lon="6.92435">
        <ele>1149</ele>
        <time>2023-05-07T14:26:26Z</time>
      </trkpt>
      <trkpt lat="47.95166" lon="6.92446">
        <ele>1150</ele>
        <time>2023-05-07T14:26:35Z</time>
      </trkpt>
      <trkpt lat="47.95163" lon="6.92462">
        <ele>1151</ele>
        <time>2023-05-07T14:26:46Z</time>
      </trkpt>
      <trkpt lat="47.9516" lon="6.92484">
        <ele>1150</ele>
        <time>2023-05-07T14:26:59Z</time>
      </trkpt>
      <trkpt lat="47.95157" lon="6.92496">
        <ele>1149</ele>
        <time>2023-05-07T14:27:07Z</time>
      </trkpt>
      <trkpt lat="47.95154" lon="6.92503">
        <ele>1149</ele>
        <time>2023-05-07T14:27:12Z</time>
      </trkpt>
      <trkpt lat="47.95153" lon="6.92511">
        <ele>1149</ele>
        <time>2023-05-07T14:27:17Z</time>
      </trkpt>
      <trkpt lat="47.9515" lon="6.92517">
        <ele>1150</ele>
        <time>2023-05-07T14:27:25Z</time>
      </trkpt>
      <trkpt lat="47.95146" lon="6.92516">
        <ele>1151</ele>
        <time>2023-05-07T14:27:31Z</time>
      </trkpt>
      <trkpt lat="47.95141" lon="6.92518">
        <ele>1151</ele>
        <time>2023-05-07T14:27:36Z</time>
      </trkpt>
      <trkpt lat="47.95136" lon="6.92524">
        <ele>1148</ele>
        <time>2023-05-07T14:27:48Z</time>
      </trkpt>
      <trkpt lat="47.95123" lon="6.92529">
        <ele>1147</ele>
        <time>2023-05-07T14:28:00Z</time>
      </trkpt>
      <trkpt lat="47.95113" lon="6.92531">
        <ele>1147</ele>
        <time>2023-05-07T14:28:09Z</time>
      </trkpt>
      <trkpt lat="47.95107" lon="6.92532">
        <ele>1146</ele>
        <time>2023-05-07T14:28:14Z</time>
      </trkpt>
      <trkpt lat="47.95099" lon="6.92539">
        <ele>1146</ele>
        <time>2023-05-07T14:28:23Z</time>
      </trkpt>
      <trkpt lat="47.95085" lon="6.92543">
        <ele>1145</ele>
        <time>2023-05-07T14:28:35Z</time>
      </trkpt>
      <trkpt lat="47.95076" lon="6.92537">
        <ele>1145</ele>
        <time>2023-05-07T14:28:44Z</time>
      </trkpt>
      <trkpt lat="47.95064" lon="6.9254">
        <ele>1144</ele>
        <time>2023-05-07T14:28:54Z</time>
      </trkpt>
      <trkpt lat="47.95048" lon="6.92551">
        <ele>1143</ele>
        <time>2023-05-07T14:29:12Z</time>
      </trkpt>
      <trkpt lat="47.9504" lon="6.92559">
        <ele>1142</ele>
        <time>2023-05-07T14:29:20Z</time>
      </trkpt>
      <trkpt lat="47.95025" lon="6.92564">
        <ele>1139</ele>
        <time>2023-05-07T14:29:34Z</time>
      </trkpt>
      <trkpt lat="47.9502" lon="6.92564">
        <ele>1138</ele>
        <time>2023-05-07T14:29:38Z</time>
      </trkpt>
      <trkpt lat="47.95016" lon="6.92567">
        <ele>1137</ele>
        <time>2023-05-07T14:29:42Z</time>
      </trkpt>
      <trkpt lat="47.95011" lon="6.92566">
        <ele>1137</ele>
        <time>2023-05-07T14:29:46Z</time>
      </trkpt>
      <trkpt lat="47.95001" lon="6.92564">
        <ele>1136</ele>
        <time>2023-05-07T14:29:54Z</time>
      </trkpt>
      <trkpt lat="47.94997" lon="6.92561">
        <ele>1136</ele>
        <time>2023-05-07T14:29:58Z</time>
      </trkpt>
      <trkpt lat="47.94994" lon="6.92556">
        <ele>1135</ele>
        <time>2023-05-07T14:30:02Z</time>
      </trkpt>
      <trkpt lat="47.94992" lon="6.92549">
        <ele>1134</ele>
        <time>2023-05-07T14:30:06Z</time>
      </trkpt>
      <trkpt lat="47.94992" lon="6.92535">
        <ele>1133</ele>
        <time>2023-05-07T14:30:14Z</time>
      </trkpt>
      <trkpt lat="47.94986" lon="6.92498">
        <ele>1130</ele>
        <time>2023-05-07T14:30:38Z</time>
      </trkpt>
      <trkpt lat="47.94988" lon="6.9249">
        <ele>1130</ele>
        <time>2023-05-07T14:30:42Z</time>
      </trkpt>
      <trkpt lat="47.94983" lon="6.92463">
        <ele>1129</ele>
        <time>2023-05-07T14:30:58Z</time>
      </trkpt>
      <trkpt lat="47.94979" lon="6.92451">
        <ele>1128</ele>
        <time>2023-05-07T14:31:08Z</time>
      </trkpt>
      <trkpt lat="47.94978" lon="6.92438">
        <ele>1127</ele>
        <time>2023-05-07T14:31:16Z</time>
      </trkpt>
      <trkpt lat="47.94979" lon="6.92423">
        <ele>1126</ele>
        <time>2023-05-07T14:31:26Z</time>
      </trkpt>
      <trkpt lat="47.9499" lon="6.92383">
        <ele>1123</ele>
        <time>2023-05-07T14:31:53Z</time>
      </trkpt>
      <trkpt lat="47.94989" lon="6.92376">
        <ele>1122</ele>
        <time>2023-05-07T14:31:57Z</time>
      </trkpt>
      <trkpt lat="47.94993" lon="6.92365">
        <ele>1121</ele>
        <time>2023-05-07T14:32:05Z</time>
      </trkpt>
      <trkpt lat="47.94994" lon="6.92358">
        <ele>1121</ele>
        <time>2023-05-07T14:32:08Z</time>
      </trkpt>
      <trkpt lat="47.95003" lon="6.9233">
        <ele>1118</ele>
        <time>2023-05-07T14:32:28Z</time>
      </trkpt>
      <trkpt lat="47.94995" lon="6.92338">
        <ele>1117</ele>
        <time>2023-05-07T14:32:44Z</time>
      </trkpt>
      <trkpt lat="47.9499" lon="6.92341">
        <ele>1116</ele>
        <time>2023-05-07T14:32:49Z</time>
      </trkpt>
      <trkpt lat="47.94985" lon="6.92346">
        <ele>1116</ele>
        <time>2023-05-07T14:32:54Z</time>
      </trkpt>
      <trkpt lat="47.94982" lon="6.9235">
        <ele>1115</ele>
        <time>2023-05-07T14:32:58Z</time>
      </trkpt>
      <trkpt lat="47.94974" lon="6.9236">
        <ele>1114</ele>
        <time>2023-05-07T14:33:11Z</time>
      </trkpt>
      <trkpt lat="47.94959" lon="6.92391">
        <ele>1111</ele>
        <time>2023-05-07T14:33:37Z</time>
      </trkpt>
      <trkpt lat="47.94953" lon="6.92383">
        <ele>1109</ele>
        <time>2023-05-07T14:33:49Z</time>
      </trkpt>
      <trkpt lat="47.94952" lon="6.92377">
        <ele>1108</ele>
        <time>2023-05-07T14:33:53Z</time>
      </trkpt>
      <trkpt lat="47.94952" lon="6.92363">
        <ele>1107</ele>
        <time>2023-05-07T14:34:01Z</time>
      </trkpt>
      <trkpt lat="47.94951" lon="6.92355">
        <ele>1106</ele>
        <time>2023-05-07T14:34:04Z</time>
      </trkpt>
      <trkpt lat="47.94957" lon="6.92302">
        <ele>1102</ele>
        <time>2023-05-07T14:34:38Z</time>
      </trkpt>
      <trkpt lat="47.94965" lon="6.92275">
        <ele>1100</ele>
        <time>2023-05-07T14:34:56Z</time>
      </trkpt>
      <trkpt lat="47.94966" lon="6.92268">
        <ele>1100</ele>
        <time>2023-05-07T14:35:01Z</time>
      </trkpt>
      <trkpt lat="47.94966" lon="6.92261">
        <ele>1099</ele>
        <time>2023-05-07T14:35:06Z</time>
      </trkpt>
      <trkpt lat="47.94961" lon="6.92256">
        <ele>1099</ele>
        <time>2023-05-07T14:35:13Z</time>
      </trkpt>
      <trkpt lat="47.94958" lon="6.92251">
        <ele>1099</ele>
        <time>2023-05-07T14:35:21Z</time>
      </trkpt>
      <trkpt lat="47.94953" lon="6.92246">
        <ele>1098</ele>
        <time>2023-05-07T14:35:27Z</time>
      </trkpt>
      <trkpt lat="47.94948" lon="6.92245">
        <ele>1098</ele>
        <time>2023-05-07T14:35:30Z</time>
      </trkpt>
      <trkpt lat="47.94944" lon="6.92245">
        <ele>1098</ele>
        <time>2023-05-07T14:35:34Z</time>
      </trkpt>
      <trkpt lat="47.94937" lon="6.92242">
        <ele>1099</ele>
        <time>2023-05-07T14:35:43Z</time>
      </trkpt>
      <trkpt lat="47.94932" lon="6.92247">
        <ele>1100</ele>
        <time>2023-05-07T14:35:50Z</time>
      </trkpt>
      <trkpt lat="47.94927" lon="6.92261">
        <ele>1103</ele>
        <time>2023-05-07T14:36:03Z</time>
      </trkpt>
      <trkpt lat="47.94927" lon="6.92279">
        <ele>1104</ele>
        <time>2023-05-07T14:36:14Z</time>
      </trkpt>
      <trkpt lat="47.94922" lon="6.92285">
        <ele>1105</ele>
        <time>2023-05-07T14:36:22Z</time>
      </trkpt>
      <trkpt lat="47.9492" lon="6.92292">
        <ele>1106</ele>
        <time>2023-05-07T14:36:26Z</time>
      </trkpt>
      <trkpt lat="47.94919" lon="6.923">
        <ele>1106</ele>
        <time>2023-05-07T14:36:30Z</time>
      </trkpt>
      <trkpt lat="47.94917" lon="6.92306">
        <ele>1107</ele>
        <time>2023-05-07T14:36:34Z</time>
      </trkpt>
      <trkpt lat="47.94916" lon="6.92312">
        <ele>1108</ele>
        <time>2023-05-07T14:36:49Z</time>
      </trkpt>
      <trkpt lat="47.94914" lon="6.92317">
        <ele>1108</ele>
        <time>2023-05-07T14:36:54Z</time>
      </trkpt>
      <trkpt lat="47.9491" lon="6.92323">
        <ele>1109</ele>
        <time>2023-05-07T14:36:59Z</time>
      </trkpt>
      <trkpt lat="47.94905" lon="6.92334">
        <ele>1109</ele>
        <time>2023-05-07T14:37:07Z</time>
      </trkpt>
      <trkpt lat="47.94901" lon="6.92337">
        <ele>1110</ele>
        <time>2023-05-07T14:37:12Z</time>
      </trkpt>
      <trkpt lat="47.94896" lon="6.92336">
        <ele>1112</ele>
        <time>2023-05-07T14:37:20Z</time>
      </trkpt>
      <trkpt lat="47.94894" lon="6.9233">
        <ele>1112</ele>
        <time>2023-05-07T14:37:25Z</time>
      </trkpt>
      <trkpt lat="47.94894" lon="6.92323">
        <ele>1113</ele>
        <time>2023-05-07T14:37:29Z</time>
      </trkpt>
      <trkpt lat="47.94899" lon="6.92293">
        <ele>1115</ele>
        <time>2023-05-07T14:37:51Z</time>
      </trkpt>
      <trkpt lat="47.94898" lon="6.92286">
        <ele>1116</ele>
        <time>2023-05-07T14:37:57Z</time>
      </trkpt>
      <trkpt lat="47.94898" lon="6.92279">
        <ele>1116</ele>
        <time>2023-05-07T14:38:03Z</time>
      </trkpt>
      <trkpt lat="47.94899" lon="6.92272">
        <ele>1118</ele>
        <time>2023-05-07T14:38:08Z</time>
      </trkpt>
      <trkpt lat="47.94896" lon="6.92258">
        <ele>1119</ele>
        <time>2023-05-07T14:38:17Z</time>
      </trkpt>
      <trkpt lat="47.94897" lon="6.92245">
        <ele>1120</ele>
        <time>2023-05-07T14:38:23Z</time>
      </trkpt>
      <trkpt lat="47.94895" lon="6.92236">
        <ele>1121</ele>
        <time>2023-05-07T14:38:32Z</time>
      </trkpt>
      <trkpt lat="47.9489" lon="6.92235">
        <ele>1122</ele>
        <time>2023-05-07T14:38:35Z</time>
      </trkpt>
      <trkpt lat="47.94887" lon="6.9224">
        <ele>1123</ele>
        <time>2023-05-07T14:38:39Z</time>
      </trkpt>
      <trkpt lat="47.94887" lon="6.92249">
        <ele>1124</ele>
        <time>2023-05-07T14:38:45Z</time>
      </trkpt>
      <trkpt lat="47.94883" lon="6.92264">
        <ele>1124</ele>
        <time>2023-05-07T14:38:55Z</time>
      </trkpt>
      <trkpt lat="47.94878" lon="6.92269">
        <ele>1125</ele>
        <time>2023-05-07T14:39:03Z</time>
      </trkpt>
      <trkpt lat="47.94874" lon="6.92276">
        <ele>1126</ele>
        <time>2023-05-07T14:39:07Z</time>
      </trkpt>
      <trkpt lat="47.94868" lon="6.92278">
        <ele>1126</ele>
        <time>2023-05-07T14:39:13Z</time>
      </trkpt>
      <trkpt lat="47.94859" lon="6.92286">
        <ele>1127</ele>
        <time>2023-05-07T14:39:23Z</time>
      </trkpt>
      <trkpt lat="47.94855" lon="6.9229">
        <ele>1128</ele>
        <time>2023-05-07T14:39:33Z</time>
      </trkpt>
      <trkpt lat="47.94848" lon="6.92292">
        <ele>1129</ele>
        <time>2023-05-07T14:39:44Z</time>
      </trkpt>
      <trkpt lat="47.9484" lon="6.92288">
        <ele>1130</ele>
        <time>2023-05-07T14:39:52Z</time>
      </trkpt>
      <trkpt lat="47.94834" lon="6.92287">
        <ele>1131</ele>
        <time>2023-05-07T14:39:57Z</time>
      </trkpt>
      <trkpt lat="47.94827" lon="6.92276">
        <ele>1132</ele>
        <time>2023-05-07T14:40:07Z</time>
      </trkpt>
      <trkpt lat="47.94825" lon="6.92269">
        <ele>1132</ele>
        <time>2023-05-07T14:40:10Z</time>
      </trkpt>
      <trkpt lat="47.94816" lon="6.92264">
        <ele>1133</ele>
        <time>2023-05-07T14:40:19Z</time>
      </trkpt>
      <trkpt lat="47.94813" lon="6.92259">
        <ele>1133</ele>
        <time>2023-05-07T14:40:23Z</time>
      </trkpt>
      <trkpt lat="47.94808" lon="6.9225">
        <ele>1133</ele>
        <time>2023-05-07T14:40:29Z</time>
      </trkpt>
      <trkpt lat="47.94801" lon="6.92243">
        <ele>1134</ele>
        <time>2023-05-07T14:40:37Z</time>
      </trkpt>
      <trkpt lat="47.94799" lon="6.92237">
        <ele>1134</ele>
        <time>2023-05-07T14:40:40Z</time>
      </trkpt>
      <trkpt lat="47.94793" lon="6.92231">
        <ele>1135</ele>
        <time>2023-05-07T14:40:48Z</time>
      </trkpt>
      <trkpt lat="47.94792" lon="6.92225">
        <ele>1136</ele>
        <time>2023-05-07T14:40:52Z</time>
      </trkpt>
      <trkpt lat="47.9479" lon="6.92218">
        <ele>1136</ele>
        <time>2023-05-07T14:40:59Z</time>
      </trkpt>
      <trkpt lat="47.94786" lon="6.92215">
        <ele>1136</ele>
        <time>2023-05-07T14:41:04Z</time>
      </trkpt>
      <trkpt lat="47.94768" lon="6.92189">
        <ele>1137</ele>
        <time>2023-05-07T14:41:23Z</time>
      </trkpt>
      <trkpt lat="47.94766" lon="6.92169">
        <ele>1137</ele>
        <time>2023-05-07T14:41:36Z</time>
      </trkpt>
      <trkpt lat="47.94756" lon="6.92141">
        <ele>1137</ele>
        <time>2023-05-07T14:41:51Z</time>
      </trkpt>
      <trkpt lat="47.94752" lon="6.92138">
        <ele>1138</ele>
        <time>2023-05-07T14:41:55Z</time>
      </trkpt>
      <trkpt lat="47.94749" lon="6.92132">
        <ele>1138</ele>
        <time>2023-05-07T14:41:59Z</time>
      </trkpt>
      <trkpt lat="47.9474" lon="6.92108">
        <ele>1140</ele>
        <time>2023-05-07T14:42:20Z</time>
      </trkpt>
      <trkpt lat="47.94736" lon="6.92104">
        <ele>1141</ele>
        <time>2023-05-07T14:42:27Z</time>
      </trkpt>
      <trkpt lat="47.9473" lon="6.92105">
        <ele>1142</ele>
        <time>2023-05-07T14:42:34Z</time>
      </trkpt>
      <trkpt lat="47.94721" lon="6.92101">
        <ele>1142</ele>
        <time>2023-05-07T14:42:43Z</time>
      </trkpt>
      <trkpt lat="47.94708" lon="6.92103">
        <ele>1144</ele>
        <time>2023-05-07T14:42:58Z</time>
      </trkpt>
      <trkpt lat="47.94703" lon="6.92102">
        <ele>1144</ele>
        <time>2023-05-07T14:43:03Z</time>
      </trkpt>
      <trkpt lat="47.94699" lon="6.92095">
        <ele>1145</ele>
        <time>2023-05-07T14:43:08Z</time>
      </trkpt>
      <trkpt lat="47.94697" lon="6.92087">
        <ele>1145</ele>
        <time>2023-05-07T14:43:13Z</time>
      </trkpt>
      <trkpt lat="47.94693" lon="6.92083">
        <ele>1145</ele>
        <time>2023-05-07T14:43:17Z</time>
      </trkpt>
      <trkpt lat="47.94683" lon="6.92073">
        <ele>1145</ele>
        <time>2023-05-07T14:43:28Z</time>
      </trkpt>
      <trkpt lat="47.94679" lon="6.9207">
        <ele>1145</ele>
        <time>2023-05-07T14:43:32Z</time>
      </trkpt>
      <trkpt lat="47.94675" lon="6.92069">
        <ele>1145</ele>
        <time>2023-05-07T14:43:36Z</time>
      </trkpt>
      <trkpt lat="47.94669" lon="6.92065">
        <ele>1146</ele>
        <time>2023-05-07T14:43:44Z</time>
      </trkpt>
      <trkpt lat="47.94659" lon="6.92063">
        <ele>1146</ele>
        <time>2023-05-07T14:43:52Z</time>
      </trkpt>
      <trkpt lat="47.94653" lon="6.92062">
        <ele>1147</ele>
        <time>2023-05-07T14:43:58Z</time>
      </trkpt>
      <trkpt lat="47.94648" lon="6.92063">
        <ele>1147</ele>
        <time>2023-05-07T14:44:02Z</time>
      </trkpt>
      <trkpt lat="47.94644" lon="6.92059">
        <ele>1147</ele>
        <time>2023-05-07T14:44:07Z</time>
      </trkpt>
      <trkpt lat="47.94625" lon="6.92054">
        <ele>1149</ele>
        <time>2023-05-07T14:44:25Z</time>
      </trkpt>
      <trkpt lat="47.9462" lon="6.92057">
        <ele>1149</ele>
        <time>2023-05-07T14:44:29Z</time>
      </trkpt>
      <trkpt lat="47.94611" lon="6.92054">
        <ele>1150</ele>
        <time>2023-05-07T14:44:37Z</time>
      </trkpt>
      <trkpt lat="47.94602" lon="6.92048">
        <ele>1150</ele>
        <time>2023-05-07T14:44:46Z</time>
      </trkpt>
      <trkpt lat="47.94595" lon="6.92048">
        <ele>1150</ele>
        <time>2023-05-07T14:44:53Z</time>
      </trkpt>
      <trkpt lat="47.94586" lon="6.92049">
        <ele>1151</ele>
        <time>2023-05-07T14:45:01Z</time>
      </trkpt>
      <trkpt lat="47.94581" lon="6.92047">
        <ele>1151</ele>
        <time>2023-05-07T14:45:05Z</time>
      </trkpt>
      <trkpt lat="47.94576" lon="6.92044">
        <ele>1151</ele>
        <time>2023-05-07T14:45:13Z</time>
      </trkpt>
      <trkpt lat="47.94576" lon="6.92031">
        <ele>1150</ele>
        <time>2023-05-07T14:45:56Z</time>
      </trkpt>
      <trkpt lat="47.94574" lon="6.92034">
        <ele>1150</ele>
        <time>2023-05-07T14:46:41Z</time>
      </trkpt>
      <trkpt lat="47.94573" lon="6.92031">
        <ele>1149</ele>
        <time>2023-05-07T14:47:14Z</time>
      </trkpt>
      <trkpt lat="47.94576" lon="6.92016">
        <ele>1149</ele>
        <time>2023-05-07T14:47:25Z</time>
      </trkpt>
      <trkpt lat="47.94581" lon="6.92007">
        <ele>1149</ele>
        <time>2023-05-07T14:48:03Z</time>
      </trkpt>
      <trkpt lat="47.94576" lon="6.92007">
        <ele>1149</ele>
        <time>2023-05-07T14:48:07Z</time>
      </trkpt>
      <trkpt lat="47.94571" lon="6.92009">
        <ele>1148</ele>
        <time>2023-05-07T14:48:10Z</time>
      </trkpt>
      <trkpt lat="47.94567" lon="6.92007">
        <ele>1147</ele>
        <time>2023-05-07T14:48:13Z</time>
      </trkpt>
      <trkpt lat="47.94565" lon="6.92">
        <ele>1146</ele>
        <time>2023-05-07T14:48:17Z</time>
      </trkpt>
      <trkpt lat="47.9456" lon="6.91993">
        <ele>1145</ele>
        <time>2023-05-07T14:48:23Z</time>
      </trkpt>
      <trkpt lat="47.94554" lon="6.91994">
        <ele>1144</ele>
        <time>2023-05-07T14:48:30Z</time>
      </trkpt>
      <trkpt lat="47.94551" lon="6.92004">
        <ele>1145</ele>
        <time>2023-05-07T14:48:38Z</time>
      </trkpt>
      <trkpt lat="47.94547" lon="6.92009">
        <ele>1145</ele>
        <time>2023-05-07T14:48:41Z</time>
      </trkpt>
      <trkpt lat="47.94542" lon="6.92009">
        <ele>1145</ele>
        <time>2023-05-07T14:48:45Z</time>
      </trkpt>
      <trkpt lat="47.94533" lon="6.92007">
        <ele>1145</ele>
        <time>2023-05-07T14:48:53Z</time>
      </trkpt>
      <trkpt lat="47.94528" lon="6.92004">
        <ele>1145</ele>
        <time>2023-05-07T14:48:58Z</time>
      </trkpt>
      <trkpt lat="47.94524" lon="6.92004">
        <ele>1145</ele>
        <time>2023-05-07T14:49:02Z</time>
      </trkpt>
      <trkpt lat="47.94508" lon="6.92001">
        <ele>1144</ele>
        <time>2023-05-07T14:49:17Z</time>
      </trkpt>
      <trkpt lat="47.94498" lon="6.91996">
        <ele>1145</ele>
        <time>2023-05-07T14:49:27Z</time>
      </trkpt>
      <trkpt lat="47.94494" lon="6.91993">
        <ele>1145</ele>
        <time>2023-05-07T14:49:31Z</time>
      </trkpt>
      <trkpt lat="47.94486" lon="6.91982">
        <ele>1143</ele>
        <time>2023-05-07T14:49:42Z</time>
      </trkpt>
      <trkpt lat="47.94477" lon="6.91975">
        <ele>1142</ele>
        <time>2023-05-07T14:49:51Z</time>
      </trkpt>
      <trkpt lat="47.94474" lon="6.91971">
        <ele>1142</ele>
        <time>2023-05-07T14:49:55Z</time>
      </trkpt>
      <trkpt lat="47.9447" lon="6.91968">
        <ele>1142</ele>
        <time>2023-05-07T14:50:00Z</time>
      </trkpt>
      <trkpt lat="47.94466" lon="6.91962">
        <ele>1142</ele>
        <time>2023-05-07T14:50:05Z</time>
      </trkpt>
      <trkpt lat="47.94447" lon="6.91953">
        <ele>1142</ele>
        <time>2023-05-07T14:50:22Z</time>
      </trkpt>
      <trkpt lat="47.94439" lon="6.9195">
        <ele>1142</ele>
        <time>2023-05-07T14:50:30Z</time>
      </trkpt>
      <trkpt lat="47.94435" lon="6.91948">
        <ele>1142</ele>
        <time>2023-05-07T14:50:34Z</time>
      </trkpt>
      <trkpt lat="47.9443" lon="6.91949">
        <ele>1141</ele>
        <time>2023-05-07T14:50:39Z</time>
      </trkpt>
      <trkpt lat="47.94422" lon="6.91955">
        <ele>1140</ele>
        <time>2023-05-07T14:50:48Z</time>
      </trkpt>
      <trkpt lat="47.94419" lon="6.91961">
        <ele>1139</ele>
        <time>2023-05-07T14:50:53Z</time>
      </trkpt>
      <trkpt lat="47.94421" lon="6.91967">
        <ele>1139</ele>
        <time>2023-05-07T14:50:56Z</time>
      </trkpt>
      <trkpt lat="47.9442" lon="6.91988">
        <ele>1137</ele>
        <time>2023-05-07T14:51:11Z</time>
      </trkpt>
      <trkpt lat="47.94418" lon="6.91994">
        <ele>1136</ele>
        <time>2023-05-07T14:51:16Z</time>
      </trkpt>
      <trkpt lat="47.94414" lon="6.91995">
        <ele>1136</ele>
        <time>2023-05-07T14:51:28Z</time>
      </trkpt>
      <trkpt lat="47.94407" lon="6.91989">
        <ele>1133</ele>
        <time>2023-05-07T14:51:40Z</time>
      </trkpt>
      <trkpt lat="47.94398" lon="6.91989">
        <ele>1131</ele>
        <time>2023-05-07T14:51:48Z</time>
      </trkpt>
      <trkpt lat="47.944" lon="6.91998">
        <ele>1130</ele>
        <time>2023-05-07T14:52:01Z</time>
      </trkpt>
      <trkpt lat="47.94402" lon="6.92005">
        <ele>1128</ele>
        <time>2023-05-07T14:52:12Z</time>
      </trkpt>
      <trkpt lat="47.94397" lon="6.92005">
        <ele>1127</ele>
        <time>2023-05-07T14:52:16Z</time>
      </trkpt>
      <trkpt lat="47.94393" lon="6.92004">
        <ele>1127</ele>
        <time>2023-05-07T14:52:20Z</time>
      </trkpt>
      <trkpt lat="47.94387" lon="6.92005">
        <ele>1125</ele>
        <time>2023-05-07T14:52:28Z</time>
      </trkpt>
      <trkpt lat="47.94389" lon="6.92011">
        <ele>1124</ele>
        <time>2023-05-07T14:52:34Z</time>
      </trkpt>
      <trkpt lat="47.94401" lon="6.92013">
        <ele>1121</ele>
        <time>2023-05-07T14:52:52Z</time>
      </trkpt>
      <trkpt lat="47.94395" lon="6.92018">
        <ele>1119</ele>
        <time>2023-05-07T14:53:02Z</time>
      </trkpt>
      <trkpt lat="47.94389" lon="6.92022">
        <ele>1118</ele>
        <time>2023-05-07T14:53:10Z</time>
      </trkpt>
      <trkpt lat="47.94398" lon="6.92023">
        <ele>1115</ele>
        <time>2023-05-07T14:53:21Z</time>
      </trkpt>
      <trkpt lat="47.94393" lon="6.92029">
        <ele>1113</ele>
        <time>2023-05-07T14:53:34Z</time>
      </trkpt>
      <trkpt lat="47.9439" lon="6.92033">
        <ele>1112</ele>
        <time>2023-05-07T14:53:38Z</time>
      </trkpt>
      <trkpt lat="47.94377" lon="6.92036">
        <ele>1110</ele>
        <time>2023-05-07T14:53:51Z</time>
      </trkpt>
      <trkpt lat="47.94371" lon="6.92039">
        <ele>1107</ele>
        <time>2023-05-07T14:54:06Z</time>
      </trkpt>
      <trkpt lat="47.94377" lon="6.92049">
        <ele>1105</ele>
        <time>2023-05-07T14:54:20Z</time>
      </trkpt>
      <trkpt lat="47.9438" lon="6.92056">
        <ele>1103</ele>
        <time>2023-05-07T14:54:29Z</time>
      </trkpt>
      <trkpt lat="47.94375" lon="6.92057">
        <ele>1103</ele>
        <time>2023-05-07T14:54:33Z</time>
      </trkpt>
      <trkpt lat="47.94366" lon="6.92063">
        <ele>1102</ele>
        <time>2023-05-07T14:54:41Z</time>
      </trkpt>
      <trkpt lat="47.94361" lon="6.9206">
        <ele>1102</ele>
        <time>2023-05-07T14:54:45Z</time>
      </trkpt>
      <trkpt lat="47.94349" lon="6.92049">
        <ele>1100</ele>
        <time>2023-05-07T14:54:57Z</time>
      </trkpt>
      <trkpt lat="47.94342" lon="6.92037">
        <ele>1098</ele>
        <time>2023-05-07T14:55:07Z</time>
      </trkpt>
      <trkpt lat="47.94338" lon="6.9204">
        <ele>1098</ele>
        <time>2023-05-07T14:55:11Z</time>
      </trkpt>
      <trkpt lat="47.94338" lon="6.92058">
        <ele>1096</ele>
        <time>2023-05-07T14:55:21Z</time>
      </trkpt>
      <trkpt lat="47.9434" lon="6.92083">
        <ele>1093</ele>
        <time>2023-05-07T14:55:39Z</time>
      </trkpt>
      <trkpt lat="47.94337" lon="6.92087">
        <ele>1093</ele>
        <time>2023-05-07T14:55:44Z</time>
      </trkpt>
      <trkpt lat="47.94336" lon="6.92096">
        <ele>1091</ele>
        <time>2023-05-07T14:55:50Z</time>
      </trkpt>
      <trkpt lat="47.94333" lon="6.92109">
        <ele>1090</ele>
        <time>2023-05-07T14:55:58Z</time>
      </trkpt>
      <trkpt lat="47.94329" lon="6.92113">
        <ele>1090</ele>
        <time>2023-05-07T14:56:02Z</time>
      </trkpt>
      <trkpt lat="47.94325" lon="6.92112">
        <ele>1089</ele>
        <time>2023-05-07T14:56:06Z</time>
      </trkpt>
      <trkpt lat="47.94316" lon="6.92116">
        <ele>1088</ele>
        <time>2023-05-07T14:56:15Z</time>
      </trkpt>
      <trkpt lat="47.94298" lon="6.92128">
        <ele>1085</ele>
        <time>2023-05-07T14:56:35Z</time>
      </trkpt>
      <trkpt lat="47.94297" lon="6.92134">
        <ele>1083</ele>
        <time>2023-05-07T14:56:40Z</time>
      </trkpt>
      <trkpt lat="47.94297" lon="6.92142">
        <ele>1083</ele>
        <time>2023-05-07T14:56:45Z</time>
      </trkpt>
      <trkpt lat="47.94299" lon="6.92147">
        <ele>1082</ele>
        <time>2023-05-07T14:56:50Z</time>
      </trkpt>
      <trkpt lat="47.94291" lon="6.92152">
        <ele>1080</ele>
        <time>2023-05-07T14:57:03Z</time>
      </trkpt>
      <trkpt lat="47.94278" lon="6.92149">
        <ele>1078</ele>
        <time>2023-05-07T14:57:15Z</time>
      </trkpt>
      <trkpt lat="47.94265" lon="6.92151">
        <ele>1076</ele>
        <time>2023-05-07T14:57:26Z</time>
      </trkpt>
      <trkpt lat="47.94253" lon="6.92155">
        <ele>1075</ele>
        <time>2023-05-07T14:57:36Z</time>
      </trkpt>
      <trkpt lat="47.94245" lon="6.92163">
        <ele>1075</ele>
        <time>2023-05-07T14:57:44Z</time>
      </trkpt>
      <trkpt lat="47.94241" lon="6.92165">
        <ele>1075</ele>
        <time>2023-05-07T14:57:48Z</time>
      </trkpt>
      <trkpt lat="47.94236" lon="6.92168">
        <ele>1075</ele>
        <time>2023-05-07T14:57:54Z</time>
      </trkpt>
      <trkpt lat="47.94231" lon="6.92169">
        <ele>1076</ele>
        <time>2023-05-07T14:57:58Z</time>
      </trkpt>
      <trkpt lat="47.94226" lon="6.92168">
        <ele>1075</ele>
        <time>2023-05-07T14:58:02Z</time>
      </trkpt>
      <trkpt lat="47.94215" lon="6.92165">
        <ele>1073</ele>
        <time>2023-05-07T14:58:11Z</time>
      </trkpt>
      <trkpt lat="47.94212" lon="6.92162">
        <ele>1073</ele>
        <time>2023-05-07T14:58:15Z</time>
      </trkpt>
      <trkpt lat="47.94197" lon="6.9216">
        <ele>1071</ele>
        <time>2023-05-07T14:58:29Z</time>
      </trkpt>
      <trkpt lat="47.94193" lon="6.92163">
        <ele>1070</ele>
        <time>2023-05-07T14:58:33Z</time>
      </trkpt>
      <trkpt lat="47.9419" lon="6.92169">
        <ele>1070</ele>
        <time>2023-05-07T14:58:37Z</time>
      </trkpt>
      <trkpt lat="47.94178" lon="6.92179">
        <ele>1070</ele>
        <time>2023-05-07T14:58:48Z</time>
      </trkpt>
      <trkpt lat="47.94174" lon="6.92175">
        <ele>1069</ele>
        <time>2023-05-07T14:58:51Z</time>
      </trkpt>
      <trkpt lat="47.94172" lon="6.9217">
        <ele>1069</ele>
        <time>2023-05-07T14:58:54Z</time>
      </trkpt>
      <trkpt lat="47.94168" lon="6.92161">
        <ele>1069</ele>
        <time>2023-05-07T14:59:00Z</time>
      </trkpt>
      <trkpt lat="47.94165" lon="6.92156">
        <ele>1069</ele>
        <time>2023-05-07T14:59:04Z</time>
      </trkpt>
      <trkpt lat="47.94154" lon="6.92131">
        <ele>1069</ele>
        <time>2023-05-07T14:59:20Z</time>
      </trkpt>
      <trkpt lat="47.94145" lon="6.9212">
        <ele>1068</ele>
        <time>2023-05-07T14:59:28Z</time>
      </trkpt>
      <trkpt lat="47.94119" lon="6.92087">
        <ele>1068</ele>
        <time>2023-05-07T14:59:55Z</time>
      </trkpt>
      <trkpt lat="47.94099" lon="6.92064">
        <ele>1068</ele>
        <time>2023-05-07T15:00:26Z</time>
      </trkpt>
      <trkpt lat="47.94095" lon="6.92062">
        <ele>1068</ele>
        <time>2023-05-07T15:00:31Z</time>
      </trkpt>
      <trkpt lat="47.94085" lon="6.92057">
        <ele>1067</ele>
        <time>2023-05-07T15:00:40Z</time>
      </trkpt>
      <trkpt lat="47.94081" lon="6.92055">
        <ele>1067</ele>
        <time>2023-05-07T15:00:44Z</time>
      </trkpt>
      <trkpt lat="47.94066" lon="6.92056">
        <ele>1066</ele>
        <time>2023-05-07T15:00:57Z</time>
      </trkpt>
      <trkpt lat="47.94061" lon="6.92057">
        <ele>1065</ele>
        <time>2023-05-07T15:01:01Z</time>
      </trkpt>
      <trkpt lat="47.94052" lon="6.92055">
        <ele>1064</ele>
        <time>2023-05-07T15:01:10Z</time>
      </trkpt>
      <trkpt lat="47.94048" lon="6.92053">
        <ele>1064</ele>
        <time>2023-05-07T15:01:14Z</time>
      </trkpt>
      <trkpt lat="47.94043" lon="6.92049">
        <ele>1063</ele>
        <time>2023-05-07T15:01:20Z</time>
      </trkpt>
      <trkpt lat="47.94039" lon="6.92047">
        <ele>1063</ele>
        <time>2023-05-07T15:01:24Z</time>
      </trkpt>
      <trkpt lat="47.9403" lon="6.9205">
        <ele>1061</ele>
        <time>2023-05-07T15:01:31Z</time>
      </trkpt>
      <trkpt lat="47.94021" lon="6.92046">
        <ele>1060</ele>
        <time>2023-05-07T15:01:38Z</time>
      </trkpt>
      <trkpt lat="47.94016" lon="6.92043">
        <ele>1059</ele>
        <time>2023-05-07T15:01:42Z</time>
      </trkpt>
      <trkpt lat="47.93997" lon="6.92042">
        <ele>1059</ele>
        <time>2023-05-07T15:01:58Z</time>
      </trkpt>
      <trkpt lat="47.93971" lon="6.92054">
        <ele>1058</ele>
        <time>2023-05-07T15:02:31Z</time>
      </trkpt>
      <trkpt lat="47.93947" lon="6.9207">
        <ele>1058</ele>
        <time>2023-05-07T15:02:52Z</time>
      </trkpt>
      <trkpt lat="47.93938" lon="6.92074">
        <ele>1057</ele>
        <time>2023-05-07T15:03:00Z</time>
      </trkpt>
      <trkpt lat="47.93921" lon="6.9209">
        <ele>1056</ele>
        <time>2023-05-07T15:03:16Z</time>
      </trkpt>
      <trkpt lat="47.93914" lon="6.921">
        <ele>1055</ele>
        <time>2023-05-07T15:03:25Z</time>
      </trkpt>
      <trkpt lat="47.9391" lon="6.92103">
        <ele>1054</ele>
        <time>2023-05-07T15:03:29Z</time>
      </trkpt>
      <trkpt lat="47.93907" lon="6.92108">
        <ele>1054</ele>
        <time>2023-05-07T15:03:33Z</time>
      </trkpt>
      <trkpt lat="47.93903" lon="6.92112">
        <ele>1054</ele>
        <time>2023-05-07T15:03:37Z</time>
      </trkpt>
      <trkpt lat="47.93899" lon="6.92119">
        <ele>1053</ele>
        <time>2023-05-07T15:03:45Z</time>
      </trkpt>
      <trkpt lat="47.93896" lon="6.92123">
        <ele>1053</ele>
        <time>2023-05-07T15:03:50Z</time>
      </trkpt>
      <trkpt lat="47.93892" lon="6.92132">
        <ele>1053</ele>
        <time>2023-05-07T15:03:58Z</time>
      </trkpt>
      <trkpt lat="47.93894" lon="6.92142">
        <ele>1053</ele>
        <time>2023-05-07T15:04:06Z</time>
      </trkpt>
      <trkpt lat="47.93893" lon="6.92149">
        <ele>1053</ele>
        <time>2023-05-07T15:04:32Z</time>
      </trkpt>
      <trkpt lat="47.93889" lon="6.92153">
        <ele>1053</ele>
        <time>2023-05-07T15:05:08Z</time>
      </trkpt>
      <trkpt lat="47.93886" lon="6.92166">
        <ele>1052</ele>
        <time>2023-05-07T15:05:19Z</time>
      </trkpt>
      <trkpt lat="47.93882" lon="6.92187">
        <ele>1052</ele>
        <time>2023-05-07T15:05:33Z</time>
      </trkpt>
      <trkpt lat="47.93882" lon="6.92194">
        <ele>1052</ele>
        <time>2023-05-07T15:05:37Z</time>
      </trkpt>
      <trkpt lat="47.93877" lon="6.92208">
        <ele>1052</ele>
        <time>2023-05-07T15:05:45Z</time>
      </trkpt>
      <trkpt lat="47.93874" lon="6.92212">
        <ele>1051</ele>
        <time>2023-05-07T15:05:49Z</time>
      </trkpt>
      <trkpt lat="47.93868" lon="6.92212">
        <ele>1052</ele>
        <time>2023-05-07T15:05:57Z</time>
      </trkpt>
      <trkpt lat="47.93848" lon="6.92209">
        <ele>1052</ele>
        <time>2023-05-07T15:06:18Z</time>
      </trkpt>
      <trkpt lat="47.93843" lon="6.9221">
        <ele>1052</ele>
        <time>2023-05-07T15:06:22Z</time>
      </trkpt>
      <trkpt lat="47.93827" lon="6.92207">
        <ele>1053</ele>
        <time>2023-05-07T15:06:38Z</time>
      </trkpt>
      <trkpt lat="47.93822" lon="6.92205">
        <ele>1054</ele>
        <time>2023-05-07T15:06:45Z</time>
      </trkpt>
      <trkpt lat="47.93817" lon="6.92206">
        <ele>1054</ele>
        <time>2023-05-07T15:06:51Z</time>
      </trkpt>
      <trkpt lat="47.93806" lon="6.9221">
        <ele>1055</ele>
        <time>2023-05-07T15:07:01Z</time>
      </trkpt>
      <trkpt lat="47.93796" lon="6.9221">
        <ele>1058</ele>
        <time>2023-05-07T15:07:15Z</time>
      </trkpt>
      <trkpt lat="47.93792" lon="6.92214">
        <ele>1058</ele>
        <time>2023-05-07T15:07:18Z</time>
      </trkpt>
      <trkpt lat="47.93787" lon="6.92227">
        <ele>1060</ele>
        <time>2023-05-07T15:07:30Z</time>
      </trkpt>
      <trkpt lat="47.93787" lon="6.92233">
        <ele>1061</ele>
        <time>2023-05-07T15:07:36Z</time>
      </trkpt>
      <trkpt lat="47.93779" lon="6.92269">
        <ele>1064</ele>
        <time>2023-05-07T15:08:00Z</time>
      </trkpt>
      <trkpt lat="47.93769" lon="6.92239">
        <ele>1068</ele>
        <time>2023-05-07T15:08:30Z</time>
      </trkpt>
      <trkpt lat="47.9377" lon="6.92225">
        <ele>1069</ele>
        <time>2023-05-07T15:08:39Z</time>
      </trkpt>
      <trkpt lat="47.93765" lon="6.92215">
        <ele>1070</ele>
        <time>2023-05-07T15:08:47Z</time>
      </trkpt>
      <trkpt lat="47.93762" lon="6.92221">
        <ele>1072</ele>
        <time>2023-05-07T15:09:06Z</time>
      </trkpt>
      <trkpt lat="47.93761" lon="6.92241">
        <ele>1074</ele>
        <time>2023-05-07T15:09:23Z</time>
      </trkpt>
      <trkpt lat="47.93755" lon="6.92252">
        <ele>1075</ele>
        <time>2023-05-07T15:09:33Z</time>
      </trkpt>
      <trkpt lat="47.93753" lon="6.92259">
        <ele>1075</ele>
        <time>2023-05-07T15:09:38Z</time>
      </trkpt>
      <trkpt lat="47.9375" lon="6.92263">
        <ele>1075</ele>
        <time>2023-05-07T15:09:43Z</time>
      </trkpt>
      <trkpt lat="47.93746" lon="6.92269">
        <ele>1076</ele>
        <time>2023-05-07T15:09:47Z</time>
      </trkpt>
      <trkpt lat="47.93742" lon="6.92273">
        <ele>1079</ele>
        <time>2023-05-07T15:09:51Z</time>
      </trkpt>
      <trkpt lat="47.93741" lon="6.92266">
        <ele>1079</ele>
        <time>2023-05-07T15:10:03Z</time>
      </trkpt>
      <trkpt lat="47.93742" lon="6.92257">
        <ele>1078</ele>
        <time>2023-05-07T15:10:10Z</time>
      </trkpt>
      <trkpt lat="47.9374" lon="6.92248">
        <ele>1079</ele>
        <time>2023-05-07T15:10:19Z</time>
      </trkpt>
      <trkpt lat="47.93739" lon="6.92241">
        <ele>1079</ele>
        <time>2023-05-07T15:10:24Z</time>
      </trkpt>
      <trkpt lat="47.93733" lon="6.92226">
        <ele>1081</ele>
        <time>2023-05-07T15:10:38Z</time>
      </trkpt>
      <trkpt lat="47.93729" lon="6.9223">
        <ele>1082</ele>
        <time>2023-05-07T15:10:46Z</time>
      </trkpt>
      <trkpt lat="47.93716" lon="6.92234">
        <ele>1086</ele>
        <time>2023-05-07T15:11:04Z</time>
      </trkpt>
      <trkpt lat="47.93714" lon="6.92244">
        <ele>1088</ele>
        <time>2023-05-07T15:11:13Z</time>
      </trkpt>
      <trkpt lat="47.9371" lon="6.92267">
        <ele>1091</ele>
        <time>2023-05-07T15:11:30Z</time>
      </trkpt>
      <trkpt lat="47.93711" lon="6.92276">
        <ele>1092</ele>
        <time>2023-05-07T15:11:37Z</time>
      </trkpt>
      <trkpt lat="47.93714" lon="6.92281">
        <ele>1092</ele>
        <time>2023-05-07T15:11:41Z</time>
      </trkpt>
      <trkpt lat="47.93714" lon="6.92289">
        <ele>1093</ele>
        <time>2023-05-07T15:11:46Z</time>
      </trkpt>
      <trkpt lat="47.93717" lon="6.92302">
        <ele>1094</ele>
        <time>2023-05-07T15:11:55Z</time>
      </trkpt>
      <trkpt lat="47.93717" lon="6.92312">
        <ele>1095</ele>
        <time>2023-05-07T15:12:01Z</time>
      </trkpt>
      <trkpt lat="47.93713" lon="6.92317">
        <ele>1096</ele>
        <time>2023-05-07T15:12:06Z</time>
      </trkpt>
      <trkpt lat="47.93709" lon="6.92309">
        <ele>1098</ele>
        <time>2023-05-07T15:12:15Z</time>
      </trkpt>
      <trkpt lat="47.93706" lon="6.92303">
        <ele>1098</ele>
        <time>2023-05-07T15:12:20Z</time>
      </trkpt>
      <trkpt lat="47.937" lon="6.92293">
        <ele>1099</ele>
        <time>2023-05-07T15:12:29Z</time>
      </trkpt>
      <trkpt lat="47.9369" lon="6.92285">
        <ele>1101</ele>
        <time>2023-05-07T15:12:42Z</time>
      </trkpt>
      <trkpt lat="47.93685" lon="6.92284">
        <ele>1102</ele>
        <time>2023-05-07T15:12:47Z</time>
      </trkpt>
      <trkpt lat="47.93682" lon="6.92289">
        <ele>1103</ele>
        <time>2023-05-07T15:12:55Z</time>
      </trkpt>
      <trkpt lat="47.93683" lon="6.92296">
        <ele>1104</ele>
        <time>2023-05-07T15:13:01Z</time>
      </trkpt>
      <trkpt lat="47.93686" lon="6.92302">
        <ele>1105</ele>
        <time>2023-05-07T15:13:08Z</time>
      </trkpt>
      <trkpt lat="47.93687" lon="6.92314">
        <ele>1107</ele>
        <time>2023-05-07T15:13:17Z</time>
      </trkpt>
      <trkpt lat="47.93691" lon="6.92331">
        <ele>1108</ele>
        <time>2023-05-07T15:13:29Z</time>
      </trkpt>
      <trkpt lat="47.9369" lon="6.92337">
        <ele>1109</ele>
        <time>2023-05-07T15:13:34Z</time>
      </trkpt>
      <trkpt lat="47.93697" lon="6.92368">
        <ele>1111</ele>
        <time>2023-05-07T15:13:55Z</time>
      </trkpt>
      <trkpt lat="47.93691" lon="6.92367">
        <ele>1111</ele>
        <time>2023-05-07T15:13:59Z</time>
      </trkpt>
      <trkpt lat="47.93689" lon="6.92361">
        <ele>1112</ele>
        <time>2023-05-07T15:14:04Z</time>
      </trkpt>
      <trkpt lat="47.93681" lon="6.92355">
        <ele>1113</ele>
        <time>2023-05-07T15:14:12Z</time>
      </trkpt>
      <trkpt lat="47.93669" lon="6.9235">
        <ele>1116</ele>
        <time>2023-05-07T15:14:27Z</time>
      </trkpt>
      <trkpt lat="47.93658" lon="6.92339">
        <ele>1118</ele>
        <time>2023-05-07T15:14:41Z</time>
      </trkpt>
      <trkpt lat="47.9366" lon="6.92351">
        <ele>1120</ele>
        <time>2023-05-07T15:14:56Z</time>
      </trkpt>
      <trkpt lat="47.93671" lon="6.92377">
        <ele>1122</ele>
        <time>2023-05-07T15:15:17Z</time>
      </trkpt>
      <trkpt lat="47.9367" lon="6.92384">
        <ele>1123</ele>
        <time>2023-05-07T15:15:22Z</time>
      </trkpt>
      <trkpt lat="47.93661" lon="6.92385">
        <ele>1125</ele>
        <time>2023-05-07T15:15:31Z</time>
      </trkpt>
      <trkpt lat="47.93657" lon="6.92387">
        <ele>1125</ele>
        <time>2023-05-07T15:15:35Z</time>
      </trkpt>
      <trkpt lat="47.93644" lon="6.92418">
        <ele>1129</ele>
        <time>2023-05-07T15:15:58Z</time>
      </trkpt>
      <trkpt lat="47.93643" lon="6.92423">
        <ele>1131</ele>
        <time>2023-05-07T15:16:04Z</time>
      </trkpt>
      <trkpt lat="47.93639" lon="6.92428">
        <ele>1132</ele>
        <time>2023-05-07T15:16:10Z</time>
      </trkpt>
      <trkpt lat="47.93637" lon="6.92441">
        <ele>1135</ele>
        <time>2023-05-07T15:16:21Z</time>
      </trkpt>
      <trkpt lat="47.93628" lon="6.92461">
        <ele>1139</ele>
        <time>2023-05-07T15:16:44Z</time>
      </trkpt>
      <trkpt lat="47.93615" lon="6.92472">
        <ele>1141</ele>
        <time>2023-05-07T15:16:57Z</time>
      </trkpt>
      <trkpt lat="47.93587" lon="6.92475">
        <ele>1143</ele>
        <time>2023-05-07T15:17:22Z</time>
      </trkpt>
      <trkpt lat="47.93561" lon="6.92492">
        <ele>1144</ele>
        <time>2023-05-07T15:17:46Z</time>
      </trkpt>
      <trkpt lat="47.93525" lon="6.92492">
        <ele>1146</ele>
        <time>2023-05-07T15:18:17Z</time>
      </trkpt>
      <trkpt lat="47.93511" lon="6.92495">
        <ele>1147</ele>
        <time>2023-05-07T15:18:29Z</time>
      </trkpt>
      <trkpt lat="47.93498" lon="6.925">
        <ele>1147</ele>
        <time>2023-05-07T15:18:41Z</time>
      </trkpt>
      <trkpt lat="47.93466" lon="6.92503">
        <ele>1149</ele>
        <time>2023-05-07T15:19:10Z</time>
      </trkpt>
      <trkpt lat="47.93442" lon="6.92508">
        <ele>1148</ele>
        <time>2023-05-07T15:19:33Z</time>
      </trkpt>
      <trkpt lat="47.93409" lon="6.92505">
        <ele>1145</ele>
        <time>2023-05-07T15:20:03Z</time>
      </trkpt>
      <trkpt lat="47.93384" lon="6.92485">
        <ele>1142</ele>
        <time>2023-05-07T15:20:29Z</time>
      </trkpt>
      <trkpt lat="47.93377" lon="6.92476">
        <ele>1141</ele>
        <time>2023-05-07T15:20:38Z</time>
      </trkpt>
      <trkpt lat="47.93358" lon="6.9246">
        <ele>1139</ele>
        <time>2023-05-07T15:20:58Z</time>
      </trkpt>
      <trkpt lat="47.93354" lon="6.92456">
        <ele>1139</ele>
        <time>2023-05-07T15:21:02Z</time>
      </trkpt>
      <trkpt lat="47.93351" lon="6.92451">
        <ele>1139</ele>
        <time>2023-05-07T15:21:06Z</time>
      </trkpt>
      <trkpt lat="47.93342" lon="6.92446">
        <ele>1140</ele>
        <time>2023-05-07T15:21:14Z</time>
      </trkpt>
      <trkpt lat="47.93338" lon="6.92445">
        <ele>1140</ele>
        <time>2023-05-07T15:21:18Z</time>
      </trkpt>
      <trkpt lat="47.93326" lon="6.92437">
        <ele>1141</ele>
        <time>2023-05-07T15:21:31Z</time>
      </trkpt>
      <trkpt lat="47.93321" lon="6.92439">
        <ele>1141</ele>
        <time>2023-05-07T15:21:35Z</time>
      </trkpt>
      <trkpt lat="47.93318" lon="6.92433">
        <ele>1141</ele>
        <time>2023-05-07T15:21:40Z</time>
      </trkpt>
      <trkpt lat="47.93289" lon="6.92412">
        <ele>1145</ele>
        <time>2023-05-07T15:22:12Z</time>
      </trkpt>
      <trkpt lat="47.93276" lon="6.92404">
        <ele>1147</ele>
        <time>2023-05-07T15:22:26Z</time>
      </trkpt>
      <trkpt lat="47.93267" lon="6.92401">
        <ele>1148</ele>
        <time>2023-05-07T15:22:34Z</time>
      </trkpt>
      <trkpt lat="47.93261" lon="6.92396">
        <ele>1148</ele>
        <time>2023-05-07T15:22:41Z</time>
      </trkpt>
      <trkpt lat="47.93256" lon="6.92398">
        <ele>1149</ele>
        <time>2023-05-07T15:22:46Z</time>
      </trkpt>
      <trkpt lat="47.93246" lon="6.92399">
        <ele>1148</ele>
        <time>2023-05-07T15:22:54Z</time>
      </trkpt>
      <trkpt lat="47.93227" lon="6.92409">
        <ele>1148</ele>
        <time>2023-05-07T15:23:10Z</time>
      </trkpt>
      <trkpt lat="47.9319" lon="6.92431">
        <ele>1149</ele>
        <time>2023-05-07T15:23:43Z</time>
      </trkpt>
      <trkpt lat="47.93173" lon="6.92442">
        <ele>1150</ele>
        <time>2023-05-07T15:23:59Z</time>
      </trkpt>
      <trkpt lat="47.93168" lon="6.92443">
        <ele>1150</ele>
        <time>2023-05-07T15:24:03Z</time>
      </trkpt>
      <trkpt lat="47.93164" lon="6.92446">
        <ele>1150</ele>
        <time>2023-05-07T15:24:07Z</time>
      </trkpt>
      <trkpt lat="47.93151" lon="6.92455">
        <ele>1150</ele>
        <time>2023-05-07T15:24:19Z</time>
      </trkpt>
      <trkpt lat="47.93126" lon="6.92492">
        <ele>1152</ele>
        <time>2023-05-07T15:24:51Z</time>
      </trkpt>
      <trkpt lat="47.93108" lon="6.9253">
        <ele>1157</ele>
        <time>2023-05-07T15:25:24Z</time>
      </trkpt>
      <trkpt lat="47.93103" lon="6.92545">
        <ele>1159</ele>
        <time>2023-05-07T15:25:37Z</time>
      </trkpt>
      <trkpt lat="47.93099" lon="6.9255">
        <ele>1160</ele>
        <time>2023-05-07T15:25:43Z</time>
      </trkpt>
      <trkpt lat="47.93092" lon="6.92572">
        <ele>1165</ele>
        <time>2023-05-07T15:26:04Z</time>
      </trkpt>
      <trkpt lat="47.93089" lon="6.92577">
        <ele>1166</ele>
        <time>2023-05-07T15:26:09Z</time>
      </trkpt>
      <trkpt lat="47.93087" lon="6.92583">
        <ele>1167</ele>
        <time>2023-05-07T15:26:14Z</time>
      </trkpt>
      <trkpt lat="47.93084" lon="6.92587">
        <ele>1167</ele>
        <time>2023-05-07T15:26:19Z</time>
      </trkpt>
      <trkpt lat="47.93077" lon="6.92592">
        <ele>1167</ele>
        <time>2023-05-07T15:26:36Z</time>
      </trkpt>
      <trkpt lat="47.93072" lon="6.92592">
        <ele>1167</ele>
        <time>2023-05-07T15:26:40Z</time>
      </trkpt>
      <trkpt lat="47.93045" lon="6.92581">
        <ele>1165</ele>
        <time>2023-05-07T15:27:03Z</time>
      </trkpt>
      <trkpt lat="47.93028" lon="6.92569">
        <ele>1163</ele>
        <time>2023-05-07T15:27:20Z</time>
      </trkpt>
      <trkpt lat="47.93019" lon="6.92566">
        <ele>1161</ele>
        <time>2023-05-07T15:27:28Z</time>
      </trkpt>
      <trkpt lat="47.93009" lon="6.92559">
        <ele>1159</ele>
        <time>2023-05-07T15:27:39Z</time>
      </trkpt>
      <trkpt lat="47.93004" lon="6.92557">
        <ele>1158</ele>
        <time>2023-05-07T15:27:45Z</time>
      </trkpt>
      <trkpt lat="47.92982" lon="6.92544">
        <ele>1153</ele>
        <time>2023-05-07T15:28:09Z</time>
      </trkpt>
      <trkpt lat="47.92977" lon="6.92545">
        <ele>1152</ele>
        <time>2023-05-07T15:28:13Z</time>
      </trkpt>
      <trkpt lat="47.92972" lon="6.92543">
        <ele>1151</ele>
        <time>2023-05-07T15:28:18Z</time>
      </trkpt>
      <trkpt lat="47.92964" lon="6.92539">
        <ele>1149</ele>
        <time>2023-05-07T15:28:26Z</time>
      </trkpt>
      <trkpt lat="47.92959" lon="6.92538">
        <ele>1149</ele>
        <time>2023-05-07T15:28:31Z</time>
      </trkpt>
      <trkpt lat="47.92955" lon="6.9254">
        <ele>1148</ele>
        <time>2023-05-07T15:28:35Z</time>
      </trkpt>
      <trkpt lat="47.92948" lon="6.92534">
        <ele>1146</ele>
        <time>2023-05-07T15:28:43Z</time>
      </trkpt>
      <trkpt lat="47.92948" lon="6.92527">
        <ele>1145</ele>
        <time>2023-05-07T15:28:47Z</time>
      </trkpt>
      <trkpt lat="47.92945" lon="6.92522">
        <ele>1145</ele>
        <time>2023-05-07T15:28:50Z</time>
      </trkpt>
      <trkpt lat="47.92941" lon="6.92518">
        <ele>1144</ele>
        <time>2023-05-07T15:28:54Z</time>
      </trkpt>
      <trkpt lat="47.92937" lon="6.92516">
        <ele>1143</ele>
        <time>2023-05-07T15:28:58Z</time>
      </trkpt>
      <trkpt lat="47.92926" lon="6.92507">
        <ele>1140</ele>
        <time>2023-05-07T15:29:09Z</time>
      </trkpt>
      <trkpt lat="47.929" lon="6.92491">
        <ele>1136</ele>
        <time>2023-05-07T15:29:36Z</time>
      </trkpt>
      <trkpt lat="47.92887" lon="6.92479">
        <ele>1133</ele>
        <time>2023-05-07T15:29:50Z</time>
      </trkpt>
      <trkpt lat="47.92875" lon="6.92474">
        <ele>1130</ele>
        <time>2023-05-07T15:30:05Z</time>
      </trkpt>
      <trkpt lat="47.92859" lon="6.92469">
        <ele>1125</ele>
        <time>2023-05-07T15:31:40Z</time>
      </trkpt>
      <trkpt lat="47.92851" lon="6.92465">
        <ele>1123</ele>
        <time>2023-05-07T15:31:48Z</time>
      </trkpt>
      <trkpt lat="47.92814" lon="6.92449">
        <ele>1116</ele>
        <time>2023-05-07T15:32:23Z</time>
      </trkpt>
      <trkpt lat="47.92781" lon="6.92434">
        <ele>1111</ele>
        <time>2023-05-07T15:32:55Z</time>
      </trkpt>
      <trkpt lat="47.92776" lon="6.9243">
        <ele>1109</ele>
        <time>2023-05-07T15:32:59Z</time>
      </trkpt>
      <trkpt lat="47.92765" lon="6.92417">
        <ele>1108</ele>
        <time>2023-05-07T15:33:10Z</time>
      </trkpt>
      <trkpt lat="47.92763" lon="6.92411">
        <ele>1107</ele>
        <time>2023-05-07T15:33:14Z</time>
      </trkpt>
      <trkpt lat="47.9274" lon="6.92394">
        <ele>1102</ele>
        <time>2023-05-07T15:33:48Z</time>
      </trkpt>
      <trkpt lat="47.9274" lon="6.92387">
        <ele>1101</ele>
        <time>2023-05-07T15:33:53Z</time>
      </trkpt>
      <trkpt lat="47.92735" lon="6.92377">
        <ele>1098</ele>
        <time>2023-05-07T15:34:02Z</time>
      </trkpt>
      <trkpt lat="47.92705" lon="6.92347">
        <ele>1091</ele>
        <time>2023-05-07T15:34:35Z</time>
      </trkpt>
      <trkpt lat="47.92693" lon="6.92336">
        <ele>1088</ele>
        <time>2023-05-07T15:34:51Z</time>
      </trkpt>
      <trkpt lat="47.92689" lon="6.92327">
        <ele>1086</ele>
        <time>2023-05-07T15:35:03Z</time>
      </trkpt>
      <trkpt lat="47.92676" lon="6.92334">
        <ele>1081</ele>
        <time>2023-05-07T15:35:21Z</time>
      </trkpt>
      <trkpt lat="47.92671" lon="6.92334">
        <ele>1080</ele>
        <time>2023-05-07T15:35:27Z</time>
      </trkpt>
      <trkpt lat="47.92667" lon="6.92329">
        <ele>1078</ele>
        <time>2023-05-07T15:35:39Z</time>
      </trkpt>
      <trkpt lat="47.92661" lon="6.92319">
        <ele>1075</ele>
        <time>2023-05-07T15:35:49Z</time>
      </trkpt>
      <trkpt lat="47.92662" lon="6.92311">
        <ele>1075</ele>
        <time>2023-05-07T15:35:53Z</time>
      </trkpt>
      <trkpt lat="47.92664" lon="6.92303">
        <ele>1074</ele>
        <time>2023-05-07T15:35:57Z</time>
      </trkpt>
      <trkpt lat="47.92666" lon="6.92288">
        <ele>1074</ele>
        <time>2023-05-07T15:36:05Z</time>
      </trkpt>
      <trkpt lat="47.92668" lon="6.92282">
        <ele>1074</ele>
        <time>2023-05-07T15:36:11Z</time>
      </trkpt>
      <trkpt lat="47.92663" lon="6.92277">
        <ele>1070</ele>
        <time>2023-05-07T15:36:24Z</time>
      </trkpt>
      <trkpt lat="47.92657" lon="6.92276">
        <ele>1068</ele>
        <time>2023-05-07T15:36:37Z</time>
      </trkpt>
      <trkpt lat="47.92653" lon="6.92279">
        <ele>1067</ele>
        <time>2023-05-07T15:36:41Z</time>
      </trkpt>
      <trkpt lat="47.92649" lon="6.92272">
        <ele>1066</ele>
        <time>2023-05-07T15:36:48Z</time>
      </trkpt>
      <trkpt lat="47.92647" lon="6.92266">
        <ele>1064</ele>
        <time>2023-05-07T15:36:52Z</time>
      </trkpt>
      <trkpt lat="47.92645" lon="6.92259">
        <ele>1064</ele>
        <time>2023-05-07T15:36:56Z</time>
      </trkpt>
      <trkpt lat="47.92634" lon="6.92249">
        <ele>1060</ele>
        <time>2023-05-07T15:37:09Z</time>
      </trkpt>
      <trkpt lat="47.92631" lon="6.92244">
        <ele>1059</ele>
        <time>2023-05-07T15:37:13Z</time>
      </trkpt>
      <trkpt lat="47.92626" lon="6.92242">
        <ele>1058</ele>
        <time>2023-05-07T15:37:17Z</time>
      </trkpt>
      <trkpt lat="47.9262" lon="6.92241">
        <ele>1056</ele>
        <time>2023-05-07T15:37:23Z</time>
      </trkpt>
      <trkpt lat="47.9261" lon="6.92236">
        <ele>1054</ele>
        <time>2023-05-07T15:37:33Z</time>
      </trkpt>
      <trkpt lat="47.92596" lon="6.9224">
        <ele>1053</ele>
        <time>2023-05-07T15:37:46Z</time>
      </trkpt>
      <trkpt lat="47.92585" lon="6.92239">
        <ele>1052</ele>
        <time>2023-05-07T15:37:57Z</time>
      </trkpt>
      <trkpt lat="47.9258" lon="6.92237">
        <ele>1052</ele>
        <time>2023-05-07T15:38:02Z</time>
      </trkpt>
      <trkpt lat="47.92577" lon="6.92234">
        <ele>1051</ele>
        <time>2023-05-07T15:38:06Z</time>
      </trkpt>
      <trkpt lat="47.92572" lon="6.92215">
        <ele>1049</ele>
        <time>2023-05-07T15:38:21Z</time>
      </trkpt>
      <trkpt lat="47.92573" lon="6.92208">
        <ele>1048</ele>
        <time>2023-05-07T15:38:26Z</time>
      </trkpt>
      <trkpt lat="47.92576" lon="6.92201">
        <ele>1048</ele>
        <time>2023-05-07T15:38:30Z</time>
      </trkpt>
      <trkpt lat="47.92576" lon="6.92187">
        <ele>1046</ele>
        <time>2023-05-07T15:38:37Z</time>
      </trkpt>
      <trkpt lat="47.92578" lon="6.92182">
        <ele>1045</ele>
        <time>2023-05-07T15:38:41Z</time>
      </trkpt>
      <trkpt lat="47.92597" lon="6.92157">
        <ele>1042</ele>
        <time>2023-05-07T15:39:03Z</time>
      </trkpt>
      <trkpt lat="47.92603" lon="6.92154">
        <ele>1041</ele>
        <time>2023-05-07T15:39:09Z</time>
      </trkpt>
      <trkpt lat="47.92607" lon="6.92151">
        <ele>1040</ele>
        <time>2023-05-07T15:39:13Z</time>
      </trkpt>
      <trkpt lat="47.92631" lon="6.92143">
        <ele>1038</ele>
        <time>2023-05-07T15:39:34Z</time>
      </trkpt>
      <trkpt lat="47.92648" lon="6.92139">
        <ele>1036</ele>
        <time>2023-05-07T15:39:48Z</time>
      </trkpt>
      <trkpt lat="47.92652" lon="6.92136">
        <ele>1035</ele>
        <time>2023-05-07T15:39:53Z</time>
      </trkpt>
      <trkpt lat="47.92669" lon="6.92129">
        <ele>1033</ele>
        <time>2023-05-07T15:40:07Z</time>
      </trkpt>
      <trkpt lat="47.92663" lon="6.92129">
        <ele>1031</ele>
        <time>2023-05-07T15:40:19Z</time>
      </trkpt>
      <trkpt lat="47.92658" lon="6.9213">
        <ele>1030</ele>
        <time>2023-05-07T15:40:24Z</time>
      </trkpt>
      <trkpt lat="47.92644" lon="6.92131">
        <ele>1028</ele>
        <time>2023-05-07T15:40:35Z</time>
      </trkpt>
      <trkpt lat="47.9264" lon="6.92127">
        <ele>1028</ele>
        <time>2023-05-07T15:40:40Z</time>
      </trkpt>
      <trkpt lat="47.92627" lon="6.92107">
        <ele>1025</ele>
        <time>2023-05-07T15:41:00Z</time>
      </trkpt>
      <trkpt lat="47.92618" lon="6.921">
        <ele>1023</ele>
        <time>2023-05-07T15:41:08Z</time>
      </trkpt>
      <trkpt lat="47.92608" lon="6.92097">
        <ele>1022</ele>
        <time>2023-05-07T15:41:16Z</time>
      </trkpt>
      <trkpt lat="47.92603" lon="6.92093">
        <ele>1022</ele>
        <time>2023-05-07T15:41:21Z</time>
      </trkpt>
      <trkpt lat="47.92582" lon="6.92081">
        <ele>1018</ele>
        <time>2023-05-07T15:41:41Z</time>
      </trkpt>
      <trkpt lat="47.92576" lon="6.92081">
        <ele>1017</ele>
        <time>2023-05-07T15:41:46Z</time>
      </trkpt>
      <trkpt lat="47.92556" lon="6.92074">
        <ele>1015</ele>
        <time>2023-05-07T15:42:06Z</time>
      </trkpt>
      <trkpt lat="47.92553" lon="6.9207">
        <ele>1015</ele>
        <time>2023-05-07T15:42:09Z</time>
      </trkpt>
      <trkpt lat="47.9255" lon="6.92063">
        <ele>1014</ele>
        <time>2023-05-07T15:42:12Z</time>
      </trkpt>
      <trkpt lat="47.92555" lon="6.92062">
        <ele>1014</ele>
        <time>2023-05-07T15:42:15Z</time>
      </trkpt>
      <trkpt lat="47.92567" lon="6.9206">
        <ele>1012</ele>
        <time>2023-05-07T15:42:25Z</time>
      </trkpt>
      <trkpt lat="47.92571" lon="6.92057">
        <ele>1011</ele>
        <time>2023-05-07T15:42:30Z</time>
      </trkpt>
      <trkpt lat="47.92576" lon="6.92057">
        <ele>1011</ele>
        <time>2023-05-07T15:42:34Z</time>
      </trkpt>
      <trkpt lat="47.92598" lon="6.92047">
        <ele>1009</ele>
        <time>2023-05-07T15:42:54Z</time>
      </trkpt>
      <trkpt lat="47.92595" lon="6.92045">
        <ele>1005</ele>
        <time>2023-05-07T15:43:16Z</time>
      </trkpt>
      <trkpt lat="47.92592" lon="6.92043">
        <ele>1004</ele>
        <time>2023-05-07T15:43:20Z</time>
      </trkpt>
      <trkpt lat="47.92587" lon="6.92043">
        <ele>1003</ele>
        <time>2023-05-07T15:43:24Z</time>
      </trkpt>
      <trkpt lat="47.92582" lon="6.92039">
        <ele>1003</ele>
        <time>2023-05-07T15:43:28Z</time>
      </trkpt>
      <trkpt lat="47.92571" lon="6.92028">
        <ele>1001</ele>
        <time>2023-05-07T15:43:39Z</time>
      </trkpt>
      <trkpt lat="47.92567" lon="6.92027">
        <ele>1000</ele>
        <time>2023-05-07T15:43:42Z</time>
      </trkpt>
      <trkpt lat="47.92564" lon="6.92022">
        <ele>999</ele>
        <time>2023-05-07T15:43:46Z</time>
      </trkpt>
      <trkpt lat="47.92554" lon="6.92017">
        <ele>998</ele>
        <time>2023-05-07T15:43:54Z</time>
      </trkpt>
      <trkpt lat="47.92548" lon="6.92017">
        <ele>997</ele>
        <time>2023-05-07T15:44:01Z</time>
      </trkpt>
      <trkpt lat="47.92531" lon="6.92009">
        <ele>995</ele>
        <time>2023-05-07T15:44:16Z</time>
      </trkpt>
      <trkpt lat="47.92526" lon="6.92005">
        <ele>994</ele>
        <time>2023-05-07T15:44:22Z</time>
      </trkpt>
      <trkpt lat="47.92511" lon="6.91999">
        <ele>992</ele>
        <time>2023-05-07T15:44:36Z</time>
      </trkpt>
      <trkpt lat="47.92503" lon="6.92001">
        <ele>992</ele>
        <time>2023-05-07T15:44:42Z</time>
      </trkpt>
      <trkpt lat="47.92494" lon="6.91994">
        <ele>990</ele>
        <time>2023-05-07T15:44:51Z</time>
      </trkpt>
      <trkpt lat="47.92487" lon="6.91983">
        <ele>989</ele>
        <time>2023-05-07T15:45:00Z</time>
      </trkpt>
      <trkpt lat="47.92485" lon="6.91976">
        <ele>989</ele>
        <time>2023-05-07T15:45:03Z</time>
      </trkpt>
      <trkpt lat="47.92478" lon="6.91967">
        <ele>986</ele>
        <time>2023-05-07T15:45:13Z</time>
      </trkpt>
      <trkpt lat="47.92473" lon="6.91964">
        <ele>986</ele>
        <time>2023-05-07T15:45:17Z</time>
      </trkpt>
      <trkpt lat="47.92468" lon="6.91962">
        <ele>985</ele>
        <time>2023-05-07T15:45:21Z</time>
      </trkpt>
      <trkpt lat="47.92471" lon="6.91954">
        <ele>984</ele>
        <time>2023-05-07T15:45:26Z</time>
      </trkpt>
      <trkpt lat="47.92474" lon="6.9195">
        <ele>984</ele>
        <time>2023-05-07T15:45:30Z</time>
      </trkpt>
      <trkpt lat="47.92489" lon="6.91949">
        <ele>982</ele>
        <time>2023-05-07T15:45:40Z</time>
      </trkpt>
      <trkpt lat="47.92498" lon="6.91953">
        <ele>981</ele>
        <time>2023-05-07T15:45:48Z</time>
      </trkpt>
      <trkpt lat="47.92512" lon="6.91946">
        <ele>979</ele>
        <time>2023-05-07T15:46:01Z</time>
      </trkpt>
      <trkpt lat="47.92516" lon="6.91943">
        <ele>979</ele>
        <time>2023-05-07T15:46:05Z</time>
      </trkpt>
      <trkpt lat="47.92526" lon="6.91941">
        <ele>977</ele>
        <time>2023-05-07T15:46:13Z</time>
      </trkpt>
      <trkpt lat="47.92536" lon="6.91938">
        <ele>976</ele>
        <time>2023-05-07T15:46:22Z</time>
      </trkpt>
      <trkpt lat="47.92546" lon="6.9194">
        <ele>975</ele>
        <time>2023-05-07T15:46:31Z</time>
      </trkpt>
      <trkpt lat="47.92543" lon="6.91933">
        <ele>973</ele>
        <time>2023-05-07T15:46:41Z</time>
      </trkpt>
      <trkpt lat="47.92522" lon="6.91925">
        <ele>969</ele>
        <time>2023-05-07T15:47:01Z</time>
      </trkpt>
      <trkpt lat="47.92515" lon="6.91918">
        <ele>968</ele>
        <time>2023-05-07T15:47:09Z</time>
      </trkpt>
      <trkpt lat="47.92511" lon="6.91915">
        <ele>967</ele>
        <time>2023-05-07T15:47:14Z</time>
      </trkpt>
      <trkpt lat="47.92509" lon="6.91909">
        <ele>966</ele>
        <time>2023-05-07T15:47:20Z</time>
      </trkpt>
      <trkpt lat="47.92508" lon="6.91902">
        <ele>965</ele>
        <time>2023-05-07T15:47:24Z</time>
      </trkpt>
      <trkpt lat="47.92507" lon="6.91889">
        <ele>963</ele>
        <time>2023-05-07T15:47:34Z</time>
      </trkpt>
      <trkpt lat="47.92492" lon="6.91877">
        <ele>960</ele>
        <time>2023-05-07T15:47:52Z</time>
      </trkpt>
      <trkpt lat="47.9249" lon="6.9187">
        <ele>958</ele>
        <time>2023-05-07T15:47:56Z</time>
      </trkpt>
      <trkpt lat="47.92474" lon="6.91853">
        <ele>956</ele>
        <time>2023-05-07T15:48:12Z</time>
      </trkpt>
      <trkpt lat="47.92471" lon="6.91848">
        <ele>955</ele>
        <time>2023-05-07T15:48:15Z</time>
      </trkpt>
      <trkpt lat="47.92467" lon="6.91843">
        <ele>953</ele>
        <time>2023-05-07T15:48:23Z</time>
      </trkpt>
      <trkpt lat="47.92463" lon="6.91836">
        <ele>952</ele>
        <time>2023-05-07T15:48:28Z</time>
      </trkpt>
      <trkpt lat="47.9246" lon="6.91832">
        <ele>951</ele>
        <time>2023-05-07T15:48:31Z</time>
      </trkpt>
      <trkpt lat="47.92456" lon="6.9183">
        <ele>951</ele>
        <time>2023-05-07T15:48:34Z</time>
      </trkpt>
      <trkpt lat="47.92447" lon="6.91829">
        <ele>951</ele>
        <time>2023-05-07T15:48:40Z</time>
      </trkpt>
      <trkpt lat="47.92439" lon="6.91824">
        <ele>949</ele>
        <time>2023-05-07T15:48:49Z</time>
      </trkpt>
      <trkpt lat="47.92427" lon="6.91815">
        <ele>947</ele>
        <time>2023-05-07T15:49:03Z</time>
      </trkpt>
      <trkpt lat="47.92422" lon="6.91813">
        <ele>946</ele>
        <time>2023-05-07T15:49:08Z</time>
      </trkpt>
      <trkpt lat="47.92394" lon="6.91786">
        <ele>940</ele>
        <time>2023-05-07T15:49:39Z</time>
      </trkpt>
      <trkpt lat="47.92371" lon="6.9175">
        <ele>934</ele>
        <time>2023-05-07T15:50:12Z</time>
      </trkpt>
      <trkpt lat="47.92367" lon="6.91749">
        <ele>933</ele>
        <time>2023-05-07T15:50:15Z</time>
      </trkpt>
      <trkpt lat="47.92352" lon="6.91757">
        <ele>930</ele>
        <time>2023-05-07T15:50:31Z</time>
      </trkpt>
      <trkpt lat="47.92354" lon="6.91747">
        <ele>929</ele>
        <time>2023-05-07T15:50:38Z</time>
      </trkpt>
      <trkpt lat="47.92357" lon="6.91743">
        <ele>928</ele>
        <time>2023-05-07T15:50:42Z</time>
      </trkpt>
      <trkpt lat="47.92365" lon="6.91737">
        <ele>927</ele>
        <time>2023-05-07T15:50:49Z</time>
      </trkpt>
      <trkpt lat="47.92369" lon="6.91731">
        <ele>926</ele>
        <time>2023-05-07T15:50:54Z</time>
      </trkpt>
      <trkpt lat="47.92371" lon="6.91726">
        <ele>925</ele>
        <time>2023-05-07T15:50:58Z</time>
      </trkpt>
      <trkpt lat="47.92374" lon="6.91721">
        <ele>924</ele>
        <time>2023-05-07T15:51:03Z</time>
      </trkpt>
      <trkpt lat="47.92384" lon="6.91719">
        <ele>923</ele>
        <time>2023-05-07T15:51:12Z</time>
      </trkpt>
      <trkpt lat="47.92395" lon="6.9172">
        <ele>920</ele>
        <time>2023-05-07T15:51:41Z</time>
      </trkpt>
      <trkpt lat="47.92403" lon="6.91716">
        <ele>918</ele>
        <time>2023-05-07T15:51:52Z</time>
      </trkpt>
      <trkpt lat="47.92409" lon="6.91716">
        <ele>917</ele>
        <time>2023-05-07T15:52:00Z</time>
      </trkpt>
      <trkpt lat="47.92407" lon="6.9171">
        <ele>916</ele>
        <time>2023-05-07T15:52:06Z</time>
      </trkpt>
      <trkpt lat="47.92393" lon="6.91698">
        <ele>912</ele>
        <time>2023-05-07T15:52:26Z</time>
      </trkpt>
      <trkpt lat="47.92389" lon="6.91695">
        <ele>911</ele>
        <time>2023-05-07T15:52:32Z</time>
      </trkpt>
      <trkpt lat="47.92385" lon="6.91693">
        <ele>910</ele>
        <time>2023-05-07T15:52:37Z</time>
      </trkpt>
      <trkpt lat="47.92378" lon="6.91681">
        <ele>907</ele>
        <time>2023-05-07T15:52:50Z</time>
      </trkpt>
      <trkpt lat="47.92373" lon="6.91681">
        <ele>907</ele>
        <time>2023-05-07T15:52:55Z</time>
      </trkpt>
      <trkpt lat="47.92368" lon="6.91683">
        <ele>906</ele>
        <time>2023-05-07T15:53:01Z</time>
      </trkpt>
      <trkpt lat="47.92364" lon="6.91686">
        <ele>905</ele>
        <time>2023-05-07T15:53:05Z</time>
      </trkpt>
      <trkpt lat="47.92351" lon="6.9169">
        <ele>903</ele>
        <time>2023-05-07T15:53:19Z</time>
      </trkpt>
      <trkpt lat="47.92318" lon="6.91702">
        <ele>898</ele>
        <time>2023-05-07T15:53:50Z</time>
      </trkpt>
      <trkpt lat="47.92297" lon="6.9172">
        <ele>896</ele>
        <time>2023-05-07T15:54:09Z</time>
      </trkpt>
      <trkpt lat="47.9229" lon="6.91729">
        <ele>894</ele>
        <time>2023-05-07T15:54:18Z</time>
      </trkpt>
      <trkpt lat="47.9228" lon="6.91735">
        <ele>892</ele>
        <time>2023-05-07T15:54:27Z</time>
      </trkpt>
      <trkpt lat="47.92277" lon="6.9174">
        <ele>892</ele>
        <time>2023-05-07T15:54:30Z</time>
      </trkpt>
      <trkpt lat="47.92273" lon="6.91743">
        <ele>891</ele>
        <time>2023-05-07T15:54:35Z</time>
      </trkpt>
      <trkpt lat="47.92268" lon="6.91741">
        <ele>891</ele>
        <time>2023-05-07T15:54:38Z</time>
      </trkpt>
      <trkpt lat="47.92264" lon="6.91738">
        <ele>891</ele>
        <time>2023-05-07T15:54:48Z</time>
      </trkpt>
      <trkpt lat="47.92261" lon="6.91731">
        <ele>891</ele>
        <time>2023-05-07T15:54:54Z</time>
      </trkpt>
      <trkpt lat="47.92261" lon="6.91725">
        <ele>891</ele>
        <time>2023-05-07T15:54:57Z</time>
      </trkpt>
      <trkpt lat="47.92262" lon="6.91717">
        <ele>891</ele>
        <time>2023-05-07T15:55:01Z</time>
      </trkpt>
      <trkpt lat="47.92265" lon="6.9171">
        <ele>890</ele>
        <time>2023-05-07T15:55:06Z</time>
      </trkpt>
      <trkpt lat="47.92271" lon="6.91688">
        <ele>890</ele>
        <time>2023-05-07T15:55:17Z</time>
      </trkpt>
      <trkpt lat="47.92274" lon="6.91683">
        <ele>890</ele>
        <time>2023-05-07T15:55:21Z</time>
      </trkpt>
      <trkpt lat="47.92281" lon="6.91674">
        <ele>890</ele>
        <time>2023-05-07T15:55:29Z</time>
      </trkpt>
      <trkpt lat="47.92287" lon="6.91661">
        <ele>889</ele>
        <time>2023-05-07T15:55:37Z</time>
      </trkpt>
      <trkpt lat="47.92298" lon="6.91648">
        <ele>888</ele>
        <time>2023-05-07T15:55:49Z</time>
      </trkpt>
      <trkpt lat="47.92302" lon="6.91645">
        <ele>888</ele>
        <time>2023-05-07T15:55:53Z</time>
      </trkpt>
      <trkpt lat="47.92304" lon="6.91639">
        <ele>888</ele>
        <time>2023-05-07T15:55:57Z</time>
      </trkpt>
      <trkpt lat="47.92307" lon="6.91634">
        <ele>887</ele>
        <time>2023-05-07T15:56:01Z</time>
      </trkpt>
      <trkpt lat="47.92308" lon="6.91631">
        <ele>886</ele>
        <time>2023-05-07T15:56:37Z</time>
      </trkpt>
      <trkpt lat="47.92335" lon="6.91633">
        <ele>884</ele>
        <time>2023-05-07T16:04:07Z</time>
      </trkpt>
      <trkpt lat="47.92337" lon="6.9163">
        <ele>883</ele>
        <time>2023-05-07T16:04:08Z</time>
      </trkpt>
      <trkpt lat="47.92348" lon="6.91628">
        <ele>883</ele>
        <time>2023-05-07T16:04:20Z</time>
      </trkpt>
      <trkpt lat="47.92351" lon="6.91624">
        <ele>882</ele>
        <time>2023-05-07T16:04:24Z</time>
      </trkpt>
      <trkpt lat="47.92353" lon="6.91617">
        <ele>882</ele>
        <time>2023-05-07T16:04:28Z</time>
      </trkpt>
      <trkpt lat="47.92362" lon="6.91601">
        <ele>881</ele>
        <time>2023-05-07T16:04:40Z</time>
      </trkpt>
      <trkpt lat="47.92366" lon="6.91598">
        <ele>881</ele>
        <time>2023-05-07T16:04:44Z</time>
      </trkpt>
      <trkpt lat="47.92369" lon="6.91603">
        <ele>882</ele>
        <time>2023-05-07T16:05:00Z</time>
      </trkpt>
      <trkpt lat="47.92362" lon="6.91608">
        <ele>882</ele>
        <time>2023-05-07T16:05:19Z</time>
      </trkpt>
      <trkpt lat="47.92356" lon="6.91608">
        <ele>882</ele>
        <time>2023-05-07T16:05:24Z</time>
      </trkpt>
      <trkpt lat="47.92352" lon="6.91607">
        <ele>882</ele>
        <time>2023-05-07T16:05:27Z</time>
      </trkpt>
      <trkpt lat="47.92348" lon="6.91612">
        <ele>882</ele>
        <time>2023-05-07T16:05:31Z</time>
      </trkpt>
      <trkpt lat="47.92323" lon="6.91645">
        <ele>884</ele>
        <time>2023-05-07T16:06:01Z</time>
      </trkpt>
      <trkpt lat="47.9231" lon="6.91658">
        <ele>886</ele>
        <time>2023-05-07T16:06:18Z</time>
      </trkpt>
      <trkpt lat="47.92309" lon="6.91649">
        <ele>886</ele>
        <time>2023-05-07T16:06:25Z</time>
      </trkpt>
      <trkpt lat="47.92312" lon="6.91638">
        <ele>884</ele>
        <time>2023-05-07T16:06:31Z</time>
      </trkpt>
      <trkpt lat="47.92317" lon="6.91635">
        <ele>884</ele>
        <time>2023-05-07T16:06:38Z</time>
      </trkpt>
      <trkpt lat="47.92311" lon="6.91632">
        <ele>883</ele>
        <time>2023-05-07T16:06:43Z</time>
      </trkpt>
      <trkpt lat="47.92306" lon="6.91633">
        <ele>883</ele>
        <time>2023-05-07T16:06:45Z</time>
      </trkpt>
      <trkpt lat="47.92307" lon="6.9164">
        <ele>883</ele>
        <time>2023-05-07T16:07:01Z</time>
      </trkpt>
      <trkpt lat="47.92303" lon="6.91646">
        <ele>884</ele>
        <time>2023-05-07T16:15:54Z</time>
      </trkpt>
      <trkpt lat="47.92302" lon="6.91649">
        <ele>884</ele>
        <time>2023-05-07T16:15:55Z</time>
      </trkpt>
      <trkpt lat="47.92304" lon="6.91657">
        <ele>884</ele>
        <time>2023-05-07T16:16:01Z</time>
      </trkpt>
      <trkpt lat="47.92303" lon="6.91665">
        <ele>885</ele>
        <time>2023-05-07T16:16:13Z</time>
      </trkpt>
      <trkpt lat="47.923" lon="6.9167">
        <ele>885</ele>
        <time>2023-05-07T16:16:18Z</time>
      </trkpt>
      <trkpt lat="47.92298" lon="6.91676">
        <ele>885</ele>
        <time>2023-05-07T16:16:22Z</time>
      </trkpt>
      <trkpt lat="47.92287" lon="6.91695">
        <ele>886</ele>
        <time>2023-05-07T16:16:39Z</time>
      </trkpt>
      <trkpt lat="47.92285" lon="6.91701">
        <ele>887</ele>
        <time>2023-05-07T16:16:44Z</time>
      </trkpt>
      <trkpt lat="47.92279" lon="6.91712">
        <ele>887</ele>
        <time>2023-05-07T16:16:54Z</time>
      </trkpt>
      <trkpt lat="47.92278" lon="6.91718">
        <ele>887</ele>
        <time>2023-05-07T16:16:58Z</time>
      </trkpt>
      <trkpt lat="47.92271" lon="6.91735">
        <ele>888</ele>
        <time>2023-05-07T16:17:10Z</time>
      </trkpt>
      <trkpt lat="47.92266" lon="6.91739">
        <ele>888</ele>
        <time>2023-05-07T16:17:14Z</time>
      </trkpt>
      <trkpt lat="47.92261" lon="6.9174">
        <ele>888</ele>
        <time>2023-05-07T16:17:17Z</time>
      </trkpt>
      <trkpt lat="47.92257" lon="6.91743">
        <ele>888</ele>
        <time>2023-05-07T16:17:21Z</time>
      </trkpt>
      <trkpt lat="47.92237" lon="6.91744">
        <ele>888</ele>
        <time>2023-05-07T16:17:36Z</time>
      </trkpt>
      <trkpt lat="47.92228" lon="6.9175">
        <ele>888</ele>
        <time>2023-05-07T16:17:44Z</time>
      </trkpt>
      <trkpt lat="47.92219" lon="6.91763">
        <ele>889</ele>
        <time>2023-05-07T16:17:59Z</time>
      </trkpt>
      <trkpt lat="47.92217" lon="6.91773">
        <ele>890</ele>
        <time>2023-05-07T16:18:11Z</time>
      </trkpt>
      <trkpt lat="47.9221" lon="6.91786">
        <ele>891</ele>
        <time>2023-05-07T16:18:35Z</time>
      </trkpt>
      <trkpt lat="47.92207" lon="6.91791">
        <ele>892</ele>
        <time>2023-05-07T16:18:39Z</time>
      </trkpt>
      <trkpt lat="47.92193" lon="6.91799">
        <ele>893</ele>
        <time>2023-05-07T16:18:51Z</time>
      </trkpt>
      <trkpt lat="47.92188" lon="6.91799">
        <ele>893</ele>
        <time>2023-05-07T16:18:55Z</time>
      </trkpt>
      <trkpt lat="47.92183" lon="6.91795">
        <ele>893</ele>
        <time>2023-05-07T16:18:59Z</time>
      </trkpt>
      <trkpt lat="47.92178" lon="6.91795">
        <ele>894</ele>
        <time>2023-05-07T16:19:03Z</time>
      </trkpt>
      <trkpt lat="47.92173" lon="6.91794">
        <ele>893</ele>
        <time>2023-05-07T16:19:06Z</time>
      </trkpt>
      <trkpt lat="47.92167" lon="6.91793">
        <ele>894</ele>
        <time>2023-05-07T16:19:12Z</time>
      </trkpt>
      <trkpt lat="47.92156" lon="6.91801">
        <ele>894</ele>
        <time>2023-05-07T16:19:22Z</time>
      </trkpt>
      <trkpt lat="47.9215" lon="6.9181">
        <ele>895</ele>
        <time>2023-05-07T16:19:28Z</time>
      </trkpt>
      <trkpt lat="47.92145" lon="6.91812">
        <ele>895</ele>
        <time>2023-05-07T16:19:31Z</time>
      </trkpt>
      <trkpt lat="47.92141" lon="6.91817">
        <ele>895</ele>
        <time>2023-05-07T16:19:34Z</time>
      </trkpt>
      <trkpt lat="47.92131" lon="6.9182">
        <ele>895</ele>
        <time>2023-05-07T16:19:41Z</time>
      </trkpt>
      <trkpt lat="47.92126" lon="6.91818">
        <ele>895</ele>
        <time>2023-05-07T16:19:44Z</time>
      </trkpt>
      <trkpt lat="47.92115" lon="6.91821">
        <ele>896</ele>
        <time>2023-05-07T16:19:50Z</time>
      </trkpt>
      <trkpt lat="47.92107" lon="6.91816">
        <ele>896</ele>
        <time>2023-05-07T16:19:58Z</time>
      </trkpt>
      <trkpt lat="47.92103" lon="6.9181">
        <ele>896</ele>
        <time>2023-05-07T16:20:03Z</time>
      </trkpt>
      <trkpt lat="47.92096" lon="6.91808">
        <ele>896</ele>
        <time>2023-05-07T16:20:12Z</time>
      </trkpt>
      <trkpt lat="47.9209" lon="6.91809">
        <ele>896</ele>
        <time>2023-05-07T16:20:21Z</time>
      </trkpt>
      <trkpt lat="47.9208" lon="6.91819">
        <ele>896</ele>
        <time>2023-05-07T16:20:29Z</time>
      </trkpt>
      <trkpt lat="47.92073" lon="6.91836">
        <ele>896</ele>
        <time>2023-05-07T16:20:41Z</time>
      </trkpt>
      <trkpt lat="47.92057" lon="6.91849">
        <ele>896</ele>
        <time>2023-05-07T16:21:00Z</time>
      </trkpt>
      <trkpt lat="47.92046" lon="6.91861">
        <ele>896</ele>
        <time>2023-05-07T16:21:11Z</time>
      </trkpt>
      <trkpt lat="47.92041" lon="6.91864">
        <ele>896</ele>
        <time>2023-05-07T16:21:15Z</time>
      </trkpt>
      <trkpt lat="47.92026" lon="6.91879">
        <ele>896</ele>
        <time>2023-05-07T16:21:29Z</time>
      </trkpt>
      <trkpt lat="47.9202" lon="6.91893">
        <ele>896</ele>
        <time>2023-05-07T16:21:40Z</time>
      </trkpt>
      <trkpt lat="47.9201" lon="6.91905">
        <ele>897</ele>
        <time>2023-05-07T16:21:48Z</time>
      </trkpt>
      <trkpt lat="47.92005" lon="6.91907">
        <ele>897</ele>
        <time>2023-05-07T16:21:52Z</time>
      </trkpt>
      <trkpt lat="47.91999" lon="6.91916">
        <ele>897</ele>
        <time>2023-05-07T16:21:58Z</time>
      </trkpt>
      <trkpt lat="47.91991" lon="6.91919">
        <ele>897</ele>
        <time>2023-05-07T16:22:05Z</time>
      </trkpt>
      <trkpt lat="47.91987" lon="6.91923">
        <ele>897</ele>
        <time>2023-05-07T16:22:09Z</time>
      </trkpt>
      <trkpt lat="47.91985" lon="6.9193">
        <ele>898</ele>
        <time>2023-05-07T16:22:16Z</time>
      </trkpt>
      <trkpt lat="47.91979" lon="6.91932">
        <ele>900</ele>
        <time>2023-05-07T16:22:35Z</time>
      </trkpt>
      <trkpt lat="47.91972" lon="6.91939">
        <ele>902</ele>
        <time>2023-05-07T16:22:47Z</time>
      </trkpt>
      <trkpt lat="47.91973" lon="6.91946">
        <ele>903</ele>
        <time>2023-05-07T16:22:54Z</time>
      </trkpt>
      <trkpt lat="47.9197" lon="6.91955">
        <ele>906</ele>
        <time>2023-05-07T16:23:07Z</time>
      </trkpt>
      <trkpt lat="47.91962" lon="6.91966">
        <ele>908</ele>
        <time>2023-05-07T16:23:17Z</time>
      </trkpt>
      <trkpt lat="47.91956" lon="6.9197">
        <ele>909</ele>
        <time>2023-05-07T16:23:24Z</time>
      </trkpt>
      <trkpt lat="47.91945" lon="6.91972">
        <ele>911</ele>
        <time>2023-05-07T16:23:35Z</time>
      </trkpt>
      <trkpt lat="47.91941" lon="6.91972">
        <ele>911</ele>
        <time>2023-05-07T16:23:38Z</time>
      </trkpt>
      <trkpt lat="47.91926" lon="6.91967">
        <ele>912</ele>
        <time>2023-05-07T16:23:51Z</time>
      </trkpt>
      <trkpt lat="47.91913" lon="6.91978">
        <ele>911</ele>
        <time>2023-05-07T16:24:01Z</time>
      </trkpt>
      <trkpt lat="47.91905" lon="6.91982">
        <ele>912</ele>
        <time>2023-05-07T16:24:15Z</time>
      </trkpt>
      <trkpt lat="47.91901" lon="6.91974">
        <ele>914</ele>
        <time>2023-05-07T16:24:24Z</time>
      </trkpt>
      <trkpt lat="47.91895" lon="6.91974">
        <ele>915</ele>
        <time>2023-05-07T16:24:29Z</time>
      </trkpt>
      <trkpt lat="47.9189" lon="6.91978">
        <ele>915</ele>
        <time>2023-05-07T16:24:33Z</time>
      </trkpt>
      <trkpt lat="47.91887" lon="6.91981">
        <ele>916</ele>
        <time>2023-05-07T16:24:36Z</time>
      </trkpt>
      <trkpt lat="47.91877" lon="6.91984">
        <ele>916</ele>
        <time>2023-05-07T16:24:44Z</time>
      </trkpt>
      <trkpt lat="47.91862" lon="6.91984">
        <ele>920</ele>
        <time>2023-05-07T16:25:03Z</time>
      </trkpt>
      <trkpt lat="47.91858" lon="6.91988">
        <ele>920</ele>
        <time>2023-05-07T16:25:05Z</time>
      </trkpt>
      <trkpt lat="47.91858" lon="6.92001">
        <ele>920</ele>
        <time>2023-05-07T16:25:10Z</time>
      </trkpt>
      <trkpt lat="47.91865" lon="6.92004">
        <ele>922</ele>
        <time>2023-05-07T16:25:23Z</time>
      </trkpt>
      <trkpt lat="47.91868" lon="6.92009">
        <ele>923</ele>
        <time>2023-05-07T16:25:27Z</time>
      </trkpt>
      <trkpt lat="47.91868" lon="6.92017">
        <ele>923</ele>
        <time>2023-05-07T16:25:30Z</time>
      </trkpt>
      <trkpt lat="47.9187" lon="6.92027">
        <ele>926</ele>
        <time>2023-05-07T16:25:42Z</time>
      </trkpt>
      <trkpt lat="47.91863" lon="6.92041">
        <ele>929</ele>
        <time>2023-05-07T16:26:00Z</time>
      </trkpt>
      <trkpt lat="47.91856" lon="6.92053">
        <ele>931</ele>
        <time>2023-05-07T16:26:14Z</time>
      </trkpt>
      <trkpt lat="47.91863" lon="6.9206">
        <ele>932</ele>
        <time>2023-05-07T16:27:02Z</time>
      </trkpt>
      <trkpt lat="47.91862" lon="6.92062">
        <ele>932</ele>
        <time>2023-05-07T16:27:54Z</time>
      </trkpt>
      <trkpt lat="47.91861" lon="6.92073">
        <ele>933</ele>
        <time>2023-05-07T16:28:13Z</time>
      </trkpt>
      <trkpt lat="47.91867" lon="6.92089">
        <ele>938</ele>
        <time>2023-05-07T16:28:38Z</time>
      </trkpt>
      <trkpt lat="47.91866" lon="6.921">
        <ele>940</ele>
        <time>2023-05-07T16:28:50Z</time>
      </trkpt>
      <trkpt lat="47.91872" lon="6.92119">
        <ele>943</ele>
        <time>2023-05-07T16:29:05Z</time>
      </trkpt>
      <trkpt lat="47.91869" lon="6.92132">
        <ele>946</ele>
        <time>2023-05-07T16:29:24Z</time>
      </trkpt>
      <trkpt lat="47.91864" lon="6.92138">
        <ele>947</ele>
        <time>2023-05-07T16:29:30Z</time>
      </trkpt>
      <trkpt lat="47.91853" lon="6.92152">
        <ele>951</ele>
        <time>2023-05-07T16:29:45Z</time>
      </trkpt>
      <trkpt lat="47.91844" lon="6.92159">
        <ele>952</ele>
        <time>2023-05-07T16:29:51Z</time>
      </trkpt>
      <trkpt lat="47.91839" lon="6.92166">
        <ele>953</ele>
        <time>2023-05-07T16:30:00Z</time>
      </trkpt>
      <trkpt lat="47.91837" lon="6.92173">
        <ele>954</ele>
        <time>2023-05-07T16:30:04Z</time>
      </trkpt>
      <trkpt lat="47.91832" lon="6.92176">
        <ele>955</ele>
        <time>2023-05-07T16:30:10Z</time>
      </trkpt>
      <trkpt lat="47.9183" lon="6.92183">
        <ele>956</ele>
        <time>2023-05-07T16:30:15Z</time>
      </trkpt>
      <trkpt lat="47.91829" lon="6.92189">
        <ele>957</ele>
        <time>2023-05-07T16:30:22Z</time>
      </trkpt>
      <trkpt lat="47.91831" lon="6.92196">
        <ele>958</ele>
        <time>2023-05-07T16:30:28Z</time>
      </trkpt>
      <trkpt lat="47.91829" lon="6.92207">
        <ele>961</ele>
        <time>2023-05-07T16:30:41Z</time>
      </trkpt>
      <trkpt lat="47.91825" lon="6.92211">
        <ele>962</ele>
        <time>2023-05-07T16:30:48Z</time>
      </trkpt>
      <trkpt lat="47.91816" lon="6.92252">
        <ele>968</ele>
        <time>2023-05-07T16:31:22Z</time>
      </trkpt>
      <trkpt lat="47.91814" lon="6.92258">
        <ele>969</ele>
        <time>2023-05-07T16:31:25Z</time>
      </trkpt>
      <trkpt lat="47.91813" lon="6.92265">
        <ele>969</ele>
        <time>2023-05-07T16:31:29Z</time>
      </trkpt>
      <trkpt lat="47.9181" lon="6.9227">
        <ele>970</ele>
        <time>2023-05-07T16:31:33Z</time>
      </trkpt>
      <trkpt lat="47.9181" lon="6.92279">
        <ele>971</ele>
        <time>2023-05-07T16:31:40Z</time>
      </trkpt>
      <trkpt lat="47.91803" lon="6.923">
        <ele>971</ele>
        <time>2023-05-07T16:31:51Z</time>
      </trkpt>
      <trkpt lat="47.918" lon="6.92306">
        <ele>972</ele>
        <time>2023-05-07T16:31:54Z</time>
      </trkpt>
      <trkpt lat="47.91796" lon="6.92309">
        <ele>972</ele>
        <time>2023-05-07T16:31:57Z</time>
      </trkpt>
      <trkpt lat="47.91787" lon="6.92314">
        <ele>973</ele>
        <time>2023-05-07T16:32:03Z</time>
      </trkpt>
      <trkpt lat="47.91782" lon="6.92313">
        <ele>973</ele>
        <time>2023-05-07T16:32:07Z</time>
      </trkpt>
      <trkpt lat="47.91777" lon="6.9231">
        <ele>974</ele>
        <time>2023-05-07T16:32:11Z</time>
      </trkpt>
      <trkpt lat="47.91771" lon="6.923">
        <ele>976</ele>
        <time>2023-05-07T16:32:20Z</time>
      </trkpt>
      <trkpt lat="47.91759" lon="6.92297">
        <ele>978</ele>
        <time>2023-05-07T16:32:32Z</time>
      </trkpt>
      <trkpt lat="47.91755" lon="6.92297">
        <ele>979</ele>
        <time>2023-05-07T16:32:36Z</time>
      </trkpt>
      <trkpt lat="47.91748" lon="6.92302">
        <ele>980</ele>
        <time>2023-05-07T16:32:43Z</time>
      </trkpt>
      <trkpt lat="47.91743" lon="6.92302">
        <ele>980</ele>
        <time>2023-05-07T16:32:47Z</time>
      </trkpt>
      <trkpt lat="47.91739" lon="6.92305">
        <ele>981</ele>
        <time>2023-05-07T16:32:51Z</time>
      </trkpt>
      <trkpt lat="47.91729" lon="6.92322">
        <ele>984</ele>
        <time>2023-05-07T16:33:07Z</time>
      </trkpt>
      <trkpt lat="47.91729" lon="6.92332">
        <ele>985</ele>
        <time>2023-05-07T16:33:14Z</time>
      </trkpt>
      <trkpt lat="47.91731" lon="6.9234">
        <ele>986</ele>
        <time>2023-05-07T16:33:19Z</time>
      </trkpt>
      <trkpt lat="47.91734" lon="6.92346">
        <ele>988</ele>
        <time>2023-05-07T16:33:28Z</time>
      </trkpt>
      <trkpt lat="47.91739" lon="6.92346">
        <ele>989</ele>
        <time>2023-05-07T16:33:33Z</time>
      </trkpt>
      <trkpt lat="47.91744" lon="6.92348">
        <ele>989</ele>
        <time>2023-05-07T16:33:36Z</time>
      </trkpt>
      <trkpt lat="47.91752" lon="6.92355">
        <ele>991</ele>
        <time>2023-05-07T16:33:45Z</time>
      </trkpt>
      <trkpt lat="47.91757" lon="6.92362">
        <ele>992</ele>
        <time>2023-05-07T16:33:50Z</time>
      </trkpt>
      <trkpt lat="47.91762" lon="6.92377">
        <ele>993</ele>
        <time>2023-05-07T16:34:01Z</time>
      </trkpt>
      <trkpt lat="47.91765" lon="6.92382">
        <ele>994</ele>
        <time>2023-05-07T16:34:05Z</time>
      </trkpt>
      <trkpt lat="47.91773" lon="6.92389">
        <ele>995</ele>
        <time>2023-05-07T16:34:13Z</time>
      </trkpt>
      <trkpt lat="47.91773" lon="6.92396">
        <ele>996</ele>
        <time>2023-05-07T16:34:17Z</time>
      </trkpt>
      <trkpt lat="47.91772" lon="6.92402">
        <ele>996</ele>
        <time>2023-05-07T16:34:21Z</time>
      </trkpt>
      <trkpt lat="47.91774" lon="6.9241">
        <ele>996</ele>
        <time>2023-05-07T16:34:25Z</time>
      </trkpt>
      <trkpt lat="47.91774" lon="6.92417">
        <ele>997</ele>
        <time>2023-05-07T16:34:29Z</time>
      </trkpt>
      <trkpt lat="47.91776" lon="6.92424">
        <ele>997</ele>
        <time>2023-05-07T16:34:34Z</time>
      </trkpt>
      <trkpt lat="47.91778" lon="6.92431">
        <ele>998</ele>
        <time>2023-05-07T16:34:40Z</time>
      </trkpt>
      <trkpt lat="47.91783" lon="6.92436">
        <ele>999</ele>
        <time>2023-05-07T16:34:47Z</time>
      </trkpt>
      <trkpt lat="47.91789" lon="6.9245">
        <ele>1001</ele>
        <time>2023-05-07T16:35:00Z</time>
      </trkpt>
      <trkpt lat="47.91794" lon="6.92474">
        <ele>1005</ele>
        <time>2023-05-07T16:35:19Z</time>
      </trkpt>
      <trkpt lat="47.91798" lon="6.92482">
        <ele>1007</ele>
        <time>2023-05-07T16:35:27Z</time>
      </trkpt>
      <trkpt lat="47.91799" lon="6.92488">
        <ele>1008</ele>
        <time>2023-05-07T16:35:34Z</time>
      </trkpt>
      <trkpt lat="47.91802" lon="6.92494">
        <ele>1010</ele>
        <time>2023-05-07T16:35:40Z</time>
      </trkpt>
      <trkpt lat="47.91807" lon="6.92514">
        <ele>1015</ele>
        <time>2023-05-07T16:36:00Z</time>
      </trkpt>
      <trkpt lat="47.91811" lon="6.92526">
        <ele>1017</ele>
        <time>2023-05-07T16:36:11Z</time>
      </trkpt>
      <trkpt lat="47.91813" lon="6.92534">
        <ele>1019</ele>
        <time>2023-05-07T16:36:20Z</time>
      </trkpt>
      <trkpt lat="47.91815" lon="6.92539">
        <ele>1020</ele>
        <time>2023-05-07T16:36:26Z</time>
      </trkpt>
      <trkpt lat="47.91816" lon="6.92546">
        <ele>1021</ele>
        <time>2023-05-07T16:36:32Z</time>
      </trkpt>
      <trkpt lat="47.91806" lon="6.92544">
        <ele>1023</ele>
        <time>2023-05-07T16:36:40Z</time>
      </trkpt>
      <trkpt lat="47.91801" lon="6.92545">
        <ele>1025</ele>
        <time>2023-05-07T16:36:45Z</time>
      </trkpt>
      <trkpt lat="47.91787" lon="6.92537">
        <ele>1027</ele>
        <time>2023-05-07T16:37:06Z</time>
      </trkpt>
      <trkpt lat="47.91778" lon="6.92536">
        <ele>1029</ele>
        <time>2023-05-07T16:37:17Z</time>
      </trkpt>
      <trkpt lat="47.91767" lon="6.92531">
        <ele>1031</ele>
        <time>2023-05-07T16:37:33Z</time>
      </trkpt>
      <trkpt lat="47.91784" lon="6.92563">
        <ele>1039</ele>
        <time>2023-05-07T16:38:10Z</time>
      </trkpt>
      <trkpt lat="47.9178" lon="6.9257">
        <ele>1041</ele>
        <time>2023-05-07T16:38:22Z</time>
      </trkpt>
      <trkpt lat="47.91766" lon="6.92573">
        <ele>1045</ele>
        <time>2023-05-07T16:38:40Z</time>
      </trkpt>
      <trkpt lat="47.91761" lon="6.92579">
        <ele>1047</ele>
        <time>2023-05-07T16:38:52Z</time>
      </trkpt>
      <trkpt lat="47.91766" lon="6.92581">
        <ele>1048</ele>
        <time>2023-05-07T16:38:57Z</time>
      </trkpt>
      <trkpt lat="47.91769" lon="6.92586">
        <ele>1048</ele>
        <time>2023-05-07T16:39:01Z</time>
      </trkpt>
      <trkpt lat="47.91771" lon="6.92596">
        <ele>1049</ele>
        <time>2023-05-07T16:39:09Z</time>
      </trkpt>
      <trkpt lat="47.91761" lon="6.92596">
        <ele>1052</ele>
        <time>2023-05-07T16:39:22Z</time>
      </trkpt>
      <trkpt lat="47.91757" lon="6.926">
        <ele>1053</ele>
        <time>2023-05-07T16:39:28Z</time>
      </trkpt>
      <trkpt lat="47.91759" lon="6.92606">
        <ele>1054</ele>
        <time>2023-05-07T16:39:34Z</time>
      </trkpt>
      <trkpt lat="47.91759" lon="6.92613">
        <ele>1055</ele>
        <time>2023-05-07T16:39:39Z</time>
      </trkpt>
      <trkpt lat="47.9175" lon="6.92618">
        <ele>1056</ele>
        <time>2023-05-07T16:39:47Z</time>
      </trkpt>
      <trkpt lat="47.91745" lon="6.92624">
        <ele>1057</ele>
        <time>2023-05-07T16:39:54Z</time>
      </trkpt>
      <trkpt lat="47.91742" lon="6.92629">
        <ele>1057</ele>
        <time>2023-05-07T16:39:58Z</time>
      </trkpt>
      <trkpt lat="47.91734" lon="6.92636">
        <ele>1058</ele>
        <time>2023-05-07T16:40:06Z</time>
      </trkpt>
      <trkpt lat="47.91729" lon="6.92643">
        <ele>1059</ele>
        <time>2023-05-07T16:40:15Z</time>
      </trkpt>
      <trkpt lat="47.91702" lon="6.92664">
        <ele>1065</ele>
        <time>2023-05-07T16:40:48Z</time>
      </trkpt>
      <trkpt lat="47.9169" lon="6.92674">
        <ele>1068</ele>
        <time>2023-05-07T16:41:02Z</time>
      </trkpt>
      <trkpt lat="47.91665" lon="6.92677">
        <ele>1072</ele>
        <time>2023-05-07T16:41:31Z</time>
      </trkpt>
      <trkpt lat="47.91657" lon="6.92674">
        <ele>1073</ele>
        <time>2023-05-07T16:41:39Z</time>
      </trkpt>
      <trkpt lat="47.91653" lon="6.92676">
        <ele>1074</ele>
        <time>2023-05-07T16:41:44Z</time>
      </trkpt>
      <trkpt lat="47.91648" lon="6.92677">
        <ele>1075</ele>
        <time>2023-05-07T16:41:49Z</time>
      </trkpt>
      <trkpt lat="47.91639" lon="6.92693">
        <ele>1078</ele>
        <time>2023-05-07T16:42:09Z</time>
      </trkpt>
      <trkpt lat="47.91609" lon="6.92707">
        <ele>1085</ele>
        <time>2023-05-07T16:42:41Z</time>
      </trkpt>
      <trkpt lat="47.91597" lon="6.92714">
        <ele>1088</ele>
        <time>2023-05-07T16:43:01Z</time>
      </trkpt>
      <trkpt lat="47.9159" lon="6.92713">
        <ele>1090</ele>
        <time>2023-05-07T16:43:08Z</time>
      </trkpt>
      <trkpt lat="47.91585" lon="6.92715">
        <ele>1091</ele>
        <time>2023-05-07T16:43:13Z</time>
      </trkpt>
      <trkpt lat="47.91581" lon="6.92711">
        <ele>1092</ele>
        <time>2023-05-07T16:43:18Z</time>
      </trkpt>
      <trkpt lat="47.91575" lon="6.92713">
        <ele>1094</ele>
        <time>2023-05-07T16:43:26Z</time>
      </trkpt>
      <trkpt lat="47.91571" lon="6.92712">
        <ele>1096</ele>
        <time>2023-05-07T16:43:31Z</time>
      </trkpt>
      <trkpt lat="47.9156" lon="6.92718">
        <ele>1098</ele>
        <time>2023-05-07T16:43:43Z</time>
      </trkpt>
      <trkpt lat="47.91555" lon="6.92719">
        <ele>1099</ele>
        <time>2023-05-07T16:43:48Z</time>
      </trkpt>
      <trkpt lat="47.91551" lon="6.92724">
        <ele>1101</ele>
        <time>2023-05-07T16:43:56Z</time>
      </trkpt>
      <trkpt lat="47.91547" lon="6.92726">
        <ele>1102</ele>
        <time>2023-05-07T16:44:00Z</time>
      </trkpt>
      <trkpt lat="47.9153" lon="6.92726">
        <ele>1105</ele>
        <time>2023-05-07T16:44:18Z</time>
      </trkpt>
      <trkpt lat="47.91496" lon="6.9272">
        <ele>1109</ele>
        <time>2023-05-07T16:44:50Z</time>
      </trkpt>
      <trkpt lat="47.91473" lon="6.92719">
        <ele>1111</ele>
        <time>2023-05-07T16:45:11Z</time>
      </trkpt>
      <trkpt lat="47.91466" lon="6.92716">
        <ele>1112</ele>
        <time>2023-05-07T16:45:17Z</time>
      </trkpt>
      <trkpt lat="47.91451" lon="6.92718">
        <ele>1113</ele>
        <time>2023-05-07T16:45:31Z</time>
      </trkpt>
      <trkpt lat="47.91436" lon="6.92712">
        <ele>1115</ele>
        <time>2023-05-07T16:45:45Z</time>
      </trkpt>
      <trkpt lat="47.91426" lon="6.92714">
        <ele>1116</ele>
        <time>2023-05-07T16:45:54Z</time>
      </trkpt>
      <trkpt lat="47.91412" lon="6.92712">
        <ele>1118</ele>
        <time>2023-05-07T16:46:06Z</time>
      </trkpt>
      <trkpt lat="47.91405" lon="6.92712">
        <ele>1119</ele>
        <time>2023-05-07T16:46:15Z</time>
      </trkpt>
      <trkpt lat="47.91402" lon="6.92707">
        <ele>1120</ele>
        <time>2023-05-07T16:46:19Z</time>
      </trkpt>
      <trkpt lat="47.91397" lon="6.92705">
        <ele>1120</ele>
        <time>2023-05-07T16:46:23Z</time>
      </trkpt>
      <trkpt lat="47.91391" lon="6.92703">
        <ele>1121</ele>
        <time>2023-05-07T16:46:30Z</time>
      </trkpt>
      <trkpt lat="47.91386" lon="6.92704">
        <ele>1123</ele>
        <time>2023-05-07T16:46:37Z</time>
      </trkpt>
      <trkpt lat="47.91382" lon="6.92708">
        <ele>1123</ele>
        <time>2023-05-07T16:46:42Z</time>
      </trkpt>
      <trkpt lat="47.91378" lon="6.92709">
        <ele>1124</ele>
        <time>2023-05-07T16:46:47Z</time>
      </trkpt>
      <trkpt lat="47.91366" lon="6.92705">
        <ele>1127</ele>
        <time>2023-05-07T16:46:58Z</time>
      </trkpt>
      <trkpt lat="47.91359" lon="6.92714">
        <ele>1129</ele>
        <time>2023-05-07T16:47:09Z</time>
      </trkpt>
      <trkpt lat="47.91354" lon="6.92713">
        <ele>1130</ele>
        <time>2023-05-07T16:47:15Z</time>
      </trkpt>
      <trkpt lat="47.91346" lon="6.9271">
        <ele>1134</ele>
        <time>2023-05-07T16:47:28Z</time>
      </trkpt>
      <trkpt lat="47.91343" lon="6.92716">
        <ele>1136</ele>
        <time>2023-05-07T16:47:40Z</time>
      </trkpt>
      <trkpt lat="47.91337" lon="6.92717">
        <ele>1139</ele>
        <time>2023-05-07T16:47:51Z</time>
      </trkpt>
      <trkpt lat="47.91337" lon="6.9271">
        <ele>1140</ele>
        <time>2023-05-07T16:47:56Z</time>
      </trkpt>
      <trkpt lat="47.91335" lon="6.92703">
        <ele>1141</ele>
        <time>2023-05-07T16:48:01Z</time>
      </trkpt>
      <trkpt lat="47.91331" lon="6.92709">
        <ele>1144</ele>
        <time>2023-05-07T16:48:15Z</time>
      </trkpt>
      <trkpt lat="47.91316" lon="6.92727">
        <ele>1147</ele>
        <time>2023-05-07T16:48:33Z</time>
      </trkpt>
      <trkpt lat="47.91315" lon="6.92715">
        <ele>1149</ele>
        <time>2023-05-07T16:48:47Z</time>
      </trkpt>
      <trkpt lat="47.91312" lon="6.92709">
        <ele>1150</ele>
        <time>2023-05-07T16:48:52Z</time>
      </trkpt>
      <trkpt lat="47.91308" lon="6.9271">
        <ele>1151</ele>
        <time>2023-05-07T16:48:58Z</time>
      </trkpt>
      <trkpt lat="47.91301" lon="6.92718">
        <ele>1153</ele>
        <time>2023-05-07T16:49:09Z</time>
      </trkpt>
      <trkpt lat="47.91298" lon="6.92724">
        <ele>1154</ele>
        <time>2023-05-07T16:49:17Z</time>
      </trkpt>
      <trkpt lat="47.91294" lon="6.92719">
        <ele>1155</ele>
        <time>2023-05-07T16:49:22Z</time>
      </trkpt>
      <trkpt lat="47.91283" lon="6.92716">
        <ele>1158</ele>
        <time>2023-05-07T16:49:38Z</time>
      </trkpt>
      <trkpt lat="47.9128" lon="6.92727">
        <ele>1161</ele>
        <time>2023-05-07T16:49:50Z</time>
      </trkpt>
      <trkpt lat="47.91276" lon="6.9273">
        <ele>1162</ele>
        <time>2023-05-07T16:49:55Z</time>
      </trkpt>
      <trkpt lat="47.91268" lon="6.9272">
        <ele>1165</ele>
        <time>2023-05-07T16:50:08Z</time>
      </trkpt>
      <trkpt lat="47.91264" lon="6.92717">
        <ele>1166</ele>
        <time>2023-05-07T16:50:14Z</time>
      </trkpt>
      <trkpt lat="47.91259" lon="6.92719">
        <ele>1167</ele>
        <time>2023-05-07T16:50:20Z</time>
      </trkpt>
      <trkpt lat="47.91258" lon="6.92726">
        <ele>1168</ele>
        <time>2023-05-07T16:50:27Z</time>
      </trkpt>
      <trkpt lat="47.91248" lon="6.92736">
        <ele>1171</ele>
        <time>2023-05-07T16:50:42Z</time>
      </trkpt>
      <trkpt lat="47.91239" lon="6.92739">
        <ele>1173</ele>
        <time>2023-05-07T16:50:51Z</time>
      </trkpt>
      <trkpt lat="47.91226" lon="6.92737">
        <ele>1176</ele>
        <time>2023-05-07T16:51:07Z</time>
      </trkpt>
      <trkpt lat="47.91222" lon="6.9274">
        <ele>1176</ele>
        <time>2023-05-07T16:51:12Z</time>
      </trkpt>
      <trkpt lat="47.91219" lon="6.92746">
        <ele>1177</ele>
        <time>2023-05-07T16:51:16Z</time>
      </trkpt>
      <trkpt lat="47.91209" lon="6.92752">
        <ele>1178</ele>
        <time>2023-05-07T16:51:26Z</time>
      </trkpt>
      <trkpt lat="47.91205" lon="6.92756">
        <ele>1179</ele>
        <time>2023-05-07T16:51:32Z</time>
      </trkpt>
      <trkpt lat="47.91194" lon="6.92764">
        <ele>1181</ele>
        <time>2023-05-07T16:51:47Z</time>
      </trkpt>
      <trkpt lat="47.91184" lon="6.92766">
        <ele>1183</ele>
        <time>2023-05-07T16:51:58Z</time>
      </trkpt>
      <trkpt lat="47.9117" lon="6.92775">
        <ele>1185</ele>
        <time>2023-05-07T16:52:13Z</time>
      </trkpt>
      <trkpt lat="47.9114" lon="6.92801">
        <ele>1191</ele>
        <time>2023-05-07T16:52:49Z</time>
      </trkpt>
      <trkpt lat="47.91133" lon="6.92809">
        <ele>1193</ele>
        <time>2023-05-07T16:52:58Z</time>
      </trkpt>
      <trkpt lat="47.91113" lon="6.92826">
        <ele>1197</ele>
        <time>2023-05-07T16:53:23Z</time>
      </trkpt>
      <trkpt lat="47.91108" lon="6.92827">
        <ele>1198</ele>
        <time>2023-05-07T16:53:29Z</time>
      </trkpt>
      <trkpt lat="47.91105" lon="6.92832">
        <ele>1200</ele>
        <time>2023-05-07T16:53:37Z</time>
      </trkpt>
      <trkpt lat="47.91104" lon="6.9284">
        <ele>1201</ele>
        <time>2023-05-07T16:53:43Z</time>
      </trkpt>
      <trkpt lat="47.91104" lon="6.92847">
        <ele>1203</ele>
        <time>2023-05-07T16:53:55Z</time>
      </trkpt>
      <trkpt lat="47.91095" lon="6.92839">
        <ele>1206</ele>
        <time>2023-05-07T16:54:09Z</time>
      </trkpt>
      <trkpt lat="47.91094" lon="6.92847">
        <ele>1206</ele>
        <time>2023-05-07T16:54:14Z</time>
      </trkpt>
      <trkpt lat="47.91087" lon="6.92869">
        <ele>1210</ele>
        <time>2023-05-07T16:54:33Z</time>
      </trkpt>
      <trkpt lat="47.91077" lon="6.92876">
        <ele>1212</ele>
        <time>2023-05-07T16:54:49Z</time>
      </trkpt>
      <trkpt lat="47.91072" lon="6.92877">
        <ele>1214</ele>
        <time>2023-05-07T16:54:55Z</time>
      </trkpt>
      <trkpt lat="47.91067" lon="6.92876">
        <ele>1214</ele>
        <time>2023-05-07T16:55:02Z</time>
      </trkpt>
      <trkpt lat="47.91049" lon="6.92876">
        <ele>1218</ele>
        <time>2023-05-07T16:55:21Z</time>
      </trkpt>
      <trkpt lat="47.91039" lon="6.92882">
        <ele>1219</ele>
        <time>2023-05-07T16:55:30Z</time>
      </trkpt>
      <trkpt lat="47.91029" lon="6.92884">
        <ele>1220</ele>
        <time>2023-05-07T16:55:39Z</time>
      </trkpt>
      <trkpt lat="47.91025" lon="6.92887">
        <ele>1221</ele>
        <time>2023-05-07T16:55:43Z</time>
      </trkpt>
      <trkpt lat="47.91001" lon="6.92886">
        <ele>1223</ele>
        <time>2023-05-07T16:56:12Z</time>
      </trkpt>
      <trkpt lat="47.90995" lon="6.92888">
        <ele>1223</ele>
        <time>2023-05-07T16:56:20Z</time>
      </trkpt>
      <trkpt lat="47.90989" lon="6.9289">
        <ele>1222</ele>
        <time>2023-05-07T16:56:33Z</time>
      </trkpt>
      <trkpt lat="47.90987" lon="6.92898">
        <ele>1221</ele>
        <time>2023-05-07T16:56:58Z</time>
      </trkpt>
      <trkpt lat="47.9099" lon="6.92903">
        <ele>1221</ele>
        <time>2023-05-07T16:57:04Z</time>
      </trkpt>
      <trkpt lat="47.90996" lon="6.92899">
        <ele>1221</ele>
        <time>2023-05-07T16:57:09Z</time>
      </trkpt>
      <trkpt lat="47.90997" lon="6.92893">
        <ele>1221</ele>
        <time>2023-05-07T16:57:13Z</time>
      </trkpt>
      <trkpt lat="47.90992" lon="6.92893">
        <ele>1222</ele>
        <time>2023-05-07T16:57:19Z</time>
      </trkpt>
      <trkpt lat="47.90988" lon="6.92895">
        <ele>1221</ele>
        <time>2023-05-07T16:57:24Z</time>
      </trkpt>
      <trkpt lat="47.90986" lon="6.92887">
        <ele>1221</ele>
        <time>2023-05-07T16:57:48Z</time>
      </trkpt>
      <trkpt lat="47.90986" lon="6.92876">
        <ele>1221</ele>
        <time>2023-05-07T16:57:56Z</time>
      </trkpt>
      <trkpt lat="47.90993" lon="6.92871">
        <ele>1221</ele>
        <time>2023-05-07T16:58:23Z</time>
      </trkpt>
      <trkpt lat="47.90995" lon="6.92865">
        <ele>1221</ele>
        <time>2023-05-07T16:58:41Z</time>
      </trkpt>
      <trkpt lat="47.90991" lon="6.92868">
        <ele>1221</ele>
        <time>2023-05-07T16:59:07Z</time>
      </trkpt>
    </trkseg>
  </trk>
</gpx>